<?xml version="1.0" encoding="UTF-8" standalone="no" ?>
<gpx xmlns="http://www.topografix.com/GPX/1/1" xmlns:xsi="http://www.w3.org/2001/XMLSchema-instance" xsi:schemaLocation="http://www.topografix.com/GPX/1/1 http://www.topografix.com/GPX/1/1/gpx.xsd" version="1.1" creator="VisuGPX - https://www.visugpx.com">
  <metadata>
    <name>st martin 07 10</name>
    <desc><![CDATA[sortie VTT du 07/10/2012 sur St martin du tertre]]></desc>
  </metadata>
  <trk>
    <name><![CDATA[07/10/2012 14:46]]></name>
    <desc><![CDATA[]]></desc>
    <trkseg>
      <trkpt lat="48.20505" lon="3.27573">
        <ele>65</ele>
        <time>2012-10-07T12:44:25.945Z</time>
      </trkpt>
      <trkpt lat="48.20508" lon="3.27601">
        <ele>65</ele>
        <time>2012-10-07T12:44:27.945Z</time>
      </trkpt>
      <trkpt lat="48.2051" lon="3.27614">
        <ele>65</ele>
        <time>2012-10-07T12:44:28.945Z</time>
      </trkpt>
      <trkpt lat="48.20508" lon="3.27601">
        <ele>65</ele>
        <time>2012-10-07T12:44:31.945Z</time>
      </trkpt>
      <trkpt lat="48.20507" lon="3.2759">
        <ele>65</ele>
        <time>2012-10-07T12:44:33.945Z</time>
      </trkpt>
      <trkpt lat="48.20505" lon="3.27577">
        <ele>65</ele>
        <time>2012-10-07T12:44:35.945Z</time>
      </trkpt>
      <trkpt lat="48.20502" lon="3.27571">
        <ele>65</ele>
        <time>2012-10-07T12:44:36.945Z</time>
      </trkpt>
      <trkpt lat="48.205" lon="3.27558">
        <ele>65</ele>
        <time>2012-10-07T12:44:38.945Z</time>
      </trkpt>
      <trkpt lat="48.20497" lon="3.27545">
        <ele>65</ele>
        <time>2012-10-07T12:44:40.945Z</time>
      </trkpt>
      <trkpt lat="48.20495" lon="3.27532">
        <ele>65</ele>
        <time>2012-10-07T12:44:42.945Z</time>
      </trkpt>
      <trkpt lat="48.20493" lon="3.27519">
        <ele>65</ele>
        <time>2012-10-07T12:44:44.945Z</time>
      </trkpt>
      <trkpt lat="48.2049" lon="3.27506">
        <ele>65</ele>
        <time>2012-10-07T12:44:46.945Z</time>
      </trkpt>
      <trkpt lat="48.20487" lon="3.27493">
        <ele>66</ele>
        <time>2012-10-07T12:44:48.945Z</time>
      </trkpt>
      <trkpt lat="48.20485" lon="3.27487">
        <ele>66</ele>
        <time>2012-10-07T12:44:49.945Z</time>
      </trkpt>
      <trkpt lat="48.20483" lon="3.27472">
        <ele>66</ele>
        <time>2012-10-07T12:44:51.945Z</time>
      </trkpt>
      <trkpt lat="48.20481" lon="3.27466">
        <ele>66</ele>
        <time>2012-10-07T12:44:52.945Z</time>
      </trkpt>
      <trkpt lat="48.20478" lon="3.2745">
        <ele>67</ele>
        <time>2012-10-07T12:44:54.945Z</time>
      </trkpt>
      <trkpt lat="48.20476" lon="3.27438">
        <ele>67</ele>
        <time>2012-10-07T12:44:56.945Z</time>
      </trkpt>
      <trkpt lat="48.20474" lon="3.27429">
        <ele>67</ele>
        <time>2012-10-07T12:44:57.945Z</time>
      </trkpt>
      <trkpt lat="48.20471" lon="3.27414">
        <ele>67</ele>
        <time>2012-10-07T12:44:59.945Z</time>
      </trkpt>
      <trkpt lat="48.2047" lon="3.27405">
        <ele>67</ele>
        <time>2012-10-07T12:45:00.945Z</time>
      </trkpt>
      <trkpt lat="48.20468" lon="3.2739">
        <ele>67</ele>
        <time>2012-10-07T12:45:02.945Z</time>
      </trkpt>
      <trkpt lat="48.20466" lon="3.27384">
        <ele>67</ele>
        <time>2012-10-07T12:45:03.945Z</time>
      </trkpt>
      <trkpt lat="48.20465" lon="3.27375">
        <ele>67</ele>
        <time>2012-10-07T12:45:04.945Z</time>
      </trkpt>
      <trkpt lat="48.20464" lon="3.27367">
        <ele>67</ele>
        <time>2012-10-07T12:45:05.945Z</time>
      </trkpt>
      <trkpt lat="48.20463" lon="3.27358">
        <ele>67</ele>
        <time>2012-10-07T12:45:06.945Z</time>
      </trkpt>
      <trkpt lat="48.20461" lon="3.27352">
        <ele>67</ele>
        <time>2012-10-07T12:45:07.945Z</time>
      </trkpt>
      <trkpt lat="48.2046" lon="3.27343">
        <ele>67</ele>
        <time>2012-10-07T12:45:08.945Z</time>
      </trkpt>
      <trkpt lat="48.20458" lon="3.27335">
        <ele>67</ele>
        <time>2012-10-07T12:45:09.945Z</time>
      </trkpt>
      <trkpt lat="48.20457" lon="3.27326">
        <ele>66</ele>
        <time>2012-10-07T12:45:10.945Z</time>
      </trkpt>
      <trkpt lat="48.20455" lon="3.27317">
        <ele>66</ele>
        <time>2012-10-07T12:45:11.945Z</time>
      </trkpt>
      <trkpt lat="48.20454" lon="3.27309">
        <ele>66</ele>
        <time>2012-10-07T12:45:12.945Z</time>
      </trkpt>
      <trkpt lat="48.20453" lon="3.27298">
        <ele>66</ele>
        <time>2012-10-07T12:45:13.945Z</time>
      </trkpt>
      <trkpt lat="48.20451" lon="3.2729">
        <ele>66</ele>
        <time>2012-10-07T12:45:14.945Z</time>
      </trkpt>
      <trkpt lat="48.2045" lon="3.27279">
        <ele>66</ele>
        <time>2012-10-07T12:45:15.945Z</time>
      </trkpt>
      <trkpt lat="48.20448" lon="3.27268">
        <ele>66</ele>
        <time>2012-10-07T12:45:16.945Z</time>
      </trkpt>
      <trkpt lat="48.20447" lon="3.27257">
        <ele>66</ele>
        <time>2012-10-07T12:45:17.945Z</time>
      </trkpt>
      <trkpt lat="48.20446" lon="3.27247">
        <ele>66</ele>
        <time>2012-10-07T12:45:18.945Z</time>
      </trkpt>
      <trkpt lat="48.20446" lon="3.27234">
        <ele>66</ele>
        <time>2012-10-07T12:45:19.945Z</time>
      </trkpt>
      <trkpt lat="48.20447" lon="3.27223">
        <ele>66</ele>
        <time>2012-10-07T12:45:20.945Z</time>
      </trkpt>
      <trkpt lat="48.20449" lon="3.2721">
        <ele>66</ele>
        <time>2012-10-07T12:45:21.945Z</time>
      </trkpt>
      <trkpt lat="48.20453" lon="3.27199">
        <ele>65</ele>
        <time>2012-10-07T12:45:22.945Z</time>
      </trkpt>
      <trkpt lat="48.20458" lon="3.27191">
        <ele>65</ele>
        <time>2012-10-07T12:45:23.945Z</time>
      </trkpt>
      <trkpt lat="48.20464" lon="3.27182">
        <ele>65</ele>
        <time>2012-10-07T12:45:24.945Z</time>
      </trkpt>
      <trkpt lat="48.20469" lon="3.27176">
        <ele>65</ele>
        <time>2012-10-07T12:45:25.945Z</time>
      </trkpt>
      <trkpt lat="48.20476" lon="3.27172">
        <ele>65</ele>
        <time>2012-10-07T12:45:26.945Z</time>
      </trkpt>
      <trkpt lat="48.20481" lon="3.27165">
        <ele>65</ele>
        <time>2012-10-07T12:45:27.945Z</time>
      </trkpt>
      <trkpt lat="48.20487" lon="3.27161">
        <ele>65</ele>
        <time>2012-10-07T12:45:28.945Z</time>
      </trkpt>
      <trkpt lat="48.20494" lon="3.27159">
        <ele>65</ele>
        <time>2012-10-07T12:45:29.945Z</time>
      </trkpt>
      <trkpt lat="48.205" lon="3.27154">
        <ele>65</ele>
        <time>2012-10-07T12:45:30.945Z</time>
      </trkpt>
      <trkpt lat="48.20506" lon="3.2715">
        <ele>65</ele>
        <time>2012-10-07T12:45:31.945Z</time>
      </trkpt>
      <trkpt lat="48.20512" lon="3.27148">
        <ele>65</ele>
        <time>2012-10-07T12:45:32.945Z</time>
      </trkpt>
      <trkpt lat="48.20519" lon="3.27144">
        <ele>65</ele>
        <time>2012-10-07T12:45:33.945Z</time>
      </trkpt>
      <trkpt lat="48.20524" lon="3.27142">
        <ele>65</ele>
        <time>2012-10-07T12:45:34.945Z</time>
      </trkpt>
      <trkpt lat="48.2053" lon="3.27137">
        <ele>65</ele>
        <time>2012-10-07T12:45:35.945Z</time>
      </trkpt>
      <trkpt lat="48.20536" lon="3.27135">
        <ele>65</ele>
        <time>2012-10-07T12:45:36.945Z</time>
      </trkpt>
      <trkpt lat="48.20542" lon="3.27131">
        <ele>65</ele>
        <time>2012-10-07T12:45:37.945Z</time>
      </trkpt>
      <trkpt lat="48.20548" lon="3.27129">
        <ele>65</ele>
        <time>2012-10-07T12:45:38.945Z</time>
      </trkpt>
      <trkpt lat="48.20554" lon="3.27124">
        <ele>66</ele>
        <time>2012-10-07T12:45:39.945Z</time>
      </trkpt>
      <trkpt lat="48.20559" lon="3.27122">
        <ele>66</ele>
        <time>2012-10-07T12:45:40.945Z</time>
      </trkpt>
      <trkpt lat="48.20565" lon="3.2712">
        <ele>66</ele>
        <time>2012-10-07T12:45:41.945Z</time>
      </trkpt>
      <trkpt lat="48.20571" lon="3.27118">
        <ele>66</ele>
        <time>2012-10-07T12:45:42.945Z</time>
      </trkpt>
      <trkpt lat="48.20576" lon="3.27114">
        <ele>66</ele>
        <time>2012-10-07T12:45:43.945Z</time>
      </trkpt>
      <trkpt lat="48.20582" lon="3.27111">
        <ele>66</ele>
        <time>2012-10-07T12:45:44.945Z</time>
      </trkpt>
      <trkpt lat="48.20587" lon="3.27109">
        <ele>66</ele>
        <time>2012-10-07T12:45:45.945Z</time>
      </trkpt>
      <trkpt lat="48.20593" lon="3.27105">
        <ele>66</ele>
        <time>2012-10-07T12:45:46.945Z</time>
      </trkpt>
      <trkpt lat="48.20598" lon="3.27103">
        <ele>66</ele>
        <time>2012-10-07T12:45:47.945Z</time>
      </trkpt>
      <trkpt lat="48.20603" lon="3.27101">
        <ele>66</ele>
        <time>2012-10-07T12:45:48.945Z</time>
      </trkpt>
      <trkpt lat="48.20609" lon="3.27096">
        <ele>66</ele>
        <time>2012-10-07T12:45:49.945Z</time>
      </trkpt>
      <trkpt lat="48.20614" lon="3.27094">
        <ele>66</ele>
        <time>2012-10-07T12:45:50.945Z</time>
      </trkpt>
      <trkpt lat="48.20619" lon="3.27092">
        <ele>66</ele>
        <time>2012-10-07T12:45:51.945Z</time>
      </trkpt>
      <trkpt lat="48.20625" lon="3.27088">
        <ele>66</ele>
        <time>2012-10-07T12:45:52.945Z</time>
      </trkpt>
      <trkpt lat="48.2063" lon="3.27086">
        <ele>66</ele>
        <time>2012-10-07T12:45:53.945Z</time>
      </trkpt>
      <trkpt lat="48.20636" lon="3.27084">
        <ele>66</ele>
        <time>2012-10-07T12:45:54.945Z</time>
      </trkpt>
      <trkpt lat="48.20642" lon="3.27079">
        <ele>66</ele>
        <time>2012-10-07T12:45:55.945Z</time>
      </trkpt>
      <trkpt lat="48.20647" lon="3.27077">
        <ele>66</ele>
        <time>2012-10-07T12:45:56.945Z</time>
      </trkpt>
      <trkpt lat="48.20653" lon="3.27075">
        <ele>66</ele>
        <time>2012-10-07T12:45:57.945Z</time>
      </trkpt>
      <trkpt lat="48.20658" lon="3.27073">
        <ele>66</ele>
        <time>2012-10-07T12:45:58.945Z</time>
      </trkpt>
      <trkpt lat="48.20663" lon="3.27071">
        <ele>66</ele>
        <time>2012-10-07T12:45:59.945Z</time>
      </trkpt>
      <trkpt lat="48.20668" lon="3.27066">
        <ele>65</ele>
        <time>2012-10-07T12:46:00.945Z</time>
      </trkpt>
      <trkpt lat="48.20673" lon="3.27064">
        <ele>65</ele>
        <time>2012-10-07T12:46:01.945Z</time>
      </trkpt>
      <trkpt lat="48.20678" lon="3.27062">
        <ele>65</ele>
        <time>2012-10-07T12:46:02.945Z</time>
      </trkpt>
      <trkpt lat="48.20683" lon="3.2706">
        <ele>65</ele>
        <time>2012-10-07T12:46:03.945Z</time>
      </trkpt>
      <trkpt lat="48.20688" lon="3.27056">
        <ele>65</ele>
        <time>2012-10-07T12:46:04.945Z</time>
      </trkpt>
      <trkpt lat="48.20692" lon="3.27051">
        <ele>65</ele>
        <time>2012-10-07T12:46:05.945Z</time>
      </trkpt>
      <trkpt lat="48.20699" lon="3.27041">
        <ele>65</ele>
        <time>2012-10-07T12:46:07.945Z</time>
      </trkpt>
      <trkpt lat="48.20701" lon="3.27034">
        <ele>65</ele>
        <time>2012-10-07T12:46:08.945Z</time>
      </trkpt>
      <trkpt lat="48.20703" lon="3.27026">
        <ele>65</ele>
        <time>2012-10-07T12:46:09.945Z</time>
      </trkpt>
      <trkpt lat="48.20704" lon="3.27017">
        <ele>65</ele>
        <time>2012-10-07T12:46:10.945Z</time>
      </trkpt>
      <trkpt lat="48.20703" lon="3.27002">
        <ele>65</ele>
        <time>2012-10-07T12:46:12.945Z</time>
      </trkpt>
      <trkpt lat="48.20702" lon="3.26993">
        <ele>65</ele>
        <time>2012-10-07T12:46:13.945Z</time>
      </trkpt>
      <trkpt lat="48.207" lon="3.26978">
        <ele>65</ele>
        <time>2012-10-07T12:46:15.945Z</time>
      </trkpt>
      <trkpt lat="48.20699" lon="3.2697">
        <ele>65</ele>
        <time>2012-10-07T12:46:16.945Z</time>
      </trkpt>
      <trkpt lat="48.20698" lon="3.26961">
        <ele>65</ele>
        <time>2012-10-07T12:46:17.945Z</time>
      </trkpt>
      <trkpt lat="48.20696" lon="3.26955">
        <ele>65</ele>
        <time>2012-10-07T12:46:18.945Z</time>
      </trkpt>
      <trkpt lat="48.20694" lon="3.26946">
        <ele>65</ele>
        <time>2012-10-07T12:46:19.945Z</time>
      </trkpt>
      <trkpt lat="48.20692" lon="3.26938">
        <ele>64</ele>
        <time>2012-10-07T12:46:20.945Z</time>
      </trkpt>
      <trkpt lat="48.20691" lon="3.26929">
        <ele>64</ele>
        <time>2012-10-07T12:46:21.945Z</time>
      </trkpt>
      <trkpt lat="48.20689" lon="3.26923">
        <ele>64</ele>
        <time>2012-10-07T12:46:22.945Z</time>
      </trkpt>
      <trkpt lat="48.20688" lon="3.26914">
        <ele>64</ele>
        <time>2012-10-07T12:46:23.945Z</time>
      </trkpt>
      <trkpt lat="48.20686" lon="3.26905">
        <ele>64</ele>
        <time>2012-10-07T12:46:24.945Z</time>
      </trkpt>
      <trkpt lat="48.20685" lon="3.26897">
        <ele>64</ele>
        <time>2012-10-07T12:46:25.945Z</time>
      </trkpt>
      <trkpt lat="48.20683" lon="3.26888">
        <ele>65</ele>
        <time>2012-10-07T12:46:26.945Z</time>
      </trkpt>
      <trkpt lat="48.20682" lon="3.2688">
        <ele>65</ele>
        <time>2012-10-07T12:46:27.945Z</time>
      </trkpt>
      <trkpt lat="48.2068" lon="3.26871">
        <ele>65</ele>
        <time>2012-10-07T12:46:28.945Z</time>
      </trkpt>
      <trkpt lat="48.20678" lon="3.26862">
        <ele>64</ele>
        <time>2012-10-07T12:46:29.945Z</time>
      </trkpt>
      <trkpt lat="48.20676" lon="3.26854">
        <ele>64</ele>
        <time>2012-10-07T12:46:30.945Z</time>
      </trkpt>
      <trkpt lat="48.20675" lon="3.26843">
        <ele>64</ele>
        <time>2012-10-07T12:46:31.945Z</time>
      </trkpt>
      <trkpt lat="48.20673" lon="3.26835">
        <ele>64</ele>
        <time>2012-10-07T12:46:32.945Z</time>
      </trkpt>
      <trkpt lat="48.20672" lon="3.26826">
        <ele>64</ele>
        <time>2012-10-07T12:46:33.945Z</time>
      </trkpt>
      <trkpt lat="48.20671" lon="3.26818">
        <ele>64</ele>
        <time>2012-10-07T12:46:34.945Z</time>
      </trkpt>
      <trkpt lat="48.20669" lon="3.26809">
        <ele>65</ele>
        <time>2012-10-07T12:46:35.945Z</time>
      </trkpt>
      <trkpt lat="48.20668" lon="3.268">
        <ele>65</ele>
        <time>2012-10-07T12:46:36.945Z</time>
      </trkpt>
      <trkpt lat="48.20666" lon="3.26792">
        <ele>64</ele>
        <time>2012-10-07T12:46:37.945Z</time>
      </trkpt>
      <trkpt lat="48.20664" lon="3.26783">
        <ele>65</ele>
        <time>2012-10-07T12:46:38.945Z</time>
      </trkpt>
      <trkpt lat="48.20663" lon="3.26774">
        <ele>65</ele>
        <time>2012-10-07T12:46:39.945Z</time>
      </trkpt>
      <trkpt lat="48.20661" lon="3.26766">
        <ele>65</ele>
        <time>2012-10-07T12:46:40.945Z</time>
      </trkpt>
      <trkpt lat="48.2066" lon="3.26757">
        <ele>65</ele>
        <time>2012-10-07T12:46:41.945Z</time>
      </trkpt>
      <trkpt lat="48.20658" lon="3.26749">
        <ele>65</ele>
        <time>2012-10-07T12:46:42.945Z</time>
      </trkpt>
      <trkpt lat="48.20655" lon="3.26734">
        <ele>65</ele>
        <time>2012-10-07T12:46:44.945Z</time>
      </trkpt>
      <trkpt lat="48.20654" lon="3.26725">
        <ele>65</ele>
        <time>2012-10-07T12:46:45.945Z</time>
      </trkpt>
      <trkpt lat="48.20652" lon="3.26719">
        <ele>65</ele>
        <time>2012-10-07T12:46:46.945Z</time>
      </trkpt>
      <trkpt lat="48.2065" lon="3.2671">
        <ele>65</ele>
        <time>2012-10-07T12:46:47.945Z</time>
      </trkpt>
      <trkpt lat="48.20648" lon="3.26704">
        <ele>65</ele>
        <time>2012-10-07T12:46:48.945Z</time>
      </trkpt>
      <trkpt lat="48.20646" lon="3.26695">
        <ele>65</ele>
        <time>2012-10-07T12:46:49.945Z</time>
      </trkpt>
      <trkpt lat="48.20644" lon="3.26689">
        <ele>65</ele>
        <time>2012-10-07T12:46:50.945Z</time>
      </trkpt>
      <trkpt lat="48.20642" lon="3.26682">
        <ele>65</ele>
        <time>2012-10-07T12:46:51.945Z</time>
      </trkpt>
      <trkpt lat="48.2064" lon="3.26676">
        <ele>65</ele>
        <time>2012-10-07T12:46:52.945Z</time>
      </trkpt>
      <trkpt lat="48.20637" lon="3.26669">
        <ele>65</ele>
        <time>2012-10-07T12:46:53.945Z</time>
      </trkpt>
      <trkpt lat="48.20634" lon="3.26663">
        <ele>66</ele>
        <time>2012-10-07T12:46:54.945Z</time>
      </trkpt>
      <trkpt lat="48.20632" lon="3.26656">
        <ele>66</ele>
        <time>2012-10-07T12:46:55.945Z</time>
      </trkpt>
      <trkpt lat="48.2063" lon="3.2665">
        <ele>66</ele>
        <time>2012-10-07T12:46:56.945Z</time>
      </trkpt>
      <trkpt lat="48.20627" lon="3.26644">
        <ele>66</ele>
        <time>2012-10-07T12:46:57.945Z</time>
      </trkpt>
      <trkpt lat="48.20625" lon="3.26637">
        <ele>66</ele>
        <time>2012-10-07T12:46:58.945Z</time>
      </trkpt>
      <trkpt lat="48.20619" lon="3.26626">
        <ele>67</ele>
        <time>2012-10-07T12:47:00.945Z</time>
      </trkpt>
      <trkpt lat="48.20615" lon="3.26616">
        <ele>67</ele>
        <time>2012-10-07T12:47:02.945Z</time>
      </trkpt>
      <trkpt lat="48.20612" lon="3.26609">
        <ele>67</ele>
        <time>2012-10-07T12:47:03.945Z</time>
      </trkpt>
      <trkpt lat="48.20606" lon="3.26599">
        <ele>67</ele>
        <time>2012-10-07T12:47:05.945Z</time>
      </trkpt>
      <trkpt lat="48.206" lon="3.26588">
        <ele>68</ele>
        <time>2012-10-07T12:47:07.945Z</time>
      </trkpt>
      <trkpt lat="48.20594" lon="3.26577">
        <ele>69</ele>
        <time>2012-10-07T12:47:09.945Z</time>
      </trkpt>
      <trkpt lat="48.20587" lon="3.26566">
        <ele>70</ele>
        <time>2012-10-07T12:47:11.945Z</time>
      </trkpt>
      <trkpt lat="48.20581" lon="3.26556">
        <ele>70</ele>
        <time>2012-10-07T12:47:13.945Z</time>
      </trkpt>
      <trkpt lat="48.20576" lon="3.26551">
        <ele>70</ele>
        <time>2012-10-07T12:47:14.945Z</time>
      </trkpt>
      <trkpt lat="48.20573" lon="3.26545">
        <ele>70</ele>
        <time>2012-10-07T12:47:15.945Z</time>
      </trkpt>
      <trkpt lat="48.20569" lon="3.26541">
        <ele>70</ele>
        <time>2012-10-07T12:47:16.945Z</time>
      </trkpt>
      <trkpt lat="48.20562" lon="3.26532">
        <ele>70</ele>
        <time>2012-10-07T12:47:18.945Z</time>
      </trkpt>
      <trkpt lat="48.20557" lon="3.26526">
        <ele>70</ele>
        <time>2012-10-07T12:47:19.945Z</time>
      </trkpt>
      <trkpt lat="48.20553" lon="3.26521">
        <ele>70</ele>
        <time>2012-10-07T12:47:20.945Z</time>
      </trkpt>
      <trkpt lat="48.20545" lon="3.26513">
        <ele>70</ele>
        <time>2012-10-07T12:47:22.945Z</time>
      </trkpt>
      <trkpt lat="48.20541" lon="3.26508">
        <ele>70</ele>
        <time>2012-10-07T12:47:23.945Z</time>
      </trkpt>
      <trkpt lat="48.20537" lon="3.26502">
        <ele>70</ele>
        <time>2012-10-07T12:47:24.945Z</time>
      </trkpt>
      <trkpt lat="48.20531" lon="3.26498">
        <ele>74</ele>
        <time>2012-10-07T12:47:25.945Z</time>
      </trkpt>
      <trkpt lat="48.20527" lon="3.26494">
        <ele>74</ele>
        <time>2012-10-07T12:47:26.945Z</time>
      </trkpt>
      <trkpt lat="48.20523" lon="3.26489">
        <ele>74</ele>
        <time>2012-10-07T12:47:27.945Z</time>
      </trkpt>
      <trkpt lat="48.20518" lon="3.26485">
        <ele>74</ele>
        <time>2012-10-07T12:47:28.945Z</time>
      </trkpt>
      <trkpt lat="48.20513" lon="3.26481">
        <ele>74</ele>
        <time>2012-10-07T12:47:29.945Z</time>
      </trkpt>
      <trkpt lat="48.20508" lon="3.26474">
        <ele>75</ele>
        <time>2012-10-07T12:47:30.945Z</time>
      </trkpt>
      <trkpt lat="48.20502" lon="3.2647">
        <ele>75</ele>
        <time>2012-10-07T12:47:31.945Z</time>
      </trkpt>
      <trkpt lat="48.20497" lon="3.26468">
        <ele>74</ele>
        <time>2012-10-07T12:47:32.945Z</time>
      </trkpt>
      <trkpt lat="48.20492" lon="3.26463">
        <ele>74</ele>
        <time>2012-10-07T12:47:33.945Z</time>
      </trkpt>
      <trkpt lat="48.20486" lon="3.26459">
        <ele>74</ele>
        <time>2012-10-07T12:47:34.945Z</time>
      </trkpt>
      <trkpt lat="48.20481" lon="3.26457">
        <ele>74</ele>
        <time>2012-10-07T12:47:35.945Z</time>
      </trkpt>
      <trkpt lat="48.20476" lon="3.26453">
        <ele>75</ele>
        <time>2012-10-07T12:47:36.945Z</time>
      </trkpt>
      <trkpt lat="48.2047" lon="3.2645">
        <ele>75</ele>
        <time>2012-10-07T12:47:37.945Z</time>
      </trkpt>
      <trkpt lat="48.20465" lon="3.26448">
        <ele>75</ele>
        <time>2012-10-07T12:47:38.945Z</time>
      </trkpt>
      <trkpt lat="48.2046" lon="3.26446">
        <ele>75</ele>
        <time>2012-10-07T12:47:39.945Z</time>
      </trkpt>
      <trkpt lat="48.20454" lon="3.26444">
        <ele>75</ele>
        <time>2012-10-07T12:47:40.945Z</time>
      </trkpt>
      <trkpt lat="48.20449" lon="3.26442">
        <ele>75</ele>
        <time>2012-10-07T12:47:41.945Z</time>
      </trkpt>
      <trkpt lat="48.20442" lon="3.2644">
        <ele>75</ele>
        <time>2012-10-07T12:47:42.945Z</time>
      </trkpt>
      <trkpt lat="48.20437" lon="3.26438">
        <ele>75</ele>
        <time>2012-10-07T12:47:43.945Z</time>
      </trkpt>
      <trkpt lat="48.20432" lon="3.26436">
        <ele>75</ele>
        <time>2012-10-07T12:47:44.945Z</time>
      </trkpt>
      <trkpt lat="48.20426" lon="3.26433">
        <ele>75</ele>
        <time>2012-10-07T12:47:45.945Z</time>
      </trkpt>
      <trkpt lat="48.20421" lon="3.26431">
        <ele>76</ele>
        <time>2012-10-07T12:47:46.945Z</time>
      </trkpt>
      <trkpt lat="48.20416" lon="3.26429">
        <ele>75</ele>
        <time>2012-10-07T12:47:47.945Z</time>
      </trkpt>
      <trkpt lat="48.2041" lon="3.26427">
        <ele>75</ele>
        <time>2012-10-07T12:47:48.945Z</time>
      </trkpt>
      <trkpt lat="48.20404" lon="3.26425">
        <ele>75</ele>
        <time>2012-10-07T12:47:49.945Z</time>
      </trkpt>
      <trkpt lat="48.20398" lon="3.26423">
        <ele>74</ele>
        <time>2012-10-07T12:47:50.945Z</time>
      </trkpt>
      <trkpt lat="48.20393" lon="3.26423">
        <ele>74</ele>
        <time>2012-10-07T12:47:51.945Z</time>
      </trkpt>
      <trkpt lat="48.20388" lon="3.2642">
        <ele>74</ele>
        <time>2012-10-07T12:47:52.945Z</time>
      </trkpt>
      <trkpt lat="48.20382" lon="3.26418">
        <ele>73</ele>
        <time>2012-10-07T12:47:53.945Z</time>
      </trkpt>
      <trkpt lat="48.20373" lon="3.26416">
        <ele>78</ele>
        <time>2012-10-07T12:47:55.945Z</time>
      </trkpt>
      <trkpt lat="48.20368" lon="3.26414">
        <ele>78</ele>
        <time>2012-10-07T12:47:56.945Z</time>
      </trkpt>
      <trkpt lat="48.20364" lon="3.26412">
        <ele>78</ele>
        <time>2012-10-07T12:47:57.945Z</time>
      </trkpt>
      <trkpt lat="48.2036" lon="3.26406">
        <ele>78</ele>
        <time>2012-10-07T12:47:59.945Z</time>
      </trkpt>
      <trkpt lat="48.20362" lon="3.26399">
        <ele>79</ele>
        <time>2012-10-07T12:48:02.945Z</time>
      </trkpt>
      <trkpt lat="48.20367" lon="3.26399">
        <ele>79</ele>
        <time>2012-10-07T12:48:05.945Z</time>
      </trkpt>
      <trkpt lat="48.20373" lon="3.26399">
        <ele>79</ele>
        <time>2012-10-07T12:48:08.945Z</time>
      </trkpt>
      <trkpt lat="48.20379" lon="3.26397">
        <ele>79</ele>
        <time>2012-10-07T12:48:11.945Z</time>
      </trkpt>
      <trkpt lat="48.20384" lon="3.26397">
        <ele>80</ele>
        <time>2012-10-07T12:48:13.945Z</time>
      </trkpt>
      <trkpt lat="48.2039" lon="3.26399">
        <ele>79</ele>
        <time>2012-10-07T12:48:15.945Z</time>
      </trkpt>
      <trkpt lat="48.20395" lon="3.26399">
        <ele>79</ele>
        <time>2012-10-07T12:48:17.945Z</time>
      </trkpt>
      <trkpt lat="48.204" lon="3.26399">
        <ele>79</ele>
        <time>2012-10-07T12:48:19.945Z</time>
      </trkpt>
      <trkpt lat="48.20407" lon="3.26399">
        <ele>79</ele>
        <time>2012-10-07T12:48:21.945Z</time>
      </trkpt>
      <trkpt lat="48.20412" lon="3.26401">
        <ele>79</ele>
        <time>2012-10-07T12:48:23.945Z</time>
      </trkpt>
      <trkpt lat="48.20418" lon="3.26401">
        <ele>81</ele>
        <time>2012-10-07T12:48:25.945Z</time>
      </trkpt>
      <trkpt lat="48.20424" lon="3.26403">
        <ele>81</ele>
        <time>2012-10-07T12:48:27.945Z</time>
      </trkpt>
      <trkpt lat="48.2043" lon="3.26403">
        <ele>81</ele>
        <time>2012-10-07T12:48:29.945Z</time>
      </trkpt>
      <trkpt lat="48.20435" lon="3.26406">
        <ele>81</ele>
        <time>2012-10-07T12:48:31.945Z</time>
      </trkpt>
      <trkpt lat="48.20441" lon="3.26408">
        <ele>82</ele>
        <time>2012-10-07T12:48:33.945Z</time>
      </trkpt>
      <trkpt lat="48.20447" lon="3.26408">
        <ele>82</ele>
        <time>2012-10-07T12:48:35.945Z</time>
      </trkpt>
      <trkpt lat="48.20452" lon="3.26408">
        <ele>82</ele>
        <time>2012-10-07T12:48:37.945Z</time>
      </trkpt>
      <trkpt lat="48.20458" lon="3.2641">
        <ele>83</ele>
        <time>2012-10-07T12:48:39.945Z</time>
      </trkpt>
      <trkpt lat="48.20464" lon="3.2641">
        <ele>83</ele>
        <time>2012-10-07T12:48:41.945Z</time>
      </trkpt>
      <trkpt lat="48.2047" lon="3.26412">
        <ele>83</ele>
        <time>2012-10-07T12:48:43.945Z</time>
      </trkpt>
      <trkpt lat="48.20477" lon="3.26414">
        <ele>82</ele>
        <time>2012-10-07T12:48:45.945Z</time>
      </trkpt>
      <trkpt lat="48.20482" lon="3.26418">
        <ele>77</ele>
        <time>2012-10-07T12:48:47.945Z</time>
      </trkpt>
      <trkpt lat="48.20487" lon="3.2642">
        <ele>78</ele>
        <time>2012-10-07T12:48:49.945Z</time>
      </trkpt>
      <trkpt lat="48.20494" lon="3.26425">
        <ele>78</ele>
        <time>2012-10-07T12:48:51.945Z</time>
      </trkpt>
      <trkpt lat="48.20499" lon="3.26427">
        <ele>78</ele>
        <time>2012-10-07T12:48:53.945Z</time>
      </trkpt>
      <trkpt lat="48.20505" lon="3.26431">
        <ele>79</ele>
        <time>2012-10-07T12:48:55.945Z</time>
      </trkpt>
      <trkpt lat="48.20511" lon="3.26433">
        <ele>78</ele>
        <time>2012-10-07T12:48:57.945Z</time>
      </trkpt>
      <trkpt lat="48.20518" lon="3.2644">
        <ele>78</ele>
        <time>2012-10-07T12:48:59.945Z</time>
      </trkpt>
      <trkpt lat="48.20522" lon="3.26442">
        <ele>78</ele>
        <time>2012-10-07T12:49:00.945Z</time>
      </trkpt>
      <trkpt lat="48.20527" lon="3.26446">
        <ele>77</ele>
        <time>2012-10-07T12:49:01.945Z</time>
      </trkpt>
      <trkpt lat="48.20532" lon="3.26453">
        <ele>77</ele>
        <time>2012-10-07T12:49:02.945Z</time>
      </trkpt>
      <trkpt lat="48.20538" lon="3.26457">
        <ele>77</ele>
        <time>2012-10-07T12:49:03.945Z</time>
      </trkpt>
      <trkpt lat="48.20544" lon="3.26461">
        <ele>77</ele>
        <time>2012-10-07T12:49:04.945Z</time>
      </trkpt>
      <trkpt lat="48.2055" lon="3.26463">
        <ele>77</ele>
        <time>2012-10-07T12:49:05.945Z</time>
      </trkpt>
      <trkpt lat="48.20555" lon="3.26466">
        <ele>77</ele>
        <time>2012-10-07T12:49:06.945Z</time>
      </trkpt>
      <trkpt lat="48.20559" lon="3.26468">
        <ele>77</ele>
        <time>2012-10-07T12:49:07.945Z</time>
      </trkpt>
      <trkpt lat="48.20564" lon="3.2647">
        <ele>77</ele>
        <time>2012-10-07T12:49:08.945Z</time>
      </trkpt>
      <trkpt lat="48.20571" lon="3.26472">
        <ele>76</ele>
        <time>2012-10-07T12:49:10.945Z</time>
      </trkpt>
      <trkpt lat="48.20578" lon="3.26472">
        <ele>76</ele>
        <time>2012-10-07T12:49:12.945Z</time>
      </trkpt>
      <trkpt lat="48.20584" lon="3.26472">
        <ele>78</ele>
        <time>2012-10-07T12:49:14.945Z</time>
      </trkpt>
      <trkpt lat="48.2059" lon="3.26474">
        <ele>78</ele>
        <time>2012-10-07T12:49:16.945Z</time>
      </trkpt>
      <trkpt lat="48.20599" lon="3.2647">
        <ele>79</ele>
        <time>2012-10-07T12:49:20.945Z</time>
      </trkpt>
      <trkpt lat="48.20599" lon="3.2647">
        <ele>79</ele>
        <time>2012-10-07T12:49:20.945Z</time>
      </trkpt>
      <trkpt lat="48.20599" lon="3.2647">
        <ele>79</ele>
        <time>2012-10-07T12:49:21.945Z</time>
      </trkpt>
      <trkpt lat="48.20604" lon="3.26466">
        <ele>79</ele>
        <time>2012-10-07T12:49:23.945Z</time>
      </trkpt>
      <trkpt lat="48.20604" lon="3.26466">
        <ele>79</ele>
        <time>2012-10-07T12:49:23.945Z</time>
      </trkpt>
      <trkpt lat="48.20604" lon="3.26466">
        <ele>79</ele>
        <time>2012-10-07T12:49:27.945Z</time>
      </trkpt>
      <trkpt lat="48.20613" lon="3.26461">
        <ele>80</ele>
        <time>2012-10-07T12:49:28.945Z</time>
      </trkpt>
      <trkpt lat="48.20613" lon="3.26461">
        <ele>80</ele>
        <time>2012-10-07T12:49:28.945Z</time>
      </trkpt>
      <trkpt lat="48.20613" lon="3.26461">
        <ele>80</ele>
        <time>2012-10-07T12:49:30.945Z</time>
      </trkpt>
      <trkpt lat="48.20618" lon="3.26459">
        <ele>80</ele>
        <time>2012-10-07T12:49:31.945Z</time>
      </trkpt>
      <trkpt lat="48.20625" lon="3.26457">
        <ele>80</ele>
        <time>2012-10-07T12:49:34.945Z</time>
      </trkpt>
      <trkpt lat="48.20633" lon="3.26455">
        <ele>81</ele>
        <time>2012-10-07T12:49:38.945Z</time>
      </trkpt>
      <trkpt lat="48.20633" lon="3.26455">
        <ele>81</ele>
        <time>2012-10-07T12:49:38.945Z</time>
      </trkpt>
      <trkpt lat="48.20633" lon="3.26455">
        <ele>81</ele>
        <time>2012-10-07T12:49:40.945Z</time>
      </trkpt>
      <trkpt lat="48.2064" lon="3.26455">
        <ele>81</ele>
        <time>2012-10-07T12:49:41.945Z</time>
      </trkpt>
      <trkpt lat="48.2064" lon="3.26455">
        <ele>81</ele>
        <time>2012-10-07T12:49:41.945Z</time>
      </trkpt>
      <trkpt lat="48.2064" lon="3.26455">
        <ele>81</ele>
        <time>2012-10-07T12:49:43.945Z</time>
      </trkpt>
      <trkpt lat="48.20645" lon="3.26453">
        <ele>81</ele>
        <time>2012-10-07T12:49:44.945Z</time>
      </trkpt>
      <trkpt lat="48.20645" lon="3.26453">
        <ele>81</ele>
        <time>2012-10-07T12:49:44.945Z</time>
      </trkpt>
      <trkpt lat="48.20645" lon="3.26453">
        <ele>81</ele>
        <time>2012-10-07T12:49:45.945Z</time>
      </trkpt>
      <trkpt lat="48.2065" lon="3.2645">
        <ele>82</ele>
        <time>2012-10-07T12:49:47.945Z</time>
      </trkpt>
      <trkpt lat="48.2065" lon="3.2645">
        <ele>82</ele>
        <time>2012-10-07T12:49:47.945Z</time>
      </trkpt>
      <trkpt lat="48.2065" lon="3.2645">
        <ele>82</ele>
        <time>2012-10-07T12:49:49.945Z</time>
      </trkpt>
      <trkpt lat="48.20655" lon="3.26446">
        <ele>82</ele>
        <time>2012-10-07T12:49:50.945Z</time>
      </trkpt>
      <trkpt lat="48.20655" lon="3.26446">
        <ele>82</ele>
        <time>2012-10-07T12:49:50.945Z</time>
      </trkpt>
      <trkpt lat="48.20655" lon="3.26446">
        <ele>82</ele>
        <time>2012-10-07T12:49:53.945Z</time>
      </trkpt>
      <trkpt lat="48.20661" lon="3.26444">
        <ele>83</ele>
        <time>2012-10-07T12:49:54.945Z</time>
      </trkpt>
      <trkpt lat="48.20661" lon="3.26444">
        <ele>83</ele>
        <time>2012-10-07T12:49:54.945Z</time>
      </trkpt>
      <trkpt lat="48.20661" lon="3.26444">
        <ele>83</ele>
        <time>2012-10-07T12:49:57.945Z</time>
      </trkpt>
      <trkpt lat="48.2067" lon="3.2644">
        <ele>83</ele>
        <time>2012-10-07T12:49:58.945Z</time>
      </trkpt>
      <trkpt lat="48.2067" lon="3.2644">
        <ele>83</ele>
        <time>2012-10-07T12:49:58.945Z</time>
      </trkpt>
      <trkpt lat="48.2067" lon="3.2644">
        <ele>83</ele>
        <time>2012-10-07T12:49:59.945Z</time>
      </trkpt>
      <trkpt lat="48.20674" lon="3.26438">
        <ele>84</ele>
        <time>2012-10-07T12:50:00.945Z</time>
      </trkpt>
      <trkpt lat="48.20682" lon="3.26431">
        <ele>84</ele>
        <time>2012-10-07T12:50:04.945Z</time>
      </trkpt>
      <trkpt lat="48.20691" lon="3.26425">
        <ele>84</ele>
        <time>2012-10-07T12:50:09.945Z</time>
      </trkpt>
      <trkpt lat="48.20702" lon="3.26418">
        <ele>83</ele>
        <time>2012-10-07T12:50:15.945Z</time>
      </trkpt>
      <trkpt lat="48.20702" lon="3.26418">
        <ele>83</ele>
        <time>2012-10-07T12:50:15.945Z</time>
      </trkpt>
      <trkpt lat="48.20702" lon="3.26418">
        <ele>83</ele>
        <time>2012-10-07T12:50:17.945Z</time>
      </trkpt>
      <trkpt lat="48.20707" lon="3.26416">
        <ele>93</ele>
        <time>2012-10-07T12:50:18.945Z</time>
      </trkpt>
      <trkpt lat="48.20707" lon="3.26416">
        <ele>93</ele>
        <time>2012-10-07T12:50:18.945Z</time>
      </trkpt>
      <trkpt lat="48.20707" lon="3.26416">
        <ele>93</ele>
        <time>2012-10-07T12:50:20.945Z</time>
      </trkpt>
      <trkpt lat="48.20714" lon="3.26414">
        <ele>93</ele>
        <time>2012-10-07T12:50:21.945Z</time>
      </trkpt>
      <trkpt lat="48.20719" lon="3.26412">
        <ele>93</ele>
        <time>2012-10-07T12:50:24.945Z</time>
      </trkpt>
      <trkpt lat="48.20727" lon="3.26412">
        <ele>92</ele>
        <time>2012-10-07T12:50:28.945Z</time>
      </trkpt>
      <trkpt lat="48.20733" lon="3.2641">
        <ele>91</ele>
        <time>2012-10-07T12:50:31.945Z</time>
      </trkpt>
      <trkpt lat="48.2074" lon="3.2641">
        <ele>90</ele>
        <time>2012-10-07T12:50:34.945Z</time>
      </trkpt>
      <trkpt lat="48.20745" lon="3.26408">
        <ele>89</ele>
        <time>2012-10-07T12:50:37.945Z</time>
      </trkpt>
      <trkpt lat="48.20751" lon="3.26408">
        <ele>88</ele>
        <time>2012-10-07T12:50:40.945Z</time>
      </trkpt>
      <trkpt lat="48.20757" lon="3.26406">
        <ele>89</ele>
        <time>2012-10-07T12:50:43.945Z</time>
      </trkpt>
      <trkpt lat="48.20766" lon="3.26403">
        <ele>90</ele>
        <time>2012-10-07T12:50:48.945Z</time>
      </trkpt>
      <trkpt lat="48.20766" lon="3.26403">
        <ele>90</ele>
        <time>2012-10-07T12:50:48.945Z</time>
      </trkpt>
      <trkpt lat="48.20766" lon="3.26403">
        <ele>90</ele>
        <time>2012-10-07T12:50:50.945Z</time>
      </trkpt>
      <trkpt lat="48.20772" lon="3.26401">
        <ele>91</ele>
        <time>2012-10-07T12:50:51.945Z</time>
      </trkpt>
      <trkpt lat="48.20772" lon="3.26401">
        <ele>91</ele>
        <time>2012-10-07T12:50:51.945Z</time>
      </trkpt>
      <trkpt lat="48.20772" lon="3.26401">
        <ele>91</ele>
        <time>2012-10-07T12:50:52.945Z</time>
      </trkpt>
      <trkpt lat="48.20776" lon="3.26399">
        <ele>91</ele>
        <time>2012-10-07T12:50:53.945Z</time>
      </trkpt>
      <trkpt lat="48.20782" lon="3.26397">
        <ele>92</ele>
        <time>2012-10-07T12:50:56.945Z</time>
      </trkpt>
      <trkpt lat="48.20789" lon="3.26397">
        <ele>92</ele>
        <time>2012-10-07T12:50:59.945Z</time>
      </trkpt>
      <trkpt lat="48.20795" lon="3.26397">
        <ele>92</ele>
        <time>2012-10-07T12:51:02.945Z</time>
      </trkpt>
      <trkpt lat="48.20795" lon="3.26397">
        <ele>92</ele>
        <time>2012-10-07T12:51:02.945Z</time>
      </trkpt>
      <trkpt lat="48.20795" lon="3.26397">
        <ele>92</ele>
        <time>2012-10-07T12:51:03.945Z</time>
      </trkpt>
      <trkpt lat="48.20802" lon="3.26397">
        <ele>91</ele>
        <time>2012-10-07T12:51:05.945Z</time>
      </trkpt>
      <trkpt lat="48.20807" lon="3.26397">
        <ele>91</ele>
        <time>2012-10-07T12:51:07.945Z</time>
      </trkpt>
      <trkpt lat="48.20807" lon="3.26397">
        <ele>91</ele>
        <time>2012-10-07T12:51:07.945Z</time>
      </trkpt>
      <trkpt lat="48.20807" lon="3.26397">
        <ele>91</ele>
        <time>2012-10-07T12:51:08.945Z</time>
      </trkpt>
      <trkpt lat="48.20814" lon="3.26397">
        <ele>91</ele>
        <time>2012-10-07T12:51:10.945Z</time>
      </trkpt>
      <trkpt lat="48.20814" lon="3.26397">
        <ele>91</ele>
        <time>2012-10-07T12:51:10.945Z</time>
      </trkpt>
      <trkpt lat="48.20814" lon="3.26397">
        <ele>91</ele>
        <time>2012-10-07T12:51:11.945Z</time>
      </trkpt>
      <trkpt lat="48.2082" lon="3.26397">
        <ele>90</ele>
        <time>2012-10-07T12:51:13.945Z</time>
      </trkpt>
      <trkpt lat="48.2082" lon="3.26397">
        <ele>90</ele>
        <time>2012-10-07T12:51:13.945Z</time>
      </trkpt>
      <trkpt lat="48.2082" lon="3.26397">
        <ele>90</ele>
        <time>2012-10-07T12:51:16.945Z</time>
      </trkpt>
      <trkpt lat="48.20828" lon="3.26395">
        <ele>90</ele>
        <time>2012-10-07T12:51:17.945Z</time>
      </trkpt>
      <trkpt lat="48.20832" lon="3.26393">
        <ele>90</ele>
        <time>2012-10-07T12:51:19.945Z</time>
      </trkpt>
      <trkpt lat="48.2084" lon="3.26388">
        <ele>90</ele>
        <time>2012-10-07T12:51:23.945Z</time>
      </trkpt>
      <trkpt lat="48.2084" lon="3.26388">
        <ele>90</ele>
        <time>2012-10-07T12:51:23.945Z</time>
      </trkpt>
      <trkpt lat="48.2084" lon="3.26388">
        <ele>90</ele>
        <time>2012-10-07T12:51:24.945Z</time>
      </trkpt>
      <trkpt lat="48.20845" lon="3.26386">
        <ele>90</ele>
        <time>2012-10-07T12:51:25.945Z</time>
      </trkpt>
      <trkpt lat="48.20849" lon="3.26382">
        <ele>91</ele>
        <time>2012-10-07T12:51:27.945Z</time>
      </trkpt>
      <trkpt lat="48.20853" lon="3.2638">
        <ele>91</ele>
        <time>2012-10-07T12:51:29.945Z</time>
      </trkpt>
      <trkpt lat="48.20858" lon="3.26378">
        <ele>91</ele>
        <time>2012-10-07T12:51:31.945Z</time>
      </trkpt>
      <trkpt lat="48.20862" lon="3.26375">
        <ele>92</ele>
        <time>2012-10-07T12:51:33.945Z</time>
      </trkpt>
      <trkpt lat="48.20866" lon="3.26373">
        <ele>92</ele>
        <time>2012-10-07T12:51:35.945Z</time>
      </trkpt>
      <trkpt lat="48.20872" lon="3.26369">
        <ele>92</ele>
        <time>2012-10-07T12:51:38.945Z</time>
      </trkpt>
      <trkpt lat="48.20876" lon="3.26367">
        <ele>92</ele>
        <time>2012-10-07T12:51:40.945Z</time>
      </trkpt>
      <trkpt lat="48.20888" lon="3.26363">
        <ele>92</ele>
        <time>2012-10-07T12:51:46.945Z</time>
      </trkpt>
      <trkpt lat="48.20894" lon="3.2636">
        <ele>93</ele>
        <time>2012-10-07T12:51:49.945Z</time>
      </trkpt>
      <trkpt lat="48.20899" lon="3.2636">
        <ele>93</ele>
        <time>2012-10-07T12:51:51.945Z</time>
      </trkpt>
      <trkpt lat="48.20906" lon="3.2636">
        <ele>93</ele>
        <time>2012-10-07T12:51:54.945Z</time>
      </trkpt>
      <trkpt lat="48.20911" lon="3.26358">
        <ele>93</ele>
        <time>2012-10-07T12:51:56.945Z</time>
      </trkpt>
      <trkpt lat="48.20917" lon="3.26358">
        <ele>94</ele>
        <time>2012-10-07T12:51:58.945Z</time>
      </trkpt>
      <trkpt lat="48.20922" lon="3.26358">
        <ele>95</ele>
        <time>2012-10-07T12:52:00.945Z</time>
      </trkpt>
      <trkpt lat="48.20926" lon="3.26356">
        <ele>95</ele>
        <time>2012-10-07T12:52:02.945Z</time>
      </trkpt>
      <trkpt lat="48.20932" lon="3.26356">
        <ele>95</ele>
        <time>2012-10-07T12:52:04.945Z</time>
      </trkpt>
      <trkpt lat="48.20932" lon="3.26356">
        <ele>95</ele>
        <time>2012-10-07T12:52:04.945Z</time>
      </trkpt>
      <trkpt lat="48.20932" lon="3.26356">
        <ele>95</ele>
        <time>2012-10-07T12:52:05.945Z</time>
      </trkpt>
      <trkpt lat="48.20938" lon="3.26356">
        <ele>95</ele>
        <time>2012-10-07T12:52:07.945Z</time>
      </trkpt>
      <trkpt lat="48.20944" lon="3.26356">
        <ele>95</ele>
        <time>2012-10-07T12:52:10.945Z</time>
      </trkpt>
      <trkpt lat="48.20949" lon="3.26358">
        <ele>95</ele>
        <time>2012-10-07T12:52:12.945Z</time>
      </trkpt>
      <trkpt lat="48.20955" lon="3.26358">
        <ele>95</ele>
        <time>2012-10-07T12:52:15.945Z</time>
      </trkpt>
      <trkpt lat="48.20962" lon="3.26358">
        <ele>95</ele>
        <time>2012-10-07T12:52:18.945Z</time>
      </trkpt>
      <trkpt lat="48.20966" lon="3.2636">
        <ele>95</ele>
        <time>2012-10-07T12:52:20.945Z</time>
      </trkpt>
      <trkpt lat="48.20971" lon="3.2636">
        <ele>96</ele>
        <time>2012-10-07T12:52:23.945Z</time>
      </trkpt>
      <trkpt lat="48.20976" lon="3.26363">
        <ele>96</ele>
        <time>2012-10-07T12:52:25.945Z</time>
      </trkpt>
      <trkpt lat="48.20981" lon="3.26363">
        <ele>96</ele>
        <time>2012-10-07T12:52:28.945Z</time>
      </trkpt>
      <trkpt lat="48.20985" lon="3.26365">
        <ele>96</ele>
        <time>2012-10-07T12:52:30.945Z</time>
      </trkpt>
      <trkpt lat="48.20992" lon="3.26367">
        <ele>96</ele>
        <time>2012-10-07T12:52:33.945Z</time>
      </trkpt>
      <trkpt lat="48.20997" lon="3.26369">
        <ele>96</ele>
        <time>2012-10-07T12:52:36.945Z</time>
      </trkpt>
      <trkpt lat="48.21001" lon="3.26373">
        <ele>99</ele>
        <time>2012-10-07T12:52:39.945Z</time>
      </trkpt>
      <trkpt lat="48.21007" lon="3.26375">
        <ele>99</ele>
        <time>2012-10-07T12:52:42.945Z</time>
      </trkpt>
      <trkpt lat="48.21013" lon="3.26375">
        <ele>99</ele>
        <time>2012-10-07T12:52:46.945Z</time>
      </trkpt>
      <trkpt lat="48.21018" lon="3.26375">
        <ele>99</ele>
        <time>2012-10-07T12:52:53.945Z</time>
      </trkpt>
      <trkpt lat="48.21018" lon="3.26375">
        <ele>99</ele>
        <time>2012-10-07T12:52:53.945Z</time>
      </trkpt>
      <trkpt lat="48.21018" lon="3.26375">
        <ele>99</ele>
        <time>2012-10-07T12:52:54.945Z</time>
      </trkpt>
      <trkpt lat="48.21023" lon="3.26378">
        <ele>99</ele>
        <time>2012-10-07T12:53:00.945Z</time>
      </trkpt>
      <trkpt lat="48.21023" lon="3.26378">
        <ele>99</ele>
        <time>2012-10-07T12:53:00.945Z</time>
      </trkpt>
      <trkpt lat="48.21023" lon="3.26378">
        <ele>99</ele>
        <time>2012-10-07T12:53:01.945Z</time>
      </trkpt>
      <trkpt lat="48.21028" lon="3.26378">
        <ele>99</ele>
        <time>2012-10-07T12:53:07.945Z</time>
      </trkpt>
      <trkpt lat="48.21034" lon="3.26378">
        <ele>99</ele>
        <time>2012-10-07T12:53:13.945Z</time>
      </trkpt>
      <trkpt lat="48.21038" lon="3.2638">
        <ele>99</ele>
        <time>2012-10-07T12:53:19.945Z</time>
      </trkpt>
      <trkpt lat="48.21043" lon="3.2638">
        <ele>99</ele>
        <time>2012-10-07T12:53:24.945Z</time>
      </trkpt>
      <trkpt lat="48.21049" lon="3.2638">
        <ele>99</ele>
        <time>2012-10-07T12:53:30.945Z</time>
      </trkpt>
      <trkpt lat="48.21053" lon="3.26378">
        <ele>99</ele>
        <time>2012-10-07T12:53:34.945Z</time>
      </trkpt>
      <trkpt lat="48.21053" lon="3.26378">
        <ele>99</ele>
        <time>2012-10-07T12:53:34.945Z</time>
      </trkpt>
      <trkpt lat="48.21053" lon="3.26378">
        <ele>99</ele>
        <time>2012-10-07T12:53:35.945Z</time>
      </trkpt>
      <trkpt lat="48.21057" lon="3.26375">
        <ele>100</ele>
        <time>2012-10-07T12:53:40.945Z</time>
      </trkpt>
      <trkpt lat="48.21061" lon="3.26373">
        <ele>100</ele>
        <time>2012-10-07T12:53:45.945Z</time>
      </trkpt>
      <trkpt lat="48.21066" lon="3.26369">
        <ele>101</ele>
        <time>2012-10-07T12:53:49.945Z</time>
      </trkpt>
      <trkpt lat="48.21066" lon="3.26369">
        <ele>101</ele>
        <time>2012-10-07T12:53:49.945Z</time>
      </trkpt>
      <trkpt lat="48.21066" lon="3.26369">
        <ele>101</ele>
        <time>2012-10-07T12:53:50.945Z</time>
      </trkpt>
      <trkpt lat="48.21069" lon="3.26363">
        <ele>102</ele>
        <time>2012-10-07T12:53:57.945Z</time>
      </trkpt>
      <trkpt lat="48.21073" lon="3.26356">
        <ele>103</ele>
        <time>2012-10-07T12:54:00.945Z</time>
      </trkpt>
      <trkpt lat="48.21076" lon="3.2635">
        <ele>105</ele>
        <time>2012-10-07T12:54:03.945Z</time>
      </trkpt>
      <trkpt lat="48.21081" lon="3.26348">
        <ele>106</ele>
        <time>2012-10-07T12:54:06.945Z</time>
      </trkpt>
      <trkpt lat="48.21085" lon="3.26343">
        <ele>107</ele>
        <time>2012-10-07T12:54:09.945Z</time>
      </trkpt>
      <trkpt lat="48.21086" lon="3.26335">
        <ele>109</ele>
        <time>2012-10-07T12:54:13.945Z</time>
      </trkpt>
      <trkpt lat="48.21083" lon="3.26326">
        <ele>111</ele>
        <time>2012-10-07T12:54:16.945Z</time>
      </trkpt>
      <trkpt lat="48.21079" lon="3.26322">
        <ele>112</ele>
        <time>2012-10-07T12:54:19.945Z</time>
      </trkpt>
      <trkpt lat="48.21074" lon="3.26315">
        <ele>112</ele>
        <time>2012-10-07T12:54:22.945Z</time>
      </trkpt>
      <trkpt lat="48.21071" lon="3.26309">
        <ele>112</ele>
        <time>2012-10-07T12:54:24.945Z</time>
      </trkpt>
      <trkpt lat="48.21067" lon="3.26305">
        <ele>112</ele>
        <time>2012-10-07T12:54:26.945Z</time>
      </trkpt>
      <trkpt lat="48.21062" lon="3.26298">
        <ele>113</ele>
        <time>2012-10-07T12:54:29.945Z</time>
      </trkpt>
      <trkpt lat="48.21058" lon="3.26292">
        <ele>113</ele>
        <time>2012-10-07T12:54:31.945Z</time>
      </trkpt>
      <trkpt lat="48.21053" lon="3.26288">
        <ele>113</ele>
        <time>2012-10-07T12:54:34.945Z</time>
      </trkpt>
      <trkpt lat="48.21048" lon="3.26281">
        <ele>114</ele>
        <time>2012-10-07T12:54:37.945Z</time>
      </trkpt>
      <trkpt lat="48.21043" lon="3.26277">
        <ele>114</ele>
        <time>2012-10-07T12:54:39.945Z</time>
      </trkpt>
      <trkpt lat="48.21037" lon="3.26272">
        <ele>114</ele>
        <time>2012-10-07T12:54:42.945Z</time>
      </trkpt>
      <trkpt lat="48.2103" lon="3.26268">
        <ele>115</ele>
        <time>2012-10-07T12:54:45.945Z</time>
      </trkpt>
      <trkpt lat="48.21024" lon="3.26264">
        <ele>116</ele>
        <time>2012-10-07T12:54:48.945Z</time>
      </trkpt>
      <trkpt lat="48.21018" lon="3.26262">
        <ele>117</ele>
        <time>2012-10-07T12:54:50.945Z</time>
      </trkpt>
      <trkpt lat="48.21014" lon="3.26257">
        <ele>118</ele>
        <time>2012-10-07T12:54:52.945Z</time>
      </trkpt>
      <trkpt lat="48.21008" lon="3.26253">
        <ele>120</ele>
        <time>2012-10-07T12:54:55.945Z</time>
      </trkpt>
      <trkpt lat="48.21002" lon="3.26249">
        <ele>123</ele>
        <time>2012-10-07T12:54:57.945Z</time>
      </trkpt>
      <trkpt lat="48.20996" lon="3.26244">
        <ele>124</ele>
        <time>2012-10-07T12:55:00.945Z</time>
      </trkpt>
      <trkpt lat="48.2099" lon="3.2624">
        <ele>124</ele>
        <time>2012-10-07T12:55:03.945Z</time>
      </trkpt>
      <trkpt lat="48.20985" lon="3.26236">
        <ele>125</ele>
        <time>2012-10-07T12:55:05.945Z</time>
      </trkpt>
      <trkpt lat="48.20981" lon="3.26232">
        <ele>125</ele>
        <time>2012-10-07T12:55:07.945Z</time>
      </trkpt>
      <trkpt lat="48.20977" lon="3.2623">
        <ele>125</ele>
        <time>2012-10-07T12:55:09.945Z</time>
      </trkpt>
      <trkpt lat="48.20971" lon="3.26223">
        <ele>126</ele>
        <time>2012-10-07T12:55:12.945Z</time>
      </trkpt>
      <trkpt lat="48.20967" lon="3.26217">
        <ele>126</ele>
        <time>2012-10-07T12:55:14.945Z</time>
      </trkpt>
      <trkpt lat="48.20963" lon="3.26212">
        <ele>126</ele>
        <time>2012-10-07T12:55:16.945Z</time>
      </trkpt>
      <trkpt lat="48.20958" lon="3.26208">
        <ele>127</ele>
        <time>2012-10-07T12:55:19.945Z</time>
      </trkpt>
      <trkpt lat="48.20953" lon="3.26202">
        <ele>127</ele>
        <time>2012-10-07T12:55:22.945Z</time>
      </trkpt>
      <trkpt lat="48.20948" lon="3.26195">
        <ele>128</ele>
        <time>2012-10-07T12:55:25.945Z</time>
      </trkpt>
      <trkpt lat="48.20943" lon="3.26191">
        <ele>128</ele>
        <time>2012-10-07T12:55:27.945Z</time>
      </trkpt>
      <trkpt lat="48.20939" lon="3.26184">
        <ele>129</ele>
        <time>2012-10-07T12:55:29.945Z</time>
      </trkpt>
      <trkpt lat="48.20934" lon="3.26178">
        <ele>130</ele>
        <time>2012-10-07T12:55:32.945Z</time>
      </trkpt>
      <trkpt lat="48.2093" lon="3.26174">
        <ele>131</ele>
        <time>2012-10-07T12:55:34.945Z</time>
      </trkpt>
      <trkpt lat="48.20925" lon="3.26169">
        <ele>132</ele>
        <time>2012-10-07T12:55:36.945Z</time>
      </trkpt>
      <trkpt lat="48.20921" lon="3.26165">
        <ele>135</ele>
        <time>2012-10-07T12:55:38.945Z</time>
      </trkpt>
      <trkpt lat="48.20916" lon="3.26161">
        <ele>136</ele>
        <time>2012-10-07T12:55:40.945Z</time>
      </trkpt>
      <trkpt lat="48.20909" lon="3.26157">
        <ele>136</ele>
        <time>2012-10-07T12:55:43.945Z</time>
      </trkpt>
      <trkpt lat="48.20904" lon="3.26152">
        <ele>136</ele>
        <time>2012-10-07T12:55:45.945Z</time>
      </trkpt>
      <trkpt lat="48.20898" lon="3.2615">
        <ele>137</ele>
        <time>2012-10-07T12:55:48.945Z</time>
      </trkpt>
      <trkpt lat="48.20892" lon="3.26146">
        <ele>137</ele>
        <time>2012-10-07T12:55:51.945Z</time>
      </trkpt>
      <trkpt lat="48.20886" lon="3.26144">
        <ele>137</ele>
        <time>2012-10-07T12:55:54.945Z</time>
      </trkpt>
      <trkpt lat="48.20879" lon="3.26139">
        <ele>137</ele>
        <time>2012-10-07T12:55:57.945Z</time>
      </trkpt>
      <trkpt lat="48.20875" lon="3.26137">
        <ele>138</ele>
        <time>2012-10-07T12:55:59.945Z</time>
      </trkpt>
      <trkpt lat="48.20868" lon="3.26137">
        <ele>138</ele>
        <time>2012-10-07T12:56:02.945Z</time>
      </trkpt>
      <trkpt lat="48.20863" lon="3.26135">
        <ele>138</ele>
        <time>2012-10-07T12:56:04.945Z</time>
      </trkpt>
      <trkpt lat="48.20856" lon="3.26135">
        <ele>138</ele>
        <time>2012-10-07T12:56:07.945Z</time>
      </trkpt>
      <trkpt lat="48.2085" lon="3.26135">
        <ele>138</ele>
        <time>2012-10-07T12:56:10.945Z</time>
      </trkpt>
      <trkpt lat="48.20844" lon="3.26133">
        <ele>138</ele>
        <time>2012-10-07T12:56:13.945Z</time>
      </trkpt>
      <trkpt lat="48.20838" lon="3.26133">
        <ele>138</ele>
        <time>2012-10-07T12:56:15.945Z</time>
      </trkpt>
      <trkpt lat="48.20833" lon="3.26131">
        <ele>140</ele>
        <time>2012-10-07T12:56:17.945Z</time>
      </trkpt>
      <trkpt lat="48.20828" lon="3.26129">
        <ele>140</ele>
        <time>2012-10-07T12:56:19.945Z</time>
      </trkpt>
      <trkpt lat="48.20823" lon="3.26126">
        <ele>140</ele>
        <time>2012-10-07T12:56:21.945Z</time>
      </trkpt>
      <trkpt lat="48.20818" lon="3.26122">
        <ele>141</ele>
        <time>2012-10-07T12:56:23.945Z</time>
      </trkpt>
      <trkpt lat="48.20812" lon="3.26118">
        <ele>141</ele>
        <time>2012-10-07T12:56:25.945Z</time>
      </trkpt>
      <trkpt lat="48.20807" lon="3.26114">
        <ele>141</ele>
        <time>2012-10-07T12:56:27.945Z</time>
      </trkpt>
      <trkpt lat="48.20802" lon="3.26109">
        <ele>142</ele>
        <time>2012-10-07T12:56:29.945Z</time>
      </trkpt>
      <trkpt lat="48.20796" lon="3.26105">
        <ele>142</ele>
        <time>2012-10-07T12:56:31.945Z</time>
      </trkpt>
      <trkpt lat="48.20791" lon="3.26101">
        <ele>142</ele>
        <time>2012-10-07T12:56:32.945Z</time>
      </trkpt>
      <trkpt lat="48.20786" lon="3.26096">
        <ele>143</ele>
        <time>2012-10-07T12:56:34.945Z</time>
      </trkpt>
      <trkpt lat="48.20781" lon="3.26092">
        <ele>143</ele>
        <time>2012-10-07T12:56:36.945Z</time>
      </trkpt>
      <trkpt lat="48.20776" lon="3.26088">
        <ele>144</ele>
        <time>2012-10-07T12:56:38.945Z</time>
      </trkpt>
      <trkpt lat="48.20772" lon="3.26084">
        <ele>144</ele>
        <time>2012-10-07T12:56:40.945Z</time>
      </trkpt>
      <trkpt lat="48.20768" lon="3.26079">
        <ele>147</ele>
        <time>2012-10-07T12:56:42.945Z</time>
      </trkpt>
      <trkpt lat="48.20763" lon="3.26075">
        <ele>147</ele>
        <time>2012-10-07T12:56:44.945Z</time>
      </trkpt>
      <trkpt lat="48.20759" lon="3.26071">
        <ele>147</ele>
        <time>2012-10-07T12:56:46.945Z</time>
      </trkpt>
      <trkpt lat="48.20755" lon="3.26064">
        <ele>147</ele>
        <time>2012-10-07T12:56:48.945Z</time>
      </trkpt>
      <trkpt lat="48.20749" lon="3.2606">
        <ele>148</ele>
        <time>2012-10-07T12:56:50.945Z</time>
      </trkpt>
      <trkpt lat="48.20744" lon="3.26054">
        <ele>148</ele>
        <time>2012-10-07T12:56:52.945Z</time>
      </trkpt>
      <trkpt lat="48.20738" lon="3.26047">
        <ele>148</ele>
        <time>2012-10-07T12:56:54.945Z</time>
      </trkpt>
      <trkpt lat="48.20733" lon="3.26041">
        <ele>148</ele>
        <time>2012-10-07T12:56:56.945Z</time>
      </trkpt>
      <trkpt lat="48.20728" lon="3.26034">
        <ele>148</ele>
        <time>2012-10-07T12:56:58.945Z</time>
      </trkpt>
      <trkpt lat="48.20721" lon="3.26028">
        <ele>148</ele>
        <time>2012-10-07T12:57:00.945Z</time>
      </trkpt>
      <trkpt lat="48.20716" lon="3.26021">
        <ele>148</ele>
        <time>2012-10-07T12:57:02.945Z</time>
      </trkpt>
      <trkpt lat="48.2071" lon="3.26013">
        <ele>148</ele>
        <time>2012-10-07T12:57:04.945Z</time>
      </trkpt>
      <trkpt lat="48.20703" lon="3.26004">
        <ele>148</ele>
        <time>2012-10-07T12:57:06.945Z</time>
      </trkpt>
      <trkpt lat="48.20696" lon="3.25998">
        <ele>148</ele>
        <time>2012-10-07T12:57:08.945Z</time>
      </trkpt>
      <trkpt lat="48.20689" lon="3.25989">
        <ele>148</ele>
        <time>2012-10-07T12:57:10.945Z</time>
      </trkpt>
      <trkpt lat="48.20685" lon="3.25985">
        <ele>148</ele>
        <time>2012-10-07T12:57:11.945Z</time>
      </trkpt>
      <trkpt lat="48.20681" lon="3.25983">
        <ele>148</ele>
        <time>2012-10-07T12:57:12.945Z</time>
      </trkpt>
      <trkpt lat="48.20676" lon="3.25981">
        <ele>149</ele>
        <time>2012-10-07T12:57:13.945Z</time>
      </trkpt>
      <trkpt lat="48.20668" lon="3.25976">
        <ele>148</ele>
        <time>2012-10-07T12:57:15.945Z</time>
      </trkpt>
      <trkpt lat="48.20659" lon="3.25972">
        <ele>150</ele>
        <time>2012-10-07T12:57:17.945Z</time>
      </trkpt>
      <trkpt lat="48.2065" lon="3.25968">
        <ele>150</ele>
        <time>2012-10-07T12:57:19.945Z</time>
      </trkpt>
      <trkpt lat="48.20645" lon="3.25966">
        <ele>150</ele>
        <time>2012-10-07T12:57:20.945Z</time>
      </trkpt>
      <trkpt lat="48.20637" lon="3.25963">
        <ele>150</ele>
        <time>2012-10-07T12:57:22.945Z</time>
      </trkpt>
      <trkpt lat="48.20631" lon="3.25961">
        <ele>150</ele>
        <time>2012-10-07T12:57:23.945Z</time>
      </trkpt>
      <trkpt lat="48.20622" lon="3.25959">
        <ele>150</ele>
        <time>2012-10-07T12:57:25.945Z</time>
      </trkpt>
      <trkpt lat="48.20617" lon="3.25957">
        <ele>150</ele>
        <time>2012-10-07T12:57:26.945Z</time>
      </trkpt>
      <trkpt lat="48.20612" lon="3.25957">
        <ele>150</ele>
        <time>2012-10-07T12:57:27.945Z</time>
      </trkpt>
      <trkpt lat="48.20606" lon="3.25955">
        <ele>150</ele>
        <time>2012-10-07T12:57:28.945Z</time>
      </trkpt>
      <trkpt lat="48.20601" lon="3.25955">
        <ele>150</ele>
        <time>2012-10-07T12:57:29.945Z</time>
      </trkpt>
      <trkpt lat="48.20596" lon="3.25953">
        <ele>150</ele>
        <time>2012-10-07T12:57:30.945Z</time>
      </trkpt>
      <trkpt lat="48.2059" lon="3.25953">
        <ele>150</ele>
        <time>2012-10-07T12:57:31.945Z</time>
      </trkpt>
      <trkpt lat="48.20585" lon="3.25953">
        <ele>150</ele>
        <time>2012-10-07T12:57:32.945Z</time>
      </trkpt>
      <trkpt lat="48.2058" lon="3.25953">
        <ele>151</ele>
        <time>2012-10-07T12:57:33.945Z</time>
      </trkpt>
      <trkpt lat="48.20574" lon="3.25953">
        <ele>151</ele>
        <time>2012-10-07T12:57:34.945Z</time>
      </trkpt>
      <trkpt lat="48.20569" lon="3.25953">
        <ele>151</ele>
        <time>2012-10-07T12:57:35.945Z</time>
      </trkpt>
      <trkpt lat="48.20559" lon="3.25955">
        <ele>152</ele>
        <time>2012-10-07T12:57:37.945Z</time>
      </trkpt>
      <trkpt lat="48.20554" lon="3.25955">
        <ele>152</ele>
        <time>2012-10-07T12:57:38.945Z</time>
      </trkpt>
      <trkpt lat="48.20549" lon="3.25955">
        <ele>152</ele>
        <time>2012-10-07T12:57:39.945Z</time>
      </trkpt>
      <trkpt lat="48.20539" lon="3.25957">
        <ele>152</ele>
        <time>2012-10-07T12:57:41.945Z</time>
      </trkpt>
      <trkpt lat="48.20529" lon="3.25957">
        <ele>153</ele>
        <time>2012-10-07T12:57:43.945Z</time>
      </trkpt>
      <trkpt lat="48.2052" lon="3.25957">
        <ele>153</ele>
        <time>2012-10-07T12:57:45.945Z</time>
      </trkpt>
      <trkpt lat="48.2051" lon="3.25959">
        <ele>153</ele>
        <time>2012-10-07T12:57:47.945Z</time>
      </trkpt>
      <trkpt lat="48.205" lon="3.25959">
        <ele>155</ele>
        <time>2012-10-07T12:57:49.945Z</time>
      </trkpt>
      <trkpt lat="48.20491" lon="3.25959">
        <ele>155</ele>
        <time>2012-10-07T12:57:51.945Z</time>
      </trkpt>
      <trkpt lat="48.20482" lon="3.25959">
        <ele>155</ele>
        <time>2012-10-07T12:57:53.945Z</time>
      </trkpt>
      <trkpt lat="48.20474" lon="3.25959">
        <ele>155</ele>
        <time>2012-10-07T12:57:55.945Z</time>
      </trkpt>
      <trkpt lat="48.20465" lon="3.25959">
        <ele>155</ele>
        <time>2012-10-07T12:57:57.945Z</time>
      </trkpt>
      <trkpt lat="48.20456" lon="3.25957">
        <ele>155</ele>
        <time>2012-10-07T12:57:59.945Z</time>
      </trkpt>
      <trkpt lat="48.20451" lon="3.25957">
        <ele>155</ele>
        <time>2012-10-07T12:58:00.945Z</time>
      </trkpt>
      <trkpt lat="48.20442" lon="3.25957">
        <ele>155</ele>
        <time>2012-10-07T12:58:02.945Z</time>
      </trkpt>
      <trkpt lat="48.20434" lon="3.25955">
        <ele>155</ele>
        <time>2012-10-07T12:58:04.945Z</time>
      </trkpt>
      <trkpt lat="48.20425" lon="3.25951">
        <ele>156</ele>
        <time>2012-10-07T12:58:06.945Z</time>
      </trkpt>
      <trkpt lat="48.20416" lon="3.25946">
        <ele>155</ele>
        <time>2012-10-07T12:58:08.945Z</time>
      </trkpt>
      <trkpt lat="48.20411" lon="3.25944">
        <ele>155</ele>
        <time>2012-10-07T12:58:09.945Z</time>
      </trkpt>
      <trkpt lat="48.20406" lon="3.25942">
        <ele>155</ele>
        <time>2012-10-07T12:58:10.945Z</time>
      </trkpt>
      <trkpt lat="48.204" lon="3.2594">
        <ele>154</ele>
        <time>2012-10-07T12:58:11.945Z</time>
      </trkpt>
      <trkpt lat="48.20391" lon="3.25933">
        <ele>154</ele>
        <time>2012-10-07T12:58:13.945Z</time>
      </trkpt>
      <trkpt lat="48.20386" lon="3.25931">
        <ele>154</ele>
        <time>2012-10-07T12:58:14.945Z</time>
      </trkpt>
      <trkpt lat="48.2038" lon="3.25929">
        <ele>154</ele>
        <time>2012-10-07T12:58:15.945Z</time>
      </trkpt>
      <trkpt lat="48.20375" lon="3.25927">
        <ele>154</ele>
        <time>2012-10-07T12:58:16.945Z</time>
      </trkpt>
      <trkpt lat="48.20369" lon="3.25925">
        <ele>154</ele>
        <time>2012-10-07T12:58:17.945Z</time>
      </trkpt>
      <trkpt lat="48.20364" lon="3.25923">
        <ele>154</ele>
        <time>2012-10-07T12:58:18.945Z</time>
      </trkpt>
      <trkpt lat="48.2036" lon="3.2592">
        <ele>154</ele>
        <time>2012-10-07T12:58:19.945Z</time>
      </trkpt>
      <trkpt lat="48.20354" lon="3.25918">
        <ele>154</ele>
        <time>2012-10-07T12:58:20.945Z</time>
      </trkpt>
      <trkpt lat="48.20345" lon="3.25912">
        <ele>155</ele>
        <time>2012-10-07T12:58:22.945Z</time>
      </trkpt>
      <trkpt lat="48.20339" lon="3.2591">
        <ele>155</ele>
        <time>2012-10-07T12:58:23.945Z</time>
      </trkpt>
      <trkpt lat="48.20335" lon="3.25906">
        <ele>155</ele>
        <time>2012-10-07T12:58:24.945Z</time>
      </trkpt>
      <trkpt lat="48.2033" lon="3.25903">
        <ele>155</ele>
        <time>2012-10-07T12:58:25.945Z</time>
      </trkpt>
      <trkpt lat="48.20325" lon="3.25899">
        <ele>156</ele>
        <time>2012-10-07T12:58:26.945Z</time>
      </trkpt>
      <trkpt lat="48.2032" lon="3.25897">
        <ele>156</ele>
        <time>2012-10-07T12:58:27.945Z</time>
      </trkpt>
      <trkpt lat="48.20315" lon="3.25893">
        <ele>156</ele>
        <time>2012-10-07T12:58:28.945Z</time>
      </trkpt>
      <trkpt lat="48.2031" lon="3.25888">
        <ele>156</ele>
        <time>2012-10-07T12:58:29.945Z</time>
      </trkpt>
      <trkpt lat="48.20305" lon="3.25886">
        <ele>156</ele>
        <time>2012-10-07T12:58:30.945Z</time>
      </trkpt>
      <trkpt lat="48.203" lon="3.25882">
        <ele>156</ele>
        <time>2012-10-07T12:58:31.945Z</time>
      </trkpt>
      <trkpt lat="48.20294" lon="3.2588">
        <ele>156</ele>
        <time>2012-10-07T12:58:32.945Z</time>
      </trkpt>
      <trkpt lat="48.20289" lon="3.25878">
        <ele>156</ele>
        <time>2012-10-07T12:58:33.945Z</time>
      </trkpt>
      <trkpt lat="48.20284" lon="3.25876">
        <ele>156</ele>
        <time>2012-10-07T12:58:34.945Z</time>
      </trkpt>
      <trkpt lat="48.20278" lon="3.25873">
        <ele>156</ele>
        <time>2012-10-07T12:58:35.945Z</time>
      </trkpt>
      <trkpt lat="48.20273" lon="3.25871">
        <ele>157</ele>
        <time>2012-10-07T12:58:36.945Z</time>
      </trkpt>
      <trkpt lat="48.20268" lon="3.25869">
        <ele>157</ele>
        <time>2012-10-07T12:58:37.945Z</time>
      </trkpt>
      <trkpt lat="48.20262" lon="3.25869">
        <ele>157</ele>
        <time>2012-10-07T12:58:38.945Z</time>
      </trkpt>
      <trkpt lat="48.20257" lon="3.25867">
        <ele>157</ele>
        <time>2012-10-07T12:58:39.945Z</time>
      </trkpt>
      <trkpt lat="48.20251" lon="3.25865">
        <ele>157</ele>
        <time>2012-10-07T12:58:40.945Z</time>
      </trkpt>
      <trkpt lat="48.20242" lon="3.25863">
        <ele>158</ele>
        <time>2012-10-07T12:58:42.945Z</time>
      </trkpt>
      <trkpt lat="48.20236" lon="3.2586">
        <ele>158</ele>
        <time>2012-10-07T12:58:43.945Z</time>
      </trkpt>
      <trkpt lat="48.20227" lon="3.25858">
        <ele>158</ele>
        <time>2012-10-07T12:58:45.945Z</time>
      </trkpt>
      <trkpt lat="48.20217" lon="3.25854">
        <ele>158</ele>
        <time>2012-10-07T12:58:47.945Z</time>
      </trkpt>
      <trkpt lat="48.20207" lon="3.2585">
        <ele>158</ele>
        <time>2012-10-07T12:58:49.945Z</time>
      </trkpt>
      <trkpt lat="48.20198" lon="3.25845">
        <ele>158</ele>
        <time>2012-10-07T12:58:51.945Z</time>
      </trkpt>
      <trkpt lat="48.20188" lon="3.25841">
        <ele>158</ele>
        <time>2012-10-07T12:58:53.945Z</time>
      </trkpt>
      <trkpt lat="48.20178" lon="3.25837">
        <ele>159</ele>
        <time>2012-10-07T12:58:55.945Z</time>
      </trkpt>
      <trkpt lat="48.20169" lon="3.25835">
        <ele>160</ele>
        <time>2012-10-07T12:58:57.945Z</time>
      </trkpt>
      <trkpt lat="48.2016" lon="3.25833">
        <ele>160</ele>
        <time>2012-10-07T12:58:59.945Z</time>
      </trkpt>
      <trkpt lat="48.20155" lon="3.2583">
        <ele>160</ele>
        <time>2012-10-07T12:59:00.945Z</time>
      </trkpt>
      <trkpt lat="48.20151" lon="3.25828">
        <ele>160</ele>
        <time>2012-10-07T12:59:01.945Z</time>
      </trkpt>
      <trkpt lat="48.20141" lon="3.25826">
        <ele>160</ele>
        <time>2012-10-07T12:59:03.945Z</time>
      </trkpt>
      <trkpt lat="48.20131" lon="3.25824">
        <ele>160</ele>
        <time>2012-10-07T12:59:05.945Z</time>
      </trkpt>
      <trkpt lat="48.20127" lon="3.25822">
        <ele>160</ele>
        <time>2012-10-07T12:59:06.945Z</time>
      </trkpt>
      <trkpt lat="48.20117" lon="3.25822">
        <ele>161</ele>
        <time>2012-10-07T12:59:08.945Z</time>
      </trkpt>
      <trkpt lat="48.20109" lon="3.2582">
        <ele>161</ele>
        <time>2012-10-07T12:59:10.945Z</time>
      </trkpt>
      <trkpt lat="48.20099" lon="3.2582">
        <ele>161</ele>
        <time>2012-10-07T12:59:12.945Z</time>
      </trkpt>
      <trkpt lat="48.20095" lon="3.25818">
        <ele>161</ele>
        <time>2012-10-07T12:59:13.945Z</time>
      </trkpt>
      <trkpt lat="48.20086" lon="3.25818">
        <ele>162</ele>
        <time>2012-10-07T12:59:15.945Z</time>
      </trkpt>
      <trkpt lat="48.20081" lon="3.25815">
        <ele>162</ele>
        <time>2012-10-07T12:59:16.945Z</time>
      </trkpt>
      <trkpt lat="48.20072" lon="3.25813">
        <ele>162</ele>
        <time>2012-10-07T12:59:18.945Z</time>
      </trkpt>
      <trkpt lat="48.20067" lon="3.25811">
        <ele>162</ele>
        <time>2012-10-07T12:59:19.945Z</time>
      </trkpt>
      <trkpt lat="48.20058" lon="3.25807">
        <ele>162</ele>
        <time>2012-10-07T12:59:21.945Z</time>
      </trkpt>
      <trkpt lat="48.20054" lon="3.25802">
        <ele>162</ele>
        <time>2012-10-07T12:59:22.945Z</time>
      </trkpt>
      <trkpt lat="48.20046" lon="3.25796">
        <ele>162</ele>
        <time>2012-10-07T12:59:24.945Z</time>
      </trkpt>
      <trkpt lat="48.20038" lon="3.2579">
        <ele>161</ele>
        <time>2012-10-07T12:59:26.945Z</time>
      </trkpt>
      <trkpt lat="48.2003" lon="3.25783">
        <ele>161</ele>
        <time>2012-10-07T12:59:28.945Z</time>
      </trkpt>
      <trkpt lat="48.20022" lon="3.25779">
        <ele>161</ele>
        <time>2012-10-07T12:59:30.945Z</time>
      </trkpt>
      <trkpt lat="48.20014" lon="3.25772">
        <ele>161</ele>
        <time>2012-10-07T12:59:32.945Z</time>
      </trkpt>
      <trkpt lat="48.2001" lon="3.25768">
        <ele>161</ele>
        <time>2012-10-07T12:59:33.945Z</time>
      </trkpt>
      <trkpt lat="48.20001" lon="3.25762">
        <ele>161</ele>
        <time>2012-10-07T12:59:35.945Z</time>
      </trkpt>
      <trkpt lat="48.19994" lon="3.25758">
        <ele>161</ele>
        <time>2012-10-07T12:59:37.945Z</time>
      </trkpt>
      <trkpt lat="48.1999" lon="3.25753">
        <ele>161</ele>
        <time>2012-10-07T12:59:38.945Z</time>
      </trkpt>
      <trkpt lat="48.19981" lon="3.25749">
        <ele>163</ele>
        <time>2012-10-07T12:59:40.945Z</time>
      </trkpt>
      <trkpt lat="48.19974" lon="3.25745">
        <ele>163</ele>
        <time>2012-10-07T12:59:42.945Z</time>
      </trkpt>
      <trkpt lat="48.19966" lon="3.25738">
        <ele>164</ele>
        <time>2012-10-07T12:59:44.945Z</time>
      </trkpt>
      <trkpt lat="48.19957" lon="3.25734">
        <ele>164</ele>
        <time>2012-10-07T12:59:46.945Z</time>
      </trkpt>
      <trkpt lat="48.1995" lon="3.25727">
        <ele>165</ele>
        <time>2012-10-07T12:59:48.945Z</time>
      </trkpt>
      <trkpt lat="48.19941" lon="3.25721">
        <ele>165</ele>
        <time>2012-10-07T12:59:50.945Z</time>
      </trkpt>
      <trkpt lat="48.19937" lon="3.25719">
        <ele>165</ele>
        <time>2012-10-07T12:59:51.945Z</time>
      </trkpt>
      <trkpt lat="48.19933" lon="3.25717">
        <ele>165</ele>
        <time>2012-10-07T12:59:52.945Z</time>
      </trkpt>
      <trkpt lat="48.19928" lon="3.25712">
        <ele>165</ele>
        <time>2012-10-07T12:59:53.945Z</time>
      </trkpt>
      <trkpt lat="48.19921" lon="3.25706">
        <ele>166</ele>
        <time>2012-10-07T12:59:55.945Z</time>
      </trkpt>
      <trkpt lat="48.19914" lon="3.25702">
        <ele>168</ele>
        <time>2012-10-07T12:59:57.945Z</time>
      </trkpt>
      <trkpt lat="48.19908" lon="3.25697">
        <ele>168</ele>
        <time>2012-10-07T12:59:59.945Z</time>
      </trkpt>
      <trkpt lat="48.199" lon="3.25691">
        <ele>168</ele>
        <time>2012-10-07T13:00:04.945Z</time>
      </trkpt>
      <trkpt lat="48.19903" lon="3.25697">
        <ele>168</ele>
        <time>2012-10-07T13:00:07.945Z</time>
      </trkpt>
      <trkpt lat="48.19908" lon="3.25697">
        <ele>168</ele>
        <time>2012-10-07T13:00:09.945Z</time>
      </trkpt>
      <trkpt lat="48.19917" lon="3.25693">
        <ele>166</ele>
        <time>2012-10-07T13:00:14.945Z</time>
      </trkpt>
      <trkpt lat="48.19917" lon="3.25693">
        <ele>166</ele>
        <time>2012-10-07T13:00:14.945Z</time>
      </trkpt>
      <trkpt lat="48.19917" lon="3.25693">
        <ele>166</ele>
        <time>2012-10-07T13:00:18.945Z</time>
      </trkpt>
      <trkpt lat="48.19921" lon="3.25684">
        <ele>167</ele>
        <time>2012-10-07T13:00:19.945Z</time>
      </trkpt>
      <trkpt lat="48.19921" lon="3.25684">
        <ele>167</ele>
        <time>2012-10-07T13:00:19.945Z</time>
      </trkpt>
      <trkpt lat="48.19921" lon="3.25684">
        <ele>167</ele>
        <time>2012-10-07T13:00:21.945Z</time>
      </trkpt>
      <trkpt lat="48.19931" lon="3.25678">
        <ele>167</ele>
        <time>2012-10-07T13:00:26.945Z</time>
      </trkpt>
      <trkpt lat="48.19931" lon="3.25678">
        <ele>167</ele>
        <time>2012-10-07T13:00:26.945Z</time>
      </trkpt>
      <trkpt lat="48.19931" lon="3.25678">
        <ele>167</ele>
        <time>2012-10-07T13:00:34.945Z</time>
      </trkpt>
      <trkpt lat="48.19936" lon="3.25667">
        <ele>167</ele>
        <time>2012-10-07T13:00:35.945Z</time>
      </trkpt>
      <trkpt lat="48.19936" lon="3.25667">
        <ele>167</ele>
        <time>2012-10-07T13:00:35.945Z</time>
      </trkpt>
      <trkpt lat="48.19936" lon="3.25667">
        <ele>167</ele>
        <time>2012-10-07T13:00:39.945Z</time>
      </trkpt>
      <trkpt lat="48.19937" lon="3.25652">
        <ele>166</ele>
        <time>2012-10-07T13:00:40.945Z</time>
      </trkpt>
      <trkpt lat="48.19937" lon="3.25652">
        <ele>166</ele>
        <time>2012-10-07T13:00:40.945Z</time>
      </trkpt>
      <trkpt lat="48.19937" lon="3.25652">
        <ele>166</ele>
        <time>2012-10-07T13:00:44.945Z</time>
      </trkpt>
      <trkpt lat="48.19942" lon="3.25639">
        <ele>165</ele>
        <time>2012-10-07T13:00:45.945Z</time>
      </trkpt>
      <trkpt lat="48.19942" lon="3.25639">
        <ele>165</ele>
        <time>2012-10-07T13:00:45.945Z</time>
      </trkpt>
      <trkpt lat="48.19942" lon="3.25639">
        <ele>165</ele>
        <time>2012-10-07T13:00:49.945Z</time>
      </trkpt>
      <trkpt lat="48.19945" lon="3.25624">
        <ele>165</ele>
        <time>2012-10-07T13:00:50.945Z</time>
      </trkpt>
      <trkpt lat="48.19945" lon="3.25624">
        <ele>165</ele>
        <time>2012-10-07T13:00:50.945Z</time>
      </trkpt>
      <trkpt lat="48.19945" lon="3.25624">
        <ele>165</ele>
        <time>2012-10-07T13:00:54.945Z</time>
      </trkpt>
      <trkpt lat="48.19949" lon="3.25609">
        <ele>164</ele>
        <time>2012-10-07T13:00:55.945Z</time>
      </trkpt>
      <trkpt lat="48.19949" lon="3.25609">
        <ele>164</ele>
        <time>2012-10-07T13:00:55.945Z</time>
      </trkpt>
      <trkpt lat="48.19949" lon="3.25609">
        <ele>164</ele>
        <time>2012-10-07T13:00:59.945Z</time>
      </trkpt>
      <trkpt lat="48.19956" lon="3.25599">
        <ele>164</ele>
        <time>2012-10-07T13:01:00.945Z</time>
      </trkpt>
      <trkpt lat="48.19956" lon="3.25599">
        <ele>164</ele>
        <time>2012-10-07T13:01:00.945Z</time>
      </trkpt>
      <trkpt lat="48.19956" lon="3.25599">
        <ele>164</ele>
        <time>2012-10-07T13:01:03.945Z</time>
      </trkpt>
      <trkpt lat="48.19962" lon="3.25588">
        <ele>164</ele>
        <time>2012-10-07T13:01:04.945Z</time>
      </trkpt>
      <trkpt lat="48.19962" lon="3.25588">
        <ele>164</ele>
        <time>2012-10-07T13:01:04.945Z</time>
      </trkpt>
      <trkpt lat="48.19962" lon="3.25588">
        <ele>164</ele>
        <time>2012-10-07T13:01:07.945Z</time>
      </trkpt>
      <trkpt lat="48.19964" lon="3.25573">
        <ele>160</ele>
        <time>2012-10-07T13:01:08.945Z</time>
      </trkpt>
      <trkpt lat="48.19964" lon="3.25573">
        <ele>160</ele>
        <time>2012-10-07T13:01:08.945Z</time>
      </trkpt>
      <trkpt lat="48.19964" lon="3.25573">
        <ele>160</ele>
        <time>2012-10-07T13:01:10.945Z</time>
      </trkpt>
      <trkpt lat="48.19968" lon="3.25562">
        <ele>160</ele>
        <time>2012-10-07T13:01:11.945Z</time>
      </trkpt>
      <trkpt lat="48.19974" lon="3.2556">
        <ele>160</ele>
        <time>2012-10-07T13:01:14.945Z</time>
      </trkpt>
      <trkpt lat="48.1998" lon="3.25545">
        <ele>159</ele>
        <time>2012-10-07T13:01:20.945Z</time>
      </trkpt>
      <trkpt lat="48.19976" lon="3.2553">
        <ele>158</ele>
        <time>2012-10-07T13:01:23.945Z</time>
      </trkpt>
      <trkpt lat="48.19972" lon="3.25519">
        <ele>158</ele>
        <time>2012-10-07T13:01:25.945Z</time>
      </trkpt>
      <trkpt lat="48.19969" lon="3.25511">
        <ele>158</ele>
        <time>2012-10-07T13:01:27.945Z</time>
      </trkpt>
      <trkpt lat="48.19966" lon="3.25502">
        <ele>158</ele>
        <time>2012-10-07T13:01:29.945Z</time>
      </trkpt>
      <trkpt lat="48.19963" lon="3.25496">
        <ele>155</ele>
        <time>2012-10-07T13:01:31.945Z</time>
      </trkpt>
      <trkpt lat="48.1996" lon="3.25487">
        <ele>155</ele>
        <time>2012-10-07T13:01:33.945Z</time>
      </trkpt>
      <trkpt lat="48.19956" lon="3.25481">
        <ele>156</ele>
        <time>2012-10-07T13:01:35.945Z</time>
      </trkpt>
      <trkpt lat="48.19952" lon="3.25472">
        <ele>156</ele>
        <time>2012-10-07T13:01:37.945Z</time>
      </trkpt>
      <trkpt lat="48.1995" lon="3.25466">
        <ele>156</ele>
        <time>2012-10-07T13:01:38.945Z</time>
      </trkpt>
      <trkpt lat="48.19945" lon="3.25457">
        <ele>156</ele>
        <time>2012-10-07T13:01:40.945Z</time>
      </trkpt>
      <trkpt lat="48.19942" lon="3.25451">
        <ele>156</ele>
        <time>2012-10-07T13:01:41.945Z</time>
      </trkpt>
      <trkpt lat="48.19937" lon="3.25444">
        <ele>157</ele>
        <time>2012-10-07T13:01:43.945Z</time>
      </trkpt>
      <trkpt lat="48.19937" lon="3.25444">
        <ele>157</ele>
        <time>2012-10-07T13:01:43.945Z</time>
      </trkpt>
      <trkpt lat="48.19937" lon="3.25444">
        <ele>157</ele>
        <time>2012-10-07T13:01:46.945Z</time>
      </trkpt>
      <trkpt lat="48.19928" lon="3.25433">
        <ele>158</ele>
        <time>2012-10-07T13:01:47.945Z</time>
      </trkpt>
      <trkpt lat="48.19928" lon="3.25433">
        <ele>158</ele>
        <time>2012-10-07T13:01:47.945Z</time>
      </trkpt>
      <trkpt lat="48.19928" lon="3.25433">
        <ele>158</ele>
        <time>2012-10-07T13:01:50.945Z</time>
      </trkpt>
      <trkpt lat="48.19922" lon="3.25421">
        <ele>160</ele>
        <time>2012-10-07T13:01:51.945Z</time>
      </trkpt>
      <trkpt lat="48.19922" lon="3.25421">
        <ele>160</ele>
        <time>2012-10-07T13:01:51.945Z</time>
      </trkpt>
      <trkpt lat="48.19922" lon="3.25421">
        <ele>160</ele>
        <time>2012-10-07T13:01:54.945Z</time>
      </trkpt>
      <trkpt lat="48.19916" lon="3.25408">
        <ele>161</ele>
        <time>2012-10-07T13:01:55.945Z</time>
      </trkpt>
      <trkpt lat="48.19916" lon="3.25408">
        <ele>161</ele>
        <time>2012-10-07T13:01:55.945Z</time>
      </trkpt>
      <trkpt lat="48.19916" lon="3.25408">
        <ele>161</ele>
        <time>2012-10-07T13:01:57.945Z</time>
      </trkpt>
      <trkpt lat="48.1991" lon="3.25393">
        <ele>160</ele>
        <time>2012-10-07T13:01:58.945Z</time>
      </trkpt>
      <trkpt lat="48.19902" lon="3.2538">
        <ele>160</ele>
        <time>2012-10-07T13:02:03.945Z</time>
      </trkpt>
      <trkpt lat="48.19902" lon="3.2538">
        <ele>160</ele>
        <time>2012-10-07T13:02:03.945Z</time>
      </trkpt>
      <trkpt lat="48.19902" lon="3.2538">
        <ele>160</ele>
        <time>2012-10-07T13:02:15.945Z</time>
      </trkpt>
      <trkpt lat="48.19901" lon="3.25363">
        <ele>159</ele>
        <time>2012-10-07T13:02:16.945Z</time>
      </trkpt>
      <trkpt lat="48.19901" lon="3.25363">
        <ele>159</ele>
        <time>2012-10-07T13:02:16.945Z</time>
      </trkpt>
      <trkpt lat="48.19901" lon="3.25363">
        <ele>159</ele>
        <time>2012-10-07T13:02:18.945Z</time>
      </trkpt>
      <trkpt lat="48.19898" lon="3.25348">
        <ele>158</ele>
        <time>2012-10-07T13:02:19.945Z</time>
      </trkpt>
      <trkpt lat="48.19898" lon="3.25348">
        <ele>158</ele>
        <time>2012-10-07T13:02:19.945Z</time>
      </trkpt>
      <trkpt lat="48.19898" lon="3.25348">
        <ele>158</ele>
        <time>2012-10-07T13:02:22.945Z</time>
      </trkpt>
      <trkpt lat="48.19904" lon="3.25337">
        <ele>157</ele>
        <time>2012-10-07T13:02:23.945Z</time>
      </trkpt>
      <trkpt lat="48.1991" lon="3.2533">
        <ele>154</ele>
        <time>2012-10-07T13:02:25.945Z</time>
      </trkpt>
      <trkpt lat="48.19916" lon="3.25326">
        <ele>154</ele>
        <time>2012-10-07T13:02:27.945Z</time>
      </trkpt>
      <trkpt lat="48.19916" lon="3.25326">
        <ele>154</ele>
        <time>2012-10-07T13:02:27.945Z</time>
      </trkpt>
      <trkpt lat="48.19916" lon="3.25326">
        <ele>154</ele>
        <time>2012-10-07T13:02:30.945Z</time>
      </trkpt>
      <trkpt lat="48.19925" lon="3.25318">
        <ele>149</ele>
        <time>2012-10-07T13:02:31.945Z</time>
      </trkpt>
      <trkpt lat="48.19925" lon="3.25318">
        <ele>149</ele>
        <time>2012-10-07T13:02:31.945Z</time>
      </trkpt>
      <trkpt lat="48.19925" lon="3.25318">
        <ele>149</ele>
        <time>2012-10-07T13:02:33.945Z</time>
      </trkpt>
      <trkpt lat="48.19932" lon="3.25318">
        <ele>149</ele>
        <time>2012-10-07T13:02:34.945Z</time>
      </trkpt>
      <trkpt lat="48.19941" lon="3.25322">
        <ele>148</ele>
        <time>2012-10-07T13:02:49.945Z</time>
      </trkpt>
      <trkpt lat="48.19941" lon="3.25322">
        <ele>148</ele>
        <time>2012-10-07T13:02:49.945Z</time>
      </trkpt>
      <trkpt lat="48.19941" lon="3.25322">
        <ele>148</ele>
        <time>2012-10-07T13:02:51.945Z</time>
      </trkpt>
      <trkpt lat="48.19946" lon="3.25318">
        <ele>147</ele>
        <time>2012-10-07T13:02:52.945Z</time>
      </trkpt>
      <trkpt lat="48.19947" lon="3.25309">
        <ele>147</ele>
        <time>2012-10-07T13:02:54.945Z</time>
      </trkpt>
      <trkpt lat="48.19947" lon="3.25298">
        <ele>146</ele>
        <time>2012-10-07T13:02:56.945Z</time>
      </trkpt>
      <trkpt lat="48.19944" lon="3.2529">
        <ele>146</ele>
        <time>2012-10-07T13:02:59.945Z</time>
      </trkpt>
      <trkpt lat="48.19941" lon="3.25281">
        <ele>146</ele>
        <time>2012-10-07T13:03:01.945Z</time>
      </trkpt>
      <trkpt lat="48.19938" lon="3.25275">
        <ele>145</ele>
        <time>2012-10-07T13:03:04.945Z</time>
      </trkpt>
      <trkpt lat="48.19936" lon="3.25268">
        <ele>145</ele>
        <time>2012-10-07T13:03:07.945Z</time>
      </trkpt>
      <trkpt lat="48.19936" lon="3.25268">
        <ele>145</ele>
        <time>2012-10-07T13:03:07.945Z</time>
      </trkpt>
      <trkpt lat="48.19936" lon="3.25268">
        <ele>145</ele>
        <time>2012-10-07T13:03:08.945Z</time>
      </trkpt>
      <trkpt lat="48.19933" lon="3.25262">
        <ele>145</ele>
        <time>2012-10-07T13:03:12.945Z</time>
      </trkpt>
      <trkpt lat="48.19931" lon="3.25255">
        <ele>145</ele>
        <time>2012-10-07T13:03:15.945Z</time>
      </trkpt>
      <trkpt lat="48.19931" lon="3.25247">
        <ele>142</ele>
        <time>2012-10-07T13:03:20.945Z</time>
      </trkpt>
      <trkpt lat="48.19932" lon="3.25238">
        <ele>141</ele>
        <time>2012-10-07T13:03:24.945Z</time>
      </trkpt>
      <trkpt lat="48.19936" lon="3.25236">
        <ele>141</ele>
        <time>2012-10-07T13:03:28.945Z</time>
      </trkpt>
      <trkpt lat="48.1994" lon="3.2524">
        <ele>141</ele>
        <time>2012-10-07T13:03:32.945Z</time>
      </trkpt>
      <trkpt lat="48.19945" lon="3.25242">
        <ele>140</ele>
        <time>2012-10-07T13:03:36.945Z</time>
      </trkpt>
      <trkpt lat="48.19949" lon="3.2524">
        <ele>140</ele>
        <time>2012-10-07T13:03:41.945Z</time>
      </trkpt>
      <trkpt lat="48.19951" lon="3.25234">
        <ele>139</ele>
        <time>2012-10-07T13:03:45.945Z</time>
      </trkpt>
      <trkpt lat="48.19953" lon="3.25225">
        <ele>139</ele>
        <time>2012-10-07T13:03:50.945Z</time>
      </trkpt>
      <trkpt lat="48.19958" lon="3.25219">
        <ele>138</ele>
        <time>2012-10-07T13:03:53.945Z</time>
      </trkpt>
      <trkpt lat="48.19963" lon="3.25215">
        <ele>138</ele>
        <time>2012-10-07T13:03:59.945Z</time>
      </trkpt>
      <trkpt lat="48.19963" lon="3.25215">
        <ele>138</ele>
        <time>2012-10-07T13:03:59.945Z</time>
      </trkpt>
      <trkpt lat="48.19963" lon="3.25215">
        <ele>138</ele>
        <time>2012-10-07T13:04:00.945Z</time>
      </trkpt>
      <trkpt lat="48.19965" lon="3.25221">
        <ele>138</ele>
        <time>2012-10-07T13:04:08.945Z</time>
      </trkpt>
      <trkpt lat="48.19965" lon="3.25221">
        <ele>138</ele>
        <time>2012-10-07T13:04:08.945Z</time>
      </trkpt>
      <trkpt lat="48.19965" lon="3.25221">
        <ele>138</ele>
        <time>2012-10-07T13:04:09.945Z</time>
      </trkpt>
      <trkpt lat="48.19969" lon="3.25227">
        <ele>138</ele>
        <time>2012-10-07T13:04:13.945Z</time>
      </trkpt>
      <trkpt lat="48.19971" lon="3.25234">
        <ele>138</ele>
        <time>2012-10-07T13:04:16.945Z</time>
      </trkpt>
      <trkpt lat="48.19974" lon="3.2524">
        <ele>138</ele>
        <time>2012-10-07T13:04:20.945Z</time>
      </trkpt>
      <trkpt lat="48.19976" lon="3.25249">
        <ele>138</ele>
        <time>2012-10-07T13:04:23.945Z</time>
      </trkpt>
      <trkpt lat="48.19977" lon="3.25258">
        <ele>142</ele>
        <time>2012-10-07T13:04:27.945Z</time>
      </trkpt>
      <trkpt lat="48.19979" lon="3.25266">
        <ele>142</ele>
        <time>2012-10-07T13:04:30.945Z</time>
      </trkpt>
      <trkpt lat="48.19983" lon="3.25272">
        <ele>142</ele>
        <time>2012-10-07T13:04:34.945Z</time>
      </trkpt>
      <trkpt lat="48.19985" lon="3.25279">
        <ele>143</ele>
        <time>2012-10-07T13:04:37.945Z</time>
      </trkpt>
      <trkpt lat="48.1999" lon="3.25285">
        <ele>143</ele>
        <time>2012-10-07T13:04:39.945Z</time>
      </trkpt>
      <trkpt lat="48.19994" lon="3.2529">
        <ele>143</ele>
        <time>2012-10-07T13:04:40.945Z</time>
      </trkpt>
      <trkpt lat="48.20001" lon="3.2529">
        <ele>135</ele>
        <time>2012-10-07T13:04:42.945Z</time>
      </trkpt>
      <trkpt lat="48.20007" lon="3.25288">
        <ele>134</ele>
        <time>2012-10-07T13:04:44.945Z</time>
      </trkpt>
      <trkpt lat="48.20011" lon="3.25281">
        <ele>134</ele>
        <time>2012-10-07T13:04:46.945Z</time>
      </trkpt>
      <trkpt lat="48.20012" lon="3.2527">
        <ele>134</ele>
        <time>2012-10-07T13:04:49.945Z</time>
      </trkpt>
      <trkpt lat="48.2001" lon="3.25262">
        <ele>135</ele>
        <time>2012-10-07T13:04:52.945Z</time>
      </trkpt>
      <trkpt lat="48.2001" lon="3.25262">
        <ele>135</ele>
        <time>2012-10-07T13:04:52.945Z</time>
      </trkpt>
      <trkpt lat="48.2001" lon="3.25262">
        <ele>135</ele>
        <time>2012-10-07T13:04:53.945Z</time>
      </trkpt>
      <trkpt lat="48.20014" lon="3.25258">
        <ele>134</ele>
        <time>2012-10-07T13:05:00.945Z</time>
      </trkpt>
      <trkpt lat="48.2002" lon="3.25258">
        <ele>134</ele>
        <time>2012-10-07T13:05:02.945Z</time>
      </trkpt>
      <trkpt lat="48.20024" lon="3.2526">
        <ele>133</ele>
        <time>2012-10-07T13:05:05.945Z</time>
      </trkpt>
      <trkpt lat="48.20028" lon="3.25266">
        <ele>133</ele>
        <time>2012-10-07T13:05:09.945Z</time>
      </trkpt>
      <trkpt lat="48.2003" lon="3.25275">
        <ele>133</ele>
        <time>2012-10-07T13:05:12.945Z</time>
      </trkpt>
      <trkpt lat="48.20032" lon="3.25283">
        <ele>132</ele>
        <time>2012-10-07T13:05:14.945Z</time>
      </trkpt>
      <trkpt lat="48.20032" lon="3.25292">
        <ele>133</ele>
        <time>2012-10-07T13:05:16.945Z</time>
      </trkpt>
      <trkpt lat="48.20034" lon="3.25298">
        <ele>133</ele>
        <time>2012-10-07T13:05:18.945Z</time>
      </trkpt>
      <trkpt lat="48.20035" lon="3.25309">
        <ele>133</ele>
        <time>2012-10-07T13:05:21.945Z</time>
      </trkpt>
      <trkpt lat="48.20035" lon="3.2532">
        <ele>133</ele>
        <time>2012-10-07T13:05:24.945Z</time>
      </trkpt>
      <trkpt lat="48.20037" lon="3.25326">
        <ele>133</ele>
        <time>2012-10-07T13:05:26.945Z</time>
      </trkpt>
      <trkpt lat="48.20039" lon="3.25333">
        <ele>133</ele>
        <time>2012-10-07T13:05:29.945Z</time>
      </trkpt>
      <trkpt lat="48.20041" lon="3.25339">
        <ele>136</ele>
        <time>2012-10-07T13:05:31.945Z</time>
      </trkpt>
      <trkpt lat="48.20045" lon="3.25343">
        <ele>135</ele>
        <time>2012-10-07T13:05:34.945Z</time>
      </trkpt>
      <trkpt lat="48.20045" lon="3.25343">
        <ele>135</ele>
        <time>2012-10-07T13:05:34.945Z</time>
      </trkpt>
      <trkpt lat="48.20045" lon="3.25343">
        <ele>135</ele>
        <time>2012-10-07T13:05:35.945Z</time>
      </trkpt>
      <trkpt lat="48.2005" lon="3.25348">
        <ele>135</ele>
        <time>2012-10-07T13:05:38.945Z</time>
      </trkpt>
      <trkpt lat="48.20056" lon="3.2535">
        <ele>134</ele>
        <time>2012-10-07T13:05:40.945Z</time>
      </trkpt>
      <trkpt lat="48.20062" lon="3.25352">
        <ele>133</ele>
        <time>2012-10-07T13:05:42.945Z</time>
      </trkpt>
      <trkpt lat="48.2007" lon="3.25352">
        <ele>132</ele>
        <time>2012-10-07T13:05:44.945Z</time>
      </trkpt>
      <trkpt lat="48.20079" lon="3.2535">
        <ele>131</ele>
        <time>2012-10-07T13:05:46.945Z</time>
      </trkpt>
      <trkpt lat="48.20086" lon="3.25348">
        <ele>124</ele>
        <time>2012-10-07T13:05:48.945Z</time>
      </trkpt>
      <trkpt lat="48.20092" lon="3.25346">
        <ele>124</ele>
        <time>2012-10-07T13:05:50.945Z</time>
      </trkpt>
      <trkpt lat="48.20096" lon="3.25343">
        <ele>124</ele>
        <time>2012-10-07T13:05:52.945Z</time>
      </trkpt>
      <trkpt lat="48.201" lon="3.25341">
        <ele>123</ele>
        <time>2012-10-07T13:05:54.945Z</time>
      </trkpt>
      <trkpt lat="48.20104" lon="3.25343">
        <ele>123</ele>
        <time>2012-10-07T13:05:56.945Z</time>
      </trkpt>
      <trkpt lat="48.20111" lon="3.25346">
        <ele>122</ele>
        <time>2012-10-07T13:05:59.945Z</time>
      </trkpt>
      <trkpt lat="48.20116" lon="3.2535">
        <ele>122</ele>
        <time>2012-10-07T13:06:02.945Z</time>
      </trkpt>
      <trkpt lat="48.2012" lon="3.25352">
        <ele>121</ele>
        <time>2012-10-07T13:06:04.945Z</time>
      </trkpt>
      <trkpt lat="48.20125" lon="3.25358">
        <ele>121</ele>
        <time>2012-10-07T13:06:07.945Z</time>
      </trkpt>
      <trkpt lat="48.20129" lon="3.2536">
        <ele>121</ele>
        <time>2012-10-07T13:06:11.945Z</time>
      </trkpt>
      <trkpt lat="48.20134" lon="3.2536">
        <ele>120</ele>
        <time>2012-10-07T13:06:13.945Z</time>
      </trkpt>
      <trkpt lat="48.2014" lon="3.25356">
        <ele>120</ele>
        <time>2012-10-07T13:06:15.945Z</time>
      </trkpt>
      <trkpt lat="48.20143" lon="3.2535">
        <ele>119</ele>
        <time>2012-10-07T13:06:18.945Z</time>
      </trkpt>
      <trkpt lat="48.20145" lon="3.25341">
        <ele>118</ele>
        <time>2012-10-07T13:06:20.945Z</time>
      </trkpt>
      <trkpt lat="48.20147" lon="3.25333">
        <ele>114</ele>
        <time>2012-10-07T13:06:22.945Z</time>
      </trkpt>
      <trkpt lat="48.20148" lon="3.25324">
        <ele>114</ele>
        <time>2012-10-07T13:06:24.945Z</time>
      </trkpt>
      <trkpt lat="48.2015" lon="3.25313">
        <ele>114</ele>
        <time>2012-10-07T13:06:27.945Z</time>
      </trkpt>
      <trkpt lat="48.20151" lon="3.25305">
        <ele>114</ele>
        <time>2012-10-07T13:06:30.945Z</time>
      </trkpt>
      <trkpt lat="48.20154" lon="3.25296">
        <ele>114</ele>
        <time>2012-10-07T13:06:34.945Z</time>
      </trkpt>
      <trkpt lat="48.20158" lon="3.25292">
        <ele>113</ele>
        <time>2012-10-07T13:06:37.945Z</time>
      </trkpt>
      <trkpt lat="48.20163" lon="3.25285">
        <ele>113</ele>
        <time>2012-10-07T13:06:40.945Z</time>
      </trkpt>
      <trkpt lat="48.20167" lon="3.25279">
        <ele>105</ele>
        <time>2012-10-07T13:06:42.945Z</time>
      </trkpt>
      <trkpt lat="48.20169" lon="3.25272">
        <ele>105</ele>
        <time>2012-10-07T13:06:44.945Z</time>
      </trkpt>
      <trkpt lat="48.20171" lon="3.25266">
        <ele>105</ele>
        <time>2012-10-07T13:06:46.945Z</time>
      </trkpt>
      <trkpt lat="48.20171" lon="3.25266">
        <ele>105</ele>
        <time>2012-10-07T13:06:46.945Z</time>
      </trkpt>
      <trkpt lat="48.20171" lon="3.25266">
        <ele>105</ele>
        <time>2012-10-07T13:06:47.945Z</time>
      </trkpt>
      <trkpt lat="48.20173" lon="3.2526">
        <ele>105</ele>
        <time>2012-10-07T13:06:50.945Z</time>
      </trkpt>
      <trkpt lat="48.20174" lon="3.25249">
        <ele>104</ele>
        <time>2012-10-07T13:06:54.945Z</time>
      </trkpt>
      <trkpt lat="48.20174" lon="3.2524">
        <ele>102</ele>
        <time>2012-10-07T13:06:56.945Z</time>
      </trkpt>
      <trkpt lat="48.20174" lon="3.2523">
        <ele>101</ele>
        <time>2012-10-07T13:06:59.945Z</time>
      </trkpt>
      <trkpt lat="48.20176" lon="3.25221">
        <ele>100</ele>
        <time>2012-10-07T13:07:01.945Z</time>
      </trkpt>
      <trkpt lat="48.20178" lon="3.25212">
        <ele>99</ele>
        <time>2012-10-07T13:07:03.945Z</time>
      </trkpt>
      <trkpt lat="48.20184" lon="3.25206">
        <ele>98</ele>
        <time>2012-10-07T13:07:05.945Z</time>
      </trkpt>
      <trkpt lat="48.20189" lon="3.252">
        <ele>98</ele>
        <time>2012-10-07T13:07:07.945Z</time>
      </trkpt>
      <trkpt lat="48.20195" lon="3.25193">
        <ele>97</ele>
        <time>2012-10-07T13:07:09.945Z</time>
      </trkpt>
      <trkpt lat="48.20201" lon="3.25184">
        <ele>97</ele>
        <time>2012-10-07T13:07:11.945Z</time>
      </trkpt>
      <trkpt lat="48.20204" lon="3.25178">
        <ele>96</ele>
        <time>2012-10-07T13:07:12.945Z</time>
      </trkpt>
      <trkpt lat="48.2021" lon="3.25172">
        <ele>96</ele>
        <time>2012-10-07T13:07:14.945Z</time>
      </trkpt>
      <trkpt lat="48.20216" lon="3.25174">
        <ele>95</ele>
        <time>2012-10-07T13:07:17.945Z</time>
      </trkpt>
      <trkpt lat="48.20222" lon="3.2518">
        <ele>95</ele>
        <time>2012-10-07T13:07:20.945Z</time>
      </trkpt>
      <trkpt lat="48.20227" lon="3.25184">
        <ele>95</ele>
        <time>2012-10-07T13:07:22.945Z</time>
      </trkpt>
      <trkpt lat="48.20232" lon="3.25189">
        <ele>95</ele>
        <time>2012-10-07T13:07:24.945Z</time>
      </trkpt>
      <trkpt lat="48.20236" lon="3.25195">
        <ele>95</ele>
        <time>2012-10-07T13:07:26.945Z</time>
      </trkpt>
      <trkpt lat="48.20242" lon="3.25202">
        <ele>95</ele>
        <time>2012-10-07T13:07:28.945Z</time>
      </trkpt>
      <trkpt lat="48.20248" lon="3.25206">
        <ele>95</ele>
        <time>2012-10-07T13:07:30.945Z</time>
      </trkpt>
      <trkpt lat="48.20255" lon="3.2521">
        <ele>92</ele>
        <time>2012-10-07T13:07:32.945Z</time>
      </trkpt>
      <trkpt lat="48.20262" lon="3.25215">
        <ele>92</ele>
        <time>2012-10-07T13:07:34.945Z</time>
      </trkpt>
      <trkpt lat="48.20266" lon="3.25217">
        <ele>92</ele>
        <time>2012-10-07T13:07:35.945Z</time>
      </trkpt>
      <trkpt lat="48.20274" lon="3.25219">
        <ele>92</ele>
        <time>2012-10-07T13:07:37.945Z</time>
      </trkpt>
      <trkpt lat="48.20278" lon="3.25221">
        <ele>92</ele>
        <time>2012-10-07T13:07:38.945Z</time>
      </trkpt>
      <trkpt lat="48.20286" lon="3.25223">
        <ele>92</ele>
        <time>2012-10-07T13:07:40.945Z</time>
      </trkpt>
      <trkpt lat="48.20293" lon="3.25227">
        <ele>92</ele>
        <time>2012-10-07T13:07:42.945Z</time>
      </trkpt>
      <trkpt lat="48.20301" lon="3.2523">
        <ele>92</ele>
        <time>2012-10-07T13:07:44.945Z</time>
      </trkpt>
      <trkpt lat="48.20305" lon="3.25232">
        <ele>92</ele>
        <time>2012-10-07T13:07:45.945Z</time>
      </trkpt>
      <trkpt lat="48.20309" lon="3.25236">
        <ele>92</ele>
        <time>2012-10-07T13:07:46.945Z</time>
      </trkpt>
      <trkpt lat="48.20317" lon="3.2524">
        <ele>92</ele>
        <time>2012-10-07T13:07:48.945Z</time>
      </trkpt>
      <trkpt lat="48.20324" lon="3.25247">
        <ele>92</ele>
        <time>2012-10-07T13:07:50.945Z</time>
      </trkpt>
      <trkpt lat="48.20332" lon="3.25255">
        <ele>93</ele>
        <time>2012-10-07T13:07:52.945Z</time>
      </trkpt>
      <trkpt lat="48.20338" lon="3.25264">
        <ele>93</ele>
        <time>2012-10-07T13:07:54.945Z</time>
      </trkpt>
      <trkpt lat="48.20344" lon="3.25272">
        <ele>93</ele>
        <time>2012-10-07T13:07:56.945Z</time>
      </trkpt>
      <trkpt lat="48.2035" lon="3.25283">
        <ele>94</ele>
        <time>2012-10-07T13:07:58.945Z</time>
      </trkpt>
      <trkpt lat="48.20356" lon="3.25292">
        <ele>94</ele>
        <time>2012-10-07T13:08:00.945Z</time>
      </trkpt>
      <trkpt lat="48.20361" lon="3.25298">
        <ele>94</ele>
        <time>2012-10-07T13:08:02.945Z</time>
      </trkpt>
      <trkpt lat="48.20365" lon="3.25303">
        <ele>95</ele>
        <time>2012-10-07T13:08:04.945Z</time>
      </trkpt>
      <trkpt lat="48.2037" lon="3.25305">
        <ele>94</ele>
        <time>2012-10-07T13:08:06.945Z</time>
      </trkpt>
      <trkpt lat="48.20375" lon="3.25307">
        <ele>94</ele>
        <time>2012-10-07T13:08:08.945Z</time>
      </trkpt>
      <trkpt lat="48.2038" lon="3.25311">
        <ele>94</ele>
        <time>2012-10-07T13:08:10.945Z</time>
      </trkpt>
      <trkpt lat="48.20386" lon="3.25313">
        <ele>94</ele>
        <time>2012-10-07T13:08:12.945Z</time>
      </trkpt>
      <trkpt lat="48.2039" lon="3.25315">
        <ele>94</ele>
        <time>2012-10-07T13:08:14.945Z</time>
      </trkpt>
      <trkpt lat="48.20395" lon="3.25318">
        <ele>94</ele>
        <time>2012-10-07T13:08:16.945Z</time>
      </trkpt>
      <trkpt lat="48.20403" lon="3.2532">
        <ele>95</ele>
        <time>2012-10-07T13:08:18.945Z</time>
      </trkpt>
      <trkpt lat="48.2041" lon="3.2532">
        <ele>95</ele>
        <time>2012-10-07T13:08:20.945Z</time>
      </trkpt>
      <trkpt lat="48.2042" lon="3.2532">
        <ele>93</ele>
        <time>2012-10-07T13:08:22.945Z</time>
      </trkpt>
      <trkpt lat="48.20425" lon="3.25318">
        <ele>93</ele>
        <time>2012-10-07T13:08:23.945Z</time>
      </trkpt>
      <trkpt lat="48.20431" lon="3.25315">
        <ele>93</ele>
        <time>2012-10-07T13:08:24.945Z</time>
      </trkpt>
      <trkpt lat="48.20437" lon="3.25315">
        <ele>92</ele>
        <time>2012-10-07T13:08:25.945Z</time>
      </trkpt>
      <trkpt lat="48.20444" lon="3.25315">
        <ele>92</ele>
        <time>2012-10-07T13:08:26.945Z</time>
      </trkpt>
      <trkpt lat="48.2045" lon="3.25318">
        <ele>92</ele>
        <time>2012-10-07T13:08:27.945Z</time>
      </trkpt>
      <trkpt lat="48.20456" lon="3.2532">
        <ele>92</ele>
        <time>2012-10-07T13:08:28.945Z</time>
      </trkpt>
      <trkpt lat="48.20462" lon="3.25324">
        <ele>92</ele>
        <time>2012-10-07T13:08:29.945Z</time>
      </trkpt>
      <trkpt lat="48.20468" lon="3.25328">
        <ele>91</ele>
        <time>2012-10-07T13:08:30.945Z</time>
      </trkpt>
      <trkpt lat="48.20475" lon="3.25333">
        <ele>91</ele>
        <time>2012-10-07T13:08:31.945Z</time>
      </trkpt>
      <trkpt lat="48.20481" lon="3.25335">
        <ele>93</ele>
        <time>2012-10-07T13:08:32.945Z</time>
      </trkpt>
      <trkpt lat="48.20486" lon="3.25339">
        <ele>92</ele>
        <time>2012-10-07T13:08:33.945Z</time>
      </trkpt>
      <trkpt lat="48.20493" lon="3.25341">
        <ele>92</ele>
        <time>2012-10-07T13:08:34.945Z</time>
      </trkpt>
      <trkpt lat="48.20498" lon="3.25343">
        <ele>92</ele>
        <time>2012-10-07T13:08:35.945Z</time>
      </trkpt>
      <trkpt lat="48.20504" lon="3.25346">
        <ele>91</ele>
        <time>2012-10-07T13:08:36.945Z</time>
      </trkpt>
      <trkpt lat="48.20508" lon="3.2535">
        <ele>91</ele>
        <time>2012-10-07T13:08:37.945Z</time>
      </trkpt>
      <trkpt lat="48.20512" lon="3.25352">
        <ele>91</ele>
        <time>2012-10-07T13:08:38.945Z</time>
      </trkpt>
      <trkpt lat="48.20518" lon="3.25356">
        <ele>91</ele>
        <time>2012-10-07T13:08:40.945Z</time>
      </trkpt>
      <trkpt lat="48.20523" lon="3.25363">
        <ele>92</ele>
        <time>2012-10-07T13:08:43.945Z</time>
      </trkpt>
      <trkpt lat="48.20526" lon="3.25369">
        <ele>92</ele>
        <time>2012-10-07T13:08:45.945Z</time>
      </trkpt>
      <trkpt lat="48.2053" lon="3.25376">
        <ele>92</ele>
        <time>2012-10-07T13:08:48.945Z</time>
      </trkpt>
      <trkpt lat="48.20534" lon="3.25382">
        <ele>92</ele>
        <time>2012-10-07T13:08:50.945Z</time>
      </trkpt>
      <trkpt lat="48.20537" lon="3.25388">
        <ele>92</ele>
        <time>2012-10-07T13:08:52.945Z</time>
      </trkpt>
      <trkpt lat="48.20541" lon="3.25393">
        <ele>92</ele>
        <time>2012-10-07T13:08:54.945Z</time>
      </trkpt>
      <trkpt lat="48.20546" lon="3.25399">
        <ele>92</ele>
        <time>2012-10-07T13:08:57.945Z</time>
      </trkpt>
      <trkpt lat="48.20551" lon="3.25406">
        <ele>92</ele>
        <time>2012-10-07T13:08:59.945Z</time>
      </trkpt>
      <trkpt lat="48.20555" lon="3.2541">
        <ele>92</ele>
        <time>2012-10-07T13:09:01.945Z</time>
      </trkpt>
      <trkpt lat="48.20559" lon="3.25416">
        <ele>93</ele>
        <time>2012-10-07T13:09:03.945Z</time>
      </trkpt>
      <trkpt lat="48.20564" lon="3.25421">
        <ele>97</ele>
        <time>2012-10-07T13:09:05.945Z</time>
      </trkpt>
      <trkpt lat="48.20568" lon="3.25427">
        <ele>97</ele>
        <time>2012-10-07T13:09:07.945Z</time>
      </trkpt>
      <trkpt lat="48.20573" lon="3.25431">
        <ele>97</ele>
        <time>2012-10-07T13:09:09.945Z</time>
      </trkpt>
      <trkpt lat="48.20579" lon="3.25438">
        <ele>97</ele>
        <time>2012-10-07T13:09:11.945Z</time>
      </trkpt>
      <trkpt lat="48.20583" lon="3.25444">
        <ele>98</ele>
        <time>2012-10-07T13:09:13.945Z</time>
      </trkpt>
      <trkpt lat="48.20587" lon="3.25448">
        <ele>95</ele>
        <time>2012-10-07T13:09:15.945Z</time>
      </trkpt>
      <trkpt lat="48.20592" lon="3.25455">
        <ele>96</ele>
        <time>2012-10-07T13:09:17.945Z</time>
      </trkpt>
      <trkpt lat="48.20597" lon="3.25461">
        <ele>96</ele>
        <time>2012-10-07T13:09:19.945Z</time>
      </trkpt>
      <trkpt lat="48.20601" lon="3.25468">
        <ele>96</ele>
        <time>2012-10-07T13:09:21.945Z</time>
      </trkpt>
      <trkpt lat="48.20606" lon="3.25474">
        <ele>97</ele>
        <time>2012-10-07T13:09:23.945Z</time>
      </trkpt>
      <trkpt lat="48.20611" lon="3.25481">
        <ele>97</ele>
        <time>2012-10-07T13:09:25.945Z</time>
      </trkpt>
      <trkpt lat="48.20615" lon="3.25485">
        <ele>97</ele>
        <time>2012-10-07T13:09:27.945Z</time>
      </trkpt>
      <trkpt lat="48.20619" lon="3.25491">
        <ele>97</ele>
        <time>2012-10-07T13:09:29.945Z</time>
      </trkpt>
      <trkpt lat="48.20624" lon="3.25496">
        <ele>97</ele>
        <time>2012-10-07T13:09:31.945Z</time>
      </trkpt>
      <trkpt lat="48.20628" lon="3.255">
        <ele>96</ele>
        <time>2012-10-07T13:09:33.945Z</time>
      </trkpt>
      <trkpt lat="48.20628" lon="3.255">
        <ele>96</ele>
        <time>2012-10-07T13:09:33.945Z</time>
      </trkpt>
      <trkpt lat="48.20628" lon="3.255">
        <ele>96</ele>
        <time>2012-10-07T13:10:09.945Z</time>
      </trkpt>
      <trkpt lat="48.20638" lon="3.25506">
        <ele>102</ele>
        <time>2012-10-07T13:10:10.945Z</time>
      </trkpt>
      <trkpt lat="48.20638" lon="3.25506">
        <ele>102</ele>
        <time>2012-10-07T13:10:10.945Z</time>
      </trkpt>
      <trkpt lat="48.20638" lon="3.25506">
        <ele>102</ele>
        <time>2012-10-07T13:10:11.945Z</time>
      </trkpt>
      <trkpt lat="48.20646" lon="3.25515">
        <ele>102</ele>
        <time>2012-10-07T13:10:12.945Z</time>
      </trkpt>
      <trkpt lat="48.2065" lon="3.25519">
        <ele>102</ele>
        <time>2012-10-07T13:10:13.945Z</time>
      </trkpt>
      <trkpt lat="48.2066" lon="3.25526">
        <ele>102</ele>
        <time>2012-10-07T13:10:16.945Z</time>
      </trkpt>
      <trkpt lat="48.2066" lon="3.25526">
        <ele>102</ele>
        <time>2012-10-07T13:10:16.945Z</time>
      </trkpt>
      <trkpt lat="48.2066" lon="3.25526">
        <ele>102</ele>
        <time>2012-10-07T13:10:17.945Z</time>
      </trkpt>
      <trkpt lat="48.20666" lon="3.2553">
        <ele>102</ele>
        <time>2012-10-07T13:10:18.945Z</time>
      </trkpt>
      <trkpt lat="48.20671" lon="3.25534">
        <ele>99</ele>
        <time>2012-10-07T13:10:20.945Z</time>
      </trkpt>
      <trkpt lat="48.20676" lon="3.25536">
        <ele>99</ele>
        <time>2012-10-07T13:10:22.945Z</time>
      </trkpt>
      <trkpt lat="48.20681" lon="3.25541">
        <ele>99</ele>
        <time>2012-10-07T13:10:24.945Z</time>
      </trkpt>
      <trkpt lat="48.20686" lon="3.25545">
        <ele>99</ele>
        <time>2012-10-07T13:10:26.945Z</time>
      </trkpt>
      <trkpt lat="48.20692" lon="3.25549">
        <ele>99</ele>
        <time>2012-10-07T13:10:28.945Z</time>
      </trkpt>
      <trkpt lat="48.20698" lon="3.25554">
        <ele>99</ele>
        <time>2012-10-07T13:10:30.945Z</time>
      </trkpt>
      <trkpt lat="48.20702" lon="3.2556">
        <ele>100</ele>
        <time>2012-10-07T13:10:32.945Z</time>
      </trkpt>
      <trkpt lat="48.20707" lon="3.25564">
        <ele>100</ele>
        <time>2012-10-07T13:10:34.945Z</time>
      </trkpt>
      <trkpt lat="48.20713" lon="3.25571">
        <ele>100</ele>
        <time>2012-10-07T13:10:36.945Z</time>
      </trkpt>
      <trkpt lat="48.20719" lon="3.25575">
        <ele>100</ele>
        <time>2012-10-07T13:10:38.945Z</time>
      </trkpt>
      <trkpt lat="48.20726" lon="3.25579">
        <ele>100</ele>
        <time>2012-10-07T13:10:40.945Z</time>
      </trkpt>
      <trkpt lat="48.20732" lon="3.25584">
        <ele>105</ele>
        <time>2012-10-07T13:10:42.945Z</time>
      </trkpt>
      <trkpt lat="48.20738" lon="3.2559">
        <ele>105</ele>
        <time>2012-10-07T13:10:44.945Z</time>
      </trkpt>
      <trkpt lat="48.20743" lon="3.25592">
        <ele>104</ele>
        <time>2012-10-07T13:10:45.945Z</time>
      </trkpt>
      <trkpt lat="48.2075" lon="3.25599">
        <ele>102</ele>
        <time>2012-10-07T13:10:47.945Z</time>
      </trkpt>
      <trkpt lat="48.20758" lon="3.25603">
        <ele>103</ele>
        <time>2012-10-07T13:10:49.945Z</time>
      </trkpt>
      <trkpt lat="48.20762" lon="3.25605">
        <ele>103</ele>
        <time>2012-10-07T13:10:50.945Z</time>
      </trkpt>
      <trkpt lat="48.20768" lon="3.25609">
        <ele>103</ele>
        <time>2012-10-07T13:10:52.945Z</time>
      </trkpt>
      <trkpt lat="48.20773" lon="3.25614">
        <ele>103</ele>
        <time>2012-10-07T13:10:53.945Z</time>
      </trkpt>
      <trkpt lat="48.20779" lon="3.25618">
        <ele>103</ele>
        <time>2012-10-07T13:10:55.945Z</time>
      </trkpt>
      <trkpt lat="48.20784" lon="3.2562">
        <ele>103</ele>
        <time>2012-10-07T13:10:56.945Z</time>
      </trkpt>
      <trkpt lat="48.2079" lon="3.25624">
        <ele>103</ele>
        <time>2012-10-07T13:10:58.945Z</time>
      </trkpt>
      <trkpt lat="48.20794" lon="3.25627">
        <ele>103</ele>
        <time>2012-10-07T13:10:59.945Z</time>
      </trkpt>
      <trkpt lat="48.20802" lon="3.25633">
        <ele>103</ele>
        <time>2012-10-07T13:11:01.945Z</time>
      </trkpt>
      <trkpt lat="48.20808" lon="3.25637">
        <ele>104</ele>
        <time>2012-10-07T13:11:03.945Z</time>
      </trkpt>
      <trkpt lat="48.20815" lon="3.25642">
        <ele>104</ele>
        <time>2012-10-07T13:11:05.945Z</time>
      </trkpt>
      <trkpt lat="48.2082" lon="3.25648">
        <ele>105</ele>
        <time>2012-10-07T13:11:07.945Z</time>
      </trkpt>
      <trkpt lat="48.20824" lon="3.2565">
        <ele>105</ele>
        <time>2012-10-07T13:11:08.945Z</time>
      </trkpt>
      <trkpt lat="48.20831" lon="3.25654">
        <ele>105</ele>
        <time>2012-10-07T13:11:10.945Z</time>
      </trkpt>
      <trkpt lat="48.20837" lon="3.25659">
        <ele>104</ele>
        <time>2012-10-07T13:11:12.945Z</time>
      </trkpt>
      <trkpt lat="48.20844" lon="3.25663">
        <ele>103</ele>
        <time>2012-10-07T13:11:14.945Z</time>
      </trkpt>
      <trkpt lat="48.2085" lon="3.2567">
        <ele>107</ele>
        <time>2012-10-07T13:11:16.945Z</time>
      </trkpt>
      <trkpt lat="48.20854" lon="3.25672">
        <ele>108</ele>
        <time>2012-10-07T13:11:17.945Z</time>
      </trkpt>
      <trkpt lat="48.20861" lon="3.25676">
        <ele>107</ele>
        <time>2012-10-07T13:11:19.945Z</time>
      </trkpt>
      <trkpt lat="48.20867" lon="3.2568">
        <ele>107</ele>
        <time>2012-10-07T13:11:21.945Z</time>
      </trkpt>
      <trkpt lat="48.20874" lon="3.25687">
        <ele>107</ele>
        <time>2012-10-07T13:11:23.945Z</time>
      </trkpt>
      <trkpt lat="48.2088" lon="3.25693">
        <ele>107</ele>
        <time>2012-10-07T13:11:25.945Z</time>
      </trkpt>
      <trkpt lat="48.20886" lon="3.257">
        <ele>107</ele>
        <time>2012-10-07T13:11:27.945Z</time>
      </trkpt>
      <trkpt lat="48.20891" lon="3.25706">
        <ele>108</ele>
        <time>2012-10-07T13:11:29.945Z</time>
      </trkpt>
      <trkpt lat="48.20896" lon="3.25714">
        <ele>108</ele>
        <time>2012-10-07T13:11:31.945Z</time>
      </trkpt>
      <trkpt lat="48.209" lon="3.25723">
        <ele>109</ele>
        <time>2012-10-07T13:11:33.945Z</time>
      </trkpt>
      <trkpt lat="48.20905" lon="3.25732">
        <ele>109</ele>
        <time>2012-10-07T13:11:35.945Z</time>
      </trkpt>
      <trkpt lat="48.20909" lon="3.25738">
        <ele>109</ele>
        <time>2012-10-07T13:11:37.945Z</time>
      </trkpt>
      <trkpt lat="48.20911" lon="3.25745">
        <ele>110</ele>
        <time>2012-10-07T13:11:39.945Z</time>
      </trkpt>
      <trkpt lat="48.20914" lon="3.25753">
        <ele>111</ele>
        <time>2012-10-07T13:11:41.945Z</time>
      </trkpt>
      <trkpt lat="48.20919" lon="3.25762">
        <ele>110</ele>
        <time>2012-10-07T13:11:44.945Z</time>
      </trkpt>
      <trkpt lat="48.20922" lon="3.25768">
        <ele>111</ele>
        <time>2012-10-07T13:11:46.945Z</time>
      </trkpt>
      <trkpt lat="48.20922" lon="3.25768">
        <ele>111</ele>
        <time>2012-10-07T13:11:46.945Z</time>
      </trkpt>
      <trkpt lat="48.20922" lon="3.25768">
        <ele>111</ele>
        <time>2012-10-07T13:11:48.945Z</time>
      </trkpt>
      <trkpt lat="48.20926" lon="3.25775">
        <ele>111</ele>
        <time>2012-10-07T13:11:49.945Z</time>
      </trkpt>
      <trkpt lat="48.20931" lon="3.25781">
        <ele>111</ele>
        <time>2012-10-07T13:11:51.945Z</time>
      </trkpt>
      <trkpt lat="48.20935" lon="3.25785">
        <ele>111</ele>
        <time>2012-10-07T13:11:53.945Z</time>
      </trkpt>
      <trkpt lat="48.20939" lon="3.25792">
        <ele>111</ele>
        <time>2012-10-07T13:11:55.945Z</time>
      </trkpt>
      <trkpt lat="48.20943" lon="3.25798">
        <ele>112</ele>
        <time>2012-10-07T13:11:57.945Z</time>
      </trkpt>
      <trkpt lat="48.20948" lon="3.25802">
        <ele>112</ele>
        <time>2012-10-07T13:11:59.945Z</time>
      </trkpt>
      <trkpt lat="48.20952" lon="3.25809">
        <ele>112</ele>
        <time>2012-10-07T13:12:01.945Z</time>
      </trkpt>
      <trkpt lat="48.20957" lon="3.25818">
        <ele>112</ele>
        <time>2012-10-07T13:12:04.945Z</time>
      </trkpt>
      <trkpt lat="48.20962" lon="3.25826">
        <ele>112</ele>
        <time>2012-10-07T13:12:07.945Z</time>
      </trkpt>
      <trkpt lat="48.20965" lon="3.25833">
        <ele>112</ele>
        <time>2012-10-07T13:12:09.945Z</time>
      </trkpt>
      <trkpt lat="48.20968" lon="3.25839">
        <ele>115</ele>
        <time>2012-10-07T13:12:11.945Z</time>
      </trkpt>
      <trkpt lat="48.20972" lon="3.25845">
        <ele>115</ele>
        <time>2012-10-07T13:12:13.945Z</time>
      </trkpt>
      <trkpt lat="48.20976" lon="3.25852">
        <ele>115</ele>
        <time>2012-10-07T13:12:15.945Z</time>
      </trkpt>
      <trkpt lat="48.20979" lon="3.2586">
        <ele>116</ele>
        <time>2012-10-07T13:12:17.945Z</time>
      </trkpt>
      <trkpt lat="48.20982" lon="3.25867">
        <ele>116</ele>
        <time>2012-10-07T13:12:19.945Z</time>
      </trkpt>
      <trkpt lat="48.20986" lon="3.25873">
        <ele>116</ele>
        <time>2012-10-07T13:12:21.945Z</time>
      </trkpt>
      <trkpt lat="48.2099" lon="3.25882">
        <ele>116</ele>
        <time>2012-10-07T13:12:23.945Z</time>
      </trkpt>
      <trkpt lat="48.20994" lon="3.2589">
        <ele>116</ele>
        <time>2012-10-07T13:12:25.945Z</time>
      </trkpt>
      <trkpt lat="48.20997" lon="3.25897">
        <ele>117</ele>
        <time>2012-10-07T13:12:27.945Z</time>
      </trkpt>
      <trkpt lat="48.21001" lon="3.25906">
        <ele>112</ele>
        <time>2012-10-07T13:12:29.945Z</time>
      </trkpt>
      <trkpt lat="48.21005" lon="3.25912">
        <ele>113</ele>
        <time>2012-10-07T13:12:31.945Z</time>
      </trkpt>
      <trkpt lat="48.21009" lon="3.2592">
        <ele>114</ele>
        <time>2012-10-07T13:12:33.945Z</time>
      </trkpt>
      <trkpt lat="48.21012" lon="3.25929">
        <ele>113</ele>
        <time>2012-10-07T13:12:35.945Z</time>
      </trkpt>
      <trkpt lat="48.21016" lon="3.25938">
        <ele>112</ele>
        <time>2012-10-07T13:12:37.945Z</time>
      </trkpt>
      <trkpt lat="48.2102" lon="3.25946">
        <ele>112</ele>
        <time>2012-10-07T13:12:39.945Z</time>
      </trkpt>
      <trkpt lat="48.21023" lon="3.25955">
        <ele>112</ele>
        <time>2012-10-07T13:12:41.945Z</time>
      </trkpt>
      <trkpt lat="48.21026" lon="3.25963">
        <ele>112</ele>
        <time>2012-10-07T13:12:43.945Z</time>
      </trkpt>
      <trkpt lat="48.21029" lon="3.25974">
        <ele>113</ele>
        <time>2012-10-07T13:12:45.945Z</time>
      </trkpt>
      <trkpt lat="48.21031" lon="3.25983">
        <ele>113</ele>
        <time>2012-10-07T13:12:47.945Z</time>
      </trkpt>
      <trkpt lat="48.21035" lon="3.25991">
        <ele>113</ele>
        <time>2012-10-07T13:12:49.945Z</time>
      </trkpt>
      <trkpt lat="48.21036" lon="3.25998">
        <ele>113</ele>
        <time>2012-10-07T13:12:50.945Z</time>
      </trkpt>
      <trkpt lat="48.21039" lon="3.26006">
        <ele>117</ele>
        <time>2012-10-07T13:12:52.945Z</time>
      </trkpt>
      <trkpt lat="48.21041" lon="3.26013">
        <ele>117</ele>
        <time>2012-10-07T13:12:53.945Z</time>
      </trkpt>
      <trkpt lat="48.21044" lon="3.26024">
        <ele>116</ele>
        <time>2012-10-07T13:12:55.945Z</time>
      </trkpt>
      <trkpt lat="48.21048" lon="3.2603">
        <ele>116</ele>
        <time>2012-10-07T13:12:56.945Z</time>
      </trkpt>
      <trkpt lat="48.2105" lon="3.26036">
        <ele>116</ele>
        <time>2012-10-07T13:12:57.945Z</time>
      </trkpt>
      <trkpt lat="48.21053" lon="3.26043">
        <ele>116</ele>
        <time>2012-10-07T13:12:58.945Z</time>
      </trkpt>
      <trkpt lat="48.21057" lon="3.26051">
        <ele>116</ele>
        <time>2012-10-07T13:12:59.945Z</time>
      </trkpt>
      <trkpt lat="48.2106" lon="3.26058">
        <ele>116</ele>
        <time>2012-10-07T13:13:00.945Z</time>
      </trkpt>
      <trkpt lat="48.21064" lon="3.26064">
        <ele>115</ele>
        <time>2012-10-07T13:13:01.945Z</time>
      </trkpt>
      <trkpt lat="48.21068" lon="3.26071">
        <ele>114</ele>
        <time>2012-10-07T13:13:02.945Z</time>
      </trkpt>
      <trkpt lat="48.21071" lon="3.26077">
        <ele>114</ele>
        <time>2012-10-07T13:13:03.945Z</time>
      </trkpt>
      <trkpt lat="48.21074" lon="3.26084">
        <ele>114</ele>
        <time>2012-10-07T13:13:04.945Z</time>
      </trkpt>
      <trkpt lat="48.21078" lon="3.26092">
        <ele>114</ele>
        <time>2012-10-07T13:13:05.945Z</time>
      </trkpt>
      <trkpt lat="48.21082" lon="3.26099">
        <ele>116</ele>
        <time>2012-10-07T13:13:06.945Z</time>
      </trkpt>
      <trkpt lat="48.21085" lon="3.26109">
        <ele>107</ele>
        <time>2012-10-07T13:13:07.945Z</time>
      </trkpt>
      <trkpt lat="48.21088" lon="3.26118">
        <ele>107</ele>
        <time>2012-10-07T13:13:08.945Z</time>
      </trkpt>
      <trkpt lat="48.21092" lon="3.26126">
        <ele>107</ele>
        <time>2012-10-07T13:13:09.945Z</time>
      </trkpt>
      <trkpt lat="48.21095" lon="3.26137">
        <ele>107</ele>
        <time>2012-10-07T13:13:10.945Z</time>
      </trkpt>
      <trkpt lat="48.21097" lon="3.26144">
        <ele>108</ele>
        <time>2012-10-07T13:13:11.945Z</time>
      </trkpt>
      <trkpt lat="48.21099" lon="3.26152">
        <ele>108</ele>
        <time>2012-10-07T13:13:13.945Z</time>
      </trkpt>
      <trkpt lat="48.211" lon="3.26165">
        <ele>109</ele>
        <time>2012-10-07T13:13:17.945Z</time>
      </trkpt>
      <trkpt lat="48.21101" lon="3.26172">
        <ele>111</ele>
        <time>2012-10-07T13:13:19.945Z</time>
      </trkpt>
      <trkpt lat="48.21101" lon="3.2618">
        <ele>110</ele>
        <time>2012-10-07T13:13:22.945Z</time>
      </trkpt>
      <trkpt lat="48.21101" lon="3.26189">
        <ele>110</ele>
        <time>2012-10-07T13:13:25.945Z</time>
      </trkpt>
      <trkpt lat="48.21099" lon="3.262">
        <ele>109</ele>
        <time>2012-10-07T13:13:28.945Z</time>
      </trkpt>
      <trkpt lat="48.21099" lon="3.26208">
        <ele>109</ele>
        <time>2012-10-07T13:13:30.945Z</time>
      </trkpt>
      <trkpt lat="48.21098" lon="3.26219">
        <ele>109</ele>
        <time>2012-10-07T13:13:33.945Z</time>
      </trkpt>
      <trkpt lat="48.21098" lon="3.26227">
        <ele>109</ele>
        <time>2012-10-07T13:13:35.945Z</time>
      </trkpt>
      <trkpt lat="48.21097" lon="3.26238">
        <ele>110</ele>
        <time>2012-10-07T13:13:37.945Z</time>
      </trkpt>
      <trkpt lat="48.21097" lon="3.26247">
        <ele>110</ele>
        <time>2012-10-07T13:13:39.945Z</time>
      </trkpt>
      <trkpt lat="48.21096" lon="3.26257">
        <ele>110</ele>
        <time>2012-10-07T13:13:41.945Z</time>
      </trkpt>
      <trkpt lat="48.21096" lon="3.26268">
        <ele>110</ele>
        <time>2012-10-07T13:13:43.945Z</time>
      </trkpt>
      <trkpt lat="48.21095" lon="3.26277">
        <ele>109</ele>
        <time>2012-10-07T13:13:45.945Z</time>
      </trkpt>
      <trkpt lat="48.21094" lon="3.26288">
        <ele>109</ele>
        <time>2012-10-07T13:13:47.945Z</time>
      </trkpt>
      <trkpt lat="48.21092" lon="3.26296">
        <ele>109</ele>
        <time>2012-10-07T13:13:49.945Z</time>
      </trkpt>
      <trkpt lat="48.2109" lon="3.26305">
        <ele>109</ele>
        <time>2012-10-07T13:13:51.945Z</time>
      </trkpt>
      <trkpt lat="48.21088" lon="3.26313">
        <ele>109</ele>
        <time>2012-10-07T13:13:53.945Z</time>
      </trkpt>
      <trkpt lat="48.21086" lon="3.2632">
        <ele>110</ele>
        <time>2012-10-07T13:13:55.945Z</time>
      </trkpt>
      <trkpt lat="48.21084" lon="3.26326">
        <ele>110</ele>
        <time>2012-10-07T13:13:57.945Z</time>
      </trkpt>
      <trkpt lat="48.21079" lon="3.26328">
        <ele>111</ele>
        <time>2012-10-07T13:14:00.945Z</time>
      </trkpt>
      <trkpt lat="48.21075" lon="3.26322">
        <ele>112</ele>
        <time>2012-10-07T13:14:04.945Z</time>
      </trkpt>
      <trkpt lat="48.21071" lon="3.26315">
        <ele>112</ele>
        <time>2012-10-07T13:14:08.945Z</time>
      </trkpt>
      <trkpt lat="48.21067" lon="3.26311">
        <ele>112</ele>
        <time>2012-10-07T13:14:11.945Z</time>
      </trkpt>
      <trkpt lat="48.21062" lon="3.26305">
        <ele>112</ele>
        <time>2012-10-07T13:14:14.945Z</time>
      </trkpt>
      <trkpt lat="48.21058" lon="3.26298">
        <ele>113</ele>
        <time>2012-10-07T13:14:17.945Z</time>
      </trkpt>
      <trkpt lat="48.21053" lon="3.26292">
        <ele>113</ele>
        <time>2012-10-07T13:14:20.945Z</time>
      </trkpt>
      <trkpt lat="48.21049" lon="3.26288">
        <ele>113</ele>
        <time>2012-10-07T13:14:23.945Z</time>
      </trkpt>
      <trkpt lat="48.21044" lon="3.26283">
        <ele>114</ele>
        <time>2012-10-07T13:14:25.945Z</time>
      </trkpt>
      <trkpt lat="48.21039" lon="3.26279">
        <ele>114</ele>
        <time>2012-10-07T13:14:28.945Z</time>
      </trkpt>
      <trkpt lat="48.21034" lon="3.26272">
        <ele>115</ele>
        <time>2012-10-07T13:14:31.945Z</time>
      </trkpt>
      <trkpt lat="48.21027" lon="3.26268">
        <ele>115</ele>
        <time>2012-10-07T13:14:34.945Z</time>
      </trkpt>
      <trkpt lat="48.21021" lon="3.26264">
        <ele>116</ele>
        <time>2012-10-07T13:14:37.945Z</time>
      </trkpt>
      <trkpt lat="48.21016" lon="3.26262">
        <ele>117</ele>
        <time>2012-10-07T13:14:39.945Z</time>
      </trkpt>
      <trkpt lat="48.21011" lon="3.26257">
        <ele>119</ele>
        <time>2012-10-07T13:14:42.945Z</time>
      </trkpt>
      <trkpt lat="48.21005" lon="3.26253">
        <ele>121</ele>
        <time>2012-10-07T13:14:45.945Z</time>
      </trkpt>
      <trkpt lat="48.20998" lon="3.26249">
        <ele>123</ele>
        <time>2012-10-07T13:14:48.945Z</time>
      </trkpt>
      <trkpt lat="48.20991" lon="3.26244">
        <ele>124</ele>
        <time>2012-10-07T13:14:51.945Z</time>
      </trkpt>
      <trkpt lat="48.20985" lon="3.26238">
        <ele>125</ele>
        <time>2012-10-07T13:14:54.945Z</time>
      </trkpt>
      <trkpt lat="48.20981" lon="3.26234">
        <ele>125</ele>
        <time>2012-10-07T13:14:56.945Z</time>
      </trkpt>
      <trkpt lat="48.20976" lon="3.26227">
        <ele>125</ele>
        <time>2012-10-07T13:14:59.945Z</time>
      </trkpt>
      <trkpt lat="48.20971" lon="3.26221">
        <ele>126</ele>
        <time>2012-10-07T13:15:02.945Z</time>
      </trkpt>
      <trkpt lat="48.20966" lon="3.26217">
        <ele>126</ele>
        <time>2012-10-07T13:15:05.945Z</time>
      </trkpt>
      <trkpt lat="48.20962" lon="3.26212">
        <ele>126</ele>
        <time>2012-10-07T13:15:07.945Z</time>
      </trkpt>
      <trkpt lat="48.20956" lon="3.26208">
        <ele>127</ele>
        <time>2012-10-07T13:15:10.945Z</time>
      </trkpt>
      <trkpt lat="48.20952" lon="3.26204">
        <ele>127</ele>
        <time>2012-10-07T13:15:12.945Z</time>
      </trkpt>
      <trkpt lat="48.20948" lon="3.262">
        <ele>127</ele>
        <time>2012-10-07T13:15:14.945Z</time>
      </trkpt>
      <trkpt lat="48.20942" lon="3.26193">
        <ele>128</ele>
        <time>2012-10-07T13:15:17.945Z</time>
      </trkpt>
      <trkpt lat="48.20937" lon="3.26187">
        <ele>129</ele>
        <time>2012-10-07T13:15:20.945Z</time>
      </trkpt>
      <trkpt lat="48.20931" lon="3.26182">
        <ele>130</ele>
        <time>2012-10-07T13:15:23.945Z</time>
      </trkpt>
      <trkpt lat="48.20926" lon="3.26178">
        <ele>131</ele>
        <time>2012-10-07T13:15:25.945Z</time>
      </trkpt>
      <trkpt lat="48.20921" lon="3.26172">
        <ele>133</ele>
        <time>2012-10-07T13:15:28.945Z</time>
      </trkpt>
      <trkpt lat="48.20916" lon="3.26165">
        <ele>135</ele>
        <time>2012-10-07T13:15:31.945Z</time>
      </trkpt>
      <trkpt lat="48.2091" lon="3.26161">
        <ele>136</ele>
        <time>2012-10-07T13:15:34.945Z</time>
      </trkpt>
      <trkpt lat="48.20906" lon="3.26157">
        <ele>136</ele>
        <time>2012-10-07T13:15:37.945Z</time>
      </trkpt>
      <trkpt lat="48.20902" lon="3.26154">
        <ele>136</ele>
        <time>2012-10-07T13:15:40.945Z</time>
      </trkpt>
      <trkpt lat="48.20894" lon="3.26148">
        <ele>137</ele>
        <time>2012-10-07T13:15:46.945Z</time>
      </trkpt>
      <trkpt lat="48.2089" lon="3.26144">
        <ele>137</ele>
        <time>2012-10-07T13:15:49.945Z</time>
      </trkpt>
      <trkpt lat="48.2089" lon="3.26144">
        <ele>137</ele>
        <time>2012-10-07T13:15:49.945Z</time>
      </trkpt>
      <trkpt lat="48.2089" lon="3.26144">
        <ele>137</ele>
        <time>2012-10-07T13:15:50.945Z</time>
      </trkpt>
      <trkpt lat="48.20884" lon="3.26142">
        <ele>137</ele>
        <time>2012-10-07T13:15:52.945Z</time>
      </trkpt>
      <trkpt lat="48.20878" lon="3.26137">
        <ele>137</ele>
        <time>2012-10-07T13:15:56.945Z</time>
      </trkpt>
      <trkpt lat="48.20873" lon="3.26135">
        <ele>138</ele>
        <time>2012-10-07T13:15:59.945Z</time>
      </trkpt>
      <trkpt lat="48.20863" lon="3.26135">
        <ele>138</ele>
        <time>2012-10-07T13:16:04.945Z</time>
      </trkpt>
      <trkpt lat="48.20856" lon="3.26133">
        <ele>138</ele>
        <time>2012-10-07T13:16:07.945Z</time>
      </trkpt>
      <trkpt lat="48.2085" lon="3.26133">
        <ele>138</ele>
        <time>2012-10-07T13:16:10.945Z</time>
      </trkpt>
      <trkpt lat="48.20844" lon="3.26133">
        <ele>138</ele>
        <time>2012-10-07T13:16:13.945Z</time>
      </trkpt>
      <trkpt lat="48.20838" lon="3.26131">
        <ele>138</ele>
        <time>2012-10-07T13:16:15.945Z</time>
      </trkpt>
      <trkpt lat="48.20832" lon="3.26129">
        <ele>140</ele>
        <time>2012-10-07T13:16:18.945Z</time>
      </trkpt>
      <trkpt lat="48.20826" lon="3.26124">
        <ele>140</ele>
        <time>2012-10-07T13:16:20.945Z</time>
      </trkpt>
      <trkpt lat="48.2082" lon="3.2612">
        <ele>141</ele>
        <time>2012-10-07T13:16:23.945Z</time>
      </trkpt>
      <trkpt lat="48.20816" lon="3.26116">
        <ele>141</ele>
        <time>2012-10-07T13:16:25.945Z</time>
      </trkpt>
      <trkpt lat="48.20812" lon="3.26114">
        <ele>141</ele>
        <time>2012-10-07T13:16:27.945Z</time>
      </trkpt>
      <trkpt lat="48.20807" lon="3.26109">
        <ele>142</ele>
        <time>2012-10-07T13:16:29.945Z</time>
      </trkpt>
      <trkpt lat="48.20803" lon="3.26105">
        <ele>142</ele>
        <time>2012-10-07T13:16:31.945Z</time>
      </trkpt>
      <trkpt lat="48.20796" lon="3.26101">
        <ele>142</ele>
        <time>2012-10-07T13:16:33.945Z</time>
      </trkpt>
      <trkpt lat="48.20791" lon="3.26096">
        <ele>143</ele>
        <time>2012-10-07T13:16:35.945Z</time>
      </trkpt>
      <trkpt lat="48.20785" lon="3.26092">
        <ele>143</ele>
        <time>2012-10-07T13:16:37.945Z</time>
      </trkpt>
      <trkpt lat="48.2078" lon="3.26088">
        <ele>143</ele>
        <time>2012-10-07T13:16:39.945Z</time>
      </trkpt>
      <trkpt lat="48.20775" lon="3.26084">
        <ele>144</ele>
        <time>2012-10-07T13:16:41.945Z</time>
      </trkpt>
      <trkpt lat="48.20771" lon="3.26079">
        <ele>146</ele>
        <time>2012-10-07T13:16:43.945Z</time>
      </trkpt>
      <trkpt lat="48.20765" lon="3.26075">
        <ele>147</ele>
        <time>2012-10-07T13:16:45.945Z</time>
      </trkpt>
      <trkpt lat="48.20761" lon="3.26069">
        <ele>147</ele>
        <time>2012-10-07T13:16:47.945Z</time>
      </trkpt>
      <trkpt lat="48.20756" lon="3.26062">
        <ele>146</ele>
        <time>2012-10-07T13:16:49.945Z</time>
      </trkpt>
      <trkpt lat="48.2075" lon="3.26056">
        <ele>146</ele>
        <time>2012-10-07T13:16:51.945Z</time>
      </trkpt>
      <trkpt lat="48.20746" lon="3.26049">
        <ele>148</ele>
        <time>2012-10-07T13:16:53.945Z</time>
      </trkpt>
      <trkpt lat="48.20741" lon="3.26045">
        <ele>148</ele>
        <time>2012-10-07T13:16:55.945Z</time>
      </trkpt>
      <trkpt lat="48.20735" lon="3.26038">
        <ele>148</ele>
        <time>2012-10-07T13:16:57.945Z</time>
      </trkpt>
      <trkpt lat="48.2073" lon="3.26032">
        <ele>148</ele>
        <time>2012-10-07T13:16:59.945Z</time>
      </trkpt>
      <trkpt lat="48.20722" lon="3.26026">
        <ele>148</ele>
        <time>2012-10-07T13:17:01.945Z</time>
      </trkpt>
      <trkpt lat="48.20716" lon="3.26019">
        <ele>148</ele>
        <time>2012-10-07T13:17:03.945Z</time>
      </trkpt>
      <trkpt lat="48.20712" lon="3.26015">
        <ele>148</ele>
        <time>2012-10-07T13:17:04.945Z</time>
      </trkpt>
      <trkpt lat="48.20704" lon="3.26006">
        <ele>148</ele>
        <time>2012-10-07T13:17:06.945Z</time>
      </trkpt>
      <trkpt lat="48.20698" lon="3.25998">
        <ele>148</ele>
        <time>2012-10-07T13:17:08.945Z</time>
      </trkpt>
      <trkpt lat="48.20693" lon="3.25994">
        <ele>148</ele>
        <time>2012-10-07T13:17:09.945Z</time>
      </trkpt>
      <trkpt lat="48.20686" lon="3.25987">
        <ele>148</ele>
        <time>2012-10-07T13:17:11.945Z</time>
      </trkpt>
      <trkpt lat="48.20678" lon="3.25981">
        <ele>148</ele>
        <time>2012-10-07T13:17:13.945Z</time>
      </trkpt>
      <trkpt lat="48.2067" lon="3.25974">
        <ele>148</ele>
        <time>2012-10-07T13:17:15.945Z</time>
      </trkpt>
      <trkpt lat="48.20661" lon="3.2597">
        <ele>150</ele>
        <time>2012-10-07T13:17:17.945Z</time>
      </trkpt>
      <trkpt lat="48.20657" lon="3.25968">
        <ele>150</ele>
        <time>2012-10-07T13:17:18.945Z</time>
      </trkpt>
      <trkpt lat="48.20648" lon="3.25963">
        <ele>150</ele>
        <time>2012-10-07T13:17:20.945Z</time>
      </trkpt>
      <trkpt lat="48.20643" lon="3.25961">
        <ele>150</ele>
        <time>2012-10-07T13:17:21.945Z</time>
      </trkpt>
      <trkpt lat="48.20634" lon="3.25959">
        <ele>150</ele>
        <time>2012-10-07T13:17:23.945Z</time>
      </trkpt>
      <trkpt lat="48.20629" lon="3.25959">
        <ele>150</ele>
        <time>2012-10-07T13:17:24.945Z</time>
      </trkpt>
      <trkpt lat="48.20624" lon="3.25957">
        <ele>150</ele>
        <time>2012-10-07T13:17:25.945Z</time>
      </trkpt>
      <trkpt lat="48.20618" lon="3.25957">
        <ele>150</ele>
        <time>2012-10-07T13:17:26.945Z</time>
      </trkpt>
      <trkpt lat="48.20613" lon="3.25955">
        <ele>150</ele>
        <time>2012-10-07T13:17:27.945Z</time>
      </trkpt>
      <trkpt lat="48.20608" lon="3.25955">
        <ele>150</ele>
        <time>2012-10-07T13:17:28.945Z</time>
      </trkpt>
      <trkpt lat="48.20602" lon="3.25955">
        <ele>150</ele>
        <time>2012-10-07T13:17:29.945Z</time>
      </trkpt>
      <trkpt lat="48.20596" lon="3.25955">
        <ele>150</ele>
        <time>2012-10-07T13:17:30.945Z</time>
      </trkpt>
      <trkpt lat="48.2059" lon="3.25953">
        <ele>150</ele>
        <time>2012-10-07T13:17:31.945Z</time>
      </trkpt>
      <trkpt lat="48.20585" lon="3.25953">
        <ele>150</ele>
        <time>2012-10-07T13:17:32.945Z</time>
      </trkpt>
      <trkpt lat="48.2058" lon="3.25953">
        <ele>151</ele>
        <time>2012-10-07T13:17:33.945Z</time>
      </trkpt>
      <trkpt lat="48.20574" lon="3.25953">
        <ele>151</ele>
        <time>2012-10-07T13:17:34.945Z</time>
      </trkpt>
      <trkpt lat="48.20569" lon="3.25953">
        <ele>151</ele>
        <time>2012-10-07T13:17:35.945Z</time>
      </trkpt>
      <trkpt lat="48.20564" lon="3.25953">
        <ele>152</ele>
        <time>2012-10-07T13:17:36.945Z</time>
      </trkpt>
      <trkpt lat="48.20557" lon="3.25953">
        <ele>152</ele>
        <time>2012-10-07T13:17:37.945Z</time>
      </trkpt>
      <trkpt lat="48.20552" lon="3.25953">
        <ele>152</ele>
        <time>2012-10-07T13:17:38.945Z</time>
      </trkpt>
      <trkpt lat="48.20546" lon="3.25953">
        <ele>152</ele>
        <time>2012-10-07T13:17:39.945Z</time>
      </trkpt>
      <trkpt lat="48.20541" lon="3.25953">
        <ele>152</ele>
        <time>2012-10-07T13:17:40.945Z</time>
      </trkpt>
      <trkpt lat="48.20536" lon="3.25955">
        <ele>152</ele>
        <time>2012-10-07T13:17:41.945Z</time>
      </trkpt>
      <trkpt lat="48.2053" lon="3.25955">
        <ele>153</ele>
        <time>2012-10-07T13:17:42.945Z</time>
      </trkpt>
      <trkpt lat="48.20525" lon="3.25955">
        <ele>153</ele>
        <time>2012-10-07T13:17:43.945Z</time>
      </trkpt>
      <trkpt lat="48.2052" lon="3.25955">
        <ele>153</ele>
        <time>2012-10-07T13:17:44.945Z</time>
      </trkpt>
      <trkpt lat="48.20514" lon="3.25955">
        <ele>153</ele>
        <time>2012-10-07T13:17:45.945Z</time>
      </trkpt>
      <trkpt lat="48.20509" lon="3.25955">
        <ele>153</ele>
        <time>2012-10-07T13:17:46.945Z</time>
      </trkpt>
      <trkpt lat="48.20504" lon="3.25955">
        <ele>153</ele>
        <time>2012-10-07T13:17:47.945Z</time>
      </trkpt>
      <trkpt lat="48.20498" lon="3.25955">
        <ele>155</ele>
        <time>2012-10-07T13:17:48.945Z</time>
      </trkpt>
      <trkpt lat="48.20488" lon="3.25955">
        <ele>155</ele>
        <time>2012-10-07T13:17:50.945Z</time>
      </trkpt>
      <trkpt lat="48.20479" lon="3.25955">
        <ele>155</ele>
        <time>2012-10-07T13:17:52.945Z</time>
      </trkpt>
      <trkpt lat="48.20469" lon="3.25955">
        <ele>155</ele>
        <time>2012-10-07T13:17:54.945Z</time>
      </trkpt>
      <trkpt lat="48.2046" lon="3.25953">
        <ele>155</ele>
        <time>2012-10-07T13:17:56.945Z</time>
      </trkpt>
      <trkpt lat="48.20455" lon="3.25951">
        <ele>155</ele>
        <time>2012-10-07T13:17:57.945Z</time>
      </trkpt>
      <trkpt lat="48.2045" lon="3.25951">
        <ele>155</ele>
        <time>2012-10-07T13:17:58.945Z</time>
      </trkpt>
      <trkpt lat="48.20444" lon="3.25948">
        <ele>155</ele>
        <time>2012-10-07T13:17:59.945Z</time>
      </trkpt>
      <trkpt lat="48.20435" lon="3.25946">
        <ele>155</ele>
        <time>2012-10-07T13:18:01.945Z</time>
      </trkpt>
      <trkpt lat="48.20426" lon="3.25942">
        <ele>156</ele>
        <time>2012-10-07T13:18:03.945Z</time>
      </trkpt>
      <trkpt lat="48.20421" lon="3.2594">
        <ele>156</ele>
        <time>2012-10-07T13:18:04.945Z</time>
      </trkpt>
      <trkpt lat="48.20416" lon="3.25938">
        <ele>155</ele>
        <time>2012-10-07T13:18:05.945Z</time>
      </trkpt>
      <trkpt lat="48.2041" lon="3.25936">
        <ele>155</ele>
        <time>2012-10-07T13:18:06.945Z</time>
      </trkpt>
      <trkpt lat="48.20405" lon="3.25933">
        <ele>155</ele>
        <time>2012-10-07T13:18:07.945Z</time>
      </trkpt>
      <trkpt lat="48.204" lon="3.25931">
        <ele>155</ele>
        <time>2012-10-07T13:18:08.945Z</time>
      </trkpt>
      <trkpt lat="48.20394" lon="3.25929">
        <ele>155</ele>
        <time>2012-10-07T13:18:09.945Z</time>
      </trkpt>
      <trkpt lat="48.20389" lon="3.25927">
        <ele>154</ele>
        <time>2012-10-07T13:18:10.945Z</time>
      </trkpt>
      <trkpt lat="48.20383" lon="3.25925">
        <ele>154</ele>
        <time>2012-10-07T13:18:11.945Z</time>
      </trkpt>
      <trkpt lat="48.20378" lon="3.2592">
        <ele>154</ele>
        <time>2012-10-07T13:18:12.945Z</time>
      </trkpt>
      <trkpt lat="48.20369" lon="3.25916">
        <ele>155</ele>
        <time>2012-10-07T13:18:14.945Z</time>
      </trkpt>
      <trkpt lat="48.20362" lon="3.25914">
        <ele>155</ele>
        <time>2012-10-07T13:18:16.945Z</time>
      </trkpt>
      <trkpt lat="48.20354" lon="3.2591">
        <ele>155</ele>
        <time>2012-10-07T13:18:18.945Z</time>
      </trkpt>
      <trkpt lat="48.20347" lon="3.25906">
        <ele>155</ele>
        <time>2012-10-07T13:18:20.945Z</time>
      </trkpt>
      <trkpt lat="48.20343" lon="3.25901">
        <ele>155</ele>
        <time>2012-10-07T13:18:21.945Z</time>
      </trkpt>
      <trkpt lat="48.20334" lon="3.25897">
        <ele>155</ele>
        <time>2012-10-07T13:18:23.945Z</time>
      </trkpt>
      <trkpt lat="48.20325" lon="3.2589">
        <ele>156</ele>
        <time>2012-10-07T13:18:25.945Z</time>
      </trkpt>
      <trkpt lat="48.20317" lon="3.25886">
        <ele>156</ele>
        <time>2012-10-07T13:18:27.945Z</time>
      </trkpt>
      <trkpt lat="48.20313" lon="3.25884">
        <ele>156</ele>
        <time>2012-10-07T13:18:28.945Z</time>
      </trkpt>
      <trkpt lat="48.20308" lon="3.25882">
        <ele>156</ele>
        <time>2012-10-07T13:18:29.945Z</time>
      </trkpt>
      <trkpt lat="48.203" lon="3.25878">
        <ele>156</ele>
        <time>2012-10-07T13:18:31.945Z</time>
      </trkpt>
      <trkpt lat="48.20291" lon="3.25873">
        <ele>156</ele>
        <time>2012-10-07T13:18:33.945Z</time>
      </trkpt>
      <trkpt lat="48.20282" lon="3.25869">
        <ele>157</ele>
        <time>2012-10-07T13:18:35.945Z</time>
      </trkpt>
      <trkpt lat="48.20277" lon="3.25867">
        <ele>157</ele>
        <time>2012-10-07T13:18:36.945Z</time>
      </trkpt>
      <trkpt lat="48.20273" lon="3.25865">
        <ele>157</ele>
        <time>2012-10-07T13:18:37.945Z</time>
      </trkpt>
      <trkpt lat="48.20263" lon="3.25863">
        <ele>157</ele>
        <time>2012-10-07T13:18:39.945Z</time>
      </trkpt>
      <trkpt lat="48.20255" lon="3.2586">
        <ele>157</ele>
        <time>2012-10-07T13:18:41.945Z</time>
      </trkpt>
      <trkpt lat="48.20245" lon="3.25856">
        <ele>158</ele>
        <time>2012-10-07T13:18:43.945Z</time>
      </trkpt>
      <trkpt lat="48.20236" lon="3.25854">
        <ele>158</ele>
        <time>2012-10-07T13:18:45.945Z</time>
      </trkpt>
      <trkpt lat="48.20231" lon="3.25854">
        <ele>158</ele>
        <time>2012-10-07T13:18:46.945Z</time>
      </trkpt>
      <trkpt lat="48.20221" lon="3.2585">
        <ele>158</ele>
        <time>2012-10-07T13:18:48.945Z</time>
      </trkpt>
      <trkpt lat="48.20212" lon="3.25848">
        <ele>158</ele>
        <time>2012-10-07T13:18:50.945Z</time>
      </trkpt>
      <trkpt lat="48.20203" lon="3.25843">
        <ele>158</ele>
        <time>2012-10-07T13:18:52.945Z</time>
      </trkpt>
      <trkpt lat="48.20198" lon="3.25841">
        <ele>158</ele>
        <time>2012-10-07T13:18:53.945Z</time>
      </trkpt>
      <trkpt lat="48.20188" lon="3.25837">
        <ele>159</ele>
        <time>2012-10-07T13:18:55.945Z</time>
      </trkpt>
      <trkpt lat="48.20183" lon="3.25835">
        <ele>159</ele>
        <time>2012-10-07T13:18:56.945Z</time>
      </trkpt>
      <trkpt lat="48.20178" lon="3.25833">
        <ele>159</ele>
        <time>2012-10-07T13:18:57.945Z</time>
      </trkpt>
      <trkpt lat="48.20173" lon="3.2583">
        <ele>159</ele>
        <time>2012-10-07T13:18:58.945Z</time>
      </trkpt>
      <trkpt lat="48.20168" lon="3.25828">
        <ele>159</ele>
        <time>2012-10-07T13:18:59.945Z</time>
      </trkpt>
      <trkpt lat="48.20158" lon="3.25826">
        <ele>160</ele>
        <time>2012-10-07T13:19:01.945Z</time>
      </trkpt>
      <trkpt lat="48.20148" lon="3.25822">
        <ele>160</ele>
        <time>2012-10-07T13:19:03.945Z</time>
      </trkpt>
      <trkpt lat="48.20139" lon="3.2582">
        <ele>160</ele>
        <time>2012-10-07T13:19:05.945Z</time>
      </trkpt>
      <trkpt lat="48.20129" lon="3.25818">
        <ele>160</ele>
        <time>2012-10-07T13:19:07.945Z</time>
      </trkpt>
      <trkpt lat="48.20124" lon="3.25815">
        <ele>160</ele>
        <time>2012-10-07T13:19:08.945Z</time>
      </trkpt>
      <trkpt lat="48.20114" lon="3.25813">
        <ele>161</ele>
        <time>2012-10-07T13:19:10.945Z</time>
      </trkpt>
      <trkpt lat="48.20109" lon="3.25813">
        <ele>161</ele>
        <time>2012-10-07T13:19:11.945Z</time>
      </trkpt>
      <trkpt lat="48.20103" lon="3.25811">
        <ele>161</ele>
        <time>2012-10-07T13:19:12.945Z</time>
      </trkpt>
      <trkpt lat="48.20094" lon="3.25811">
        <ele>161</ele>
        <time>2012-10-07T13:19:14.945Z</time>
      </trkpt>
      <trkpt lat="48.20088" lon="3.25809">
        <ele>161</ele>
        <time>2012-10-07T13:19:15.945Z</time>
      </trkpt>
      <trkpt lat="48.20083" lon="3.25809">
        <ele>162</ele>
        <time>2012-10-07T13:19:16.945Z</time>
      </trkpt>
      <trkpt lat="48.20079" lon="3.25807">
        <ele>162</ele>
        <time>2012-10-07T13:19:17.945Z</time>
      </trkpt>
      <trkpt lat="48.20073" lon="3.25807">
        <ele>162</ele>
        <time>2012-10-07T13:19:18.945Z</time>
      </trkpt>
      <trkpt lat="48.20068" lon="3.25805">
        <ele>162</ele>
        <time>2012-10-07T13:19:19.945Z</time>
      </trkpt>
      <trkpt lat="48.20063" lon="3.25802">
        <ele>162</ele>
        <time>2012-10-07T13:19:20.945Z</time>
      </trkpt>
      <trkpt lat="48.20053" lon="3.25796">
        <ele>162</ele>
        <time>2012-10-07T13:19:22.945Z</time>
      </trkpt>
      <trkpt lat="48.20048" lon="3.25794">
        <ele>162</ele>
        <time>2012-10-07T13:19:23.945Z</time>
      </trkpt>
      <trkpt lat="48.20038" lon="3.25788">
        <ele>161</ele>
        <time>2012-10-07T13:19:25.945Z</time>
      </trkpt>
      <trkpt lat="48.20034" lon="3.25783">
        <ele>161</ele>
        <time>2012-10-07T13:19:26.945Z</time>
      </trkpt>
      <trkpt lat="48.20028" lon="3.25781">
        <ele>161</ele>
        <time>2012-10-07T13:19:27.945Z</time>
      </trkpt>
      <trkpt lat="48.20024" lon="3.25777">
        <ele>161</ele>
        <time>2012-10-07T13:19:28.945Z</time>
      </trkpt>
      <trkpt lat="48.2002" lon="3.25775">
        <ele>161</ele>
        <time>2012-10-07T13:19:29.945Z</time>
      </trkpt>
      <trkpt lat="48.20014" lon="3.2577">
        <ele>161</ele>
        <time>2012-10-07T13:19:30.945Z</time>
      </trkpt>
      <trkpt lat="48.20005" lon="3.25764">
        <ele>161</ele>
        <time>2012-10-07T13:19:32.945Z</time>
      </trkpt>
      <trkpt lat="48.19999" lon="3.25762">
        <ele>161</ele>
        <time>2012-10-07T13:19:33.945Z</time>
      </trkpt>
      <trkpt lat="48.19995" lon="3.25758">
        <ele>161</ele>
        <time>2012-10-07T13:19:34.945Z</time>
      </trkpt>
      <trkpt lat="48.1999" lon="3.25755">
        <ele>161</ele>
        <time>2012-10-07T13:19:35.945Z</time>
      </trkpt>
      <trkpt lat="48.19985" lon="3.25751">
        <ele>162</ele>
        <time>2012-10-07T13:19:36.945Z</time>
      </trkpt>
      <trkpt lat="48.1998" lon="3.25749">
        <ele>163</ele>
        <time>2012-10-07T13:19:37.945Z</time>
      </trkpt>
      <trkpt lat="48.19975" lon="3.25745">
        <ele>163</ele>
        <time>2012-10-07T13:19:38.945Z</time>
      </trkpt>
      <trkpt lat="48.19965" lon="3.25738">
        <ele>164</ele>
        <time>2012-10-07T13:19:40.945Z</time>
      </trkpt>
      <trkpt lat="48.19961" lon="3.25736">
        <ele>164</ele>
        <time>2012-10-07T13:19:41.945Z</time>
      </trkpt>
      <trkpt lat="48.19956" lon="3.25734">
        <ele>164</ele>
        <time>2012-10-07T13:19:42.945Z</time>
      </trkpt>
      <trkpt lat="48.19952" lon="3.2573">
        <ele>165</ele>
        <time>2012-10-07T13:19:43.945Z</time>
      </trkpt>
      <trkpt lat="48.19945" lon="3.25725">
        <ele>165</ele>
        <time>2012-10-07T13:19:45.945Z</time>
      </trkpt>
      <trkpt lat="48.1994" lon="3.25723">
        <ele>165</ele>
        <time>2012-10-07T13:19:46.945Z</time>
      </trkpt>
      <trkpt lat="48.19934" lon="3.25717">
        <ele>165</ele>
        <time>2012-10-07T13:19:48.945Z</time>
      </trkpt>
      <trkpt lat="48.19927" lon="3.25712">
        <ele>165</ele>
        <time>2012-10-07T13:19:50.945Z</time>
      </trkpt>
      <trkpt lat="48.19923" lon="3.25708">
        <ele>166</ele>
        <time>2012-10-07T13:19:51.945Z</time>
      </trkpt>
      <trkpt lat="48.19917" lon="3.25704">
        <ele>166</ele>
        <time>2012-10-07T13:19:53.945Z</time>
      </trkpt>
      <trkpt lat="48.1991" lon="3.25697">
        <ele>168</ele>
        <time>2012-10-07T13:19:55.945Z</time>
      </trkpt>
      <trkpt lat="48.19904" lon="3.25691">
        <ele>168</ele>
        <time>2012-10-07T13:19:57.945Z</time>
      </trkpt>
      <trkpt lat="48.19897" lon="3.25687">
        <ele>168</ele>
        <time>2012-10-07T13:19:59.945Z</time>
      </trkpt>
      <trkpt lat="48.1989" lon="3.2568">
        <ele>168</ele>
        <time>2012-10-07T13:20:01.945Z</time>
      </trkpt>
      <trkpt lat="48.19883" lon="3.25674">
        <ele>168</ele>
        <time>2012-10-07T13:20:03.945Z</time>
      </trkpt>
      <trkpt lat="48.19877" lon="3.2567">
        <ele>168</ele>
        <time>2012-10-07T13:20:05.945Z</time>
      </trkpt>
      <trkpt lat="48.1987" lon="3.25665">
        <ele>169</ele>
        <time>2012-10-07T13:20:07.945Z</time>
      </trkpt>
      <trkpt lat="48.19864" lon="3.25661">
        <ele>169</ele>
        <time>2012-10-07T13:20:09.945Z</time>
      </trkpt>
      <trkpt lat="48.19858" lon="3.25657">
        <ele>169</ele>
        <time>2012-10-07T13:20:11.945Z</time>
      </trkpt>
      <trkpt lat="48.19851" lon="3.2565">
        <ele>169</ele>
        <time>2012-10-07T13:20:13.945Z</time>
      </trkpt>
      <trkpt lat="48.19846" lon="3.25646">
        <ele>169</ele>
        <time>2012-10-07T13:20:15.945Z</time>
      </trkpt>
      <trkpt lat="48.19842" lon="3.25639">
        <ele>169</ele>
        <time>2012-10-07T13:20:17.945Z</time>
      </trkpt>
      <trkpt lat="48.19842" lon="3.25629">
        <ele>170</ele>
        <time>2012-10-07T13:20:21.945Z</time>
      </trkpt>
      <trkpt lat="48.19842" lon="3.25629">
        <ele>170</ele>
        <time>2012-10-07T13:20:21.945Z</time>
      </trkpt>
      <trkpt lat="48.19842" lon="3.25629">
        <ele>170</ele>
        <time>2012-10-07T13:20:23.945Z</time>
      </trkpt>
      <trkpt lat="48.19846" lon="3.25622">
        <ele>170</ele>
        <time>2012-10-07T13:20:24.945Z</time>
      </trkpt>
      <trkpt lat="48.19846" lon="3.25622">
        <ele>170</ele>
        <time>2012-10-07T13:20:24.945Z</time>
      </trkpt>
      <trkpt lat="48.19846" lon="3.25622">
        <ele>170</ele>
        <time>2012-10-07T13:20:26.945Z</time>
      </trkpt>
      <trkpt lat="48.1985" lon="3.25618">
        <ele>170</ele>
        <time>2012-10-07T13:20:27.945Z</time>
      </trkpt>
      <trkpt lat="48.1985" lon="3.25618">
        <ele>170</ele>
        <time>2012-10-07T13:20:27.945Z</time>
      </trkpt>
      <trkpt lat="48.1985" lon="3.25618">
        <ele>170</ele>
        <time>2012-10-07T13:20:28.945Z</time>
      </trkpt>
      <trkpt lat="48.19857" lon="3.25618">
        <ele>170</ele>
        <time>2012-10-07T13:20:30.945Z</time>
      </trkpt>
      <trkpt lat="48.1986" lon="3.25612">
        <ele>170</ele>
        <time>2012-10-07T13:20:32.945Z</time>
      </trkpt>
      <trkpt lat="48.19865" lon="3.25605">
        <ele>170</ele>
        <time>2012-10-07T13:20:34.945Z</time>
      </trkpt>
      <trkpt lat="48.19872" lon="3.25594">
        <ele>169</ele>
        <time>2012-10-07T13:20:36.945Z</time>
      </trkpt>
      <trkpt lat="48.19877" lon="3.25586">
        <ele>169</ele>
        <time>2012-10-07T13:20:38.945Z</time>
      </trkpt>
      <trkpt lat="48.19887" lon="3.25573">
        <ele>168</ele>
        <time>2012-10-07T13:20:44.945Z</time>
      </trkpt>
      <trkpt lat="48.19887" lon="3.25573">
        <ele>168</ele>
        <time>2012-10-07T13:20:44.945Z</time>
      </trkpt>
      <trkpt lat="48.19887" lon="3.25573">
        <ele>168</ele>
        <time>2012-10-07T13:20:46.945Z</time>
      </trkpt>
      <trkpt lat="48.19889" lon="3.25564">
        <ele>168</ele>
        <time>2012-10-07T13:20:47.945Z</time>
      </trkpt>
      <trkpt lat="48.19891" lon="3.25554">
        <ele>168</ele>
        <time>2012-10-07T13:20:49.945Z</time>
      </trkpt>
      <trkpt lat="48.19893" lon="3.25543">
        <ele>167</ele>
        <time>2012-10-07T13:20:51.945Z</time>
      </trkpt>
      <trkpt lat="48.19896" lon="3.25536">
        <ele>167</ele>
        <time>2012-10-07T13:20:53.945Z</time>
      </trkpt>
      <trkpt lat="48.19903" lon="3.25519">
        <ele>166</ele>
        <time>2012-10-07T13:20:59.945Z</time>
      </trkpt>
      <trkpt lat="48.19903" lon="3.25519">
        <ele>166</ele>
        <time>2012-10-07T13:20:59.945Z</time>
      </trkpt>
      <trkpt lat="48.19903" lon="3.25519">
        <ele>166</ele>
        <time>2012-10-07T13:21:02.945Z</time>
      </trkpt>
      <trkpt lat="48.19903" lon="3.25502">
        <ele>165</ele>
        <time>2012-10-07T13:21:03.945Z</time>
      </trkpt>
      <trkpt lat="48.19902" lon="3.25491">
        <ele>164</ele>
        <time>2012-10-07T13:21:05.945Z</time>
      </trkpt>
      <trkpt lat="48.199" lon="3.25481">
        <ele>164</ele>
        <time>2012-10-07T13:21:07.945Z</time>
      </trkpt>
      <trkpt lat="48.19896" lon="3.25472">
        <ele>164</ele>
        <time>2012-10-07T13:21:09.945Z</time>
      </trkpt>
      <trkpt lat="48.19891" lon="3.25468">
        <ele>165</ele>
        <time>2012-10-07T13:21:11.945Z</time>
      </trkpt>
      <trkpt lat="48.19886" lon="3.25466">
        <ele>165</ele>
        <time>2012-10-07T13:21:13.945Z</time>
      </trkpt>
      <trkpt lat="48.19876" lon="3.25453">
        <ele>165</ele>
        <time>2012-10-07T13:21:18.945Z</time>
      </trkpt>
      <trkpt lat="48.19876" lon="3.25453">
        <ele>165</ele>
        <time>2012-10-07T13:21:18.945Z</time>
      </trkpt>
      <trkpt lat="48.19876" lon="3.25453">
        <ele>165</ele>
        <time>2012-10-07T13:21:21.945Z</time>
      </trkpt>
      <trkpt lat="48.1987" lon="3.2544">
        <ele>165</ele>
        <time>2012-10-07T13:21:22.945Z</time>
      </trkpt>
      <trkpt lat="48.1987" lon="3.2544">
        <ele>165</ele>
        <time>2012-10-07T13:21:22.945Z</time>
      </trkpt>
      <trkpt lat="48.1987" lon="3.2544">
        <ele>165</ele>
        <time>2012-10-07T13:21:26.945Z</time>
      </trkpt>
      <trkpt lat="48.19864" lon="3.25429">
        <ele>165</ele>
        <time>2012-10-07T13:21:27.945Z</time>
      </trkpt>
      <trkpt lat="48.19864" lon="3.25429">
        <ele>165</ele>
        <time>2012-10-07T13:21:27.945Z</time>
      </trkpt>
      <trkpt lat="48.19864" lon="3.25429">
        <ele>165</ele>
        <time>2012-10-07T13:21:31.945Z</time>
      </trkpt>
      <trkpt lat="48.19857" lon="3.25421">
        <ele>166</ele>
        <time>2012-10-07T13:21:32.945Z</time>
      </trkpt>
      <trkpt lat="48.19857" lon="3.25421">
        <ele>166</ele>
        <time>2012-10-07T13:21:32.945Z</time>
      </trkpt>
      <trkpt lat="48.19857" lon="3.25421">
        <ele>166</ele>
        <time>2012-10-07T13:21:35.945Z</time>
      </trkpt>
      <trkpt lat="48.19849" lon="3.25412">
        <ele>164</ele>
        <time>2012-10-07T13:21:36.945Z</time>
      </trkpt>
      <trkpt lat="48.19849" lon="3.25412">
        <ele>164</ele>
        <time>2012-10-07T13:21:36.945Z</time>
      </trkpt>
      <trkpt lat="48.19849" lon="3.25412">
        <ele>164</ele>
        <time>2012-10-07T13:21:37.945Z</time>
      </trkpt>
      <trkpt lat="48.19844" lon="3.25408">
        <ele>164</ele>
        <time>2012-10-07T13:21:38.945Z</time>
      </trkpt>
      <trkpt lat="48.19838" lon="3.25399">
        <ele>164</ele>
        <time>2012-10-07T13:21:40.945Z</time>
      </trkpt>
      <trkpt lat="48.19833" lon="3.25393">
        <ele>166</ele>
        <time>2012-10-07T13:21:42.945Z</time>
      </trkpt>
      <trkpt lat="48.19828" lon="3.25384">
        <ele>166</ele>
        <time>2012-10-07T13:21:44.945Z</time>
      </trkpt>
      <trkpt lat="48.19823" lon="3.25378">
        <ele>166</ele>
        <time>2012-10-07T13:21:46.945Z</time>
      </trkpt>
      <trkpt lat="48.19818" lon="3.25373">
        <ele>166</ele>
        <time>2012-10-07T13:21:48.945Z</time>
      </trkpt>
      <trkpt lat="48.19814" lon="3.25365">
        <ele>166</ele>
        <time>2012-10-07T13:21:50.945Z</time>
      </trkpt>
      <trkpt lat="48.19809" lon="3.2536">
        <ele>166</ele>
        <time>2012-10-07T13:21:52.945Z</time>
      </trkpt>
      <trkpt lat="48.19805" lon="3.25354">
        <ele>166</ele>
        <time>2012-10-07T13:21:54.945Z</time>
      </trkpt>
      <trkpt lat="48.19805" lon="3.25354">
        <ele>166</ele>
        <time>2012-10-07T13:21:54.945Z</time>
      </trkpt>
      <trkpt lat="48.19805" lon="3.25354">
        <ele>166</ele>
        <time>2012-10-07T13:21:58.945Z</time>
      </trkpt>
      <trkpt lat="48.19799" lon="3.25343">
        <ele>166</ele>
        <time>2012-10-07T13:21:59.945Z</time>
      </trkpt>
      <trkpt lat="48.19799" lon="3.25343">
        <ele>166</ele>
        <time>2012-10-07T13:21:59.945Z</time>
      </trkpt>
      <trkpt lat="48.19799" lon="3.25343">
        <ele>166</ele>
        <time>2012-10-07T13:22:02.945Z</time>
      </trkpt>
      <trkpt lat="48.19791" lon="3.25328">
        <ele>164</ele>
        <time>2012-10-07T13:22:03.945Z</time>
      </trkpt>
      <trkpt lat="48.19785" lon="3.2532">
        <ele>164</ele>
        <time>2012-10-07T13:22:05.945Z</time>
      </trkpt>
      <trkpt lat="48.1978" lon="3.25313">
        <ele>165</ele>
        <time>2012-10-07T13:22:06.945Z</time>
      </trkpt>
      <trkpt lat="48.19773" lon="3.25305">
        <ele>165</ele>
        <time>2012-10-07T13:22:08.945Z</time>
      </trkpt>
      <trkpt lat="48.19766" lon="3.25296">
        <ele>165</ele>
        <time>2012-10-07T13:22:10.945Z</time>
      </trkpt>
      <trkpt lat="48.19761" lon="3.25288">
        <ele>165</ele>
        <time>2012-10-07T13:22:12.945Z</time>
      </trkpt>
      <trkpt lat="48.19756" lon="3.25279">
        <ele>165</ele>
        <time>2012-10-07T13:22:14.945Z</time>
      </trkpt>
      <trkpt lat="48.19749" lon="3.2527">
        <ele>169</ele>
        <time>2012-10-07T13:22:16.945Z</time>
      </trkpt>
      <trkpt lat="48.19744" lon="3.2526">
        <ele>168</ele>
        <time>2012-10-07T13:22:18.945Z</time>
      </trkpt>
      <trkpt lat="48.1974" lon="3.25251">
        <ele>168</ele>
        <time>2012-10-07T13:22:20.945Z</time>
      </trkpt>
      <trkpt lat="48.19736" lon="3.25242">
        <ele>167</ele>
        <time>2012-10-07T13:22:22.945Z</time>
      </trkpt>
      <trkpt lat="48.19733" lon="3.25236">
        <ele>167</ele>
        <time>2012-10-07T13:22:24.945Z</time>
      </trkpt>
      <trkpt lat="48.19729" lon="3.25232">
        <ele>166</ele>
        <time>2012-10-07T13:22:26.945Z</time>
      </trkpt>
      <trkpt lat="48.19725" lon="3.25225">
        <ele>166</ele>
        <time>2012-10-07T13:22:28.945Z</time>
      </trkpt>
      <trkpt lat="48.19725" lon="3.25225">
        <ele>166</ele>
        <time>2012-10-07T13:22:28.945Z</time>
      </trkpt>
      <trkpt lat="48.19725" lon="3.25225">
        <ele>166</ele>
        <time>2012-10-07T13:22:31.945Z</time>
      </trkpt>
      <trkpt lat="48.19716" lon="3.25212">
        <ele>166</ele>
        <time>2012-10-07T13:22:32.945Z</time>
      </trkpt>
      <trkpt lat="48.19712" lon="3.25204">
        <ele>166</ele>
        <time>2012-10-07T13:22:34.945Z</time>
      </trkpt>
      <trkpt lat="48.19708" lon="3.25195">
        <ele>166</ele>
        <time>2012-10-07T13:22:36.945Z</time>
      </trkpt>
      <trkpt lat="48.19705" lon="3.25187">
        <ele>166</ele>
        <time>2012-10-07T13:22:38.945Z</time>
      </trkpt>
      <trkpt lat="48.19703" lon="3.25178">
        <ele>166</ele>
        <time>2012-10-07T13:22:40.945Z</time>
      </trkpt>
      <trkpt lat="48.19699" lon="3.2517">
        <ele>166</ele>
        <time>2012-10-07T13:22:42.945Z</time>
      </trkpt>
      <trkpt lat="48.19695" lon="3.25161">
        <ele>164</ele>
        <time>2012-10-07T13:22:44.945Z</time>
      </trkpt>
      <trkpt lat="48.19691" lon="3.25152">
        <ele>164</ele>
        <time>2012-10-07T13:22:46.945Z</time>
      </trkpt>
      <trkpt lat="48.19691" lon="3.25152">
        <ele>164</ele>
        <time>2012-10-07T13:22:46.945Z</time>
      </trkpt>
      <trkpt lat="48.19691" lon="3.25152">
        <ele>164</ele>
        <time>2012-10-07T13:22:47.945Z</time>
      </trkpt>
      <trkpt lat="48.19689" lon="3.25146">
        <ele>164</ele>
        <time>2012-10-07T13:22:48.945Z</time>
      </trkpt>
      <trkpt lat="48.19689" lon="3.25146">
        <ele>164</ele>
        <time>2012-10-07T13:22:48.945Z</time>
      </trkpt>
      <trkpt lat="48.19689" lon="3.25146">
        <ele>164</ele>
        <time>2012-10-07T13:22:49.945Z</time>
      </trkpt>
      <trkpt lat="48.19687" lon="3.2514">
        <ele>163</ele>
        <time>2012-10-07T13:22:50.945Z</time>
      </trkpt>
      <trkpt lat="48.19687" lon="3.2514">
        <ele>163</ele>
        <time>2012-10-07T13:22:50.945Z</time>
      </trkpt>
      <trkpt lat="48.19687" lon="3.2514">
        <ele>163</ele>
        <time>2012-10-07T13:22:52.945Z</time>
      </trkpt>
      <trkpt lat="48.19682" lon="3.25133">
        <ele>163</ele>
        <time>2012-10-07T13:22:53.945Z</time>
      </trkpt>
      <trkpt lat="48.19682" lon="3.25133">
        <ele>163</ele>
        <time>2012-10-07T13:22:53.945Z</time>
      </trkpt>
      <trkpt lat="48.19682" lon="3.25133">
        <ele>163</ele>
        <time>2012-10-07T13:22:55.945Z</time>
      </trkpt>
      <trkpt lat="48.19675" lon="3.25127">
        <ele>164</ele>
        <time>2012-10-07T13:22:56.945Z</time>
      </trkpt>
      <trkpt lat="48.19675" lon="3.25127">
        <ele>164</ele>
        <time>2012-10-07T13:22:56.945Z</time>
      </trkpt>
      <trkpt lat="48.19675" lon="3.25127">
        <ele>164</ele>
        <time>2012-10-07T13:22:59.945Z</time>
      </trkpt>
      <trkpt lat="48.19667" lon="3.2512">
        <ele>164</ele>
        <time>2012-10-07T13:23:00.945Z</time>
      </trkpt>
      <trkpt lat="48.19667" lon="3.2512">
        <ele>164</ele>
        <time>2012-10-07T13:23:00.945Z</time>
      </trkpt>
      <trkpt lat="48.19667" lon="3.2512">
        <ele>164</ele>
        <time>2012-10-07T13:23:03.945Z</time>
      </trkpt>
      <trkpt lat="48.19657" lon="3.25112">
        <ele>167</ele>
        <time>2012-10-07T13:23:04.945Z</time>
      </trkpt>
      <trkpt lat="48.19654" lon="3.25105">
        <ele>167</ele>
        <time>2012-10-07T13:23:06.945Z</time>
      </trkpt>
      <trkpt lat="48.19654" lon="3.25105">
        <ele>167</ele>
        <time>2012-10-07T13:23:06.945Z</time>
      </trkpt>
      <trkpt lat="48.19654" lon="3.25105">
        <ele>167</ele>
        <time>2012-10-07T13:23:08.945Z</time>
      </trkpt>
      <trkpt lat="48.19648" lon="3.25097">
        <ele>167</ele>
        <time>2012-10-07T13:23:09.945Z</time>
      </trkpt>
      <trkpt lat="48.19648" lon="3.25097">
        <ele>167</ele>
        <time>2012-10-07T13:23:09.945Z</time>
      </trkpt>
      <trkpt lat="48.19648" lon="3.25097">
        <ele>167</ele>
        <time>2012-10-07T13:23:11.945Z</time>
      </trkpt>
      <trkpt lat="48.19643" lon="3.2509">
        <ele>167</ele>
        <time>2012-10-07T13:23:12.945Z</time>
      </trkpt>
      <trkpt lat="48.19638" lon="3.25084">
        <ele>167</ele>
        <time>2012-10-07T13:23:15.945Z</time>
      </trkpt>
      <trkpt lat="48.19638" lon="3.25084">
        <ele>167</ele>
        <time>2012-10-07T13:23:15.945Z</time>
      </trkpt>
      <trkpt lat="48.19638" lon="3.25084">
        <ele>167</ele>
        <time>2012-10-07T13:23:16.945Z</time>
      </trkpt>
      <trkpt lat="48.19633" lon="3.25077">
        <ele>165</ele>
        <time>2012-10-07T13:23:17.945Z</time>
      </trkpt>
      <trkpt lat="48.19633" lon="3.25077">
        <ele>165</ele>
        <time>2012-10-07T13:23:17.945Z</time>
      </trkpt>
      <trkpt lat="48.19633" lon="3.25077">
        <ele>165</ele>
        <time>2012-10-07T13:23:18.945Z</time>
      </trkpt>
      <trkpt lat="48.19628" lon="3.25069">
        <ele>165</ele>
        <time>2012-10-07T13:23:19.945Z</time>
      </trkpt>
      <trkpt lat="48.19623" lon="3.25062">
        <ele>164</ele>
        <time>2012-10-07T13:23:21.945Z</time>
      </trkpt>
      <trkpt lat="48.19617" lon="3.25054">
        <ele>164</ele>
        <time>2012-10-07T13:23:23.945Z</time>
      </trkpt>
      <trkpt lat="48.19612" lon="3.25045">
        <ele>164</ele>
        <time>2012-10-07T13:23:25.945Z</time>
      </trkpt>
      <trkpt lat="48.19607" lon="3.25036">
        <ele>164</ele>
        <time>2012-10-07T13:23:27.945Z</time>
      </trkpt>
      <trkpt lat="48.196" lon="3.25028">
        <ele>164</ele>
        <time>2012-10-07T13:23:29.945Z</time>
      </trkpt>
      <trkpt lat="48.19595" lon="3.25017">
        <ele>163</ele>
        <time>2012-10-07T13:23:31.945Z</time>
      </trkpt>
      <trkpt lat="48.19589" lon="3.25009">
        <ele>163</ele>
        <time>2012-10-07T13:23:33.945Z</time>
      </trkpt>
      <trkpt lat="48.19585" lon="3.25002">
        <ele>162</ele>
        <time>2012-10-07T13:23:35.945Z</time>
      </trkpt>
      <trkpt lat="48.1958" lon="3.24996">
        <ele>162</ele>
        <time>2012-10-07T13:23:37.945Z</time>
      </trkpt>
      <trkpt lat="48.19576" lon="3.24991">
        <ele>161</ele>
        <time>2012-10-07T13:23:39.945Z</time>
      </trkpt>
      <trkpt lat="48.19571" lon="3.24985">
        <ele>161</ele>
        <time>2012-10-07T13:23:41.945Z</time>
      </trkpt>
      <trkpt lat="48.19566" lon="3.24976">
        <ele>161</ele>
        <time>2012-10-07T13:23:43.945Z</time>
      </trkpt>
      <trkpt lat="48.1956" lon="3.24968">
        <ele>161</ele>
        <time>2012-10-07T13:23:45.945Z</time>
      </trkpt>
      <trkpt lat="48.19556" lon="3.24959">
        <ele>160</ele>
        <time>2012-10-07T13:23:47.945Z</time>
      </trkpt>
      <trkpt lat="48.19552" lon="3.24951">
        <ele>160</ele>
        <time>2012-10-07T13:23:49.945Z</time>
      </trkpt>
      <trkpt lat="48.19548" lon="3.24944">
        <ele>160</ele>
        <time>2012-10-07T13:23:51.945Z</time>
      </trkpt>
      <trkpt lat="48.19541" lon="3.24944">
        <ele>160</ele>
        <time>2012-10-07T13:23:55.945Z</time>
      </trkpt>
      <trkpt lat="48.19537" lon="3.24951">
        <ele>161</ele>
        <time>2012-10-07T13:23:57.945Z</time>
      </trkpt>
      <trkpt lat="48.19535" lon="3.24957">
        <ele>161</ele>
        <time>2012-10-07T13:23:59.945Z</time>
      </trkpt>
      <trkpt lat="48.19537" lon="3.24964">
        <ele>161</ele>
        <time>2012-10-07T13:24:01.945Z</time>
      </trkpt>
      <trkpt lat="48.19541" lon="3.24974">
        <ele>161</ele>
        <time>2012-10-07T13:24:03.945Z</time>
      </trkpt>
      <trkpt lat="48.19546" lon="3.24981">
        <ele>161</ele>
        <time>2012-10-07T13:24:05.945Z</time>
      </trkpt>
      <trkpt lat="48.19551" lon="3.24989">
        <ele>161</ele>
        <time>2012-10-07T13:24:07.945Z</time>
      </trkpt>
      <trkpt lat="48.19554" lon="3.24996">
        <ele>161</ele>
        <time>2012-10-07T13:24:08.945Z</time>
      </trkpt>
      <trkpt lat="48.19562" lon="3.25002">
        <ele>164</ele>
        <time>2012-10-07T13:24:10.945Z</time>
      </trkpt>
      <trkpt lat="48.19568" lon="3.25013">
        <ele>164</ele>
        <time>2012-10-07T13:24:12.945Z</time>
      </trkpt>
      <trkpt lat="48.19574" lon="3.25022">
        <ele>164</ele>
        <time>2012-10-07T13:24:14.945Z</time>
      </trkpt>
      <trkpt lat="48.19581" lon="3.2503">
        <ele>164</ele>
        <time>2012-10-07T13:24:16.945Z</time>
      </trkpt>
      <trkpt lat="48.19586" lon="3.25041">
        <ele>164</ele>
        <time>2012-10-07T13:24:18.945Z</time>
      </trkpt>
      <trkpt lat="48.19592" lon="3.25049">
        <ele>164</ele>
        <time>2012-10-07T13:24:20.945Z</time>
      </trkpt>
      <trkpt lat="48.19598" lon="3.25058">
        <ele>165</ele>
        <time>2012-10-07T13:24:22.945Z</time>
      </trkpt>
      <trkpt lat="48.19603" lon="3.25066">
        <ele>165</ele>
        <time>2012-10-07T13:24:24.945Z</time>
      </trkpt>
      <trkpt lat="48.19609" lon="3.25075">
        <ele>165</ele>
        <time>2012-10-07T13:24:26.945Z</time>
      </trkpt>
      <trkpt lat="48.19613" lon="3.25079">
        <ele>165</ele>
        <time>2012-10-07T13:24:28.945Z</time>
      </trkpt>
      <trkpt lat="48.19618" lon="3.25084">
        <ele>167</ele>
        <time>2012-10-07T13:24:30.945Z</time>
      </trkpt>
      <trkpt lat="48.19624" lon="3.2509">
        <ele>167</ele>
        <time>2012-10-07T13:24:32.945Z</time>
      </trkpt>
      <trkpt lat="48.1963" lon="3.25097">
        <ele>167</ele>
        <time>2012-10-07T13:24:34.945Z</time>
      </trkpt>
      <trkpt lat="48.19636" lon="3.25103">
        <ele>167</ele>
        <time>2012-10-07T13:24:36.945Z</time>
      </trkpt>
      <trkpt lat="48.19642" lon="3.25109">
        <ele>167</ele>
        <time>2012-10-07T13:24:38.945Z</time>
      </trkpt>
      <trkpt lat="48.19647" lon="3.25116">
        <ele>167</ele>
        <time>2012-10-07T13:24:40.945Z</time>
      </trkpt>
      <trkpt lat="48.19656" lon="3.25122">
        <ele>167</ele>
        <time>2012-10-07T13:24:44.945Z</time>
      </trkpt>
      <trkpt lat="48.19661" lon="3.25129">
        <ele>167</ele>
        <time>2012-10-07T13:24:48.945Z</time>
      </trkpt>
      <trkpt lat="48.19661" lon="3.25129">
        <ele>167</ele>
        <time>2012-10-07T13:24:48.945Z</time>
      </trkpt>
      <trkpt lat="48.19661" lon="3.25129">
        <ele>167</ele>
        <time>2012-10-07T13:24:51.945Z</time>
      </trkpt>
      <trkpt lat="48.19664" lon="3.2514">
        <ele>167</ele>
        <time>2012-10-07T13:24:52.945Z</time>
      </trkpt>
      <trkpt lat="48.19664" lon="3.2514">
        <ele>167</ele>
        <time>2012-10-07T13:24:52.945Z</time>
      </trkpt>
      <trkpt lat="48.19664" lon="3.2514">
        <ele>167</ele>
        <time>2012-10-07T13:24:54.945Z</time>
      </trkpt>
      <trkpt lat="48.19668" lon="3.25148">
        <ele>165</ele>
        <time>2012-10-07T13:24:55.945Z</time>
      </trkpt>
      <trkpt lat="48.19668" lon="3.25148">
        <ele>165</ele>
        <time>2012-10-07T13:24:55.945Z</time>
      </trkpt>
      <trkpt lat="48.19668" lon="3.25148">
        <ele>165</ele>
        <time>2012-10-07T13:24:57.945Z</time>
      </trkpt>
      <trkpt lat="48.19678" lon="3.25163">
        <ele>165</ele>
        <time>2012-10-07T13:25:04.945Z</time>
      </trkpt>
      <trkpt lat="48.19678" lon="3.25163">
        <ele>165</ele>
        <time>2012-10-07T13:25:04.945Z</time>
      </trkpt>
      <trkpt lat="48.19678" lon="3.25163">
        <ele>165</ele>
        <time>2012-10-07T13:25:11.945Z</time>
      </trkpt>
      <trkpt lat="48.19678" lon="3.25172">
        <ele>167</ele>
        <time>2012-10-07T13:25:12.945Z</time>
      </trkpt>
      <trkpt lat="48.19681" lon="3.25187">
        <ele>167</ele>
        <time>2012-10-07T13:25:22.945Z</time>
      </trkpt>
      <trkpt lat="48.19681" lon="3.25187">
        <ele>167</ele>
        <time>2012-10-07T13:25:22.945Z</time>
      </trkpt>
      <trkpt lat="48.19681" lon="3.25187">
        <ele>167</ele>
        <time>2012-10-07T13:25:52.945Z</time>
      </trkpt>
      <trkpt lat="48.19685" lon="3.25191">
        <ele>166</ele>
        <time>2012-10-07T13:25:53.945Z</time>
      </trkpt>
      <trkpt lat="48.19685" lon="3.25191">
        <ele>166</ele>
        <time>2012-10-07T13:25:53.945Z</time>
      </trkpt>
      <trkpt lat="48.19685" lon="3.25191">
        <ele>166</ele>
        <time>2012-10-07T13:26:03.945Z</time>
      </trkpt>
      <trkpt lat="48.19684" lon="3.25178">
        <ele>166</ele>
        <time>2012-10-07T13:26:04.945Z</time>
      </trkpt>
      <trkpt lat="48.19684" lon="3.25178">
        <ele>166</ele>
        <time>2012-10-07T13:26:04.945Z</time>
      </trkpt>
      <trkpt lat="48.19684" lon="3.25178">
        <ele>166</ele>
        <time>2012-10-07T13:26:10.945Z</time>
      </trkpt>
      <trkpt lat="48.1968" lon="3.25163">
        <ele>165</ele>
        <time>2012-10-07T13:26:11.945Z</time>
      </trkpt>
      <trkpt lat="48.1968" lon="3.25163">
        <ele>165</ele>
        <time>2012-10-07T13:26:11.945Z</time>
      </trkpt>
      <trkpt lat="48.1968" lon="3.25163">
        <ele>165</ele>
        <time>2012-10-07T13:26:15.945Z</time>
      </trkpt>
      <trkpt lat="48.19678" lon="3.25148">
        <ele>164</ele>
        <time>2012-10-07T13:26:16.945Z</time>
      </trkpt>
      <trkpt lat="48.19678" lon="3.25148">
        <ele>164</ele>
        <time>2012-10-07T13:26:16.945Z</time>
      </trkpt>
      <trkpt lat="48.19678" lon="3.25148">
        <ele>164</ele>
        <time>2012-10-07T13:26:20.945Z</time>
      </trkpt>
      <trkpt lat="48.19671" lon="3.2514">
        <ele>164</ele>
        <time>2012-10-07T13:26:21.945Z</time>
      </trkpt>
      <trkpt lat="48.19671" lon="3.2514">
        <ele>164</ele>
        <time>2012-10-07T13:26:21.945Z</time>
      </trkpt>
      <trkpt lat="48.19671" lon="3.2514">
        <ele>164</ele>
        <time>2012-10-07T13:26:23.945Z</time>
      </trkpt>
      <trkpt lat="48.19667" lon="3.25131">
        <ele>164</ele>
        <time>2012-10-07T13:26:24.945Z</time>
      </trkpt>
      <trkpt lat="48.19662" lon="3.25124">
        <ele>167</ele>
        <time>2012-10-07T13:26:26.945Z</time>
      </trkpt>
      <trkpt lat="48.19657" lon="3.25118">
        <ele>167</ele>
        <time>2012-10-07T13:26:28.945Z</time>
      </trkpt>
      <trkpt lat="48.19652" lon="3.25112">
        <ele>167</ele>
        <time>2012-10-07T13:26:30.945Z</time>
      </trkpt>
      <trkpt lat="48.19647" lon="3.25103">
        <ele>167</ele>
        <time>2012-10-07T13:26:32.945Z</time>
      </trkpt>
      <trkpt lat="48.19643" lon="3.25094">
        <ele>167</ele>
        <time>2012-10-07T13:26:34.945Z</time>
      </trkpt>
      <trkpt lat="48.19637" lon="3.25086">
        <ele>167</ele>
        <time>2012-10-07T13:26:36.945Z</time>
      </trkpt>
      <trkpt lat="48.19631" lon="3.25077">
        <ele>165</ele>
        <time>2012-10-07T13:26:38.945Z</time>
      </trkpt>
      <trkpt lat="48.19625" lon="3.25066">
        <ele>165</ele>
        <time>2012-10-07T13:26:40.945Z</time>
      </trkpt>
      <trkpt lat="48.19617" lon="3.25058">
        <ele>164</ele>
        <time>2012-10-07T13:26:42.945Z</time>
      </trkpt>
      <trkpt lat="48.19614" lon="3.25052">
        <ele>164</ele>
        <time>2012-10-07T13:26:43.945Z</time>
      </trkpt>
      <trkpt lat="48.19608" lon="3.25043">
        <ele>164</ele>
        <time>2012-10-07T13:26:45.945Z</time>
      </trkpt>
      <trkpt lat="48.19603" lon="3.25039">
        <ele>164</ele>
        <time>2012-10-07T13:26:46.945Z</time>
      </trkpt>
      <trkpt lat="48.19599" lon="3.25032">
        <ele>164</ele>
        <time>2012-10-07T13:26:47.945Z</time>
      </trkpt>
      <trkpt lat="48.19592" lon="3.25022">
        <ele>163</ele>
        <time>2012-10-07T13:26:49.945Z</time>
      </trkpt>
      <trkpt lat="48.19584" lon="3.25013">
        <ele>163</ele>
        <time>2012-10-07T13:26:51.945Z</time>
      </trkpt>
      <trkpt lat="48.19581" lon="3.25006">
        <ele>163</ele>
        <time>2012-10-07T13:26:52.945Z</time>
      </trkpt>
      <trkpt lat="48.19573" lon="3.24998">
        <ele>162</ele>
        <time>2012-10-07T13:26:54.945Z</time>
      </trkpt>
      <trkpt lat="48.19568" lon="3.24987">
        <ele>161</ele>
        <time>2012-10-07T13:26:56.945Z</time>
      </trkpt>
      <trkpt lat="48.19562" lon="3.24978">
        <ele>161</ele>
        <time>2012-10-07T13:26:58.945Z</time>
      </trkpt>
      <trkpt lat="48.19556" lon="3.24968">
        <ele>161</ele>
        <time>2012-10-07T13:27:00.945Z</time>
      </trkpt>
      <trkpt lat="48.19551" lon="3.24959">
        <ele>161</ele>
        <time>2012-10-07T13:27:02.945Z</time>
      </trkpt>
      <trkpt lat="48.19549" lon="3.24953">
        <ele>160</ele>
        <time>2012-10-07T13:27:03.945Z</time>
      </trkpt>
      <trkpt lat="48.19544" lon="3.24942">
        <ele>160</ele>
        <time>2012-10-07T13:27:05.945Z</time>
      </trkpt>
      <trkpt lat="48.19541" lon="3.24936">
        <ele>160</ele>
        <time>2012-10-07T13:27:06.945Z</time>
      </trkpt>
      <trkpt lat="48.19539" lon="3.24929">
        <ele>160</ele>
        <time>2012-10-07T13:27:07.945Z</time>
      </trkpt>
      <trkpt lat="48.19534" lon="3.24918">
        <ele>160</ele>
        <time>2012-10-07T13:27:09.945Z</time>
      </trkpt>
      <trkpt lat="48.19532" lon="3.24912">
        <ele>157</ele>
        <time>2012-10-07T13:27:10.945Z</time>
      </trkpt>
      <trkpt lat="48.19528" lon="3.24906">
        <ele>157</ele>
        <time>2012-10-07T13:27:11.945Z</time>
      </trkpt>
      <trkpt lat="48.19525" lon="3.24899">
        <ele>157</ele>
        <time>2012-10-07T13:27:12.945Z</time>
      </trkpt>
      <trkpt lat="48.19523" lon="3.24893">
        <ele>157</ele>
        <time>2012-10-07T13:27:13.945Z</time>
      </trkpt>
      <trkpt lat="48.19521" lon="3.24886">
        <ele>157</ele>
        <time>2012-10-07T13:27:14.945Z</time>
      </trkpt>
      <trkpt lat="48.19515" lon="3.24876">
        <ele>157</ele>
        <time>2012-10-07T13:27:16.945Z</time>
      </trkpt>
      <trkpt lat="48.19513" lon="3.24869">
        <ele>157</ele>
        <time>2012-10-07T13:27:17.945Z</time>
      </trkpt>
      <trkpt lat="48.1951" lon="3.24863">
        <ele>156</ele>
        <time>2012-10-07T13:27:18.945Z</time>
      </trkpt>
      <trkpt lat="48.19508" lon="3.24856">
        <ele>156</ele>
        <time>2012-10-07T13:27:19.945Z</time>
      </trkpt>
      <trkpt lat="48.19502" lon="3.24846">
        <ele>157</ele>
        <time>2012-10-07T13:27:21.945Z</time>
      </trkpt>
      <trkpt lat="48.195" lon="3.24839">
        <ele>157</ele>
        <time>2012-10-07T13:27:22.945Z</time>
      </trkpt>
      <trkpt lat="48.19499" lon="3.24828">
        <ele>157</ele>
        <time>2012-10-07T13:27:24.945Z</time>
      </trkpt>
      <trkpt lat="48.19504" lon="3.24822">
        <ele>154</ele>
        <time>2012-10-07T13:27:25.945Z</time>
      </trkpt>
      <trkpt lat="48.19511" lon="3.24818">
        <ele>153</ele>
        <time>2012-10-07T13:27:26.945Z</time>
      </trkpt>
      <trkpt lat="48.19515" lon="3.24813">
        <ele>152</ele>
        <time>2012-10-07T13:27:27.945Z</time>
      </trkpt>
      <trkpt lat="48.19519" lon="3.24807">
        <ele>152</ele>
        <time>2012-10-07T13:27:28.945Z</time>
      </trkpt>
      <trkpt lat="48.19519" lon="3.24794">
        <ele>151</ele>
        <time>2012-10-07T13:27:30.945Z</time>
      </trkpt>
      <trkpt lat="48.19516" lon="3.24788">
        <ele>151</ele>
        <time>2012-10-07T13:27:31.945Z</time>
      </trkpt>
      <trkpt lat="48.19513" lon="3.24775">
        <ele>150</ele>
        <time>2012-10-07T13:27:33.945Z</time>
      </trkpt>
      <trkpt lat="48.19508" lon="3.24764">
        <ele>150</ele>
        <time>2012-10-07T13:27:35.945Z</time>
      </trkpt>
      <trkpt lat="48.19505" lon="3.24758">
        <ele>150</ele>
        <time>2012-10-07T13:27:36.945Z</time>
      </trkpt>
      <trkpt lat="48.19502" lon="3.24751">
        <ele>150</ele>
        <time>2012-10-07T13:27:37.945Z</time>
      </trkpt>
      <trkpt lat="48.19498" lon="3.24745">
        <ele>151</ele>
        <time>2012-10-07T13:27:38.945Z</time>
      </trkpt>
      <trkpt lat="48.19495" lon="3.24738">
        <ele>151</ele>
        <time>2012-10-07T13:27:39.945Z</time>
      </trkpt>
      <trkpt lat="48.19492" lon="3.24732">
        <ele>151</ele>
        <time>2012-10-07T13:27:40.945Z</time>
      </trkpt>
      <trkpt lat="48.19488" lon="3.24725">
        <ele>152</ele>
        <time>2012-10-07T13:27:41.945Z</time>
      </trkpt>
      <trkpt lat="48.19484" lon="3.24719">
        <ele>152</ele>
        <time>2012-10-07T13:27:42.945Z</time>
      </trkpt>
      <trkpt lat="48.19481" lon="3.2471">
        <ele>152</ele>
        <time>2012-10-07T13:27:43.945Z</time>
      </trkpt>
      <trkpt lat="48.19477" lon="3.24704">
        <ele>152</ele>
        <time>2012-10-07T13:27:44.945Z</time>
      </trkpt>
      <trkpt lat="48.19474" lon="3.24697">
        <ele>152</ele>
        <time>2012-10-07T13:27:45.945Z</time>
      </trkpt>
      <trkpt lat="48.19469" lon="3.24691">
        <ele>152</ele>
        <time>2012-10-07T13:27:46.945Z</time>
      </trkpt>
      <trkpt lat="48.19465" lon="3.24682">
        <ele>152</ele>
        <time>2012-10-07T13:27:47.945Z</time>
      </trkpt>
      <trkpt lat="48.19461" lon="3.24676">
        <ele>152</ele>
        <time>2012-10-07T13:27:48.945Z</time>
      </trkpt>
      <trkpt lat="48.19456" lon="3.24667">
        <ele>153</ele>
        <time>2012-10-07T13:27:49.945Z</time>
      </trkpt>
      <trkpt lat="48.19452" lon="3.24659">
        <ele>151</ele>
        <time>2012-10-07T13:27:50.945Z</time>
      </trkpt>
      <trkpt lat="48.19448" lon="3.24652">
        <ele>151</ele>
        <time>2012-10-07T13:27:51.945Z</time>
      </trkpt>
      <trkpt lat="48.19444" lon="3.24644">
        <ele>151</ele>
        <time>2012-10-07T13:27:52.945Z</time>
      </trkpt>
      <trkpt lat="48.19439" lon="3.24635">
        <ele>151</ele>
        <time>2012-10-07T13:27:53.945Z</time>
      </trkpt>
      <trkpt lat="48.19435" lon="3.24627">
        <ele>151</ele>
        <time>2012-10-07T13:27:54.945Z</time>
      </trkpt>
      <trkpt lat="48.19431" lon="3.24618">
        <ele>150</ele>
        <time>2012-10-07T13:27:55.945Z</time>
      </trkpt>
      <trkpt lat="48.19426" lon="3.2461">
        <ele>151</ele>
        <time>2012-10-07T13:27:56.945Z</time>
      </trkpt>
      <trkpt lat="48.19422" lon="3.24601">
        <ele>151</ele>
        <time>2012-10-07T13:27:57.945Z</time>
      </trkpt>
      <trkpt lat="48.19418" lon="3.24594">
        <ele>151</ele>
        <time>2012-10-07T13:27:58.945Z</time>
      </trkpt>
      <trkpt lat="48.19414" lon="3.24588">
        <ele>153</ele>
        <time>2012-10-07T13:27:59.945Z</time>
      </trkpt>
      <trkpt lat="48.19408" lon="3.24582">
        <ele>153</ele>
        <time>2012-10-07T13:28:00.945Z</time>
      </trkpt>
      <trkpt lat="48.19404" lon="3.24575">
        <ele>153</ele>
        <time>2012-10-07T13:28:01.945Z</time>
      </trkpt>
      <trkpt lat="48.19401" lon="3.24569">
        <ele>153</ele>
        <time>2012-10-07T13:28:02.945Z</time>
      </trkpt>
      <trkpt lat="48.19396" lon="3.24564">
        <ele>154</ele>
        <time>2012-10-07T13:28:03.945Z</time>
      </trkpt>
      <trkpt lat="48.19392" lon="3.2456">
        <ele>154</ele>
        <time>2012-10-07T13:28:04.945Z</time>
      </trkpt>
      <trkpt lat="48.19388" lon="3.24556">
        <ele>154</ele>
        <time>2012-10-07T13:28:05.945Z</time>
      </trkpt>
      <trkpt lat="48.19381" lon="3.24549">
        <ele>154</ele>
        <time>2012-10-07T13:28:07.945Z</time>
      </trkpt>
      <trkpt lat="48.19376" lon="3.24545">
        <ele>154</ele>
        <time>2012-10-07T13:28:09.945Z</time>
      </trkpt>
      <trkpt lat="48.19371" lon="3.24543">
        <ele>154</ele>
        <time>2012-10-07T13:28:11.945Z</time>
      </trkpt>
      <trkpt lat="48.19365" lon="3.24539">
        <ele>155</ele>
        <time>2012-10-07T13:28:13.945Z</time>
      </trkpt>
      <trkpt lat="48.19366" lon="3.24528">
        <ele>154</ele>
        <time>2012-10-07T13:28:16.945Z</time>
      </trkpt>
      <trkpt lat="48.19375" lon="3.24524">
        <ele>154</ele>
        <time>2012-10-07T13:28:19.945Z</time>
      </trkpt>
      <trkpt lat="48.19381" lon="3.24519">
        <ele>153</ele>
        <time>2012-10-07T13:28:21.945Z</time>
      </trkpt>
      <trkpt lat="48.19387" lon="3.24517">
        <ele>153</ele>
        <time>2012-10-07T13:28:23.945Z</time>
      </trkpt>
      <trkpt lat="48.19391" lon="3.24515">
        <ele>152</ele>
        <time>2012-10-07T13:28:25.945Z</time>
      </trkpt>
      <trkpt lat="48.19395" lon="3.24513">
        <ele>152</ele>
        <time>2012-10-07T13:28:27.945Z</time>
      </trkpt>
      <trkpt lat="48.19401" lon="3.24511">
        <ele>151</ele>
        <time>2012-10-07T13:28:29.945Z</time>
      </trkpt>
      <trkpt lat="48.19405" lon="3.24509">
        <ele>151</ele>
        <time>2012-10-07T13:28:31.945Z</time>
      </trkpt>
      <trkpt lat="48.19409" lon="3.24506">
        <ele>150</ele>
        <time>2012-10-07T13:28:33.945Z</time>
      </trkpt>
      <trkpt lat="48.19409" lon="3.24506">
        <ele>150</ele>
        <time>2012-10-07T13:28:33.945Z</time>
      </trkpt>
      <trkpt lat="48.19409" lon="3.24506">
        <ele>150</ele>
        <time>2012-10-07T13:28:34.945Z</time>
      </trkpt>
      <trkpt lat="48.19414" lon="3.24504">
        <ele>149</ele>
        <time>2012-10-07T13:28:36.945Z</time>
      </trkpt>
      <trkpt lat="48.19414" lon="3.24504">
        <ele>149</ele>
        <time>2012-10-07T13:28:36.945Z</time>
      </trkpt>
      <trkpt lat="48.19414" lon="3.24504">
        <ele>149</ele>
        <time>2012-10-07T13:28:37.945Z</time>
      </trkpt>
      <trkpt lat="48.19411" lon="3.24494">
        <ele>149</ele>
        <time>2012-10-07T13:28:41.945Z</time>
      </trkpt>
      <trkpt lat="48.19411" lon="3.24494">
        <ele>149</ele>
        <time>2012-10-07T13:28:41.945Z</time>
      </trkpt>
      <trkpt lat="48.19411" lon="3.24494">
        <ele>149</ele>
        <time>2012-10-07T13:28:43.945Z</time>
      </trkpt>
      <trkpt lat="48.1941" lon="3.24483">
        <ele>150</ele>
        <time>2012-10-07T13:28:47.945Z</time>
      </trkpt>
      <trkpt lat="48.1941" lon="3.24483">
        <ele>150</ele>
        <time>2012-10-07T13:28:47.945Z</time>
      </trkpt>
      <trkpt lat="48.1941" lon="3.24483">
        <ele>150</ele>
        <time>2012-10-07T13:28:49.945Z</time>
      </trkpt>
      <trkpt lat="48.19415" lon="3.24479">
        <ele>150</ele>
        <time>2012-10-07T13:28:50.945Z</time>
      </trkpt>
      <trkpt lat="48.19415" lon="3.24479">
        <ele>150</ele>
        <time>2012-10-07T13:28:50.945Z</time>
      </trkpt>
      <trkpt lat="48.19415" lon="3.24479">
        <ele>150</ele>
        <time>2012-10-07T13:28:52.945Z</time>
      </trkpt>
      <trkpt lat="48.19419" lon="3.24474">
        <ele>145</ele>
        <time>2012-10-07T13:28:53.945Z</time>
      </trkpt>
      <trkpt lat="48.19419" lon="3.24474">
        <ele>145</ele>
        <time>2012-10-07T13:28:53.945Z</time>
      </trkpt>
      <trkpt lat="48.19419" lon="3.24474">
        <ele>145</ele>
        <time>2012-10-07T13:28:54.945Z</time>
      </trkpt>
      <trkpt lat="48.19423" lon="3.24472">
        <ele>145</ele>
        <time>2012-10-07T13:28:55.945Z</time>
      </trkpt>
      <trkpt lat="48.19423" lon="3.24472">
        <ele>145</ele>
        <time>2012-10-07T13:28:55.945Z</time>
      </trkpt>
      <trkpt lat="48.19423" lon="3.24472">
        <ele>145</ele>
        <time>2012-10-07T13:28:56.945Z</time>
      </trkpt>
      <trkpt lat="48.19427" lon="3.2447">
        <ele>144</ele>
        <time>2012-10-07T13:28:57.945Z</time>
      </trkpt>
      <trkpt lat="48.19434" lon="3.2447">
        <ele>144</ele>
        <time>2012-10-07T13:28:59.945Z</time>
      </trkpt>
      <trkpt lat="48.1944" lon="3.2447">
        <ele>144</ele>
        <time>2012-10-07T13:29:01.945Z</time>
      </trkpt>
      <trkpt lat="48.19446" lon="3.24468">
        <ele>144</ele>
        <time>2012-10-07T13:29:03.945Z</time>
      </trkpt>
      <trkpt lat="48.1945" lon="3.24472">
        <ele>143</ele>
        <time>2012-10-07T13:29:05.945Z</time>
      </trkpt>
      <trkpt lat="48.19454" lon="3.24476">
        <ele>143</ele>
        <time>2012-10-07T13:29:08.945Z</time>
      </trkpt>
      <trkpt lat="48.1946" lon="3.24479">
        <ele>143</ele>
        <time>2012-10-07T13:29:10.945Z</time>
      </trkpt>
      <trkpt lat="48.19466" lon="3.24479">
        <ele>142</ele>
        <time>2012-10-07T13:29:13.945Z</time>
      </trkpt>
      <trkpt lat="48.19474" lon="3.24474">
        <ele>142</ele>
        <time>2012-10-07T13:29:15.945Z</time>
      </trkpt>
      <trkpt lat="48.1948" lon="3.2447">
        <ele>142</ele>
        <time>2012-10-07T13:29:17.945Z</time>
      </trkpt>
      <trkpt lat="48.19484" lon="3.24464">
        <ele>142</ele>
        <time>2012-10-07T13:29:19.945Z</time>
      </trkpt>
      <trkpt lat="48.19484" lon="3.24464">
        <ele>142</ele>
        <time>2012-10-07T13:29:19.945Z</time>
      </trkpt>
      <trkpt lat="48.19484" lon="3.24464">
        <ele>142</ele>
        <time>2012-10-07T13:29:23.945Z</time>
      </trkpt>
      <trkpt lat="48.19494" lon="3.24455">
        <ele>141</ele>
        <time>2012-10-07T13:29:24.945Z</time>
      </trkpt>
      <trkpt lat="48.19499" lon="3.24451">
        <ele>141</ele>
        <time>2012-10-07T13:29:26.945Z</time>
      </trkpt>
      <trkpt lat="48.19499" lon="3.24451">
        <ele>141</ele>
        <time>2012-10-07T13:29:26.945Z</time>
      </trkpt>
      <trkpt lat="48.19499" lon="3.24451">
        <ele>141</ele>
        <time>2012-10-07T13:29:28.945Z</time>
      </trkpt>
      <trkpt lat="48.19506" lon="3.24444">
        <ele>135</ele>
        <time>2012-10-07T13:29:29.945Z</time>
      </trkpt>
      <trkpt lat="48.19511" lon="3.24444">
        <ele>135</ele>
        <time>2012-10-07T13:29:31.945Z</time>
      </trkpt>
      <trkpt lat="48.19511" lon="3.24444">
        <ele>135</ele>
        <time>2012-10-07T13:29:31.945Z</time>
      </trkpt>
      <trkpt lat="48.19511" lon="3.24444">
        <ele>135</ele>
        <time>2012-10-07T13:29:34.945Z</time>
      </trkpt>
      <trkpt lat="48.19515" lon="3.24436">
        <ele>135</ele>
        <time>2012-10-07T13:29:35.945Z</time>
      </trkpt>
      <trkpt lat="48.19515" lon="3.24436">
        <ele>135</ele>
        <time>2012-10-07T13:29:35.945Z</time>
      </trkpt>
      <trkpt lat="48.19515" lon="3.24436">
        <ele>135</ele>
        <time>2012-10-07T13:29:39.945Z</time>
      </trkpt>
      <trkpt lat="48.19518" lon="3.24425">
        <ele>135</ele>
        <time>2012-10-07T13:29:40.945Z</time>
      </trkpt>
      <trkpt lat="48.19527" lon="3.24416">
        <ele>132</ele>
        <time>2012-10-07T13:29:45.945Z</time>
      </trkpt>
      <trkpt lat="48.19527" lon="3.24416">
        <ele>132</ele>
        <time>2012-10-07T13:29:45.945Z</time>
      </trkpt>
      <trkpt lat="48.19527" lon="3.24416">
        <ele>132</ele>
        <time>2012-10-07T13:29:46.945Z</time>
      </trkpt>
      <trkpt lat="48.19532" lon="3.24414">
        <ele>132</ele>
        <time>2012-10-07T13:29:47.945Z</time>
      </trkpt>
      <trkpt lat="48.19537" lon="3.24414">
        <ele>131</ele>
        <time>2012-10-07T13:29:49.945Z</time>
      </trkpt>
      <trkpt lat="48.19543" lon="3.24414">
        <ele>130</ele>
        <time>2012-10-07T13:29:52.945Z</time>
      </trkpt>
      <trkpt lat="48.19543" lon="3.24414">
        <ele>130</ele>
        <time>2012-10-07T13:29:52.945Z</time>
      </trkpt>
      <trkpt lat="48.19543" lon="3.24414">
        <ele>130</ele>
        <time>2012-10-07T13:29:55.945Z</time>
      </trkpt>
      <trkpt lat="48.19552" lon="3.24408">
        <ele>129</ele>
        <time>2012-10-07T13:29:56.945Z</time>
      </trkpt>
      <trkpt lat="48.19559" lon="3.24393">
        <ele>129</ele>
        <time>2012-10-07T13:30:02.945Z</time>
      </trkpt>
      <trkpt lat="48.19559" lon="3.24393">
        <ele>129</ele>
        <time>2012-10-07T13:30:02.945Z</time>
      </trkpt>
      <trkpt lat="48.19559" lon="3.24393">
        <ele>129</ele>
        <time>2012-10-07T13:30:08.945Z</time>
      </trkpt>
      <trkpt lat="48.19553" lon="3.24382">
        <ele>129</ele>
        <time>2012-10-07T13:30:09.945Z</time>
      </trkpt>
      <trkpt lat="48.19553" lon="3.24382">
        <ele>129</ele>
        <time>2012-10-07T13:30:09.945Z</time>
      </trkpt>
      <trkpt lat="48.19553" lon="3.24382">
        <ele>129</ele>
        <time>2012-10-07T13:30:12.945Z</time>
      </trkpt>
      <trkpt lat="48.19546" lon="3.2438">
        <ele>130</ele>
        <time>2012-10-07T13:30:13.945Z</time>
      </trkpt>
      <trkpt lat="48.19546" lon="3.2438">
        <ele>130</ele>
        <time>2012-10-07T13:30:13.945Z</time>
      </trkpt>
      <trkpt lat="48.19546" lon="3.2438">
        <ele>130</ele>
        <time>2012-10-07T13:30:15.945Z</time>
      </trkpt>
      <trkpt lat="48.1955" lon="3.24367">
        <ele>129</ele>
        <time>2012-10-07T13:30:21.945Z</time>
      </trkpt>
      <trkpt lat="48.19555" lon="3.24363">
        <ele>129</ele>
        <time>2012-10-07T13:30:23.945Z</time>
      </trkpt>
      <trkpt lat="48.1956" lon="3.24361">
        <ele>129</ele>
        <time>2012-10-07T13:30:25.945Z</time>
      </trkpt>
      <trkpt lat="48.19566" lon="3.24358">
        <ele>128</ele>
        <time>2012-10-07T13:30:27.945Z</time>
      </trkpt>
      <trkpt lat="48.19571" lon="3.24363">
        <ele>128</ele>
        <time>2012-10-07T13:30:29.945Z</time>
      </trkpt>
      <trkpt lat="48.19571" lon="3.24363">
        <ele>128</ele>
        <time>2012-10-07T13:30:29.945Z</time>
      </trkpt>
      <trkpt lat="48.19571" lon="3.24363">
        <ele>128</ele>
        <time>2012-10-07T13:30:31.945Z</time>
      </trkpt>
      <trkpt lat="48.19577" lon="3.24363">
        <ele>128</ele>
        <time>2012-10-07T13:30:32.945Z</time>
      </trkpt>
      <trkpt lat="48.19577" lon="3.24363">
        <ele>128</ele>
        <time>2012-10-07T13:30:32.945Z</time>
      </trkpt>
      <trkpt lat="48.19577" lon="3.24363">
        <ele>128</ele>
        <time>2012-10-07T13:30:33.945Z</time>
      </trkpt>
      <trkpt lat="48.19581" lon="3.24361">
        <ele>127</ele>
        <time>2012-10-07T13:30:34.945Z</time>
      </trkpt>
      <trkpt lat="48.19586" lon="3.24361">
        <ele>122</ele>
        <time>2012-10-07T13:30:36.945Z</time>
      </trkpt>
      <trkpt lat="48.19593" lon="3.24356">
        <ele>122</ele>
        <time>2012-10-07T13:30:38.945Z</time>
      </trkpt>
      <trkpt lat="48.19604" lon="3.24352">
        <ele>121</ele>
        <time>2012-10-07T13:30:43.945Z</time>
      </trkpt>
      <trkpt lat="48.19604" lon="3.24352">
        <ele>121</ele>
        <time>2012-10-07T13:30:43.945Z</time>
      </trkpt>
      <trkpt lat="48.19604" lon="3.24352">
        <ele>121</ele>
        <time>2012-10-07T13:30:44.945Z</time>
      </trkpt>
      <trkpt lat="48.19609" lon="3.2435">
        <ele>121</ele>
        <time>2012-10-07T13:30:45.945Z</time>
      </trkpt>
      <trkpt lat="48.19609" lon="3.2435">
        <ele>121</ele>
        <time>2012-10-07T13:30:45.945Z</time>
      </trkpt>
      <trkpt lat="48.19609" lon="3.2435">
        <ele>121</ele>
        <time>2012-10-07T13:30:50.945Z</time>
      </trkpt>
      <trkpt lat="48.19618" lon="3.24356">
        <ele>120</ele>
        <time>2012-10-07T13:30:51.945Z</time>
      </trkpt>
      <trkpt lat="48.19624" lon="3.24358">
        <ele>120</ele>
        <time>2012-10-07T13:30:53.945Z</time>
      </trkpt>
      <trkpt lat="48.19628" lon="3.24361">
        <ele>120</ele>
        <time>2012-10-07T13:30:55.945Z</time>
      </trkpt>
      <trkpt lat="48.19631" lon="3.24367">
        <ele>119</ele>
        <time>2012-10-07T13:30:57.945Z</time>
      </trkpt>
      <trkpt lat="48.19637" lon="3.24373">
        <ele>119</ele>
        <time>2012-10-07T13:31:00.945Z</time>
      </trkpt>
      <trkpt lat="48.19645" lon="3.24388">
        <ele>119</ele>
        <time>2012-10-07T13:31:07.945Z</time>
      </trkpt>
      <trkpt lat="48.19651" lon="3.24395">
        <ele>118</ele>
        <time>2012-10-07T13:31:10.945Z</time>
      </trkpt>
      <trkpt lat="48.19657" lon="3.24399">
        <ele>118</ele>
        <time>2012-10-07T13:31:12.945Z</time>
      </trkpt>
      <trkpt lat="48.19664" lon="3.24399">
        <ele>118</ele>
        <time>2012-10-07T13:31:14.945Z</time>
      </trkpt>
      <trkpt lat="48.19669" lon="3.24399">
        <ele>114</ele>
        <time>2012-10-07T13:31:16.945Z</time>
      </trkpt>
      <trkpt lat="48.19675" lon="3.24397">
        <ele>114</ele>
        <time>2012-10-07T13:31:19.945Z</time>
      </trkpt>
      <trkpt lat="48.19683" lon="3.24391">
        <ele>114</ele>
        <time>2012-10-07T13:31:21.945Z</time>
      </trkpt>
      <trkpt lat="48.19686" lon="3.2438">
        <ele>113</ele>
        <time>2012-10-07T13:31:23.945Z</time>
      </trkpt>
      <trkpt lat="48.19687" lon="3.24369">
        <ele>113</ele>
        <time>2012-10-07T13:31:25.945Z</time>
      </trkpt>
      <trkpt lat="48.19685" lon="3.24358">
        <ele>113</ele>
        <time>2012-10-07T13:31:27.945Z</time>
      </trkpt>
      <trkpt lat="48.19681" lon="3.2435">
        <ele>114</ele>
        <time>2012-10-07T13:31:29.945Z</time>
      </trkpt>
      <trkpt lat="48.19675" lon="3.24343">
        <ele>114</ele>
        <time>2012-10-07T13:31:31.945Z</time>
      </trkpt>
      <trkpt lat="48.1967" lon="3.24337">
        <ele>115</ele>
        <time>2012-10-07T13:31:33.945Z</time>
      </trkpt>
      <trkpt lat="48.19666" lon="3.2433">
        <ele>116</ele>
        <time>2012-10-07T13:31:35.945Z</time>
      </trkpt>
      <trkpt lat="48.1966" lon="3.24322">
        <ele>117</ele>
        <time>2012-10-07T13:31:37.945Z</time>
      </trkpt>
      <trkpt lat="48.19656" lon="3.24316">
        <ele>118</ele>
        <time>2012-10-07T13:31:39.945Z</time>
      </trkpt>
      <trkpt lat="48.19651" lon="3.24309">
        <ele>119</ele>
        <time>2012-10-07T13:31:41.945Z</time>
      </trkpt>
      <trkpt lat="48.19645" lon="3.24303">
        <ele>119</ele>
        <time>2012-10-07T13:31:43.945Z</time>
      </trkpt>
      <trkpt lat="48.1964" lon="3.24296">
        <ele>120</ele>
        <time>2012-10-07T13:31:45.945Z</time>
      </trkpt>
      <trkpt lat="48.19633" lon="3.2429">
        <ele>120</ele>
        <time>2012-10-07T13:31:47.945Z</time>
      </trkpt>
      <trkpt lat="48.19628" lon="3.24281">
        <ele>120</ele>
        <time>2012-10-07T13:31:49.945Z</time>
      </trkpt>
      <trkpt lat="48.19623" lon="3.24275">
        <ele>121</ele>
        <time>2012-10-07T13:31:51.945Z</time>
      </trkpt>
      <trkpt lat="48.19617" lon="3.24266">
        <ele>121</ele>
        <time>2012-10-07T13:31:53.945Z</time>
      </trkpt>
      <trkpt lat="48.19612" lon="3.2426">
        <ele>122</ele>
        <time>2012-10-07T13:31:55.945Z</time>
      </trkpt>
      <trkpt lat="48.19607" lon="3.24253">
        <ele>122</ele>
        <time>2012-10-07T13:31:57.945Z</time>
      </trkpt>
      <trkpt lat="48.19601" lon="3.24247">
        <ele>124</ele>
        <time>2012-10-07T13:31:59.945Z</time>
      </trkpt>
      <trkpt lat="48.19596" lon="3.2424">
        <ele>124</ele>
        <time>2012-10-07T13:32:01.945Z</time>
      </trkpt>
      <trkpt lat="48.1959" lon="3.24232">
        <ele>124</ele>
        <time>2012-10-07T13:32:03.945Z</time>
      </trkpt>
      <trkpt lat="48.19584" lon="3.24225">
        <ele>124</ele>
        <time>2012-10-07T13:32:05.945Z</time>
      </trkpt>
      <trkpt lat="48.19579" lon="3.24217">
        <ele>127</ele>
        <time>2012-10-07T13:32:07.945Z</time>
      </trkpt>
      <trkpt lat="48.19572" lon="3.2421">
        <ele>127</ele>
        <time>2012-10-07T13:32:09.945Z</time>
      </trkpt>
      <trkpt lat="48.19567" lon="3.24202">
        <ele>127</ele>
        <time>2012-10-07T13:32:11.945Z</time>
      </trkpt>
      <trkpt lat="48.1956" lon="3.24193">
        <ele>127</ele>
        <time>2012-10-07T13:32:13.945Z</time>
      </trkpt>
      <trkpt lat="48.19553" lon="3.24187">
        <ele>127</ele>
        <time>2012-10-07T13:32:18.945Z</time>
      </trkpt>
      <trkpt lat="48.19553" lon="3.24187">
        <ele>127</ele>
        <time>2012-10-07T13:32:18.945Z</time>
      </trkpt>
      <trkpt lat="48.19553" lon="3.24187">
        <ele>127</ele>
        <time>2012-10-07T13:32:23.945Z</time>
      </trkpt>
      <trkpt lat="48.19548" lon="3.24182">
        <ele>127</ele>
        <time>2012-10-07T13:32:24.945Z</time>
      </trkpt>
      <trkpt lat="48.19548" lon="3.24182">
        <ele>127</ele>
        <time>2012-10-07T13:32:24.945Z</time>
      </trkpt>
      <trkpt lat="48.19548" lon="3.24182">
        <ele>127</ele>
        <time>2012-10-07T13:32:35.945Z</time>
      </trkpt>
      <trkpt lat="48.19555" lon="3.24187">
        <ele>127</ele>
        <time>2012-10-07T13:32:36.945Z</time>
      </trkpt>
      <trkpt lat="48.19555" lon="3.24187">
        <ele>127</ele>
        <time>2012-10-07T13:32:36.945Z</time>
      </trkpt>
      <trkpt lat="48.19555" lon="3.24187">
        <ele>127</ele>
        <time>2012-10-07T13:32:42.945Z</time>
      </trkpt>
      <trkpt lat="48.19549" lon="3.24187">
        <ele>127</ele>
        <time>2012-10-07T13:32:43.945Z</time>
      </trkpt>
      <trkpt lat="48.19546" lon="3.2418">
        <ele>127</ele>
        <time>2012-10-07T13:32:44.945Z</time>
      </trkpt>
      <trkpt lat="48.1954" lon="3.24174">
        <ele>127</ele>
        <time>2012-10-07T13:32:46.945Z</time>
      </trkpt>
      <trkpt lat="48.19539" lon="3.24165">
        <ele>127</ele>
        <time>2012-10-07T13:32:48.945Z</time>
      </trkpt>
      <trkpt lat="48.19539" lon="3.24165">
        <ele>127</ele>
        <time>2012-10-07T13:32:48.945Z</time>
      </trkpt>
      <trkpt lat="48.19539" lon="3.24165">
        <ele>127</ele>
        <time>2012-10-07T13:32:52.945Z</time>
      </trkpt>
      <trkpt lat="48.19536" lon="3.24152">
        <ele>127</ele>
        <time>2012-10-07T13:32:53.945Z</time>
      </trkpt>
      <trkpt lat="48.19536" lon="3.24152">
        <ele>127</ele>
        <time>2012-10-07T13:32:53.945Z</time>
      </trkpt>
      <trkpt lat="48.19536" lon="3.24152">
        <ele>127</ele>
        <time>2012-10-07T13:32:57.945Z</time>
      </trkpt>
      <trkpt lat="48.19533" lon="3.2414">
        <ele>127</ele>
        <time>2012-10-07T13:32:58.945Z</time>
      </trkpt>
      <trkpt lat="48.19533" lon="3.2414">
        <ele>127</ele>
        <time>2012-10-07T13:32:58.945Z</time>
      </trkpt>
      <trkpt lat="48.19533" lon="3.2414">
        <ele>127</ele>
        <time>2012-10-07T13:33:03.945Z</time>
      </trkpt>
      <trkpt lat="48.19526" lon="3.24127">
        <ele>127</ele>
        <time>2012-10-07T13:33:04.945Z</time>
      </trkpt>
      <trkpt lat="48.19526" lon="3.24127">
        <ele>127</ele>
        <time>2012-10-07T13:33:04.945Z</time>
      </trkpt>
      <trkpt lat="48.19526" lon="3.24127">
        <ele>127</ele>
        <time>2012-10-07T13:33:08.945Z</time>
      </trkpt>
      <trkpt lat="48.19525" lon="3.24112">
        <ele>127</ele>
        <time>2012-10-07T13:33:09.945Z</time>
      </trkpt>
      <trkpt lat="48.19525" lon="3.24112">
        <ele>127</ele>
        <time>2012-10-07T13:33:09.945Z</time>
      </trkpt>
      <trkpt lat="48.19525" lon="3.24112">
        <ele>127</ele>
        <time>2012-10-07T13:33:14.945Z</time>
      </trkpt>
      <trkpt lat="48.19521" lon="3.24099">
        <ele>127</ele>
        <time>2012-10-07T13:33:15.945Z</time>
      </trkpt>
      <trkpt lat="48.19521" lon="3.24099">
        <ele>127</ele>
        <time>2012-10-07T13:33:15.945Z</time>
      </trkpt>
      <trkpt lat="48.19521" lon="3.24099">
        <ele>127</ele>
        <time>2012-10-07T13:33:19.945Z</time>
      </trkpt>
      <trkpt lat="48.19514" lon="3.24088">
        <ele>127</ele>
        <time>2012-10-07T13:33:20.945Z</time>
      </trkpt>
      <trkpt lat="48.19514" lon="3.24088">
        <ele>127</ele>
        <time>2012-10-07T13:33:20.945Z</time>
      </trkpt>
      <trkpt lat="48.19514" lon="3.24088">
        <ele>127</ele>
        <time>2012-10-07T13:33:23.945Z</time>
      </trkpt>
      <trkpt lat="48.19507" lon="3.2408">
        <ele>127</ele>
        <time>2012-10-07T13:33:24.945Z</time>
      </trkpt>
      <trkpt lat="48.19507" lon="3.2408">
        <ele>127</ele>
        <time>2012-10-07T13:33:24.945Z</time>
      </trkpt>
      <trkpt lat="48.19507" lon="3.2408">
        <ele>127</ele>
        <time>2012-10-07T13:33:27.945Z</time>
      </trkpt>
      <trkpt lat="48.19499" lon="3.24067">
        <ele>130</ele>
        <time>2012-10-07T13:33:28.945Z</time>
      </trkpt>
      <trkpt lat="48.19499" lon="3.24067">
        <ele>130</ele>
        <time>2012-10-07T13:33:28.945Z</time>
      </trkpt>
      <trkpt lat="48.19499" lon="3.24067">
        <ele>130</ele>
        <time>2012-10-07T13:33:31.945Z</time>
      </trkpt>
      <trkpt lat="48.19494" lon="3.24056">
        <ele>131</ele>
        <time>2012-10-07T13:33:32.945Z</time>
      </trkpt>
      <trkpt lat="48.19494" lon="3.24056">
        <ele>131</ele>
        <time>2012-10-07T13:33:32.945Z</time>
      </trkpt>
      <trkpt lat="48.19494" lon="3.24056">
        <ele>131</ele>
        <time>2012-10-07T13:33:35.945Z</time>
      </trkpt>
      <trkpt lat="48.19486" lon="3.24045">
        <ele>132</ele>
        <time>2012-10-07T13:33:36.945Z</time>
      </trkpt>
      <trkpt lat="48.19486" lon="3.24045">
        <ele>132</ele>
        <time>2012-10-07T13:33:36.945Z</time>
      </trkpt>
      <trkpt lat="48.19486" lon="3.24045">
        <ele>132</ele>
        <time>2012-10-07T13:33:39.945Z</time>
      </trkpt>
      <trkpt lat="48.19478" lon="3.24039">
        <ele>132</ele>
        <time>2012-10-07T13:33:40.945Z</time>
      </trkpt>
      <trkpt lat="48.19478" lon="3.24039">
        <ele>132</ele>
        <time>2012-10-07T13:33:40.945Z</time>
      </trkpt>
      <trkpt lat="48.19478" lon="3.24039">
        <ele>132</ele>
        <time>2012-10-07T13:33:43.945Z</time>
      </trkpt>
      <trkpt lat="48.19467" lon="3.2403">
        <ele>132</ele>
        <time>2012-10-07T13:33:44.945Z</time>
      </trkpt>
      <trkpt lat="48.19467" lon="3.2403">
        <ele>132</ele>
        <time>2012-10-07T13:33:44.945Z</time>
      </trkpt>
      <trkpt lat="48.19467" lon="3.2403">
        <ele>132</ele>
        <time>2012-10-07T13:33:47.945Z</time>
      </trkpt>
      <trkpt lat="48.19459" lon="3.24022">
        <ele>133</ele>
        <time>2012-10-07T13:33:48.945Z</time>
      </trkpt>
      <trkpt lat="48.19459" lon="3.24022">
        <ele>133</ele>
        <time>2012-10-07T13:33:48.945Z</time>
      </trkpt>
      <trkpt lat="48.19459" lon="3.24022">
        <ele>133</ele>
        <time>2012-10-07T13:33:52.945Z</time>
      </trkpt>
      <trkpt lat="48.19453" lon="3.24009">
        <ele>133</ele>
        <time>2012-10-07T13:33:53.945Z</time>
      </trkpt>
      <trkpt lat="48.19453" lon="3.24009">
        <ele>133</ele>
        <time>2012-10-07T13:33:53.945Z</time>
      </trkpt>
      <trkpt lat="48.19453" lon="3.24009">
        <ele>133</ele>
        <time>2012-10-07T13:33:57.945Z</time>
      </trkpt>
      <trkpt lat="48.19445" lon="3.24">
        <ele>133</ele>
        <time>2012-10-07T13:33:58.945Z</time>
      </trkpt>
      <trkpt lat="48.19445" lon="3.24">
        <ele>133</ele>
        <time>2012-10-07T13:33:58.945Z</time>
      </trkpt>
      <trkpt lat="48.19445" lon="3.24">
        <ele>133</ele>
        <time>2012-10-07T13:34:02.945Z</time>
      </trkpt>
      <trkpt lat="48.19436" lon="3.23989">
        <ele>135</ele>
        <time>2012-10-07T13:34:03.945Z</time>
      </trkpt>
      <trkpt lat="48.19436" lon="3.23989">
        <ele>135</ele>
        <time>2012-10-07T13:34:03.945Z</time>
      </trkpt>
      <trkpt lat="48.19436" lon="3.23989">
        <ele>135</ele>
        <time>2012-10-07T13:34:08.945Z</time>
      </trkpt>
      <trkpt lat="48.19428" lon="3.23981">
        <ele>135</ele>
        <time>2012-10-07T13:34:09.945Z</time>
      </trkpt>
      <trkpt lat="48.19428" lon="3.23981">
        <ele>135</ele>
        <time>2012-10-07T13:34:09.945Z</time>
      </trkpt>
      <trkpt lat="48.19428" lon="3.23981">
        <ele>135</ele>
        <time>2012-10-07T13:34:15.945Z</time>
      </trkpt>
      <trkpt lat="48.19423" lon="3.23981">
        <ele>135</ele>
        <time>2012-10-07T13:34:16.945Z</time>
      </trkpt>
      <trkpt lat="48.19423" lon="3.23981">
        <ele>135</ele>
        <time>2012-10-07T13:34:16.945Z</time>
      </trkpt>
      <trkpt lat="48.19423" lon="3.23981">
        <ele>135</ele>
        <time>2012-10-07T13:34:25.945Z</time>
      </trkpt>
      <trkpt lat="48.19414" lon="3.23981">
        <ele>136</ele>
        <time>2012-10-07T13:34:26.945Z</time>
      </trkpt>
      <trkpt lat="48.19414" lon="3.23981">
        <ele>136</ele>
        <time>2012-10-07T13:34:26.945Z</time>
      </trkpt>
      <trkpt lat="48.19414" lon="3.23981">
        <ele>136</ele>
        <time>2012-10-07T13:34:28.945Z</time>
      </trkpt>
      <trkpt lat="48.19404" lon="3.23985">
        <ele>136</ele>
        <time>2012-10-07T13:34:29.945Z</time>
      </trkpt>
      <trkpt lat="48.19404" lon="3.23985">
        <ele>136</ele>
        <time>2012-10-07T13:34:29.945Z</time>
      </trkpt>
      <trkpt lat="48.19404" lon="3.23985">
        <ele>136</ele>
        <time>2012-10-07T13:34:30.945Z</time>
      </trkpt>
      <trkpt lat="48.19398" lon="3.23989">
        <ele>137</ele>
        <time>2012-10-07T13:34:31.945Z</time>
      </trkpt>
      <trkpt lat="48.19398" lon="3.23989">
        <ele>137</ele>
        <time>2012-10-07T13:34:31.945Z</time>
      </trkpt>
      <trkpt lat="48.19398" lon="3.23989">
        <ele>137</ele>
        <time>2012-10-07T13:34:33.945Z</time>
      </trkpt>
      <trkpt lat="48.19393" lon="3.23996">
        <ele>137</ele>
        <time>2012-10-07T13:34:34.945Z</time>
      </trkpt>
      <trkpt lat="48.19393" lon="3.23996">
        <ele>137</ele>
        <time>2012-10-07T13:34:34.945Z</time>
      </trkpt>
      <trkpt lat="48.19393" lon="3.23996">
        <ele>137</ele>
        <time>2012-10-07T13:34:36.945Z</time>
      </trkpt>
      <trkpt lat="48.19391" lon="3.24004">
        <ele>137</ele>
        <time>2012-10-07T13:34:37.945Z</time>
      </trkpt>
      <trkpt lat="48.19391" lon="3.24004">
        <ele>137</ele>
        <time>2012-10-07T13:34:37.945Z</time>
      </trkpt>
      <trkpt lat="48.19391" lon="3.24004">
        <ele>137</ele>
        <time>2012-10-07T13:34:42.945Z</time>
      </trkpt>
      <trkpt lat="48.19382" lon="3.24009">
        <ele>138</ele>
        <time>2012-10-07T13:34:43.945Z</time>
      </trkpt>
      <trkpt lat="48.19382" lon="3.24009">
        <ele>138</ele>
        <time>2012-10-07T13:34:43.945Z</time>
      </trkpt>
      <trkpt lat="48.19382" lon="3.24009">
        <ele>138</ele>
        <time>2012-10-07T13:34:53.945Z</time>
      </trkpt>
      <trkpt lat="48.19372" lon="3.24011">
        <ele>139</ele>
        <time>2012-10-07T13:34:54.945Z</time>
      </trkpt>
      <trkpt lat="48.19372" lon="3.24011">
        <ele>139</ele>
        <time>2012-10-07T13:34:54.945Z</time>
      </trkpt>
      <trkpt lat="48.19372" lon="3.24011">
        <ele>139</ele>
        <time>2012-10-07T13:34:57.945Z</time>
      </trkpt>
      <trkpt lat="48.19371" lon="3.23996">
        <ele>138</ele>
        <time>2012-10-07T13:34:58.945Z</time>
      </trkpt>
      <trkpt lat="48.19371" lon="3.23996">
        <ele>138</ele>
        <time>2012-10-07T13:34:58.945Z</time>
      </trkpt>
      <trkpt lat="48.19371" lon="3.23996">
        <ele>138</ele>
        <time>2012-10-07T13:35:00.945Z</time>
      </trkpt>
      <trkpt lat="48.1937" lon="3.23983">
        <ele>138</ele>
        <time>2012-10-07T13:35:01.945Z</time>
      </trkpt>
      <trkpt lat="48.19366" lon="3.23972">
        <ele>138</ele>
        <time>2012-10-07T13:35:03.945Z</time>
      </trkpt>
      <trkpt lat="48.19363" lon="3.23961">
        <ele>138</ele>
        <time>2012-10-07T13:35:05.945Z</time>
      </trkpt>
      <trkpt lat="48.19358" lon="3.23953">
        <ele>139</ele>
        <time>2012-10-07T13:35:07.945Z</time>
      </trkpt>
      <trkpt lat="48.19353" lon="3.23949">
        <ele>139</ele>
        <time>2012-10-07T13:35:08.945Z</time>
      </trkpt>
      <trkpt lat="48.19347" lon="3.2394">
        <ele>139</ele>
        <time>2012-10-07T13:35:10.945Z</time>
      </trkpt>
      <trkpt lat="48.1934" lon="3.23931">
        <ele>139</ele>
        <time>2012-10-07T13:35:12.945Z</time>
      </trkpt>
      <trkpt lat="48.19336" lon="3.23925">
        <ele>139</ele>
        <time>2012-10-07T13:35:14.945Z</time>
      </trkpt>
      <trkpt lat="48.19331" lon="3.23916">
        <ele>139</ele>
        <time>2012-10-07T13:35:16.945Z</time>
      </trkpt>
      <trkpt lat="48.19327" lon="3.23908">
        <ele>140</ele>
        <time>2012-10-07T13:35:18.945Z</time>
      </trkpt>
      <trkpt lat="48.19327" lon="3.23897">
        <ele>141</ele>
        <time>2012-10-07T13:35:21.945Z</time>
      </trkpt>
      <trkpt lat="48.19329" lon="3.23888">
        <ele>141</ele>
        <time>2012-10-07T13:35:24.945Z</time>
      </trkpt>
      <trkpt lat="48.19331" lon="3.23882">
        <ele>141</ele>
        <time>2012-10-07T13:35:27.945Z</time>
      </trkpt>
      <trkpt lat="48.19333" lon="3.23874">
        <ele>141</ele>
        <time>2012-10-07T13:35:30.945Z</time>
      </trkpt>
      <trkpt lat="48.19334" lon="3.23863">
        <ele>142</ele>
        <time>2012-10-07T13:35:32.945Z</time>
      </trkpt>
      <trkpt lat="48.19337" lon="3.23854">
        <ele>142</ele>
        <time>2012-10-07T13:35:35.945Z</time>
      </trkpt>
      <trkpt lat="48.19342" lon="3.23841">
        <ele>142</ele>
        <time>2012-10-07T13:35:40.945Z</time>
      </trkpt>
      <trkpt lat="48.19344" lon="3.23835">
        <ele>142</ele>
        <time>2012-10-07T13:35:43.945Z</time>
      </trkpt>
      <trkpt lat="48.19346" lon="3.23828">
        <ele>144</ele>
        <time>2012-10-07T13:35:45.945Z</time>
      </trkpt>
      <trkpt lat="48.19346" lon="3.23828">
        <ele>144</ele>
        <time>2012-10-07T13:35:45.945Z</time>
      </trkpt>
      <trkpt lat="48.19346" lon="3.23828">
        <ele>144</ele>
        <time>2012-10-07T13:35:47.945Z</time>
      </trkpt>
      <trkpt lat="48.1935" lon="3.23822">
        <ele>144</ele>
        <time>2012-10-07T13:35:48.945Z</time>
      </trkpt>
      <trkpt lat="48.1935" lon="3.23822">
        <ele>144</ele>
        <time>2012-10-07T13:35:48.945Z</time>
      </trkpt>
      <trkpt lat="48.1935" lon="3.23822">
        <ele>144</ele>
        <time>2012-10-07T13:35:50.945Z</time>
      </trkpt>
      <trkpt lat="48.19353" lon="3.23813">
        <ele>144</ele>
        <time>2012-10-07T13:35:51.945Z</time>
      </trkpt>
      <trkpt lat="48.19353" lon="3.23813">
        <ele>144</ele>
        <time>2012-10-07T13:35:51.945Z</time>
      </trkpt>
      <trkpt lat="48.19353" lon="3.23813">
        <ele>144</ele>
        <time>2012-10-07T13:35:53.945Z</time>
      </trkpt>
      <trkpt lat="48.19357" lon="3.23805">
        <ele>145</ele>
        <time>2012-10-07T13:35:54.945Z</time>
      </trkpt>
      <trkpt lat="48.19357" lon="3.23805">
        <ele>145</ele>
        <time>2012-10-07T13:35:54.945Z</time>
      </trkpt>
      <trkpt lat="48.19357" lon="3.23805">
        <ele>145</ele>
        <time>2012-10-07T13:35:55.945Z</time>
      </trkpt>
      <trkpt lat="48.1936" lon="3.23798">
        <ele>145</ele>
        <time>2012-10-07T13:35:56.945Z</time>
      </trkpt>
      <trkpt lat="48.1936" lon="3.23798">
        <ele>145</ele>
        <time>2012-10-07T13:35:56.945Z</time>
      </trkpt>
      <trkpt lat="48.1936" lon="3.23798">
        <ele>145</ele>
        <time>2012-10-07T13:36:00.945Z</time>
      </trkpt>
      <trkpt lat="48.19365" lon="3.23786">
        <ele>145</ele>
        <time>2012-10-07T13:36:01.945Z</time>
      </trkpt>
      <trkpt lat="48.19365" lon="3.23786">
        <ele>145</ele>
        <time>2012-10-07T13:36:01.945Z</time>
      </trkpt>
      <trkpt lat="48.19365" lon="3.23786">
        <ele>145</ele>
        <time>2012-10-07T13:36:02.945Z</time>
      </trkpt>
      <trkpt lat="48.19368" lon="3.23779">
        <ele>145</ele>
        <time>2012-10-07T13:36:03.945Z</time>
      </trkpt>
      <trkpt lat="48.19368" lon="3.23779">
        <ele>145</ele>
        <time>2012-10-07T13:36:03.945Z</time>
      </trkpt>
      <trkpt lat="48.19368" lon="3.23779">
        <ele>145</ele>
        <time>2012-10-07T13:36:05.945Z</time>
      </trkpt>
      <trkpt lat="48.19373" lon="3.2377">
        <ele>145</ele>
        <time>2012-10-07T13:36:06.945Z</time>
      </trkpt>
      <trkpt lat="48.19375" lon="3.23762">
        <ele>145</ele>
        <time>2012-10-07T13:36:08.945Z</time>
      </trkpt>
      <trkpt lat="48.19378" lon="3.23756">
        <ele>146</ele>
        <time>2012-10-07T13:36:10.945Z</time>
      </trkpt>
      <trkpt lat="48.19381" lon="3.23749">
        <ele>148</ele>
        <time>2012-10-07T13:36:12.945Z</time>
      </trkpt>
      <trkpt lat="48.19384" lon="3.23743">
        <ele>148</ele>
        <time>2012-10-07T13:36:14.945Z</time>
      </trkpt>
      <trkpt lat="48.19387" lon="3.23736">
        <ele>148</ele>
        <time>2012-10-07T13:36:16.945Z</time>
      </trkpt>
      <trkpt lat="48.1939" lon="3.2373">
        <ele>148</ele>
        <time>2012-10-07T13:36:18.945Z</time>
      </trkpt>
      <trkpt lat="48.19393" lon="3.23721">
        <ele>148</ele>
        <time>2012-10-07T13:36:20.945Z</time>
      </trkpt>
      <trkpt lat="48.19396" lon="3.23715">
        <ele>148</ele>
        <time>2012-10-07T13:36:22.945Z</time>
      </trkpt>
      <trkpt lat="48.194" lon="3.23704">
        <ele>148</ele>
        <time>2012-10-07T13:36:24.945Z</time>
      </trkpt>
      <trkpt lat="48.19402" lon="3.23695">
        <ele>149</ele>
        <time>2012-10-07T13:36:26.945Z</time>
      </trkpt>
      <trkpt lat="48.19405" lon="3.23687">
        <ele>149</ele>
        <time>2012-10-07T13:36:28.945Z</time>
      </trkpt>
      <trkpt lat="48.19407" lon="3.23678">
        <ele>149</ele>
        <time>2012-10-07T13:36:30.945Z</time>
      </trkpt>
      <trkpt lat="48.19409" lon="3.2367">
        <ele>150</ele>
        <time>2012-10-07T13:36:32.945Z</time>
      </trkpt>
      <trkpt lat="48.19411" lon="3.23663">
        <ele>150</ele>
        <time>2012-10-07T13:36:33.945Z</time>
      </trkpt>
      <trkpt lat="48.19414" lon="3.23655">
        <ele>150</ele>
        <time>2012-10-07T13:36:35.945Z</time>
      </trkpt>
      <trkpt lat="48.19416" lon="3.23648">
        <ele>150</ele>
        <time>2012-10-07T13:36:36.945Z</time>
      </trkpt>
      <trkpt lat="48.19419" lon="3.23637">
        <ele>148</ele>
        <time>2012-10-07T13:36:38.945Z</time>
      </trkpt>
      <trkpt lat="48.19422" lon="3.23625">
        <ele>147</ele>
        <time>2012-10-07T13:36:40.945Z</time>
      </trkpt>
      <trkpt lat="48.19424" lon="3.23612">
        <ele>148</ele>
        <time>2012-10-07T13:36:42.945Z</time>
      </trkpt>
      <trkpt lat="48.19426" lon="3.23599">
        <ele>148</ele>
        <time>2012-10-07T13:36:44.945Z</time>
      </trkpt>
      <trkpt lat="48.19428" lon="3.23584">
        <ele>149</ele>
        <time>2012-10-07T13:36:46.945Z</time>
      </trkpt>
      <trkpt lat="48.1943" lon="3.23573">
        <ele>147</ele>
        <time>2012-10-07T13:36:47.945Z</time>
      </trkpt>
      <trkpt lat="48.1943" lon="3.23564">
        <ele>146</ele>
        <time>2012-10-07T13:36:48.945Z</time>
      </trkpt>
      <trkpt lat="48.19431" lon="3.23554">
        <ele>146</ele>
        <time>2012-10-07T13:36:49.945Z</time>
      </trkpt>
      <trkpt lat="48.19432" lon="3.23543">
        <ele>145</ele>
        <time>2012-10-07T13:36:50.945Z</time>
      </trkpt>
      <trkpt lat="48.19433" lon="3.23534">
        <ele>145</ele>
        <time>2012-10-07T13:36:51.945Z</time>
      </trkpt>
      <trkpt lat="48.19434" lon="3.23526">
        <ele>145</ele>
        <time>2012-10-07T13:36:52.945Z</time>
      </trkpt>
      <trkpt lat="48.19437" lon="3.23517">
        <ele>144</ele>
        <time>2012-10-07T13:36:53.945Z</time>
      </trkpt>
      <trkpt lat="48.19441" lon="3.23511">
        <ele>144</ele>
        <time>2012-10-07T13:36:54.945Z</time>
      </trkpt>
      <trkpt lat="48.19446" lon="3.23504">
        <ele>144</ele>
        <time>2012-10-07T13:36:55.945Z</time>
      </trkpt>
      <trkpt lat="48.19451" lon="3.23498">
        <ele>139</ele>
        <time>2012-10-07T13:36:56.945Z</time>
      </trkpt>
      <trkpt lat="48.19456" lon="3.23489">
        <ele>139</ele>
        <time>2012-10-07T13:36:57.945Z</time>
      </trkpt>
      <trkpt lat="48.19462" lon="3.23481">
        <ele>138</ele>
        <time>2012-10-07T13:36:58.945Z</time>
      </trkpt>
      <trkpt lat="48.19468" lon="3.23474">
        <ele>137</ele>
        <time>2012-10-07T13:36:59.945Z</time>
      </trkpt>
      <trkpt lat="48.19474" lon="3.23468">
        <ele>137</ele>
        <time>2012-10-07T13:37:00.945Z</time>
      </trkpt>
      <trkpt lat="48.19479" lon="3.23459">
        <ele>136</ele>
        <time>2012-10-07T13:37:01.945Z</time>
      </trkpt>
      <trkpt lat="48.19484" lon="3.23453">
        <ele>136</ele>
        <time>2012-10-07T13:37:02.945Z</time>
      </trkpt>
      <trkpt lat="48.1949" lon="3.23446">
        <ele>135</ele>
        <time>2012-10-07T13:37:03.945Z</time>
      </trkpt>
      <trkpt lat="48.19497" lon="3.23436">
        <ele>133</ele>
        <time>2012-10-07T13:37:05.945Z</time>
      </trkpt>
      <trkpt lat="48.195" lon="3.23429">
        <ele>129</ele>
        <time>2012-10-07T13:37:06.945Z</time>
      </trkpt>
      <trkpt lat="48.19505" lon="3.23423">
        <ele>129</ele>
        <time>2012-10-07T13:37:07.945Z</time>
      </trkpt>
      <trkpt lat="48.19508" lon="3.23416">
        <ele>127</ele>
        <time>2012-10-07T13:37:08.945Z</time>
      </trkpt>
      <trkpt lat="48.19513" lon="3.2341">
        <ele>126</ele>
        <time>2012-10-07T13:37:09.945Z</time>
      </trkpt>
      <trkpt lat="48.19518" lon="3.23404">
        <ele>125</ele>
        <time>2012-10-07T13:37:10.945Z</time>
      </trkpt>
      <trkpt lat="48.19522" lon="3.23397">
        <ele>125</ele>
        <time>2012-10-07T13:37:11.945Z</time>
      </trkpt>
      <trkpt lat="48.19527" lon="3.23391">
        <ele>124</ele>
        <time>2012-10-07T13:37:12.945Z</time>
      </trkpt>
      <trkpt lat="48.19532" lon="3.23386">
        <ele>123</ele>
        <time>2012-10-07T13:37:13.945Z</time>
      </trkpt>
      <trkpt lat="48.19537" lon="3.2338">
        <ele>123</ele>
        <time>2012-10-07T13:37:14.945Z</time>
      </trkpt>
      <trkpt lat="48.19542" lon="3.23374">
        <ele>123</ele>
        <time>2012-10-07T13:37:15.945Z</time>
      </trkpt>
      <trkpt lat="48.19548" lon="3.23369">
        <ele>122</ele>
        <time>2012-10-07T13:37:16.945Z</time>
      </trkpt>
      <trkpt lat="48.19554" lon="3.23365">
        <ele>122</ele>
        <time>2012-10-07T13:37:17.945Z</time>
      </trkpt>
      <trkpt lat="48.1956" lon="3.23361">
        <ele>122</ele>
        <time>2012-10-07T13:37:18.945Z</time>
      </trkpt>
      <trkpt lat="48.19566" lon="3.23356">
        <ele>121</ele>
        <time>2012-10-07T13:37:19.945Z</time>
      </trkpt>
      <trkpt lat="48.19572" lon="3.23352">
        <ele>121</ele>
        <time>2012-10-07T13:37:20.945Z</time>
      </trkpt>
      <trkpt lat="48.19579" lon="3.2335">
        <ele>120</ele>
        <time>2012-10-07T13:37:21.945Z</time>
      </trkpt>
      <trkpt lat="48.19585" lon="3.23346">
        <ele>118</ele>
        <time>2012-10-07T13:37:22.945Z</time>
      </trkpt>
      <trkpt lat="48.1959" lon="3.23344">
        <ele>118</ele>
        <time>2012-10-07T13:37:23.945Z</time>
      </trkpt>
      <trkpt lat="48.19596" lon="3.23341">
        <ele>118</ele>
        <time>2012-10-07T13:37:24.945Z</time>
      </trkpt>
      <trkpt lat="48.19601" lon="3.23339">
        <ele>118</ele>
        <time>2012-10-07T13:37:25.945Z</time>
      </trkpt>
      <trkpt lat="48.19607" lon="3.23337">
        <ele>118</ele>
        <time>2012-10-07T13:37:26.945Z</time>
      </trkpt>
      <trkpt lat="48.19612" lon="3.23335">
        <ele>118</ele>
        <time>2012-10-07T13:37:27.945Z</time>
      </trkpt>
      <trkpt lat="48.19617" lon="3.23331">
        <ele>118</ele>
        <time>2012-10-07T13:37:28.945Z</time>
      </trkpt>
      <trkpt lat="48.19623" lon="3.23328">
        <ele>118</ele>
        <time>2012-10-07T13:37:29.945Z</time>
      </trkpt>
      <trkpt lat="48.19627" lon="3.23324">
        <ele>118</ele>
        <time>2012-10-07T13:37:30.945Z</time>
      </trkpt>
      <trkpt lat="48.19631" lon="3.23322">
        <ele>118</ele>
        <time>2012-10-07T13:37:31.945Z</time>
      </trkpt>
      <trkpt lat="48.19636" lon="3.2332">
        <ele>118</ele>
        <time>2012-10-07T13:37:33.945Z</time>
      </trkpt>
      <trkpt lat="48.1964" lon="3.23316">
        <ele>118</ele>
        <time>2012-10-07T13:37:35.945Z</time>
      </trkpt>
      <trkpt lat="48.19643" lon="3.23309">
        <ele>118</ele>
        <time>2012-10-07T13:37:37.945Z</time>
      </trkpt>
      <trkpt lat="48.19648" lon="3.23303">
        <ele>118</ele>
        <time>2012-10-07T13:37:39.945Z</time>
      </trkpt>
      <trkpt lat="48.19654" lon="3.23294">
        <ele>118</ele>
        <time>2012-10-07T13:37:41.945Z</time>
      </trkpt>
      <trkpt lat="48.19659" lon="3.23288">
        <ele>118</ele>
        <time>2012-10-07T13:37:43.945Z</time>
      </trkpt>
      <trkpt lat="48.19664" lon="3.23281">
        <ele>119</ele>
        <time>2012-10-07T13:37:45.945Z</time>
      </trkpt>
      <trkpt lat="48.19668" lon="3.23273">
        <ele>123</ele>
        <time>2012-10-07T13:37:47.945Z</time>
      </trkpt>
      <trkpt lat="48.19671" lon="3.23264">
        <ele>123</ele>
        <time>2012-10-07T13:37:49.945Z</time>
      </trkpt>
      <trkpt lat="48.19674" lon="3.23253">
        <ele>122</ele>
        <time>2012-10-07T13:37:51.945Z</time>
      </trkpt>
      <trkpt lat="48.19676" lon="3.23245">
        <ele>124</ele>
        <time>2012-10-07T13:37:53.945Z</time>
      </trkpt>
      <trkpt lat="48.19678" lon="3.23238">
        <ele>125</ele>
        <time>2012-10-07T13:37:55.945Z</time>
      </trkpt>
      <trkpt lat="48.19678" lon="3.23238">
        <ele>125</ele>
        <time>2012-10-07T13:37:55.945Z</time>
      </trkpt>
      <trkpt lat="48.19678" lon="3.23238">
        <ele>125</ele>
        <time>2012-10-07T13:37:57.945Z</time>
      </trkpt>
      <trkpt lat="48.19681" lon="3.2323">
        <ele>127</ele>
        <time>2012-10-07T13:37:58.945Z</time>
      </trkpt>
      <trkpt lat="48.19681" lon="3.2323">
        <ele>127</ele>
        <time>2012-10-07T13:37:58.945Z</time>
      </trkpt>
      <trkpt lat="48.19681" lon="3.2323">
        <ele>127</ele>
        <time>2012-10-07T13:38:00.945Z</time>
      </trkpt>
      <trkpt lat="48.19683" lon="3.23221">
        <ele>128</ele>
        <time>2012-10-07T13:38:01.945Z</time>
      </trkpt>
      <trkpt lat="48.19683" lon="3.23221">
        <ele>128</ele>
        <time>2012-10-07T13:38:01.945Z</time>
      </trkpt>
      <trkpt lat="48.19683" lon="3.23221">
        <ele>128</ele>
        <time>2012-10-07T13:38:04.945Z</time>
      </trkpt>
      <trkpt lat="48.19685" lon="3.23213">
        <ele>128</ele>
        <time>2012-10-07T13:38:05.945Z</time>
      </trkpt>
      <trkpt lat="48.19685" lon="3.23213">
        <ele>128</ele>
        <time>2012-10-07T13:38:05.945Z</time>
      </trkpt>
      <trkpt lat="48.19685" lon="3.23213">
        <ele>128</ele>
        <time>2012-10-07T13:38:08.945Z</time>
      </trkpt>
      <trkpt lat="48.19687" lon="3.23206">
        <ele>129</ele>
        <time>2012-10-07T13:38:09.945Z</time>
      </trkpt>
      <trkpt lat="48.19687" lon="3.23206">
        <ele>129</ele>
        <time>2012-10-07T13:38:09.945Z</time>
      </trkpt>
      <trkpt lat="48.19687" lon="3.23206">
        <ele>129</ele>
        <time>2012-10-07T13:38:12.945Z</time>
      </trkpt>
      <trkpt lat="48.19689" lon="3.23198">
        <ele>129</ele>
        <time>2012-10-07T13:38:13.945Z</time>
      </trkpt>
      <trkpt lat="48.19689" lon="3.23198">
        <ele>129</ele>
        <time>2012-10-07T13:38:13.945Z</time>
      </trkpt>
      <trkpt lat="48.19689" lon="3.23198">
        <ele>129</ele>
        <time>2012-10-07T13:38:16.945Z</time>
      </trkpt>
      <trkpt lat="48.19691" lon="3.23191">
        <ele>129</ele>
        <time>2012-10-07T13:38:17.945Z</time>
      </trkpt>
      <trkpt lat="48.19691" lon="3.23191">
        <ele>129</ele>
        <time>2012-10-07T13:38:17.945Z</time>
      </trkpt>
      <trkpt lat="48.19691" lon="3.23191">
        <ele>129</ele>
        <time>2012-10-07T13:38:20.945Z</time>
      </trkpt>
      <trkpt lat="48.19694" lon="3.23182">
        <ele>129</ele>
        <time>2012-10-07T13:38:21.945Z</time>
      </trkpt>
      <trkpt lat="48.19694" lon="3.23182">
        <ele>129</ele>
        <time>2012-10-07T13:38:21.945Z</time>
      </trkpt>
      <trkpt lat="48.19694" lon="3.23182">
        <ele>129</ele>
        <time>2012-10-07T13:38:23.945Z</time>
      </trkpt>
      <trkpt lat="48.19696" lon="3.23176">
        <ele>130</ele>
        <time>2012-10-07T13:38:24.945Z</time>
      </trkpt>
      <trkpt lat="48.19696" lon="3.23176">
        <ele>130</ele>
        <time>2012-10-07T13:38:24.945Z</time>
      </trkpt>
      <trkpt lat="48.19696" lon="3.23176">
        <ele>130</ele>
        <time>2012-10-07T13:38:27.945Z</time>
      </trkpt>
      <trkpt lat="48.19698" lon="3.2317">
        <ele>130</ele>
        <time>2012-10-07T13:38:28.945Z</time>
      </trkpt>
      <trkpt lat="48.19698" lon="3.2317">
        <ele>130</ele>
        <time>2012-10-07T13:38:28.945Z</time>
      </trkpt>
      <trkpt lat="48.19698" lon="3.2317">
        <ele>130</ele>
        <time>2012-10-07T13:38:31.945Z</time>
      </trkpt>
      <trkpt lat="48.197" lon="3.23161">
        <ele>132</ele>
        <time>2012-10-07T13:38:32.945Z</time>
      </trkpt>
      <trkpt lat="48.197" lon="3.23161">
        <ele>132</ele>
        <time>2012-10-07T13:38:32.945Z</time>
      </trkpt>
      <trkpt lat="48.197" lon="3.23161">
        <ele>132</ele>
        <time>2012-10-07T13:38:35.945Z</time>
      </trkpt>
      <trkpt lat="48.19703" lon="3.23155">
        <ele>133</ele>
        <time>2012-10-07T13:38:36.945Z</time>
      </trkpt>
      <trkpt lat="48.19703" lon="3.23155">
        <ele>133</ele>
        <time>2012-10-07T13:38:36.945Z</time>
      </trkpt>
      <trkpt lat="48.19703" lon="3.23155">
        <ele>133</ele>
        <time>2012-10-07T13:38:53.945Z</time>
      </trkpt>
      <trkpt lat="48.19705" lon="3.23148">
        <ele>133</ele>
        <time>2012-10-07T13:38:54.945Z</time>
      </trkpt>
      <trkpt lat="48.19705" lon="3.23148">
        <ele>133</ele>
        <time>2012-10-07T13:38:54.945Z</time>
      </trkpt>
      <trkpt lat="48.19705" lon="3.23148">
        <ele>133</ele>
        <time>2012-10-07T13:38:57.945Z</time>
      </trkpt>
      <trkpt lat="48.19708" lon="3.2314">
        <ele>134</ele>
        <time>2012-10-07T13:38:58.945Z</time>
      </trkpt>
      <trkpt lat="48.19711" lon="3.23129">
        <ele>134</ele>
        <time>2012-10-07T13:39:05.945Z</time>
      </trkpt>
      <trkpt lat="48.19714" lon="3.2312">
        <ele>135</ele>
        <time>2012-10-07T13:39:12.945Z</time>
      </trkpt>
      <trkpt lat="48.19714" lon="3.2312">
        <ele>135</ele>
        <time>2012-10-07T13:39:12.945Z</time>
      </trkpt>
      <trkpt lat="48.19714" lon="3.2312">
        <ele>135</ele>
        <time>2012-10-07T13:39:14.945Z</time>
      </trkpt>
      <trkpt lat="48.19716" lon="3.23114">
        <ele>135</ele>
        <time>2012-10-07T13:39:16.945Z</time>
      </trkpt>
      <trkpt lat="48.19716" lon="3.23114">
        <ele>135</ele>
        <time>2012-10-07T13:39:16.945Z</time>
      </trkpt>
      <trkpt lat="48.19716" lon="3.23114">
        <ele>135</ele>
        <time>2012-10-07T13:39:18.945Z</time>
      </trkpt>
      <trkpt lat="48.19718" lon="3.23107">
        <ele>136</ele>
        <time>2012-10-07T13:39:20.945Z</time>
      </trkpt>
      <trkpt lat="48.19721" lon="3.23099">
        <ele>137</ele>
        <time>2012-10-07T13:39:26.945Z</time>
      </trkpt>
      <trkpt lat="48.19721" lon="3.23099">
        <ele>137</ele>
        <time>2012-10-07T13:39:26.945Z</time>
      </trkpt>
      <trkpt lat="48.19721" lon="3.23099">
        <ele>137</ele>
        <time>2012-10-07T13:39:28.945Z</time>
      </trkpt>
      <trkpt lat="48.19725" lon="3.2309">
        <ele>138</ele>
        <time>2012-10-07T13:39:31.945Z</time>
      </trkpt>
      <trkpt lat="48.19725" lon="3.2309">
        <ele>138</ele>
        <time>2012-10-07T13:39:31.945Z</time>
      </trkpt>
      <trkpt lat="48.19725" lon="3.2309">
        <ele>138</ele>
        <time>2012-10-07T13:39:34.945Z</time>
      </trkpt>
      <trkpt lat="48.1973" lon="3.2308">
        <ele>141</ele>
        <time>2012-10-07T13:39:39.945Z</time>
      </trkpt>
      <trkpt lat="48.19734" lon="3.23075">
        <ele>141</ele>
        <time>2012-10-07T13:39:46.945Z</time>
      </trkpt>
      <trkpt lat="48.19734" lon="3.23075">
        <ele>141</ele>
        <time>2012-10-07T13:39:46.945Z</time>
      </trkpt>
      <trkpt lat="48.19734" lon="3.23075">
        <ele>141</ele>
        <time>2012-10-07T13:39:55.945Z</time>
      </trkpt>
      <trkpt lat="48.1974" lon="3.23067">
        <ele>142</ele>
        <time>2012-10-07T13:39:56.945Z</time>
      </trkpt>
      <trkpt lat="48.1974" lon="3.23067">
        <ele>142</ele>
        <time>2012-10-07T13:39:56.945Z</time>
      </trkpt>
      <trkpt lat="48.1974" lon="3.23067">
        <ele>142</ele>
        <time>2012-10-07T13:40:05.945Z</time>
      </trkpt>
      <trkpt lat="48.19744" lon="3.23056">
        <ele>141</ele>
        <time>2012-10-07T13:40:06.945Z</time>
      </trkpt>
      <trkpt lat="48.19744" lon="3.23056">
        <ele>141</ele>
        <time>2012-10-07T13:40:06.945Z</time>
      </trkpt>
      <trkpt lat="48.19744" lon="3.23056">
        <ele>141</ele>
        <time>2012-10-07T13:40:10.945Z</time>
      </trkpt>
      <trkpt lat="48.19747" lon="3.2305">
        <ele>141</ele>
        <time>2012-10-07T13:40:11.945Z</time>
      </trkpt>
      <trkpt lat="48.19747" lon="3.2305">
        <ele>141</ele>
        <time>2012-10-07T13:40:11.945Z</time>
      </trkpt>
      <trkpt lat="48.19747" lon="3.2305">
        <ele>141</ele>
        <time>2012-10-07T13:40:15.945Z</time>
      </trkpt>
      <trkpt lat="48.1975" lon="3.23043">
        <ele>141</ele>
        <time>2012-10-07T13:40:16.945Z</time>
      </trkpt>
      <trkpt lat="48.1975" lon="3.23043">
        <ele>141</ele>
        <time>2012-10-07T13:40:16.945Z</time>
      </trkpt>
      <trkpt lat="48.1975" lon="3.23043">
        <ele>141</ele>
        <time>2012-10-07T13:40:19.945Z</time>
      </trkpt>
      <trkpt lat="48.19754" lon="3.23037">
        <ele>153</ele>
        <time>2012-10-07T13:40:20.945Z</time>
      </trkpt>
      <trkpt lat="48.19754" lon="3.23037">
        <ele>153</ele>
        <time>2012-10-07T13:40:20.945Z</time>
      </trkpt>
      <trkpt lat="48.19754" lon="3.23037">
        <ele>153</ele>
        <time>2012-10-07T13:40:24.945Z</time>
      </trkpt>
      <trkpt lat="48.19757" lon="3.2303">
        <ele>153</ele>
        <time>2012-10-07T13:40:25.945Z</time>
      </trkpt>
      <trkpt lat="48.19757" lon="3.2303">
        <ele>153</ele>
        <time>2012-10-07T13:40:25.945Z</time>
      </trkpt>
      <trkpt lat="48.19757" lon="3.2303">
        <ele>153</ele>
        <time>2012-10-07T13:40:29.945Z</time>
      </trkpt>
      <trkpt lat="48.19761" lon="3.23026">
        <ele>153</ele>
        <time>2012-10-07T13:40:31.945Z</time>
      </trkpt>
      <trkpt lat="48.19765" lon="3.2302">
        <ele>153</ele>
        <time>2012-10-07T13:40:38.945Z</time>
      </trkpt>
      <trkpt lat="48.1977" lon="3.23015">
        <ele>153</ele>
        <time>2012-10-07T13:40:44.945Z</time>
      </trkpt>
      <trkpt lat="48.19774" lon="3.23011">
        <ele>154</ele>
        <time>2012-10-07T13:40:50.945Z</time>
      </trkpt>
      <trkpt lat="48.19777" lon="3.23004">
        <ele>154</ele>
        <time>2012-10-07T13:40:56.945Z</time>
      </trkpt>
      <trkpt lat="48.19779" lon="3.22998">
        <ele>155</ele>
        <time>2012-10-07T13:41:03.945Z</time>
      </trkpt>
      <trkpt lat="48.19779" lon="3.22998">
        <ele>155</ele>
        <time>2012-10-07T13:41:03.945Z</time>
      </trkpt>
      <trkpt lat="48.19779" lon="3.22998">
        <ele>155</ele>
        <time>2012-10-07T13:41:04.945Z</time>
      </trkpt>
      <trkpt lat="48.19782" lon="3.22992">
        <ele>156</ele>
        <time>2012-10-07T13:41:09.945Z</time>
      </trkpt>
      <trkpt lat="48.19786" lon="3.22987">
        <ele>157</ele>
        <time>2012-10-07T13:41:13.945Z</time>
      </trkpt>
      <trkpt lat="48.1979" lon="3.22983">
        <ele>157</ele>
        <time>2012-10-07T13:41:17.945Z</time>
      </trkpt>
      <trkpt lat="48.19794" lon="3.22976">
        <ele>158</ele>
        <time>2012-10-07T13:41:21.945Z</time>
      </trkpt>
      <trkpt lat="48.19794" lon="3.22976">
        <ele>158</ele>
        <time>2012-10-07T13:41:21.945Z</time>
      </trkpt>
      <trkpt lat="48.19794" lon="3.22976">
        <ele>158</ele>
        <time>2012-10-07T13:41:22.945Z</time>
      </trkpt>
      <trkpt lat="48.19799" lon="3.2297">
        <ele>158</ele>
        <time>2012-10-07T13:41:26.945Z</time>
      </trkpt>
      <trkpt lat="48.19803" lon="3.22966">
        <ele>158</ele>
        <time>2012-10-07T13:41:30.945Z</time>
      </trkpt>
      <trkpt lat="48.19805" lon="3.22959">
        <ele>159</ele>
        <time>2012-10-07T13:41:33.945Z</time>
      </trkpt>
      <trkpt lat="48.19809" lon="3.22953">
        <ele>159</ele>
        <time>2012-10-07T13:41:37.945Z</time>
      </trkpt>
      <trkpt lat="48.19814" lon="3.22946">
        <ele>160</ele>
        <time>2012-10-07T13:41:40.945Z</time>
      </trkpt>
      <trkpt lat="48.19819" lon="3.2294">
        <ele>160</ele>
        <time>2012-10-07T13:41:44.945Z</time>
      </trkpt>
      <trkpt lat="48.19822" lon="3.22934">
        <ele>161</ele>
        <time>2012-10-07T13:41:47.945Z</time>
      </trkpt>
      <trkpt lat="48.19827" lon="3.22927">
        <ele>162</ele>
        <time>2012-10-07T13:41:50.945Z</time>
      </trkpt>
      <trkpt lat="48.1983" lon="3.22921">
        <ele>164</ele>
        <time>2012-10-07T13:41:53.945Z</time>
      </trkpt>
      <trkpt lat="48.19833" lon="3.22914">
        <ele>165</ele>
        <time>2012-10-07T13:41:56.945Z</time>
      </trkpt>
      <trkpt lat="48.19836" lon="3.22906">
        <ele>166</ele>
        <time>2012-10-07T13:41:59.945Z</time>
      </trkpt>
      <trkpt lat="48.1984" lon="3.22899">
        <ele>166</ele>
        <time>2012-10-07T13:42:02.945Z</time>
      </trkpt>
      <trkpt lat="48.19843" lon="3.22893">
        <ele>167</ele>
        <time>2012-10-07T13:42:04.945Z</time>
      </trkpt>
      <trkpt lat="48.19845" lon="3.22886">
        <ele>167</ele>
        <time>2012-10-07T13:42:06.945Z</time>
      </trkpt>
      <trkpt lat="48.19847" lon="3.2288">
        <ele>167</ele>
        <time>2012-10-07T13:42:08.945Z</time>
      </trkpt>
      <trkpt lat="48.1985" lon="3.22874">
        <ele>167</ele>
        <time>2012-10-07T13:42:10.945Z</time>
      </trkpt>
      <trkpt lat="48.19852" lon="3.22867">
        <ele>167</ele>
        <time>2012-10-07T13:42:12.945Z</time>
      </trkpt>
      <trkpt lat="48.19854" lon="3.22858">
        <ele>167</ele>
        <time>2012-10-07T13:42:14.945Z</time>
      </trkpt>
      <trkpt lat="48.19857" lon="3.22852">
        <ele>167</ele>
        <time>2012-10-07T13:42:16.945Z</time>
      </trkpt>
      <trkpt lat="48.1986" lon="3.22844">
        <ele>167</ele>
        <time>2012-10-07T13:42:18.945Z</time>
      </trkpt>
      <trkpt lat="48.19862" lon="3.22835">
        <ele>168</ele>
        <time>2012-10-07T13:42:20.945Z</time>
      </trkpt>
      <trkpt lat="48.19864" lon="3.22826">
        <ele>167</ele>
        <time>2012-10-07T13:42:22.945Z</time>
      </trkpt>
      <trkpt lat="48.19866" lon="3.22818">
        <ele>167</ele>
        <time>2012-10-07T13:42:24.945Z</time>
      </trkpt>
      <trkpt lat="48.19868" lon="3.22809">
        <ele>167</ele>
        <time>2012-10-07T13:42:26.945Z</time>
      </trkpt>
      <trkpt lat="48.1987" lon="3.22798">
        <ele>167</ele>
        <time>2012-10-07T13:42:28.945Z</time>
      </trkpt>
      <trkpt lat="48.19872" lon="3.22788">
        <ele>167</ele>
        <time>2012-10-07T13:42:30.945Z</time>
      </trkpt>
      <trkpt lat="48.19873" lon="3.22777">
        <ele>167</ele>
        <time>2012-10-07T13:42:32.945Z</time>
      </trkpt>
      <trkpt lat="48.19875" lon="3.22766">
        <ele>167</ele>
        <time>2012-10-07T13:42:34.945Z</time>
      </trkpt>
      <trkpt lat="48.19876" lon="3.22753">
        <ele>166</ele>
        <time>2012-10-07T13:42:36.945Z</time>
      </trkpt>
      <trkpt lat="48.19877" lon="3.22745">
        <ele>165</ele>
        <time>2012-10-07T13:42:37.945Z</time>
      </trkpt>
      <trkpt lat="48.19879" lon="3.2273">
        <ele>164</ele>
        <time>2012-10-07T13:42:39.945Z</time>
      </trkpt>
      <trkpt lat="48.1988" lon="3.22717">
        <ele>164</ele>
        <time>2012-10-07T13:42:41.945Z</time>
      </trkpt>
      <trkpt lat="48.1988" lon="3.22704">
        <ele>164</ele>
        <time>2012-10-07T13:42:43.945Z</time>
      </trkpt>
      <trkpt lat="48.19881" lon="3.22691">
        <ele>164</ele>
        <time>2012-10-07T13:42:45.945Z</time>
      </trkpt>
      <trkpt lat="48.19881" lon="3.22678">
        <ele>164</ele>
        <time>2012-10-07T13:42:47.945Z</time>
      </trkpt>
      <trkpt lat="48.19882" lon="3.22668">
        <ele>163</ele>
        <time>2012-10-07T13:42:49.945Z</time>
      </trkpt>
      <trkpt lat="48.19882" lon="3.22655">
        <ele>162</ele>
        <time>2012-10-07T13:42:51.945Z</time>
      </trkpt>
      <trkpt lat="48.19882" lon="3.22644">
        <ele>162</ele>
        <time>2012-10-07T13:42:53.945Z</time>
      </trkpt>
      <trkpt lat="48.19883" lon="3.22631">
        <ele>162</ele>
        <time>2012-10-07T13:42:55.945Z</time>
      </trkpt>
      <trkpt lat="48.19884" lon="3.2262">
        <ele>162</ele>
        <time>2012-10-07T13:42:57.945Z</time>
      </trkpt>
      <trkpt lat="48.19887" lon="3.2261">
        <ele>162</ele>
        <time>2012-10-07T13:42:59.945Z</time>
      </trkpt>
      <trkpt lat="48.1989" lon="3.22599">
        <ele>161</ele>
        <time>2012-10-07T13:43:01.945Z</time>
      </trkpt>
      <trkpt lat="48.19894" lon="3.22588">
        <ele>162</ele>
        <time>2012-10-07T13:43:03.945Z</time>
      </trkpt>
      <trkpt lat="48.19898" lon="3.2258">
        <ele>161</ele>
        <time>2012-10-07T13:43:05.945Z</time>
      </trkpt>
      <trkpt lat="48.19902" lon="3.22573">
        <ele>161</ele>
        <time>2012-10-07T13:43:06.945Z</time>
      </trkpt>
      <trkpt lat="48.19904" lon="3.22567">
        <ele>160</ele>
        <time>2012-10-07T13:43:07.945Z</time>
      </trkpt>
      <trkpt lat="48.19908" lon="3.22556">
        <ele>160</ele>
        <time>2012-10-07T13:43:09.945Z</time>
      </trkpt>
      <trkpt lat="48.19914" lon="3.22545">
        <ele>160</ele>
        <time>2012-10-07T13:43:11.945Z</time>
      </trkpt>
      <trkpt lat="48.19919" lon="3.22534">
        <ele>160</ele>
        <time>2012-10-07T13:43:13.945Z</time>
      </trkpt>
      <trkpt lat="48.19921" lon="3.22528">
        <ele>160</ele>
        <time>2012-10-07T13:43:14.945Z</time>
      </trkpt>
      <trkpt lat="48.19926" lon="3.22517">
        <ele>160</ele>
        <time>2012-10-07T13:43:16.945Z</time>
      </trkpt>
      <trkpt lat="48.1993" lon="3.22511">
        <ele>160</ele>
        <time>2012-10-07T13:43:17.945Z</time>
      </trkpt>
      <trkpt lat="48.19932" lon="3.22504">
        <ele>160</ele>
        <time>2012-10-07T13:43:18.945Z</time>
      </trkpt>
      <trkpt lat="48.19935" lon="3.22498">
        <ele>160</ele>
        <time>2012-10-07T13:43:19.945Z</time>
      </trkpt>
      <trkpt lat="48.19938" lon="3.22492">
        <ele>159</ele>
        <time>2012-10-07T13:43:20.945Z</time>
      </trkpt>
      <trkpt lat="48.1994" lon="3.22485">
        <ele>159</ele>
        <time>2012-10-07T13:43:21.945Z</time>
      </trkpt>
      <trkpt lat="48.19944" lon="3.22479">
        <ele>159</ele>
        <time>2012-10-07T13:43:22.945Z</time>
      </trkpt>
      <trkpt lat="48.19947" lon="3.22472">
        <ele>159</ele>
        <time>2012-10-07T13:43:23.945Z</time>
      </trkpt>
      <trkpt lat="48.19949" lon="3.22466">
        <ele>159</ele>
        <time>2012-10-07T13:43:24.945Z</time>
      </trkpt>
      <trkpt lat="48.19952" lon="3.22459">
        <ele>159</ele>
        <time>2012-10-07T13:43:25.945Z</time>
      </trkpt>
      <trkpt lat="48.19954" lon="3.22453">
        <ele>159</ele>
        <time>2012-10-07T13:43:26.945Z</time>
      </trkpt>
      <trkpt lat="48.19957" lon="3.22446">
        <ele>159</ele>
        <time>2012-10-07T13:43:27.945Z</time>
      </trkpt>
      <trkpt lat="48.19961" lon="3.2244">
        <ele>159</ele>
        <time>2012-10-07T13:43:28.945Z</time>
      </trkpt>
      <trkpt lat="48.19963" lon="3.22434">
        <ele>159</ele>
        <time>2012-10-07T13:43:29.945Z</time>
      </trkpt>
      <trkpt lat="48.19966" lon="3.22427">
        <ele>159</ele>
        <time>2012-10-07T13:43:30.945Z</time>
      </trkpt>
      <trkpt lat="48.19968" lon="3.22421">
        <ele>159</ele>
        <time>2012-10-07T13:43:31.945Z</time>
      </trkpt>
      <trkpt lat="48.19972" lon="3.2241">
        <ele>159</ele>
        <time>2012-10-07T13:43:33.945Z</time>
      </trkpt>
      <trkpt lat="48.19976" lon="3.22402">
        <ele>159</ele>
        <time>2012-10-07T13:43:34.945Z</time>
      </trkpt>
      <trkpt lat="48.19978" lon="3.22395">
        <ele>159</ele>
        <time>2012-10-07T13:43:35.945Z</time>
      </trkpt>
      <trkpt lat="48.19982" lon="3.22384">
        <ele>159</ele>
        <time>2012-10-07T13:43:37.945Z</time>
      </trkpt>
      <trkpt lat="48.19985" lon="3.22378">
        <ele>159</ele>
        <time>2012-10-07T13:43:38.945Z</time>
      </trkpt>
      <trkpt lat="48.1999" lon="3.22369">
        <ele>160</ele>
        <time>2012-10-07T13:43:40.945Z</time>
      </trkpt>
      <trkpt lat="48.19992" lon="3.22363">
        <ele>160</ele>
        <time>2012-10-07T13:43:41.945Z</time>
      </trkpt>
      <trkpt lat="48.19996" lon="3.22352">
        <ele>160</ele>
        <time>2012-10-07T13:43:43.945Z</time>
      </trkpt>
      <trkpt lat="48.2" lon="3.22344">
        <ele>161</ele>
        <time>2012-10-07T13:43:45.945Z</time>
      </trkpt>
      <trkpt lat="48.20004" lon="3.22337">
        <ele>161</ele>
        <time>2012-10-07T13:43:46.945Z</time>
      </trkpt>
      <trkpt lat="48.20008" lon="3.22326">
        <ele>161</ele>
        <time>2012-10-07T13:43:48.945Z</time>
      </trkpt>
      <trkpt lat="48.20012" lon="3.22316">
        <ele>161</ele>
        <time>2012-10-07T13:43:50.945Z</time>
      </trkpt>
      <trkpt lat="48.20015" lon="3.22305">
        <ele>162</ele>
        <time>2012-10-07T13:43:52.945Z</time>
      </trkpt>
      <trkpt lat="48.20019" lon="3.22294">
        <ele>162</ele>
        <time>2012-10-07T13:43:54.945Z</time>
      </trkpt>
      <trkpt lat="48.20022" lon="3.22284">
        <ele>162</ele>
        <time>2012-10-07T13:43:56.945Z</time>
      </trkpt>
      <trkpt lat="48.20026" lon="3.22273">
        <ele>162</ele>
        <time>2012-10-07T13:43:58.945Z</time>
      </trkpt>
      <trkpt lat="48.20028" lon="3.22266">
        <ele>162</ele>
        <time>2012-10-07T13:43:59.945Z</time>
      </trkpt>
      <trkpt lat="48.20032" lon="3.22256">
        <ele>162</ele>
        <time>2012-10-07T13:44:01.945Z</time>
      </trkpt>
      <trkpt lat="48.20035" lon="3.22245">
        <ele>164</ele>
        <time>2012-10-07T13:44:03.945Z</time>
      </trkpt>
      <trkpt lat="48.20038" lon="3.22236">
        <ele>164</ele>
        <time>2012-10-07T13:44:05.945Z</time>
      </trkpt>
      <trkpt lat="48.2004" lon="3.2223">
        <ele>164</ele>
        <time>2012-10-07T13:44:06.945Z</time>
      </trkpt>
      <trkpt lat="48.20043" lon="3.22221">
        <ele>164</ele>
        <time>2012-10-07T13:44:08.945Z</time>
      </trkpt>
      <trkpt lat="48.20046" lon="3.2221">
        <ele>165</ele>
        <time>2012-10-07T13:44:10.945Z</time>
      </trkpt>
      <trkpt lat="48.20049" lon="3.22204">
        <ele>165</ele>
        <time>2012-10-07T13:44:11.945Z</time>
      </trkpt>
      <trkpt lat="48.20052" lon="3.22193">
        <ele>165</ele>
        <time>2012-10-07T13:44:13.945Z</time>
      </trkpt>
      <trkpt lat="48.20054" lon="3.22183">
        <ele>165</ele>
        <time>2012-10-07T13:44:15.945Z</time>
      </trkpt>
      <trkpt lat="48.20057" lon="3.22172">
        <ele>166</ele>
        <time>2012-10-07T13:44:17.945Z</time>
      </trkpt>
      <trkpt lat="48.20059" lon="3.22161">
        <ele>167</ele>
        <time>2012-10-07T13:44:19.945Z</time>
      </trkpt>
      <trkpt lat="48.20062" lon="3.2215">
        <ele>167</ele>
        <time>2012-10-07T13:44:21.945Z</time>
      </trkpt>
      <trkpt lat="48.20064" lon="3.2214">
        <ele>167</ele>
        <time>2012-10-07T13:44:23.945Z</time>
      </trkpt>
      <trkpt lat="48.20066" lon="3.22129">
        <ele>167</ele>
        <time>2012-10-07T13:44:25.945Z</time>
      </trkpt>
      <trkpt lat="48.20068" lon="3.2212">
        <ele>167</ele>
        <time>2012-10-07T13:44:27.945Z</time>
      </trkpt>
      <trkpt lat="48.2007" lon="3.2211">
        <ele>168</ele>
        <time>2012-10-07T13:44:29.945Z</time>
      </trkpt>
      <trkpt lat="48.20072" lon="3.22099">
        <ele>168</ele>
        <time>2012-10-07T13:44:31.945Z</time>
      </trkpt>
      <trkpt lat="48.20074" lon="3.22088">
        <ele>169</ele>
        <time>2012-10-07T13:44:33.945Z</time>
      </trkpt>
      <trkpt lat="48.20076" lon="3.22078">
        <ele>169</ele>
        <time>2012-10-07T13:44:35.945Z</time>
      </trkpt>
      <trkpt lat="48.20079" lon="3.22071">
        <ele>169</ele>
        <time>2012-10-07T13:44:36.945Z</time>
      </trkpt>
      <trkpt lat="48.20082" lon="3.22058">
        <ele>168</ele>
        <time>2012-10-07T13:44:38.945Z</time>
      </trkpt>
      <trkpt lat="48.20084" lon="3.22047">
        <ele>169</ele>
        <time>2012-10-07T13:44:40.945Z</time>
      </trkpt>
      <trkpt lat="48.20086" lon="3.22041">
        <ele>169</ele>
        <time>2012-10-07T13:44:41.945Z</time>
      </trkpt>
      <trkpt lat="48.20088" lon="3.2203">
        <ele>169</ele>
        <time>2012-10-07T13:44:43.945Z</time>
      </trkpt>
      <trkpt lat="48.2009" lon="3.2202">
        <ele>169</ele>
        <time>2012-10-07T13:44:45.945Z</time>
      </trkpt>
      <trkpt lat="48.20093" lon="3.22009">
        <ele>169</ele>
        <time>2012-10-07T13:44:47.945Z</time>
      </trkpt>
      <trkpt lat="48.20095" lon="3.22002">
        <ele>169</ele>
        <time>2012-10-07T13:44:48.945Z</time>
      </trkpt>
      <trkpt lat="48.20097" lon="3.21992">
        <ele>169</ele>
        <time>2012-10-07T13:44:50.945Z</time>
      </trkpt>
      <trkpt lat="48.20099" lon="3.21983">
        <ele>169</ele>
        <time>2012-10-07T13:44:52.945Z</time>
      </trkpt>
      <trkpt lat="48.20101" lon="3.21972">
        <ele>169</ele>
        <time>2012-10-07T13:44:54.945Z</time>
      </trkpt>
      <trkpt lat="48.20104" lon="3.21962">
        <ele>169</ele>
        <time>2012-10-07T13:44:56.945Z</time>
      </trkpt>
      <trkpt lat="48.20108" lon="3.21951">
        <ele>170</ele>
        <time>2012-10-07T13:44:58.945Z</time>
      </trkpt>
      <trkpt lat="48.20111" lon="3.2194">
        <ele>170</ele>
        <time>2012-10-07T13:45:00.945Z</time>
      </trkpt>
      <trkpt lat="48.20114" lon="3.21929">
        <ele>170</ele>
        <time>2012-10-07T13:45:02.945Z</time>
      </trkpt>
      <trkpt lat="48.20116" lon="3.21919">
        <ele>170</ele>
        <time>2012-10-07T13:45:04.945Z</time>
      </trkpt>
      <trkpt lat="48.20118" lon="3.2191">
        <ele>173</ele>
        <time>2012-10-07T13:45:06.945Z</time>
      </trkpt>
      <trkpt lat="48.2012" lon="3.21899">
        <ele>173</ele>
        <time>2012-10-07T13:45:08.945Z</time>
      </trkpt>
      <trkpt lat="48.20123" lon="3.21889">
        <ele>173</ele>
        <time>2012-10-07T13:45:10.945Z</time>
      </trkpt>
      <trkpt lat="48.20125" lon="3.21878">
        <ele>174</ele>
        <time>2012-10-07T13:45:12.945Z</time>
      </trkpt>
      <trkpt lat="48.20126" lon="3.21869">
        <ele>174</ele>
        <time>2012-10-07T13:45:14.945Z</time>
      </trkpt>
      <trkpt lat="48.20127" lon="3.21861">
        <ele>175</ele>
        <time>2012-10-07T13:45:16.945Z</time>
      </trkpt>
      <trkpt lat="48.20128" lon="3.2185">
        <ele>175</ele>
        <time>2012-10-07T13:45:18.945Z</time>
      </trkpt>
      <trkpt lat="48.2013" lon="3.21841">
        <ele>175</ele>
        <time>2012-10-07T13:45:20.945Z</time>
      </trkpt>
      <trkpt lat="48.20132" lon="3.21833">
        <ele>178</ele>
        <time>2012-10-07T13:45:22.945Z</time>
      </trkpt>
      <trkpt lat="48.20134" lon="3.21822">
        <ele>178</ele>
        <time>2012-10-07T13:45:24.945Z</time>
      </trkpt>
      <trkpt lat="48.20137" lon="3.21811">
        <ele>178</ele>
        <time>2012-10-07T13:45:26.945Z</time>
      </trkpt>
      <trkpt lat="48.20139" lon="3.21801">
        <ele>178</ele>
        <time>2012-10-07T13:45:28.945Z</time>
      </trkpt>
      <trkpt lat="48.20141" lon="3.2179">
        <ele>178</ele>
        <time>2012-10-07T13:45:30.945Z</time>
      </trkpt>
      <trkpt lat="48.20143" lon="3.21779">
        <ele>178</ele>
        <time>2012-10-07T13:45:32.945Z</time>
      </trkpt>
      <trkpt lat="48.20145" lon="3.21768">
        <ele>178</ele>
        <time>2012-10-07T13:45:34.945Z</time>
      </trkpt>
      <trkpt lat="48.20146" lon="3.2176">
        <ele>178</ele>
        <time>2012-10-07T13:45:36.945Z</time>
      </trkpt>
      <trkpt lat="48.20147" lon="3.21751">
        <ele>178</ele>
        <time>2012-10-07T13:45:38.945Z</time>
      </trkpt>
      <trkpt lat="48.20148" lon="3.21741">
        <ele>179</ele>
        <time>2012-10-07T13:45:40.945Z</time>
      </trkpt>
      <trkpt lat="48.20151" lon="3.21732">
        <ele>180</ele>
        <time>2012-10-07T13:45:42.945Z</time>
      </trkpt>
      <trkpt lat="48.20152" lon="3.21721">
        <ele>180</ele>
        <time>2012-10-07T13:45:44.945Z</time>
      </trkpt>
      <trkpt lat="48.20153" lon="3.2171">
        <ele>180</ele>
        <time>2012-10-07T13:45:46.945Z</time>
      </trkpt>
      <trkpt lat="48.20154" lon="3.217">
        <ele>180</ele>
        <time>2012-10-07T13:45:48.945Z</time>
      </trkpt>
      <trkpt lat="48.20155" lon="3.21691">
        <ele>180</ele>
        <time>2012-10-07T13:45:50.945Z</time>
      </trkpt>
      <trkpt lat="48.20157" lon="3.2168">
        <ele>181</ele>
        <time>2012-10-07T13:45:52.945Z</time>
      </trkpt>
      <trkpt lat="48.20158" lon="3.2167">
        <ele>181</ele>
        <time>2012-10-07T13:45:54.945Z</time>
      </trkpt>
      <trkpt lat="48.2016" lon="3.21659">
        <ele>181</ele>
        <time>2012-10-07T13:45:56.945Z</time>
      </trkpt>
      <trkpt lat="48.20162" lon="3.21648">
        <ele>181</ele>
        <time>2012-10-07T13:45:58.945Z</time>
      </trkpt>
      <trkpt lat="48.20164" lon="3.21638">
        <ele>181</ele>
        <time>2012-10-07T13:46:00.945Z</time>
      </trkpt>
      <trkpt lat="48.20167" lon="3.21625">
        <ele>178</ele>
        <time>2012-10-07T13:46:02.945Z</time>
      </trkpt>
      <trkpt lat="48.20169" lon="3.21612">
        <ele>178</ele>
        <time>2012-10-07T13:46:04.945Z</time>
      </trkpt>
      <trkpt lat="48.20172" lon="3.21599">
        <ele>178</ele>
        <time>2012-10-07T13:46:06.945Z</time>
      </trkpt>
      <trkpt lat="48.20173" lon="3.2159">
        <ele>178</ele>
        <time>2012-10-07T13:46:07.945Z</time>
      </trkpt>
      <trkpt lat="48.20176" lon="3.21578">
        <ele>178</ele>
        <time>2012-10-07T13:46:09.945Z</time>
      </trkpt>
      <trkpt lat="48.2018" lon="3.21565">
        <ele>177</ele>
        <time>2012-10-07T13:46:11.945Z</time>
      </trkpt>
      <trkpt lat="48.20182" lon="3.21556">
        <ele>177</ele>
        <time>2012-10-07T13:46:13.945Z</time>
      </trkpt>
      <trkpt lat="48.20185" lon="3.21545">
        <ele>177</ele>
        <time>2012-10-07T13:46:15.945Z</time>
      </trkpt>
      <trkpt lat="48.20187" lon="3.21537">
        <ele>177</ele>
        <time>2012-10-07T13:46:17.945Z</time>
      </trkpt>
      <trkpt lat="48.2019" lon="3.21524">
        <ele>177</ele>
        <time>2012-10-07T13:46:19.945Z</time>
      </trkpt>
      <trkpt lat="48.20194" lon="3.21513">
        <ele>177</ele>
        <time>2012-10-07T13:46:21.945Z</time>
      </trkpt>
      <trkpt lat="48.20198" lon="3.215">
        <ele>176</ele>
        <time>2012-10-07T13:46:24.945Z</time>
      </trkpt>
      <trkpt lat="48.20198" lon="3.215">
        <ele>176</ele>
        <time>2012-10-07T13:46:24.945Z</time>
      </trkpt>
      <trkpt lat="48.20198" lon="3.215">
        <ele>176</ele>
        <time>2012-10-07T13:46:25.945Z</time>
      </trkpt>
      <trkpt lat="48.202" lon="3.21492">
        <ele>175</ele>
        <time>2012-10-07T13:46:26.945Z</time>
      </trkpt>
      <trkpt lat="48.20203" lon="3.21483">
        <ele>175</ele>
        <time>2012-10-07T13:46:28.945Z</time>
      </trkpt>
      <trkpt lat="48.20205" lon="3.21474">
        <ele>175</ele>
        <time>2012-10-07T13:46:30.945Z</time>
      </trkpt>
      <trkpt lat="48.20207" lon="3.21466">
        <ele>175</ele>
        <time>2012-10-07T13:46:32.945Z</time>
      </trkpt>
      <trkpt lat="48.20212" lon="3.21455">
        <ele>175</ele>
        <time>2012-10-07T13:46:34.945Z</time>
      </trkpt>
      <trkpt lat="48.20215" lon="3.21444">
        <ele>175</ele>
        <time>2012-10-07T13:46:36.945Z</time>
      </trkpt>
      <trkpt lat="48.20218" lon="3.21434">
        <ele>174</ele>
        <time>2012-10-07T13:46:38.945Z</time>
      </trkpt>
      <trkpt lat="48.20221" lon="3.21425">
        <ele>174</ele>
        <time>2012-10-07T13:46:40.945Z</time>
      </trkpt>
      <trkpt lat="48.20228" lon="3.21404">
        <ele>174</ele>
        <time>2012-10-07T13:46:45.945Z</time>
      </trkpt>
      <trkpt lat="48.20228" lon="3.21404">
        <ele>174</ele>
        <time>2012-10-07T13:46:45.945Z</time>
      </trkpt>
      <trkpt lat="48.20228" lon="3.21404">
        <ele>174</ele>
        <time>2012-10-07T13:46:47.945Z</time>
      </trkpt>
      <trkpt lat="48.20232" lon="3.21393">
        <ele>174</ele>
        <time>2012-10-07T13:46:48.945Z</time>
      </trkpt>
      <trkpt lat="48.20241" lon="3.2138">
        <ele>174</ele>
        <time>2012-10-07T13:46:53.945Z</time>
      </trkpt>
      <trkpt lat="48.20241" lon="3.2138">
        <ele>174</ele>
        <time>2012-10-07T13:46:53.945Z</time>
      </trkpt>
      <trkpt lat="48.20241" lon="3.2138">
        <ele>174</ele>
        <time>2012-10-07T13:46:57.945Z</time>
      </trkpt>
      <trkpt lat="48.20244" lon="3.21365">
        <ele>174</ele>
        <time>2012-10-07T13:46:58.945Z</time>
      </trkpt>
      <trkpt lat="48.20244" lon="3.21365">
        <ele>174</ele>
        <time>2012-10-07T13:46:58.945Z</time>
      </trkpt>
      <trkpt lat="48.20244" lon="3.21365">
        <ele>174</ele>
        <time>2012-10-07T13:47:01.945Z</time>
      </trkpt>
      <trkpt lat="48.20245" lon="3.21352">
        <ele>174</ele>
        <time>2012-10-07T13:47:02.945Z</time>
      </trkpt>
      <trkpt lat="48.20247" lon="3.21346">
        <ele>175</ele>
        <time>2012-10-07T13:47:03.945Z</time>
      </trkpt>
      <trkpt lat="48.20249" lon="3.21339">
        <ele>175</ele>
        <time>2012-10-07T13:47:05.945Z</time>
      </trkpt>
      <trkpt lat="48.20251" lon="3.21331">
        <ele>176</ele>
        <time>2012-10-07T13:47:07.945Z</time>
      </trkpt>
      <trkpt lat="48.20254" lon="3.21322">
        <ele>176</ele>
        <time>2012-10-07T13:47:09.945Z</time>
      </trkpt>
      <trkpt lat="48.20256" lon="3.21311">
        <ele>176</ele>
        <time>2012-10-07T13:47:11.945Z</time>
      </trkpt>
      <trkpt lat="48.20256" lon="3.21303">
        <ele>176</ele>
        <time>2012-10-07T13:47:13.945Z</time>
      </trkpt>
      <trkpt lat="48.20257" lon="3.21292">
        <ele>176</ele>
        <time>2012-10-07T13:47:15.945Z</time>
      </trkpt>
      <trkpt lat="48.20259" lon="3.21284">
        <ele>177</ele>
        <time>2012-10-07T13:47:17.945Z</time>
      </trkpt>
      <trkpt lat="48.20261" lon="3.21275">
        <ele>177</ele>
        <time>2012-10-07T13:47:19.945Z</time>
      </trkpt>
      <trkpt lat="48.20266" lon="3.21266">
        <ele>177</ele>
        <time>2012-10-07T13:47:22.945Z</time>
      </trkpt>
      <trkpt lat="48.20271" lon="3.21258">
        <ele>177</ele>
        <time>2012-10-07T13:47:24.945Z</time>
      </trkpt>
      <trkpt lat="48.20275" lon="3.21249">
        <ele>177</ele>
        <time>2012-10-07T13:47:26.945Z</time>
      </trkpt>
      <trkpt lat="48.2028" lon="3.21241">
        <ele>177</ele>
        <time>2012-10-07T13:47:28.945Z</time>
      </trkpt>
      <trkpt lat="48.20287" lon="3.21232">
        <ele>177</ele>
        <time>2012-10-07T13:47:30.945Z</time>
      </trkpt>
      <trkpt lat="48.20293" lon="3.21226">
        <ele>177</ele>
        <time>2012-10-07T13:47:32.945Z</time>
      </trkpt>
      <trkpt lat="48.20298" lon="3.21221">
        <ele>177</ele>
        <time>2012-10-07T13:47:33.945Z</time>
      </trkpt>
      <trkpt lat="48.20303" lon="3.21213">
        <ele>177</ele>
        <time>2012-10-07T13:47:35.945Z</time>
      </trkpt>
      <trkpt lat="48.20305" lon="3.21206">
        <ele>177</ele>
        <time>2012-10-07T13:47:36.945Z</time>
      </trkpt>
      <trkpt lat="48.20307" lon="3.212">
        <ele>177</ele>
        <time>2012-10-07T13:47:37.945Z</time>
      </trkpt>
      <trkpt lat="48.2031" lon="3.21193">
        <ele>177</ele>
        <time>2012-10-07T13:47:38.945Z</time>
      </trkpt>
      <trkpt lat="48.20313" lon="3.21187">
        <ele>177</ele>
        <time>2012-10-07T13:47:39.945Z</time>
      </trkpt>
      <trkpt lat="48.20318" lon="3.2118">
        <ele>177</ele>
        <time>2012-10-07T13:47:41.945Z</time>
      </trkpt>
      <trkpt lat="48.20318" lon="3.2118">
        <ele>177</ele>
        <time>2012-10-07T13:47:41.945Z</time>
      </trkpt>
      <trkpt lat="48.20318" lon="3.2118">
        <ele>177</ele>
        <time>2012-10-07T13:47:44.945Z</time>
      </trkpt>
      <trkpt lat="48.20322" lon="3.21168">
        <ele>176</ele>
        <time>2012-10-07T13:47:45.945Z</time>
      </trkpt>
      <trkpt lat="48.20322" lon="3.21168">
        <ele>176</ele>
        <time>2012-10-07T13:47:45.945Z</time>
      </trkpt>
      <trkpt lat="48.20322" lon="3.21168">
        <ele>176</ele>
        <time>2012-10-07T13:47:48.945Z</time>
      </trkpt>
      <trkpt lat="48.20314" lon="3.21157">
        <ele>177</ele>
        <time>2012-10-07T13:47:49.945Z</time>
      </trkpt>
      <trkpt lat="48.20314" lon="3.21157">
        <ele>177</ele>
        <time>2012-10-07T13:47:49.945Z</time>
      </trkpt>
      <trkpt lat="48.20314" lon="3.21157">
        <ele>177</ele>
        <time>2012-10-07T13:47:51.945Z</time>
      </trkpt>
      <trkpt lat="48.2031" lon="3.21142">
        <ele>178</ele>
        <time>2012-10-07T13:47:52.945Z</time>
      </trkpt>
      <trkpt lat="48.2031" lon="3.21142">
        <ele>178</ele>
        <time>2012-10-07T13:47:52.945Z</time>
      </trkpt>
      <trkpt lat="48.2031" lon="3.21142">
        <ele>178</ele>
        <time>2012-10-07T13:47:54.945Z</time>
      </trkpt>
      <trkpt lat="48.20308" lon="3.21125">
        <ele>178</ele>
        <time>2012-10-07T13:47:55.945Z</time>
      </trkpt>
      <trkpt lat="48.20308" lon="3.21125">
        <ele>178</ele>
        <time>2012-10-07T13:47:55.945Z</time>
      </trkpt>
      <trkpt lat="48.20308" lon="3.21125">
        <ele>178</ele>
        <time>2012-10-07T13:47:58.945Z</time>
      </trkpt>
      <trkpt lat="48.20302" lon="3.21112">
        <ele>178</ele>
        <time>2012-10-07T13:47:59.945Z</time>
      </trkpt>
      <trkpt lat="48.20302" lon="3.21112">
        <ele>178</ele>
        <time>2012-10-07T13:47:59.945Z</time>
      </trkpt>
      <trkpt lat="48.20302" lon="3.21112">
        <ele>178</ele>
        <time>2012-10-07T13:48:03.945Z</time>
      </trkpt>
      <trkpt lat="48.20293" lon="3.21101">
        <ele>178</ele>
        <time>2012-10-07T13:48:04.945Z</time>
      </trkpt>
      <trkpt lat="48.20293" lon="3.21101">
        <ele>178</ele>
        <time>2012-10-07T13:48:04.945Z</time>
      </trkpt>
      <trkpt lat="48.20293" lon="3.21101">
        <ele>178</ele>
        <time>2012-10-07T13:48:06.945Z</time>
      </trkpt>
      <trkpt lat="48.20288" lon="3.21086">
        <ele>178</ele>
        <time>2012-10-07T13:48:07.945Z</time>
      </trkpt>
      <trkpt lat="48.20288" lon="3.21086">
        <ele>178</ele>
        <time>2012-10-07T13:48:07.945Z</time>
      </trkpt>
      <trkpt lat="48.20288" lon="3.21086">
        <ele>178</ele>
        <time>2012-10-07T13:48:09.945Z</time>
      </trkpt>
      <trkpt lat="48.20295" lon="3.21075">
        <ele>180</ele>
        <time>2012-10-07T13:48:10.945Z</time>
      </trkpt>
      <trkpt lat="48.20295" lon="3.21075">
        <ele>180</ele>
        <time>2012-10-07T13:48:10.945Z</time>
      </trkpt>
      <trkpt lat="48.20295" lon="3.21075">
        <ele>180</ele>
        <time>2012-10-07T13:48:19.945Z</time>
      </trkpt>
      <trkpt lat="48.20305" lon="3.21071">
        <ele>179</ele>
        <time>2012-10-07T13:48:20.945Z</time>
      </trkpt>
      <trkpt lat="48.20305" lon="3.21071">
        <ele>179</ele>
        <time>2012-10-07T13:48:20.945Z</time>
      </trkpt>
      <trkpt lat="48.20305" lon="3.21071">
        <ele>179</ele>
        <time>2012-10-07T13:48:24.945Z</time>
      </trkpt>
      <trkpt lat="48.20309" lon="3.21086">
        <ele>178</ele>
        <time>2012-10-07T13:48:48.945Z</time>
      </trkpt>
      <trkpt lat="48.20309" lon="3.21086">
        <ele>178</ele>
        <time>2012-10-07T13:48:48.945Z</time>
      </trkpt>
      <trkpt lat="48.20309" lon="3.21086">
        <ele>178</ele>
        <time>2012-10-07T13:48:53.945Z</time>
      </trkpt>
      <trkpt lat="48.20305" lon="3.21067">
        <ele>179</ele>
        <time>2012-10-07T13:49:00.945Z</time>
      </trkpt>
      <trkpt lat="48.20305" lon="3.21067">
        <ele>179</ele>
        <time>2012-10-07T13:49:00.945Z</time>
      </trkpt>
      <trkpt lat="48.20305" lon="3.21067">
        <ele>179</ele>
        <time>2012-10-07T13:49:01.945Z</time>
      </trkpt>
      <trkpt lat="48.20302" lon="3.2106">
        <ele>180</ele>
        <time>2012-10-07T13:49:02.945Z</time>
      </trkpt>
      <trkpt lat="48.20302" lon="3.2106">
        <ele>180</ele>
        <time>2012-10-07T13:49:02.945Z</time>
      </trkpt>
      <trkpt lat="48.20302" lon="3.2106">
        <ele>180</ele>
        <time>2012-10-07T13:49:03.945Z</time>
      </trkpt>
      <trkpt lat="48.20296" lon="3.21052">
        <ele>180</ele>
        <time>2012-10-07T13:49:05.945Z</time>
      </trkpt>
      <trkpt lat="48.20291" lon="3.21048">
        <ele>180</ele>
        <time>2012-10-07T13:49:07.945Z</time>
      </trkpt>
      <trkpt lat="48.20287" lon="3.21043">
        <ele>180</ele>
        <time>2012-10-07T13:49:09.945Z</time>
      </trkpt>
      <trkpt lat="48.20282" lon="3.21039">
        <ele>180</ele>
        <time>2012-10-07T13:49:11.945Z</time>
      </trkpt>
      <trkpt lat="48.20278" lon="3.21032">
        <ele>180</ele>
        <time>2012-10-07T13:49:13.945Z</time>
      </trkpt>
      <trkpt lat="48.20274" lon="3.21026">
        <ele>180</ele>
        <time>2012-10-07T13:49:15.945Z</time>
      </trkpt>
      <trkpt lat="48.2027" lon="3.21018">
        <ele>181</ele>
        <time>2012-10-07T13:49:17.945Z</time>
      </trkpt>
      <trkpt lat="48.20265" lon="3.21009">
        <ele>181</ele>
        <time>2012-10-07T13:49:19.945Z</time>
      </trkpt>
      <trkpt lat="48.20261" lon="3.20998">
        <ele>181</ele>
        <time>2012-10-07T13:49:21.945Z</time>
      </trkpt>
      <trkpt lat="48.20257" lon="3.2099">
        <ele>181</ele>
        <time>2012-10-07T13:49:23.945Z</time>
      </trkpt>
      <trkpt lat="48.20252" lon="3.20981">
        <ele>181</ele>
        <time>2012-10-07T13:49:25.945Z</time>
      </trkpt>
      <trkpt lat="48.20249" lon="3.20972">
        <ele>181</ele>
        <time>2012-10-07T13:49:27.945Z</time>
      </trkpt>
      <trkpt lat="48.20248" lon="3.20962">
        <ele>181</ele>
        <time>2012-10-07T13:49:29.945Z</time>
      </trkpt>
      <trkpt lat="48.2025" lon="3.20951">
        <ele>180</ele>
        <time>2012-10-07T13:49:31.945Z</time>
      </trkpt>
      <trkpt lat="48.20256" lon="3.20942">
        <ele>180</ele>
        <time>2012-10-07T13:49:33.945Z</time>
      </trkpt>
      <trkpt lat="48.20262" lon="3.20934">
        <ele>180</ele>
        <time>2012-10-07T13:49:35.945Z</time>
      </trkpt>
      <trkpt lat="48.20269" lon="3.2093">
        <ele>180</ele>
        <time>2012-10-07T13:49:37.945Z</time>
      </trkpt>
      <trkpt lat="48.20274" lon="3.20923">
        <ele>180</ele>
        <time>2012-10-07T13:49:39.945Z</time>
      </trkpt>
      <trkpt lat="48.20278" lon="3.20919">
        <ele>180</ele>
        <time>2012-10-07T13:49:41.945Z</time>
      </trkpt>
      <trkpt lat="48.20284" lon="3.20912">
        <ele>179</ele>
        <time>2012-10-07T13:49:43.945Z</time>
      </trkpt>
      <trkpt lat="48.20288" lon="3.20906">
        <ele>179</ele>
        <time>2012-10-07T13:49:45.945Z</time>
      </trkpt>
      <trkpt lat="48.20291" lon="3.20899">
        <ele>179</ele>
        <time>2012-10-07T13:49:47.945Z</time>
      </trkpt>
      <trkpt lat="48.20293" lon="3.20893">
        <ele>179</ele>
        <time>2012-10-07T13:49:49.945Z</time>
      </trkpt>
      <trkpt lat="48.20293" lon="3.20882">
        <ele>179</ele>
        <time>2012-10-07T13:49:52.945Z</time>
      </trkpt>
      <trkpt lat="48.20291" lon="3.20874">
        <ele>179</ele>
        <time>2012-10-07T13:49:54.945Z</time>
      </trkpt>
      <trkpt lat="48.20289" lon="3.20867">
        <ele>179</ele>
        <time>2012-10-07T13:49:55.945Z</time>
      </trkpt>
      <trkpt lat="48.20287" lon="3.20859">
        <ele>179</ele>
        <time>2012-10-07T13:49:57.945Z</time>
      </trkpt>
      <trkpt lat="48.20284" lon="3.2085">
        <ele>179</ele>
        <time>2012-10-07T13:49:59.945Z</time>
      </trkpt>
      <trkpt lat="48.20285" lon="3.20835">
        <ele>179</ele>
        <time>2012-10-07T13:50:04.945Z</time>
      </trkpt>
      <trkpt lat="48.20285" lon="3.20835">
        <ele>179</ele>
        <time>2012-10-07T13:50:04.945Z</time>
      </trkpt>
      <trkpt lat="48.20285" lon="3.20835">
        <ele>179</ele>
        <time>2012-10-07T13:50:05.945Z</time>
      </trkpt>
      <trkpt lat="48.20287" lon="3.20818">
        <ele>178</ele>
        <time>2012-10-07T13:50:09.945Z</time>
      </trkpt>
      <trkpt lat="48.20288" lon="3.20807">
        <ele>178</ele>
        <time>2012-10-07T13:50:12.945Z</time>
      </trkpt>
      <trkpt lat="48.20289" lon="3.20799">
        <ele>178</ele>
        <time>2012-10-07T13:50:14.945Z</time>
      </trkpt>
      <trkpt lat="48.20289" lon="3.20788">
        <ele>178</ele>
        <time>2012-10-07T13:50:17.945Z</time>
      </trkpt>
      <trkpt lat="48.2029" lon="3.20777">
        <ele>178</ele>
        <time>2012-10-07T13:50:20.945Z</time>
      </trkpt>
      <trkpt lat="48.2029" lon="3.20766">
        <ele>178</ele>
        <time>2012-10-07T13:50:23.945Z</time>
      </trkpt>
      <trkpt lat="48.2029" lon="3.20758">
        <ele>177</ele>
        <time>2012-10-07T13:50:25.945Z</time>
      </trkpt>
      <trkpt lat="48.20288" lon="3.20749">
        <ele>176</ele>
        <time>2012-10-07T13:50:27.945Z</time>
      </trkpt>
      <trkpt lat="48.20287" lon="3.20741">
        <ele>176</ele>
        <time>2012-10-07T13:50:29.945Z</time>
      </trkpt>
      <trkpt lat="48.20286" lon="3.20732">
        <ele>175</ele>
        <time>2012-10-07T13:50:31.945Z</time>
      </trkpt>
      <trkpt lat="48.20282" lon="3.20715">
        <ele>175</ele>
        <time>2012-10-07T13:50:36.945Z</time>
      </trkpt>
      <trkpt lat="48.20282" lon="3.20715">
        <ele>175</ele>
        <time>2012-10-07T13:50:36.945Z</time>
      </trkpt>
      <trkpt lat="48.20282" lon="3.20715">
        <ele>175</ele>
        <time>2012-10-07T13:50:39.945Z</time>
      </trkpt>
      <trkpt lat="48.20278" lon="3.20702">
        <ele>175</ele>
        <time>2012-10-07T13:50:40.945Z</time>
      </trkpt>
      <trkpt lat="48.20275" lon="3.20696">
        <ele>175</ele>
        <time>2012-10-07T13:50:42.945Z</time>
      </trkpt>
      <trkpt lat="48.20273" lon="3.20689">
        <ele>175</ele>
        <time>2012-10-07T13:50:44.945Z</time>
      </trkpt>
      <trkpt lat="48.20271" lon="3.20681">
        <ele>174</ele>
        <time>2012-10-07T13:50:46.945Z</time>
      </trkpt>
      <trkpt lat="48.20269" lon="3.20674">
        <ele>174</ele>
        <time>2012-10-07T13:50:48.945Z</time>
      </trkpt>
      <trkpt lat="48.20264" lon="3.20668">
        <ele>174</ele>
        <time>2012-10-07T13:50:50.945Z</time>
      </trkpt>
      <trkpt lat="48.2026" lon="3.20661">
        <ele>173</ele>
        <time>2012-10-07T13:50:52.945Z</time>
      </trkpt>
      <trkpt lat="48.20256" lon="3.20653">
        <ele>173</ele>
        <time>2012-10-07T13:50:54.945Z</time>
      </trkpt>
      <trkpt lat="48.20252" lon="3.20644">
        <ele>173</ele>
        <time>2012-10-07T13:50:56.945Z</time>
      </trkpt>
      <trkpt lat="48.20248" lon="3.20633">
        <ele>175</ele>
        <time>2012-10-07T13:50:58.945Z</time>
      </trkpt>
      <trkpt lat="48.20246" lon="3.20627">
        <ele>174</ele>
        <time>2012-10-07T13:50:59.945Z</time>
      </trkpt>
      <trkpt lat="48.20242" lon="3.20616">
        <ele>174</ele>
        <time>2012-10-07T13:51:01.945Z</time>
      </trkpt>
      <trkpt lat="48.2024" lon="3.2061">
        <ele>174</ele>
        <time>2012-10-07T13:51:02.945Z</time>
      </trkpt>
      <trkpt lat="48.20235" lon="3.20599">
        <ele>174</ele>
        <time>2012-10-07T13:51:04.945Z</time>
      </trkpt>
      <trkpt lat="48.20233" lon="3.2059">
        <ele>174</ele>
        <time>2012-10-07T13:51:06.945Z</time>
      </trkpt>
      <trkpt lat="48.20231" lon="3.20582">
        <ele>173</ele>
        <time>2012-10-07T13:51:08.945Z</time>
      </trkpt>
      <trkpt lat="48.20229" lon="3.20575">
        <ele>173</ele>
        <time>2012-10-07T13:51:10.945Z</time>
      </trkpt>
      <trkpt lat="48.20224" lon="3.20569">
        <ele>173</ele>
        <time>2012-10-07T13:51:14.945Z</time>
      </trkpt>
      <trkpt lat="48.2022" lon="3.20563">
        <ele>173</ele>
        <time>2012-10-07T13:51:17.945Z</time>
      </trkpt>
      <trkpt lat="48.20214" lon="3.20558">
        <ele>173</ele>
        <time>2012-10-07T13:51:21.945Z</time>
      </trkpt>
      <trkpt lat="48.20207" lon="3.20554">
        <ele>174</ele>
        <time>2012-10-07T13:51:23.945Z</time>
      </trkpt>
      <trkpt lat="48.20203" lon="3.2055">
        <ele>174</ele>
        <time>2012-10-07T13:51:24.945Z</time>
      </trkpt>
      <trkpt lat="48.20199" lon="3.20545">
        <ele>174</ele>
        <time>2012-10-07T13:51:25.945Z</time>
      </trkpt>
      <trkpt lat="48.20194" lon="3.20539">
        <ele>174</ele>
        <time>2012-10-07T13:51:26.945Z</time>
      </trkpt>
      <trkpt lat="48.20188" lon="3.20535">
        <ele>174</ele>
        <time>2012-10-07T13:51:27.945Z</time>
      </trkpt>
      <trkpt lat="48.20184" lon="3.2053">
        <ele>174</ele>
        <time>2012-10-07T13:51:28.945Z</time>
      </trkpt>
      <trkpt lat="48.2018" lon="3.20526">
        <ele>174</ele>
        <time>2012-10-07T13:51:29.945Z</time>
      </trkpt>
      <trkpt lat="48.20175" lon="3.2052">
        <ele>174</ele>
        <time>2012-10-07T13:51:30.945Z</time>
      </trkpt>
      <trkpt lat="48.2017" lon="3.20513">
        <ele>174</ele>
        <time>2012-10-07T13:51:32.945Z</time>
      </trkpt>
      <trkpt lat="48.20166" lon="3.20505">
        <ele>175</ele>
        <time>2012-10-07T13:51:34.945Z</time>
      </trkpt>
      <trkpt lat="48.2016" lon="3.20498">
        <ele>175</ele>
        <time>2012-10-07T13:51:36.945Z</time>
      </trkpt>
      <trkpt lat="48.20157" lon="3.20492">
        <ele>175</ele>
        <time>2012-10-07T13:51:38.945Z</time>
      </trkpt>
      <trkpt lat="48.20154" lon="3.20485">
        <ele>175</ele>
        <time>2012-10-07T13:51:40.945Z</time>
      </trkpt>
      <trkpt lat="48.20152" lon="3.20479">
        <ele>175</ele>
        <time>2012-10-07T13:51:42.945Z</time>
      </trkpt>
      <trkpt lat="48.20148" lon="3.20472">
        <ele>175</ele>
        <time>2012-10-07T13:51:44.945Z</time>
      </trkpt>
      <trkpt lat="48.20145" lon="3.20466">
        <ele>174</ele>
        <time>2012-10-07T13:51:46.945Z</time>
      </trkpt>
      <trkpt lat="48.20141" lon="3.20457">
        <ele>174</ele>
        <time>2012-10-07T13:51:48.945Z</time>
      </trkpt>
      <trkpt lat="48.20137" lon="3.20449">
        <ele>174</ele>
        <time>2012-10-07T13:51:50.945Z</time>
      </trkpt>
      <trkpt lat="48.20132" lon="3.20444">
        <ele>174</ele>
        <time>2012-10-07T13:51:51.945Z</time>
      </trkpt>
      <trkpt lat="48.20126" lon="3.20436">
        <ele>174</ele>
        <time>2012-10-07T13:51:53.945Z</time>
      </trkpt>
      <trkpt lat="48.20123" lon="3.2043">
        <ele>174</ele>
        <time>2012-10-07T13:51:54.945Z</time>
      </trkpt>
      <trkpt lat="48.20118" lon="3.20425">
        <ele>174</ele>
        <time>2012-10-07T13:51:55.945Z</time>
      </trkpt>
      <trkpt lat="48.20112" lon="3.20417">
        <ele>174</ele>
        <time>2012-10-07T13:51:57.945Z</time>
      </trkpt>
      <trkpt lat="48.20107" lon="3.20408">
        <ele>173</ele>
        <time>2012-10-07T13:51:59.945Z</time>
      </trkpt>
      <trkpt lat="48.20103" lon="3.20402">
        <ele>173</ele>
        <time>2012-10-07T13:52:01.945Z</time>
      </trkpt>
      <trkpt lat="48.201" lon="3.20395">
        <ele>173</ele>
        <time>2012-10-07T13:52:03.945Z</time>
      </trkpt>
      <trkpt lat="48.20096" lon="3.20387">
        <ele>173</ele>
        <time>2012-10-07T13:52:06.945Z</time>
      </trkpt>
      <trkpt lat="48.20094" lon="3.2038">
        <ele>173</ele>
        <time>2012-10-07T13:52:08.945Z</time>
      </trkpt>
      <trkpt lat="48.2009" lon="3.20374">
        <ele>173</ele>
        <time>2012-10-07T13:52:10.945Z</time>
      </trkpt>
      <trkpt lat="48.20088" lon="3.20365">
        <ele>173</ele>
        <time>2012-10-07T13:52:12.945Z</time>
      </trkpt>
      <trkpt lat="48.20086" lon="3.20359">
        <ele>173</ele>
        <time>2012-10-07T13:52:13.945Z</time>
      </trkpt>
      <trkpt lat="48.20083" lon="3.20352">
        <ele>174</ele>
        <time>2012-10-07T13:52:15.945Z</time>
      </trkpt>
      <trkpt lat="48.2008" lon="3.20344">
        <ele>173</ele>
        <time>2012-10-07T13:52:17.945Z</time>
      </trkpt>
      <trkpt lat="48.20076" lon="3.20335">
        <ele>173</ele>
        <time>2012-10-07T13:52:19.945Z</time>
      </trkpt>
      <trkpt lat="48.2007" lon="3.20324">
        <ele>173</ele>
        <time>2012-10-07T13:52:21.945Z</time>
      </trkpt>
      <trkpt lat="48.20065" lon="3.20314">
        <ele>173</ele>
        <time>2012-10-07T13:52:23.945Z</time>
      </trkpt>
      <trkpt lat="48.20059" lon="3.20303">
        <ele>173</ele>
        <time>2012-10-07T13:52:25.945Z</time>
      </trkpt>
      <trkpt lat="48.20056" lon="3.20294">
        <ele>173</ele>
        <time>2012-10-07T13:52:27.945Z</time>
      </trkpt>
      <trkpt lat="48.20054" lon="3.20284">
        <ele>173</ele>
        <time>2012-10-07T13:52:29.945Z</time>
      </trkpt>
      <trkpt lat="48.20052" lon="3.20275">
        <ele>173</ele>
        <time>2012-10-07T13:52:31.945Z</time>
      </trkpt>
      <trkpt lat="48.20052" lon="3.20266">
        <ele>173</ele>
        <time>2012-10-07T13:52:33.945Z</time>
      </trkpt>
      <trkpt lat="48.20056" lon="3.20262">
        <ele>173</ele>
        <time>2012-10-07T13:52:35.945Z</time>
      </trkpt>
      <trkpt lat="48.20063" lon="3.20262">
        <ele>173</ele>
        <time>2012-10-07T13:52:37.945Z</time>
      </trkpt>
      <trkpt lat="48.20068" lon="3.20264">
        <ele>173</ele>
        <time>2012-10-07T13:52:39.945Z</time>
      </trkpt>
      <trkpt lat="48.20074" lon="3.20269">
        <ele>173</ele>
        <time>2012-10-07T13:52:41.945Z</time>
      </trkpt>
      <trkpt lat="48.20081" lon="3.20275">
        <ele>173</ele>
        <time>2012-10-07T13:52:43.945Z</time>
      </trkpt>
      <trkpt lat="48.20085" lon="3.20277">
        <ele>173</ele>
        <time>2012-10-07T13:52:44.945Z</time>
      </trkpt>
      <trkpt lat="48.20093" lon="3.20282">
        <ele>173</ele>
        <time>2012-10-07T13:52:46.945Z</time>
      </trkpt>
      <trkpt lat="48.20097" lon="3.20286">
        <ele>173</ele>
        <time>2012-10-07T13:52:47.945Z</time>
      </trkpt>
      <trkpt lat="48.20101" lon="3.20288">
        <ele>173</ele>
        <time>2012-10-07T13:52:48.945Z</time>
      </trkpt>
      <trkpt lat="48.20106" lon="3.2029">
        <ele>173</ele>
        <time>2012-10-07T13:52:49.945Z</time>
      </trkpt>
      <trkpt lat="48.2011" lon="3.20292">
        <ele>173</ele>
        <time>2012-10-07T13:52:50.945Z</time>
      </trkpt>
      <trkpt lat="48.20114" lon="3.20294">
        <ele>173</ele>
        <time>2012-10-07T13:52:51.945Z</time>
      </trkpt>
      <trkpt lat="48.20122" lon="3.20299">
        <ele>173</ele>
        <time>2012-10-07T13:52:53.945Z</time>
      </trkpt>
      <trkpt lat="48.20128" lon="3.20303">
        <ele>173</ele>
        <time>2012-10-07T13:52:55.945Z</time>
      </trkpt>
      <trkpt lat="48.20134" lon="3.20305">
        <ele>173</ele>
        <time>2012-10-07T13:52:57.945Z</time>
      </trkpt>
      <trkpt lat="48.20139" lon="3.20307">
        <ele>173</ele>
        <time>2012-10-07T13:52:58.945Z</time>
      </trkpt>
      <trkpt lat="48.20145" lon="3.20312">
        <ele>173</ele>
        <time>2012-10-07T13:53:00.945Z</time>
      </trkpt>
      <trkpt lat="48.20152" lon="3.20314">
        <ele>173</ele>
        <time>2012-10-07T13:53:02.945Z</time>
      </trkpt>
      <trkpt lat="48.20158" lon="3.20318">
        <ele>173</ele>
        <time>2012-10-07T13:53:04.945Z</time>
      </trkpt>
      <trkpt lat="48.20164" lon="3.2032">
        <ele>173</ele>
        <time>2012-10-07T13:53:06.945Z</time>
      </trkpt>
      <trkpt lat="48.20172" lon="3.20322">
        <ele>174</ele>
        <time>2012-10-07T13:53:08.945Z</time>
      </trkpt>
      <trkpt lat="48.20178" lon="3.20326">
        <ele>174</ele>
        <time>2012-10-07T13:53:10.945Z</time>
      </trkpt>
      <trkpt lat="48.20185" lon="3.20331">
        <ele>174</ele>
        <time>2012-10-07T13:53:12.945Z</time>
      </trkpt>
      <trkpt lat="48.2019" lon="3.20335">
        <ele>173</ele>
        <time>2012-10-07T13:53:14.945Z</time>
      </trkpt>
      <trkpt lat="48.20195" lon="3.20337">
        <ele>173</ele>
        <time>2012-10-07T13:53:16.945Z</time>
      </trkpt>
      <trkpt lat="48.202" lon="3.20339">
        <ele>173</ele>
        <time>2012-10-07T13:53:18.945Z</time>
      </trkpt>
      <trkpt lat="48.20204" lon="3.20337">
        <ele>173</ele>
        <time>2012-10-07T13:53:20.945Z</time>
      </trkpt>
      <trkpt lat="48.20207" lon="3.20331">
        <ele>175</ele>
        <time>2012-10-07T13:53:22.945Z</time>
      </trkpt>
      <trkpt lat="48.20211" lon="3.20322">
        <ele>175</ele>
        <time>2012-10-07T13:53:24.945Z</time>
      </trkpt>
      <trkpt lat="48.20213" lon="3.20316">
        <ele>175</ele>
        <time>2012-10-07T13:53:25.945Z</time>
      </trkpt>
      <trkpt lat="48.20218" lon="3.20309">
        <ele>175</ele>
        <time>2012-10-07T13:53:27.945Z</time>
      </trkpt>
      <trkpt lat="48.20226" lon="3.20303">
        <ele>175</ele>
        <time>2012-10-07T13:53:29.945Z</time>
      </trkpt>
      <trkpt lat="48.20231" lon="3.20301">
        <ele>176</ele>
        <time>2012-10-07T13:53:30.945Z</time>
      </trkpt>
      <trkpt lat="48.2024" lon="3.20299">
        <ele>176</ele>
        <time>2012-10-07T13:53:32.945Z</time>
      </trkpt>
      <trkpt lat="48.20245" lon="3.20296">
        <ele>176</ele>
        <time>2012-10-07T13:53:33.945Z</time>
      </trkpt>
      <trkpt lat="48.20252" lon="3.20294">
        <ele>176</ele>
        <time>2012-10-07T13:53:35.945Z</time>
      </trkpt>
      <trkpt lat="48.20257" lon="3.20292">
        <ele>176</ele>
        <time>2012-10-07T13:53:36.945Z</time>
      </trkpt>
      <trkpt lat="48.20264" lon="3.2029">
        <ele>176</ele>
        <time>2012-10-07T13:53:38.945Z</time>
      </trkpt>
      <trkpt lat="48.20272" lon="3.20288">
        <ele>176</ele>
        <time>2012-10-07T13:53:40.945Z</time>
      </trkpt>
      <trkpt lat="48.20276" lon="3.20286">
        <ele>176</ele>
        <time>2012-10-07T13:53:41.945Z</time>
      </trkpt>
      <trkpt lat="48.2028" lon="3.20284">
        <ele>176</ele>
        <time>2012-10-07T13:53:42.945Z</time>
      </trkpt>
      <trkpt lat="48.20285" lon="3.20282">
        <ele>176</ele>
        <time>2012-10-07T13:53:43.945Z</time>
      </trkpt>
      <trkpt lat="48.20292" lon="3.20275">
        <ele>176</ele>
        <time>2012-10-07T13:53:45.945Z</time>
      </trkpt>
      <trkpt lat="48.203" lon="3.20266">
        <ele>177</ele>
        <time>2012-10-07T13:53:47.945Z</time>
      </trkpt>
      <trkpt lat="48.20306" lon="3.20258">
        <ele>177</ele>
        <time>2012-10-07T13:53:49.945Z</time>
      </trkpt>
      <trkpt lat="48.20309" lon="3.20251">
        <ele>177</ele>
        <time>2012-10-07T13:53:50.945Z</time>
      </trkpt>
      <trkpt lat="48.20314" lon="3.20247">
        <ele>178</ele>
        <time>2012-10-07T13:53:51.945Z</time>
      </trkpt>
      <trkpt lat="48.2032" lon="3.20236">
        <ele>178</ele>
        <time>2012-10-07T13:53:53.945Z</time>
      </trkpt>
      <trkpt lat="48.20325" lon="3.20226">
        <ele>178</ele>
        <time>2012-10-07T13:53:55.945Z</time>
      </trkpt>
      <trkpt lat="48.20332" lon="3.20215">
        <ele>178</ele>
        <time>2012-10-07T13:53:57.945Z</time>
      </trkpt>
      <trkpt lat="48.20334" lon="3.20208">
        <ele>178</ele>
        <time>2012-10-07T13:53:58.945Z</time>
      </trkpt>
      <trkpt lat="48.20336" lon="3.20194">
        <ele>179</ele>
        <time>2012-10-07T13:54:00.945Z</time>
      </trkpt>
      <trkpt lat="48.20338" lon="3.20187">
        <ele>179</ele>
        <time>2012-10-07T13:54:01.945Z</time>
      </trkpt>
      <trkpt lat="48.20339" lon="3.20178">
        <ele>179</ele>
        <time>2012-10-07T13:54:02.945Z</time>
      </trkpt>
      <trkpt lat="48.20342" lon="3.20172">
        <ele>179</ele>
        <time>2012-10-07T13:54:03.945Z</time>
      </trkpt>
      <trkpt lat="48.20344" lon="3.20166">
        <ele>179</ele>
        <time>2012-10-07T13:54:04.945Z</time>
      </trkpt>
      <trkpt lat="48.20346" lon="3.20159">
        <ele>179</ele>
        <time>2012-10-07T13:54:05.945Z</time>
      </trkpt>
      <trkpt lat="48.20348" lon="3.20153">
        <ele>180</ele>
        <time>2012-10-07T13:54:06.945Z</time>
      </trkpt>
      <trkpt lat="48.2035" lon="3.20146">
        <ele>180</ele>
        <time>2012-10-07T13:54:07.945Z</time>
      </trkpt>
      <trkpt lat="48.20356" lon="3.20138">
        <ele>180</ele>
        <time>2012-10-07T13:54:09.945Z</time>
      </trkpt>
      <trkpt lat="48.20359" lon="3.20131">
        <ele>180</ele>
        <time>2012-10-07T13:54:10.945Z</time>
      </trkpt>
      <trkpt lat="48.20364" lon="3.20123">
        <ele>180</ele>
        <time>2012-10-07T13:54:12.945Z</time>
      </trkpt>
      <trkpt lat="48.20367" lon="3.20116">
        <ele>180</ele>
        <time>2012-10-07T13:54:13.945Z</time>
      </trkpt>
      <trkpt lat="48.20375" lon="3.20106">
        <ele>180</ele>
        <time>2012-10-07T13:54:15.945Z</time>
      </trkpt>
      <trkpt lat="48.20382" lon="3.20095">
        <ele>180</ele>
        <time>2012-10-07T13:54:17.945Z</time>
      </trkpt>
      <trkpt lat="48.2039" lon="3.20086">
        <ele>180</ele>
        <time>2012-10-07T13:54:19.945Z</time>
      </trkpt>
      <trkpt lat="48.20394" lon="3.2008">
        <ele>180</ele>
        <time>2012-10-07T13:54:20.945Z</time>
      </trkpt>
      <trkpt lat="48.20398" lon="3.20076">
        <ele>180</ele>
        <time>2012-10-07T13:54:21.945Z</time>
      </trkpt>
      <trkpt lat="48.20403" lon="3.20069">
        <ele>180</ele>
        <time>2012-10-07T13:54:22.945Z</time>
      </trkpt>
      <trkpt lat="48.20408" lon="3.20065">
        <ele>180</ele>
        <time>2012-10-07T13:54:23.945Z</time>
      </trkpt>
      <trkpt lat="48.20412" lon="3.20058">
        <ele>180</ele>
        <time>2012-10-07T13:54:24.945Z</time>
      </trkpt>
      <trkpt lat="48.20418" lon="3.20052">
        <ele>179</ele>
        <time>2012-10-07T13:54:25.945Z</time>
      </trkpt>
      <trkpt lat="48.20423" lon="3.20045">
        <ele>178</ele>
        <time>2012-10-07T13:54:26.945Z</time>
      </trkpt>
      <trkpt lat="48.20427" lon="3.20037">
        <ele>178</ele>
        <time>2012-10-07T13:54:27.945Z</time>
      </trkpt>
      <trkpt lat="48.20433" lon="3.2003">
        <ele>178</ele>
        <time>2012-10-07T13:54:28.945Z</time>
      </trkpt>
      <trkpt lat="48.20438" lon="3.20022">
        <ele>178</ele>
        <time>2012-10-07T13:54:29.945Z</time>
      </trkpt>
      <trkpt lat="48.20444" lon="3.20015">
        <ele>178</ele>
        <time>2012-10-07T13:54:30.945Z</time>
      </trkpt>
      <trkpt lat="48.20449" lon="3.20009">
        <ele>178</ele>
        <time>2012-10-07T13:54:31.945Z</time>
      </trkpt>
      <trkpt lat="48.20454" lon="3.20002">
        <ele>178</ele>
        <time>2012-10-07T13:54:32.945Z</time>
      </trkpt>
      <trkpt lat="48.20461" lon="3.19996">
        <ele>175</ele>
        <time>2012-10-07T13:54:34.945Z</time>
      </trkpt>
      <trkpt lat="48.20467" lon="3.1999">
        <ele>175</ele>
        <time>2012-10-07T13:54:37.945Z</time>
      </trkpt>
      <trkpt lat="48.20469" lon="3.19979">
        <ele>175</ele>
        <time>2012-10-07T13:54:43.945Z</time>
      </trkpt>
      <trkpt lat="48.20469" lon="3.19979">
        <ele>175</ele>
        <time>2012-10-07T13:54:43.945Z</time>
      </trkpt>
      <trkpt lat="48.20469" lon="3.19979">
        <ele>175</ele>
        <time>2012-10-07T13:54:44.945Z</time>
      </trkpt>
      <trkpt lat="48.20463" lon="3.19981">
        <ele>175</ele>
        <time>2012-10-07T13:54:46.945Z</time>
      </trkpt>
      <trkpt lat="48.20455" lon="3.19979">
        <ele>175</ele>
        <time>2012-10-07T13:54:48.945Z</time>
      </trkpt>
      <trkpt lat="48.2045" lon="3.19975">
        <ele>175</ele>
        <time>2012-10-07T13:54:50.945Z</time>
      </trkpt>
      <trkpt lat="48.20444" lon="3.19968">
        <ele>175</ele>
        <time>2012-10-07T13:54:52.945Z</time>
      </trkpt>
      <trkpt lat="48.20442" lon="3.19962">
        <ele>174</ele>
        <time>2012-10-07T13:54:53.945Z</time>
      </trkpt>
      <trkpt lat="48.20442" lon="3.19949">
        <ele>174</ele>
        <time>2012-10-07T13:54:55.945Z</time>
      </trkpt>
      <trkpt lat="48.20444" lon="3.19938">
        <ele>174</ele>
        <time>2012-10-07T13:54:57.945Z</time>
      </trkpt>
      <trkpt lat="48.20441" lon="3.19925">
        <ele>174</ele>
        <time>2012-10-07T13:54:59.945Z</time>
      </trkpt>
      <trkpt lat="48.20437" lon="3.19914">
        <ele>172</ele>
        <time>2012-10-07T13:55:01.945Z</time>
      </trkpt>
      <trkpt lat="48.2043" lon="3.19906">
        <ele>172</ele>
        <time>2012-10-07T13:55:03.945Z</time>
      </trkpt>
      <trkpt lat="48.20425" lon="3.19902">
        <ele>172</ele>
        <time>2012-10-07T13:55:04.945Z</time>
      </trkpt>
      <trkpt lat="48.20421" lon="3.19897">
        <ele>172</ele>
        <time>2012-10-07T13:55:05.945Z</time>
      </trkpt>
      <trkpt lat="48.20417" lon="3.19893">
        <ele>172</ele>
        <time>2012-10-07T13:55:06.945Z</time>
      </trkpt>
      <trkpt lat="48.20412" lon="3.19889">
        <ele>174</ele>
        <time>2012-10-07T13:55:07.945Z</time>
      </trkpt>
      <trkpt lat="48.20408" lon="3.19884">
        <ele>174</ele>
        <time>2012-10-07T13:55:08.945Z</time>
      </trkpt>
      <trkpt lat="48.20404" lon="3.1988">
        <ele>174</ele>
        <time>2012-10-07T13:55:09.945Z</time>
      </trkpt>
      <trkpt lat="48.20398" lon="3.19878">
        <ele>174</ele>
        <time>2012-10-07T13:55:10.945Z</time>
      </trkpt>
      <trkpt lat="48.20394" lon="3.19874">
        <ele>175</ele>
        <time>2012-10-07T13:55:11.945Z</time>
      </trkpt>
      <trkpt lat="48.20389" lon="3.1987">
        <ele>175</ele>
        <time>2012-10-07T13:55:12.945Z</time>
      </trkpt>
      <trkpt lat="48.20384" lon="3.19865">
        <ele>175</ele>
        <time>2012-10-07T13:55:13.945Z</time>
      </trkpt>
      <trkpt lat="48.2038" lon="3.19863">
        <ele>175</ele>
        <time>2012-10-07T13:55:14.945Z</time>
      </trkpt>
      <trkpt lat="48.20376" lon="3.19859">
        <ele>175</ele>
        <time>2012-10-07T13:55:15.945Z</time>
      </trkpt>
      <trkpt lat="48.2037" lon="3.19854">
        <ele>175</ele>
        <time>2012-10-07T13:55:16.945Z</time>
      </trkpt>
      <trkpt lat="48.20366" lon="3.1985">
        <ele>175</ele>
        <time>2012-10-07T13:55:17.945Z</time>
      </trkpt>
      <trkpt lat="48.20362" lon="3.19846">
        <ele>175</ele>
        <time>2012-10-07T13:55:18.945Z</time>
      </trkpt>
      <trkpt lat="48.20358" lon="3.19842">
        <ele>175</ele>
        <time>2012-10-07T13:55:19.945Z</time>
      </trkpt>
      <trkpt lat="48.20349" lon="3.19837">
        <ele>176</ele>
        <time>2012-10-07T13:55:21.945Z</time>
      </trkpt>
      <trkpt lat="48.20342" lon="3.19831">
        <ele>175</ele>
        <time>2012-10-07T13:55:23.945Z</time>
      </trkpt>
      <trkpt lat="48.20335" lon="3.19824">
        <ele>175</ele>
        <time>2012-10-07T13:55:25.945Z</time>
      </trkpt>
      <trkpt lat="48.20328" lon="3.19818">
        <ele>177</ele>
        <time>2012-10-07T13:55:27.945Z</time>
      </trkpt>
      <trkpt lat="48.2032" lon="3.19812">
        <ele>178</ele>
        <time>2012-10-07T13:55:29.945Z</time>
      </trkpt>
      <trkpt lat="48.20312" lon="3.19807">
        <ele>178</ele>
        <time>2012-10-07T13:55:31.945Z</time>
      </trkpt>
      <trkpt lat="48.20305" lon="3.19801">
        <ele>178</ele>
        <time>2012-10-07T13:55:33.945Z</time>
      </trkpt>
      <trkpt lat="48.20298" lon="3.19796">
        <ele>179</ele>
        <time>2012-10-07T13:55:35.945Z</time>
      </trkpt>
      <trkpt lat="48.20291" lon="3.19792">
        <ele>179</ele>
        <time>2012-10-07T13:55:37.945Z</time>
      </trkpt>
      <trkpt lat="48.20287" lon="3.19788">
        <ele>179</ele>
        <time>2012-10-07T13:55:38.945Z</time>
      </trkpt>
      <trkpt lat="48.2028" lon="3.19784">
        <ele>179</ele>
        <time>2012-10-07T13:55:40.945Z</time>
      </trkpt>
      <trkpt lat="48.20275" lon="3.19777">
        <ele>179</ele>
        <time>2012-10-07T13:55:42.945Z</time>
      </trkpt>
      <trkpt lat="48.20273" lon="3.19769">
        <ele>180</ele>
        <time>2012-10-07T13:55:44.945Z</time>
      </trkpt>
      <trkpt lat="48.20273" lon="3.1976">
        <ele>180</ele>
        <time>2012-10-07T13:55:46.945Z</time>
      </trkpt>
      <trkpt lat="48.20273" lon="3.19752">
        <ele>180</ele>
        <time>2012-10-07T13:55:48.945Z</time>
      </trkpt>
      <trkpt lat="48.20274" lon="3.19741">
        <ele>180</ele>
        <time>2012-10-07T13:55:51.945Z</time>
      </trkpt>
      <trkpt lat="48.20275" lon="3.19732">
        <ele>180</ele>
        <time>2012-10-07T13:55:53.945Z</time>
      </trkpt>
      <trkpt lat="48.20276" lon="3.19721">
        <ele>180</ele>
        <time>2012-10-07T13:55:56.945Z</time>
      </trkpt>
      <trkpt lat="48.20276" lon="3.19713">
        <ele>180</ele>
        <time>2012-10-07T13:55:58.945Z</time>
      </trkpt>
      <trkpt lat="48.20277" lon="3.19704">
        <ele>180</ele>
        <time>2012-10-07T13:56:00.945Z</time>
      </trkpt>
      <trkpt lat="48.20277" lon="3.19696">
        <ele>180</ele>
        <time>2012-10-07T13:56:02.945Z</time>
      </trkpt>
      <trkpt lat="48.20278" lon="3.19687">
        <ele>181</ele>
        <time>2012-10-07T13:56:04.945Z</time>
      </trkpt>
      <trkpt lat="48.20278" lon="3.19678">
        <ele>181</ele>
        <time>2012-10-07T13:56:06.945Z</time>
      </trkpt>
      <trkpt lat="48.20279" lon="3.1967">
        <ele>181</ele>
        <time>2012-10-07T13:56:08.945Z</time>
      </trkpt>
      <trkpt lat="48.20279" lon="3.19661">
        <ele>181</ele>
        <time>2012-10-07T13:56:10.945Z</time>
      </trkpt>
      <trkpt lat="48.20279" lon="3.19653">
        <ele>181</ele>
        <time>2012-10-07T13:56:12.945Z</time>
      </trkpt>
      <trkpt lat="48.2028" lon="3.19644">
        <ele>181</ele>
        <time>2012-10-07T13:56:14.945Z</time>
      </trkpt>
      <trkpt lat="48.2028" lon="3.19636">
        <ele>181</ele>
        <time>2012-10-07T13:56:16.945Z</time>
      </trkpt>
      <trkpt lat="48.20282" lon="3.19625">
        <ele>180</ele>
        <time>2012-10-07T13:56:18.945Z</time>
      </trkpt>
      <trkpt lat="48.20282" lon="3.19616">
        <ele>180</ele>
        <time>2012-10-07T13:56:20.945Z</time>
      </trkpt>
      <trkpt lat="48.20282" lon="3.19608">
        <ele>180</ele>
        <time>2012-10-07T13:56:22.945Z</time>
      </trkpt>
      <trkpt lat="48.20282" lon="3.19597">
        <ele>180</ele>
        <time>2012-10-07T13:56:24.945Z</time>
      </trkpt>
      <trkpt lat="48.20284" lon="3.19586">
        <ele>180</ele>
        <time>2012-10-07T13:56:26.945Z</time>
      </trkpt>
      <trkpt lat="48.20285" lon="3.19576">
        <ele>180</ele>
        <time>2012-10-07T13:56:28.945Z</time>
      </trkpt>
      <trkpt lat="48.20286" lon="3.19565">
        <ele>180</ele>
        <time>2012-10-07T13:56:30.945Z</time>
      </trkpt>
      <trkpt lat="48.20286" lon="3.19552">
        <ele>180</ele>
        <time>2012-10-07T13:56:32.945Z</time>
      </trkpt>
      <trkpt lat="48.20286" lon="3.19541">
        <ele>180</ele>
        <time>2012-10-07T13:56:34.945Z</time>
      </trkpt>
      <trkpt lat="48.20286" lon="3.1953">
        <ele>180</ele>
        <time>2012-10-07T13:56:36.945Z</time>
      </trkpt>
      <trkpt lat="48.20286" lon="3.1952">
        <ele>180</ele>
        <time>2012-10-07T13:56:39.945Z</time>
      </trkpt>
      <trkpt lat="48.20284" lon="3.19511">
        <ele>180</ele>
        <time>2012-10-07T13:56:43.945Z</time>
      </trkpt>
      <trkpt lat="48.20282" lon="3.195">
        <ele>181</ele>
        <time>2012-10-07T13:56:46.945Z</time>
      </trkpt>
      <trkpt lat="48.20282" lon="3.1949">
        <ele>181</ele>
        <time>2012-10-07T13:56:49.945Z</time>
      </trkpt>
      <trkpt lat="48.20282" lon="3.19479">
        <ele>181</ele>
        <time>2012-10-07T13:56:52.945Z</time>
      </trkpt>
      <trkpt lat="48.20279" lon="3.1947">
        <ele>181</ele>
        <time>2012-10-07T13:56:54.945Z</time>
      </trkpt>
      <trkpt lat="48.20277" lon="3.19462">
        <ele>181</ele>
        <time>2012-10-07T13:56:56.945Z</time>
      </trkpt>
      <trkpt lat="48.20275" lon="3.19451">
        <ele>181</ele>
        <time>2012-10-07T13:56:58.945Z</time>
      </trkpt>
      <trkpt lat="48.20273" lon="3.1944">
        <ele>181</ele>
        <time>2012-10-07T13:57:00.945Z</time>
      </trkpt>
      <trkpt lat="48.20271" lon="3.19427">
        <ele>181</ele>
        <time>2012-10-07T13:57:02.945Z</time>
      </trkpt>
      <trkpt lat="48.20269" lon="3.19417">
        <ele>181</ele>
        <time>2012-10-07T13:57:04.945Z</time>
      </trkpt>
      <trkpt lat="48.20266" lon="3.19404">
        <ele>182</ele>
        <time>2012-10-07T13:57:06.945Z</time>
      </trkpt>
      <trkpt lat="48.20264" lon="3.19393">
        <ele>182</ele>
        <time>2012-10-07T13:57:08.945Z</time>
      </trkpt>
      <trkpt lat="48.20262" lon="3.19382">
        <ele>182</ele>
        <time>2012-10-07T13:57:10.945Z</time>
      </trkpt>
      <trkpt lat="48.2026" lon="3.19372">
        <ele>182</ele>
        <time>2012-10-07T13:57:12.945Z</time>
      </trkpt>
      <trkpt lat="48.20259" lon="3.19363">
        <ele>182</ele>
        <time>2012-10-07T13:57:14.945Z</time>
      </trkpt>
      <trkpt lat="48.20257" lon="3.19352">
        <ele>182</ele>
        <time>2012-10-07T13:57:16.945Z</time>
      </trkpt>
      <trkpt lat="48.20255" lon="3.19344">
        <ele>182</ele>
        <time>2012-10-07T13:57:18.945Z</time>
      </trkpt>
      <trkpt lat="48.20252" lon="3.19333">
        <ele>182</ele>
        <time>2012-10-07T13:57:20.945Z</time>
      </trkpt>
      <trkpt lat="48.2025" lon="3.1932">
        <ele>182</ele>
        <time>2012-10-07T13:57:22.945Z</time>
      </trkpt>
      <trkpt lat="48.20248" lon="3.19309">
        <ele>182</ele>
        <time>2012-10-07T13:57:24.945Z</time>
      </trkpt>
      <trkpt lat="48.20246" lon="3.19299">
        <ele>182</ele>
        <time>2012-10-07T13:57:26.945Z</time>
      </trkpt>
      <trkpt lat="48.20244" lon="3.19288">
        <ele>182</ele>
        <time>2012-10-07T13:57:28.945Z</time>
      </trkpt>
      <trkpt lat="48.20242" lon="3.19273">
        <ele>182</ele>
        <time>2012-10-07T13:57:30.945Z</time>
      </trkpt>
      <trkpt lat="48.2024" lon="3.1926">
        <ele>182</ele>
        <time>2012-10-07T13:57:32.945Z</time>
      </trkpt>
      <trkpt lat="48.20238" lon="3.19252">
        <ele>182</ele>
        <time>2012-10-07T13:57:33.945Z</time>
      </trkpt>
      <trkpt lat="48.20238" lon="3.19239">
        <ele>183</ele>
        <time>2012-10-07T13:57:35.945Z</time>
      </trkpt>
      <trkpt lat="48.20236" lon="3.1923">
        <ele>183</ele>
        <time>2012-10-07T13:57:36.945Z</time>
      </trkpt>
      <trkpt lat="48.20235" lon="3.19217">
        <ele>183</ele>
        <time>2012-10-07T13:57:38.945Z</time>
      </trkpt>
      <trkpt lat="48.20234" lon="3.19204">
        <ele>183</ele>
        <time>2012-10-07T13:57:40.945Z</time>
      </trkpt>
      <trkpt lat="48.20233" lon="3.19191">
        <ele>183</ele>
        <time>2012-10-07T13:57:42.945Z</time>
      </trkpt>
      <trkpt lat="48.20232" lon="3.19181">
        <ele>183</ele>
        <time>2012-10-07T13:57:44.945Z</time>
      </trkpt>
      <trkpt lat="48.2023" lon="3.19172">
        <ele>184</ele>
        <time>2012-10-07T13:57:46.945Z</time>
      </trkpt>
      <trkpt lat="48.20229" lon="3.19164">
        <ele>184</ele>
        <time>2012-10-07T13:57:48.945Z</time>
      </trkpt>
      <trkpt lat="48.20235" lon="3.19157">
        <ele>184</ele>
        <time>2012-10-07T13:57:50.945Z</time>
      </trkpt>
      <trkpt lat="48.2024" lon="3.19155">
        <ele>184</ele>
        <time>2012-10-07T13:57:51.945Z</time>
      </trkpt>
      <trkpt lat="48.20244" lon="3.19153">
        <ele>184</ele>
        <time>2012-10-07T13:57:52.945Z</time>
      </trkpt>
      <trkpt lat="48.2025" lon="3.19148">
        <ele>183</ele>
        <time>2012-10-07T13:57:54.945Z</time>
      </trkpt>
      <trkpt lat="48.20255" lon="3.19146">
        <ele>183</ele>
        <time>2012-10-07T13:57:55.945Z</time>
      </trkpt>
      <trkpt lat="48.20261" lon="3.19142">
        <ele>183</ele>
        <time>2012-10-07T13:57:57.945Z</time>
      </trkpt>
      <trkpt lat="48.20265" lon="3.19138">
        <ele>183</ele>
        <time>2012-10-07T13:57:59.945Z</time>
      </trkpt>
      <trkpt lat="48.2027" lon="3.19121">
        <ele>183</ele>
        <time>2012-10-07T13:58:05.945Z</time>
      </trkpt>
      <trkpt lat="48.20263" lon="3.1911">
        <ele>183</ele>
        <time>2012-10-07T13:58:07.945Z</time>
      </trkpt>
      <trkpt lat="48.20256" lon="3.19099">
        <ele>183</ele>
        <time>2012-10-07T13:58:09.945Z</time>
      </trkpt>
      <trkpt lat="48.20249" lon="3.19091">
        <ele>183</ele>
        <time>2012-10-07T13:58:11.945Z</time>
      </trkpt>
      <trkpt lat="48.20245" lon="3.19084">
        <ele>183</ele>
        <time>2012-10-07T13:58:12.945Z</time>
      </trkpt>
      <trkpt lat="48.20241" lon="3.1908">
        <ele>183</ele>
        <time>2012-10-07T13:58:13.945Z</time>
      </trkpt>
      <trkpt lat="48.20236" lon="3.19076">
        <ele>183</ele>
        <time>2012-10-07T13:58:14.945Z</time>
      </trkpt>
      <trkpt lat="48.20232" lon="3.19071">
        <ele>183</ele>
        <time>2012-10-07T13:58:15.945Z</time>
      </trkpt>
      <trkpt lat="48.20227" lon="3.19067">
        <ele>183</ele>
        <time>2012-10-07T13:58:16.945Z</time>
      </trkpt>
      <trkpt lat="48.20217" lon="3.1906">
        <ele>183</ele>
        <time>2012-10-07T13:58:18.945Z</time>
      </trkpt>
      <trkpt lat="48.20212" lon="3.19056">
        <ele>183</ele>
        <time>2012-10-07T13:58:19.945Z</time>
      </trkpt>
      <trkpt lat="48.20211" lon="3.19048">
        <ele>183</ele>
        <time>2012-10-07T13:58:20.945Z</time>
      </trkpt>
      <trkpt lat="48.20207" lon="3.19041">
        <ele>183</ele>
        <time>2012-10-07T13:58:21.945Z</time>
      </trkpt>
      <trkpt lat="48.20202" lon="3.1903">
        <ele>183</ele>
        <time>2012-10-07T13:58:23.945Z</time>
      </trkpt>
      <trkpt lat="48.20198" lon="3.19026">
        <ele>183</ele>
        <time>2012-10-07T13:58:24.945Z</time>
      </trkpt>
      <trkpt lat="48.2019" lon="3.1902">
        <ele>183</ele>
        <time>2012-10-07T13:58:26.945Z</time>
      </trkpt>
      <trkpt lat="48.20185" lon="3.19016">
        <ele>183</ele>
        <time>2012-10-07T13:58:27.945Z</time>
      </trkpt>
      <trkpt lat="48.20181" lon="3.19011">
        <ele>184</ele>
        <time>2012-10-07T13:58:28.945Z</time>
      </trkpt>
      <trkpt lat="48.20176" lon="3.19007">
        <ele>184</ele>
        <time>2012-10-07T13:58:29.945Z</time>
      </trkpt>
      <trkpt lat="48.20167" lon="3.19">
        <ele>184</ele>
        <time>2012-10-07T13:58:31.945Z</time>
      </trkpt>
      <trkpt lat="48.20162" lon="3.18996">
        <ele>184</ele>
        <time>2012-10-07T13:58:32.945Z</time>
      </trkpt>
      <trkpt lat="48.20157" lon="3.18994">
        <ele>184</ele>
        <time>2012-10-07T13:58:33.945Z</time>
      </trkpt>
      <trkpt lat="48.20153" lon="3.1899">
        <ele>184</ele>
        <time>2012-10-07T13:58:34.945Z</time>
      </trkpt>
      <trkpt lat="48.20147" lon="3.18988">
        <ele>184</ele>
        <time>2012-10-07T13:58:35.945Z</time>
      </trkpt>
      <trkpt lat="48.20142" lon="3.18983">
        <ele>184</ele>
        <time>2012-10-07T13:58:36.945Z</time>
      </trkpt>
      <trkpt lat="48.20137" lon="3.18981">
        <ele>184</ele>
        <time>2012-10-07T13:58:37.945Z</time>
      </trkpt>
      <trkpt lat="48.20132" lon="3.18977">
        <ele>184</ele>
        <time>2012-10-07T13:58:38.945Z</time>
      </trkpt>
      <trkpt lat="48.20127" lon="3.18972">
        <ele>184</ele>
        <time>2012-10-07T13:58:39.945Z</time>
      </trkpt>
      <trkpt lat="48.20123" lon="3.1897">
        <ele>184</ele>
        <time>2012-10-07T13:58:40.945Z</time>
      </trkpt>
      <trkpt lat="48.20117" lon="3.18966">
        <ele>184</ele>
        <time>2012-10-07T13:58:41.945Z</time>
      </trkpt>
      <trkpt lat="48.20108" lon="3.18962">
        <ele>184</ele>
        <time>2012-10-07T13:58:43.945Z</time>
      </trkpt>
      <trkpt lat="48.20103" lon="3.18958">
        <ele>184</ele>
        <time>2012-10-07T13:58:44.945Z</time>
      </trkpt>
      <trkpt lat="48.20099" lon="3.18955">
        <ele>184</ele>
        <time>2012-10-07T13:58:45.945Z</time>
      </trkpt>
      <trkpt lat="48.20095" lon="3.18953">
        <ele>184</ele>
        <time>2012-10-07T13:58:46.945Z</time>
      </trkpt>
      <trkpt lat="48.2009" lon="3.18949">
        <ele>184</ele>
        <time>2012-10-07T13:58:47.945Z</time>
      </trkpt>
      <trkpt lat="48.20082" lon="3.18945">
        <ele>184</ele>
        <time>2012-10-07T13:58:49.945Z</time>
      </trkpt>
      <trkpt lat="48.20073" lon="3.18938">
        <ele>184</ele>
        <time>2012-10-07T13:58:51.945Z</time>
      </trkpt>
      <trkpt lat="48.20065" lon="3.18934">
        <ele>184</ele>
        <time>2012-10-07T13:58:53.945Z</time>
      </trkpt>
      <trkpt lat="48.20057" lon="3.1893">
        <ele>184</ele>
        <time>2012-10-07T13:58:55.945Z</time>
      </trkpt>
      <trkpt lat="48.2005" lon="3.18923">
        <ele>184</ele>
        <time>2012-10-07T13:58:57.945Z</time>
      </trkpt>
      <trkpt lat="48.20043" lon="3.18915">
        <ele>184</ele>
        <time>2012-10-07T13:58:59.945Z</time>
      </trkpt>
      <trkpt lat="48.20036" lon="3.18906">
        <ele>184</ele>
        <time>2012-10-07T13:59:01.945Z</time>
      </trkpt>
      <trkpt lat="48.20029" lon="3.18897">
        <ele>183</ele>
        <time>2012-10-07T13:59:03.945Z</time>
      </trkpt>
      <trkpt lat="48.20025" lon="3.18891">
        <ele>183</ele>
        <time>2012-10-07T13:59:04.945Z</time>
      </trkpt>
      <trkpt lat="48.20019" lon="3.18882">
        <ele>183</ele>
        <time>2012-10-07T13:59:06.945Z</time>
      </trkpt>
      <trkpt lat="48.20014" lon="3.18878">
        <ele>183</ele>
        <time>2012-10-07T13:59:07.945Z</time>
      </trkpt>
      <trkpt lat="48.20011" lon="3.18872">
        <ele>183</ele>
        <time>2012-10-07T13:59:08.945Z</time>
      </trkpt>
      <trkpt lat="48.20007" lon="3.18867">
        <ele>183</ele>
        <time>2012-10-07T13:59:09.945Z</time>
      </trkpt>
      <trkpt lat="48.20002" lon="3.18863">
        <ele>183</ele>
        <time>2012-10-07T13:59:10.945Z</time>
      </trkpt>
      <trkpt lat="48.19999" lon="3.18857">
        <ele>181</ele>
        <time>2012-10-07T13:59:11.945Z</time>
      </trkpt>
      <trkpt lat="48.19995" lon="3.1885">
        <ele>181</ele>
        <time>2012-10-07T13:59:12.945Z</time>
      </trkpt>
      <trkpt lat="48.19992" lon="3.18844">
        <ele>181</ele>
        <time>2012-10-07T13:59:13.945Z</time>
      </trkpt>
      <trkpt lat="48.19989" lon="3.18837">
        <ele>181</ele>
        <time>2012-10-07T13:59:14.945Z</time>
      </trkpt>
      <trkpt lat="48.19981" lon="3.18827">
        <ele>181</ele>
        <time>2012-10-07T13:59:16.945Z</time>
      </trkpt>
      <trkpt lat="48.19978" lon="3.1882">
        <ele>180</ele>
        <time>2012-10-07T13:59:17.945Z</time>
      </trkpt>
      <trkpt lat="48.19974" lon="3.18814">
        <ele>180</ele>
        <time>2012-10-07T13:59:18.945Z</time>
      </trkpt>
      <trkpt lat="48.1997" lon="3.18807">
        <ele>180</ele>
        <time>2012-10-07T13:59:19.945Z</time>
      </trkpt>
      <trkpt lat="48.19966" lon="3.18801">
        <ele>180</ele>
        <time>2012-10-07T13:59:20.945Z</time>
      </trkpt>
      <trkpt lat="48.19961" lon="3.18797">
        <ele>180</ele>
        <time>2012-10-07T13:59:22.945Z</time>
      </trkpt>
      <trkpt lat="48.19955" lon="3.1879">
        <ele>179</ele>
        <time>2012-10-07T13:59:29.945Z</time>
      </trkpt>
      <trkpt lat="48.19955" lon="3.1879">
        <ele>179</ele>
        <time>2012-10-07T13:59:29.945Z</time>
      </trkpt>
      <trkpt lat="48.19955" lon="3.1879">
        <ele>179</ele>
        <time>2012-10-07T13:59:30.945Z</time>
      </trkpt>
      <trkpt lat="48.1996" lon="3.18792">
        <ele>180</ele>
        <time>2012-10-07T13:59:32.945Z</time>
      </trkpt>
      <trkpt lat="48.19965" lon="3.18801">
        <ele>180</ele>
        <time>2012-10-07T13:59:35.945Z</time>
      </trkpt>
      <trkpt lat="48.19969" lon="3.1881">
        <ele>180</ele>
        <time>2012-10-07T13:59:37.945Z</time>
      </trkpt>
      <trkpt lat="48.19974" lon="3.18818">
        <ele>180</ele>
        <time>2012-10-07T13:59:39.945Z</time>
      </trkpt>
      <trkpt lat="48.19978" lon="3.18824">
        <ele>180</ele>
        <time>2012-10-07T13:59:41.945Z</time>
      </trkpt>
      <trkpt lat="48.19982" lon="3.18833">
        <ele>181</ele>
        <time>2012-10-07T13:59:43.945Z</time>
      </trkpt>
      <trkpt lat="48.19988" lon="3.18842">
        <ele>181</ele>
        <time>2012-10-07T13:59:45.945Z</time>
      </trkpt>
      <trkpt lat="48.19992" lon="3.1885">
        <ele>181</ele>
        <time>2012-10-07T13:59:47.945Z</time>
      </trkpt>
      <trkpt lat="48.19998" lon="3.18861">
        <ele>181</ele>
        <time>2012-10-07T13:59:49.945Z</time>
      </trkpt>
      <trkpt lat="48.20004" lon="3.1887">
        <ele>183</ele>
        <time>2012-10-07T13:59:51.945Z</time>
      </trkpt>
      <trkpt lat="48.2001" lon="3.18878">
        <ele>183</ele>
        <time>2012-10-07T13:59:53.945Z</time>
      </trkpt>
      <trkpt lat="48.20016" lon="3.18887">
        <ele>183</ele>
        <time>2012-10-07T13:59:55.945Z</time>
      </trkpt>
      <trkpt lat="48.20023" lon="3.18895">
        <ele>183</ele>
        <time>2012-10-07T13:59:57.945Z</time>
      </trkpt>
      <trkpt lat="48.2003" lon="3.18904">
        <ele>183</ele>
        <time>2012-10-07T13:59:59.945Z</time>
      </trkpt>
      <trkpt lat="48.20037" lon="3.18912">
        <ele>184</ele>
        <time>2012-10-07T14:00:01.945Z</time>
      </trkpt>
      <trkpt lat="48.20044" lon="3.18921">
        <ele>183</ele>
        <time>2012-10-07T14:00:03.945Z</time>
      </trkpt>
      <trkpt lat="48.20051" lon="3.18928">
        <ele>184</ele>
        <time>2012-10-07T14:00:05.945Z</time>
      </trkpt>
      <trkpt lat="48.20058" lon="3.18932">
        <ele>184</ele>
        <time>2012-10-07T14:00:07.945Z</time>
      </trkpt>
      <trkpt lat="48.20066" lon="3.18938">
        <ele>184</ele>
        <time>2012-10-07T14:00:09.945Z</time>
      </trkpt>
      <trkpt lat="48.2007" lon="3.1894">
        <ele>184</ele>
        <time>2012-10-07T14:00:10.945Z</time>
      </trkpt>
      <trkpt lat="48.20074" lon="3.18942">
        <ele>184</ele>
        <time>2012-10-07T14:00:11.945Z</time>
      </trkpt>
      <trkpt lat="48.20079" lon="3.18947">
        <ele>184</ele>
        <time>2012-10-07T14:00:12.945Z</time>
      </trkpt>
      <trkpt lat="48.20084" lon="3.18949">
        <ele>184</ele>
        <time>2012-10-07T14:00:13.945Z</time>
      </trkpt>
      <trkpt lat="48.20088" lon="3.18953">
        <ele>184</ele>
        <time>2012-10-07T14:00:14.945Z</time>
      </trkpt>
      <trkpt lat="48.20093" lon="3.18955">
        <ele>184</ele>
        <time>2012-10-07T14:00:15.945Z</time>
      </trkpt>
      <trkpt lat="48.20097" lon="3.18958">
        <ele>184</ele>
        <time>2012-10-07T14:00:16.945Z</time>
      </trkpt>
      <trkpt lat="48.20101" lon="3.18962">
        <ele>184</ele>
        <time>2012-10-07T14:00:17.945Z</time>
      </trkpt>
      <trkpt lat="48.20107" lon="3.18964">
        <ele>184</ele>
        <time>2012-10-07T14:00:18.945Z</time>
      </trkpt>
      <trkpt lat="48.20111" lon="3.18968">
        <ele>184</ele>
        <time>2012-10-07T14:00:19.945Z</time>
      </trkpt>
      <trkpt lat="48.20115" lon="3.18972">
        <ele>184</ele>
        <time>2012-10-07T14:00:20.945Z</time>
      </trkpt>
      <trkpt lat="48.2012" lon="3.18975">
        <ele>184</ele>
        <time>2012-10-07T14:00:21.945Z</time>
      </trkpt>
      <trkpt lat="48.20125" lon="3.18979">
        <ele>184</ele>
        <time>2012-10-07T14:00:22.945Z</time>
      </trkpt>
      <trkpt lat="48.20129" lon="3.18981">
        <ele>184</ele>
        <time>2012-10-07T14:00:23.945Z</time>
      </trkpt>
      <trkpt lat="48.20134" lon="3.18985">
        <ele>184</ele>
        <time>2012-10-07T14:00:24.945Z</time>
      </trkpt>
      <trkpt lat="48.20139" lon="3.18988">
        <ele>184</ele>
        <time>2012-10-07T14:00:25.945Z</time>
      </trkpt>
      <trkpt lat="48.20143" lon="3.18992">
        <ele>184</ele>
        <time>2012-10-07T14:00:26.945Z</time>
      </trkpt>
      <trkpt lat="48.20147" lon="3.18996">
        <ele>184</ele>
        <time>2012-10-07T14:00:27.945Z</time>
      </trkpt>
      <trkpt lat="48.20152" lon="3.19">
        <ele>184</ele>
        <time>2012-10-07T14:00:28.945Z</time>
      </trkpt>
      <trkpt lat="48.20156" lon="3.19003">
        <ele>184</ele>
        <time>2012-10-07T14:00:29.945Z</time>
      </trkpt>
      <trkpt lat="48.2016" lon="3.19007">
        <ele>184</ele>
        <time>2012-10-07T14:00:30.945Z</time>
      </trkpt>
      <trkpt lat="48.20164" lon="3.19011">
        <ele>184</ele>
        <time>2012-10-07T14:00:31.945Z</time>
      </trkpt>
      <trkpt lat="48.20169" lon="3.19013">
        <ele>184</ele>
        <time>2012-10-07T14:00:32.945Z</time>
      </trkpt>
      <trkpt lat="48.20173" lon="3.19018">
        <ele>184</ele>
        <time>2012-10-07T14:00:33.945Z</time>
      </trkpt>
      <trkpt lat="48.20177" lon="3.19022">
        <ele>184</ele>
        <time>2012-10-07T14:00:34.945Z</time>
      </trkpt>
      <trkpt lat="48.20183" lon="3.19024">
        <ele>183</ele>
        <time>2012-10-07T14:00:35.945Z</time>
      </trkpt>
      <trkpt lat="48.20187" lon="3.19028">
        <ele>183</ele>
        <time>2012-10-07T14:00:36.945Z</time>
      </trkpt>
      <trkpt lat="48.20191" lon="3.19033">
        <ele>183</ele>
        <time>2012-10-07T14:00:37.945Z</time>
      </trkpt>
      <trkpt lat="48.20196" lon="3.19037">
        <ele>183</ele>
        <time>2012-10-07T14:00:38.945Z</time>
      </trkpt>
      <trkpt lat="48.20198" lon="3.19043">
        <ele>183</ele>
        <time>2012-10-07T14:00:39.945Z</time>
      </trkpt>
      <trkpt lat="48.20204" lon="3.19054">
        <ele>183</ele>
        <time>2012-10-07T14:00:41.945Z</time>
      </trkpt>
      <trkpt lat="48.20207" lon="3.1906">
        <ele>183</ele>
        <time>2012-10-07T14:00:42.945Z</time>
      </trkpt>
      <trkpt lat="48.20214" lon="3.19067">
        <ele>183</ele>
        <time>2012-10-07T14:00:44.945Z</time>
      </trkpt>
      <trkpt lat="48.20219" lon="3.19073">
        <ele>183</ele>
        <time>2012-10-07T14:00:46.945Z</time>
      </trkpt>
      <trkpt lat="48.20224" lon="3.19078">
        <ele>183</ele>
        <time>2012-10-07T14:00:49.945Z</time>
      </trkpt>
      <trkpt lat="48.20228" lon="3.19082">
        <ele>183</ele>
        <time>2012-10-07T14:00:52.945Z</time>
      </trkpt>
      <trkpt lat="48.20234" lon="3.19088">
        <ele>183</ele>
        <time>2012-10-07T14:00:55.945Z</time>
      </trkpt>
      <trkpt lat="48.20238" lon="3.19095">
        <ele>183</ele>
        <time>2012-10-07T14:00:57.945Z</time>
      </trkpt>
      <trkpt lat="48.20245" lon="3.19101">
        <ele>183</ele>
        <time>2012-10-07T14:00:59.945Z</time>
      </trkpt>
      <trkpt lat="48.20251" lon="3.1911">
        <ele>183</ele>
        <time>2012-10-07T14:01:01.945Z</time>
      </trkpt>
      <trkpt lat="48.20255" lon="3.19116">
        <ele>183</ele>
        <time>2012-10-07T14:01:02.945Z</time>
      </trkpt>
      <trkpt lat="48.20261" lon="3.19127">
        <ele>183</ele>
        <time>2012-10-07T14:01:04.945Z</time>
      </trkpt>
      <trkpt lat="48.20265" lon="3.19131">
        <ele>183</ele>
        <time>2012-10-07T14:01:05.945Z</time>
      </trkpt>
      <trkpt lat="48.20269" lon="3.19138">
        <ele>183</ele>
        <time>2012-10-07T14:01:06.945Z</time>
      </trkpt>
      <trkpt lat="48.20272" lon="3.19144">
        <ele>183</ele>
        <time>2012-10-07T14:01:07.945Z</time>
      </trkpt>
      <trkpt lat="48.20275" lon="3.19151">
        <ele>183</ele>
        <time>2012-10-07T14:01:08.945Z</time>
      </trkpt>
      <trkpt lat="48.20279" lon="3.19155">
        <ele>183</ele>
        <time>2012-10-07T14:01:09.945Z</time>
      </trkpt>
      <trkpt lat="48.20282" lon="3.19161">
        <ele>183</ele>
        <time>2012-10-07T14:01:10.945Z</time>
      </trkpt>
      <trkpt lat="48.20286" lon="3.19168">
        <ele>183</ele>
        <time>2012-10-07T14:01:11.945Z</time>
      </trkpt>
      <trkpt lat="48.20289" lon="3.19174">
        <ele>183</ele>
        <time>2012-10-07T14:01:12.945Z</time>
      </trkpt>
      <trkpt lat="48.20292" lon="3.19181">
        <ele>183</ele>
        <time>2012-10-07T14:01:13.945Z</time>
      </trkpt>
      <trkpt lat="48.20295" lon="3.19187">
        <ele>183</ele>
        <time>2012-10-07T14:01:14.945Z</time>
      </trkpt>
      <trkpt lat="48.20299" lon="3.19196">
        <ele>183</ele>
        <time>2012-10-07T14:01:15.945Z</time>
      </trkpt>
      <trkpt lat="48.20302" lon="3.19202">
        <ele>183</ele>
        <time>2012-10-07T14:01:16.945Z</time>
      </trkpt>
      <trkpt lat="48.20305" lon="3.19209">
        <ele>183</ele>
        <time>2012-10-07T14:01:17.945Z</time>
      </trkpt>
      <trkpt lat="48.20308" lon="3.19217">
        <ele>183</ele>
        <time>2012-10-07T14:01:18.945Z</time>
      </trkpt>
      <trkpt lat="48.20313" lon="3.19224">
        <ele>183</ele>
        <time>2012-10-07T14:01:19.945Z</time>
      </trkpt>
      <trkpt lat="48.20316" lon="3.1923">
        <ele>183</ele>
        <time>2012-10-07T14:01:20.945Z</time>
      </trkpt>
      <trkpt lat="48.20321" lon="3.19234">
        <ele>183</ele>
        <time>2012-10-07T14:01:21.945Z</time>
      </trkpt>
      <trkpt lat="48.20325" lon="3.19239">
        <ele>182</ele>
        <time>2012-10-07T14:01:22.945Z</time>
      </trkpt>
      <trkpt lat="48.20331" lon="3.19243">
        <ele>182</ele>
        <time>2012-10-07T14:01:23.945Z</time>
      </trkpt>
      <trkpt lat="48.20335" lon="3.19247">
        <ele>182</ele>
        <time>2012-10-07T14:01:24.945Z</time>
      </trkpt>
      <trkpt lat="48.2034" lon="3.19252">
        <ele>182</ele>
        <time>2012-10-07T14:01:25.945Z</time>
      </trkpt>
      <trkpt lat="48.20346" lon="3.19256">
        <ele>182</ele>
        <time>2012-10-07T14:01:26.945Z</time>
      </trkpt>
      <trkpt lat="48.20351" lon="3.1926">
        <ele>182</ele>
        <time>2012-10-07T14:01:27.945Z</time>
      </trkpt>
      <trkpt lat="48.20357" lon="3.19264">
        <ele>181</ele>
        <time>2012-10-07T14:01:28.945Z</time>
      </trkpt>
      <trkpt lat="48.20363" lon="3.19269">
        <ele>181</ele>
        <time>2012-10-07T14:01:29.945Z</time>
      </trkpt>
      <trkpt lat="48.20368" lon="3.19275">
        <ele>181</ele>
        <time>2012-10-07T14:01:30.945Z</time>
      </trkpt>
      <trkpt lat="48.20373" lon="3.19279">
        <ele>181</ele>
        <time>2012-10-07T14:01:31.945Z</time>
      </trkpt>
      <trkpt lat="48.20378" lon="3.19286">
        <ele>181</ele>
        <time>2012-10-07T14:01:32.945Z</time>
      </trkpt>
      <trkpt lat="48.20383" lon="3.1929">
        <ele>181</ele>
        <time>2012-10-07T14:01:33.945Z</time>
      </trkpt>
      <trkpt lat="48.20389" lon="3.19296">
        <ele>181</ele>
        <time>2012-10-07T14:01:34.945Z</time>
      </trkpt>
      <trkpt lat="48.20394" lon="3.19301">
        <ele>181</ele>
        <time>2012-10-07T14:01:35.945Z</time>
      </trkpt>
      <trkpt lat="48.204" lon="3.19305">
        <ele>181</ele>
        <time>2012-10-07T14:01:36.945Z</time>
      </trkpt>
      <trkpt lat="48.20405" lon="3.19312">
        <ele>181</ele>
        <time>2012-10-07T14:01:37.945Z</time>
      </trkpt>
      <trkpt lat="48.2041" lon="3.19316">
        <ele>181</ele>
        <time>2012-10-07T14:01:38.945Z</time>
      </trkpt>
      <trkpt lat="48.20416" lon="3.19322">
        <ele>181</ele>
        <time>2012-10-07T14:01:39.945Z</time>
      </trkpt>
      <trkpt lat="48.2042" lon="3.19329">
        <ele>180</ele>
        <time>2012-10-07T14:01:40.945Z</time>
      </trkpt>
      <trkpt lat="48.20424" lon="3.19335">
        <ele>180</ele>
        <time>2012-10-07T14:01:41.945Z</time>
      </trkpt>
      <trkpt lat="48.20428" lon="3.19342">
        <ele>180</ele>
        <time>2012-10-07T14:01:42.945Z</time>
      </trkpt>
      <trkpt lat="48.20433" lon="3.1935">
        <ele>179</ele>
        <time>2012-10-07T14:01:43.945Z</time>
      </trkpt>
      <trkpt lat="48.20437" lon="3.19357">
        <ele>179</ele>
        <time>2012-10-07T14:01:44.945Z</time>
      </trkpt>
      <trkpt lat="48.2044" lon="3.19363">
        <ele>179</ele>
        <time>2012-10-07T14:01:45.945Z</time>
      </trkpt>
      <trkpt lat="48.20444" lon="3.19372">
        <ele>179</ele>
        <time>2012-10-07T14:01:46.945Z</time>
      </trkpt>
      <trkpt lat="48.20448" lon="3.19378">
        <ele>179</ele>
        <time>2012-10-07T14:01:47.945Z</time>
      </trkpt>
      <trkpt lat="48.20451" lon="3.19384">
        <ele>179</ele>
        <time>2012-10-07T14:01:48.945Z</time>
      </trkpt>
      <trkpt lat="48.20454" lon="3.19393">
        <ele>178</ele>
        <time>2012-10-07T14:01:49.945Z</time>
      </trkpt>
      <trkpt lat="48.20458" lon="3.194">
        <ele>178</ele>
        <time>2012-10-07T14:01:50.945Z</time>
      </trkpt>
      <trkpt lat="48.20462" lon="3.19408">
        <ele>178</ele>
        <time>2012-10-07T14:01:51.945Z</time>
      </trkpt>
      <trkpt lat="48.20465" lon="3.19415">
        <ele>178</ele>
        <time>2012-10-07T14:01:52.945Z</time>
      </trkpt>
      <trkpt lat="48.20468" lon="3.19423">
        <ele>178</ele>
        <time>2012-10-07T14:01:53.945Z</time>
      </trkpt>
      <trkpt lat="48.20471" lon="3.19432">
        <ele>178</ele>
        <time>2012-10-07T14:01:54.945Z</time>
      </trkpt>
      <trkpt lat="48.20475" lon="3.1944">
        <ele>177</ele>
        <time>2012-10-07T14:01:55.945Z</time>
      </trkpt>
      <trkpt lat="48.20479" lon="3.19449">
        <ele>177</ele>
        <time>2012-10-07T14:01:56.945Z</time>
      </trkpt>
      <trkpt lat="48.20481" lon="3.19458">
        <ele>177</ele>
        <time>2012-10-07T14:01:57.945Z</time>
      </trkpt>
      <trkpt lat="48.20484" lon="3.19464">
        <ele>177</ele>
        <time>2012-10-07T14:01:58.945Z</time>
      </trkpt>
      <trkpt lat="48.20487" lon="3.19472">
        <ele>177</ele>
        <time>2012-10-07T14:01:59.945Z</time>
      </trkpt>
      <trkpt lat="48.2049" lon="3.19481">
        <ele>177</ele>
        <time>2012-10-07T14:02:00.945Z</time>
      </trkpt>
      <trkpt lat="48.20493" lon="3.1949">
        <ele>177</ele>
        <time>2012-10-07T14:02:01.945Z</time>
      </trkpt>
      <trkpt lat="48.20495" lon="3.195">
        <ele>176</ele>
        <time>2012-10-07T14:02:02.945Z</time>
      </trkpt>
      <trkpt lat="48.20497" lon="3.19509">
        <ele>176</ele>
        <time>2012-10-07T14:02:03.945Z</time>
      </trkpt>
      <trkpt lat="48.20498" lon="3.19518">
        <ele>176</ele>
        <time>2012-10-07T14:02:04.945Z</time>
      </trkpt>
      <trkpt lat="48.205" lon="3.19528">
        <ele>176</ele>
        <time>2012-10-07T14:02:05.945Z</time>
      </trkpt>
      <trkpt lat="48.20501" lon="3.19539">
        <ele>174</ele>
        <time>2012-10-07T14:02:06.945Z</time>
      </trkpt>
      <trkpt lat="48.20502" lon="3.1955">
        <ele>174</ele>
        <time>2012-10-07T14:02:07.945Z</time>
      </trkpt>
      <trkpt lat="48.20504" lon="3.1956">
        <ele>174</ele>
        <time>2012-10-07T14:02:08.945Z</time>
      </trkpt>
      <trkpt lat="48.20505" lon="3.19569">
        <ele>174</ele>
        <time>2012-10-07T14:02:09.945Z</time>
      </trkpt>
      <trkpt lat="48.20506" lon="3.19582">
        <ele>175</ele>
        <time>2012-10-07T14:02:10.945Z</time>
      </trkpt>
      <trkpt lat="48.20507" lon="3.19593">
        <ele>174</ele>
        <time>2012-10-07T14:02:11.945Z</time>
      </trkpt>
      <trkpt lat="48.20509" lon="3.19603">
        <ele>173</ele>
        <time>2012-10-07T14:02:12.945Z</time>
      </trkpt>
      <trkpt lat="48.2051" lon="3.19614">
        <ele>173</ele>
        <time>2012-10-07T14:02:13.945Z</time>
      </trkpt>
      <trkpt lat="48.20512" lon="3.19623">
        <ele>173</ele>
        <time>2012-10-07T14:02:14.945Z</time>
      </trkpt>
      <trkpt lat="48.20514" lon="3.19633">
        <ele>172</ele>
        <time>2012-10-07T14:02:15.945Z</time>
      </trkpt>
      <trkpt lat="48.20516" lon="3.19644">
        <ele>172</ele>
        <time>2012-10-07T14:02:16.945Z</time>
      </trkpt>
      <trkpt lat="48.2052" lon="3.19653">
        <ele>172</ele>
        <time>2012-10-07T14:02:17.945Z</time>
      </trkpt>
      <trkpt lat="48.20523" lon="3.19661">
        <ele>172</ele>
        <time>2012-10-07T14:02:18.945Z</time>
      </trkpt>
      <trkpt lat="48.20526" lon="3.1967">
        <ele>171</ele>
        <time>2012-10-07T14:02:19.945Z</time>
      </trkpt>
      <trkpt lat="48.20529" lon="3.19678">
        <ele>171</ele>
        <time>2012-10-07T14:02:20.945Z</time>
      </trkpt>
      <trkpt lat="48.20532" lon="3.19687">
        <ele>171</ele>
        <time>2012-10-07T14:02:21.945Z</time>
      </trkpt>
      <trkpt lat="48.20536" lon="3.19696">
        <ele>171</ele>
        <time>2012-10-07T14:02:22.945Z</time>
      </trkpt>
      <trkpt lat="48.20539" lon="3.19704">
        <ele>171</ele>
        <time>2012-10-07T14:02:23.945Z</time>
      </trkpt>
      <trkpt lat="48.20542" lon="3.19711">
        <ele>171</ele>
        <time>2012-10-07T14:02:24.945Z</time>
      </trkpt>
      <trkpt lat="48.20545" lon="3.19719">
        <ele>171</ele>
        <time>2012-10-07T14:02:25.945Z</time>
      </trkpt>
      <trkpt lat="48.20549" lon="3.19726">
        <ele>171</ele>
        <time>2012-10-07T14:02:26.945Z</time>
      </trkpt>
      <trkpt lat="48.20552" lon="3.19734">
        <ele>171</ele>
        <time>2012-10-07T14:02:27.945Z</time>
      </trkpt>
      <trkpt lat="48.20555" lon="3.19743">
        <ele>171</ele>
        <time>2012-10-07T14:02:28.945Z</time>
      </trkpt>
      <trkpt lat="48.20558" lon="3.19749">
        <ele>171</ele>
        <time>2012-10-07T14:02:29.945Z</time>
      </trkpt>
      <trkpt lat="48.20562" lon="3.19758">
        <ele>171</ele>
        <time>2012-10-07T14:02:30.945Z</time>
      </trkpt>
      <trkpt lat="48.20565" lon="3.19766">
        <ele>171</ele>
        <time>2012-10-07T14:02:31.945Z</time>
      </trkpt>
      <trkpt lat="48.20568" lon="3.19775">
        <ele>171</ele>
        <time>2012-10-07T14:02:32.945Z</time>
      </trkpt>
      <trkpt lat="48.20571" lon="3.19784">
        <ele>171</ele>
        <time>2012-10-07T14:02:33.945Z</time>
      </trkpt>
      <trkpt lat="48.20574" lon="3.19792">
        <ele>171</ele>
        <time>2012-10-07T14:02:34.945Z</time>
      </trkpt>
      <trkpt lat="48.20578" lon="3.19801">
        <ele>171</ele>
        <time>2012-10-07T14:02:35.945Z</time>
      </trkpt>
      <trkpt lat="48.20581" lon="3.19809">
        <ele>171</ele>
        <time>2012-10-07T14:02:36.945Z</time>
      </trkpt>
      <trkpt lat="48.20584" lon="3.19818">
        <ele>172</ele>
        <time>2012-10-07T14:02:37.945Z</time>
      </trkpt>
      <trkpt lat="48.20587" lon="3.19827">
        <ele>172</ele>
        <time>2012-10-07T14:02:38.945Z</time>
      </trkpt>
      <trkpt lat="48.2059" lon="3.19835">
        <ele>172</ele>
        <time>2012-10-07T14:02:39.945Z</time>
      </trkpt>
      <trkpt lat="48.20594" lon="3.19844">
        <ele>172</ele>
        <time>2012-10-07T14:02:40.945Z</time>
      </trkpt>
      <trkpt lat="48.20597" lon="3.19852">
        <ele>172</ele>
        <time>2012-10-07T14:02:41.945Z</time>
      </trkpt>
      <trkpt lat="48.206" lon="3.19861">
        <ele>171</ele>
        <time>2012-10-07T14:02:42.945Z</time>
      </trkpt>
      <trkpt lat="48.20603" lon="3.1987">
        <ele>171</ele>
        <time>2012-10-07T14:02:43.945Z</time>
      </trkpt>
      <trkpt lat="48.20606" lon="3.1988">
        <ele>171</ele>
        <time>2012-10-07T14:02:44.945Z</time>
      </trkpt>
      <trkpt lat="48.2061" lon="3.19889">
        <ele>171</ele>
        <time>2012-10-07T14:02:45.945Z</time>
      </trkpt>
      <trkpt lat="48.20613" lon="3.19897">
        <ele>171</ele>
        <time>2012-10-07T14:02:46.945Z</time>
      </trkpt>
      <trkpt lat="48.20616" lon="3.19906">
        <ele>171</ele>
        <time>2012-10-07T14:02:47.945Z</time>
      </trkpt>
      <trkpt lat="48.20619" lon="3.19912">
        <ele>171</ele>
        <time>2012-10-07T14:02:48.945Z</time>
      </trkpt>
      <trkpt lat="48.20622" lon="3.19921">
        <ele>171</ele>
        <time>2012-10-07T14:02:49.945Z</time>
      </trkpt>
      <trkpt lat="48.20626" lon="3.1993">
        <ele>171</ele>
        <time>2012-10-07T14:02:50.945Z</time>
      </trkpt>
      <trkpt lat="48.20629" lon="3.19936">
        <ele>171</ele>
        <time>2012-10-07T14:02:51.945Z</time>
      </trkpt>
      <trkpt lat="48.20632" lon="3.19945">
        <ele>171</ele>
        <time>2012-10-07T14:02:52.945Z</time>
      </trkpt>
      <trkpt lat="48.20636" lon="3.19953">
        <ele>171</ele>
        <time>2012-10-07T14:02:53.945Z</time>
      </trkpt>
      <trkpt lat="48.20639" lon="3.1996">
        <ele>171</ele>
        <time>2012-10-07T14:02:54.945Z</time>
      </trkpt>
      <trkpt lat="48.20642" lon="3.19968">
        <ele>171</ele>
        <time>2012-10-07T14:02:55.945Z</time>
      </trkpt>
      <trkpt lat="48.20647" lon="3.19977">
        <ele>171</ele>
        <time>2012-10-07T14:02:57.945Z</time>
      </trkpt>
      <trkpt lat="48.20652" lon="3.19988">
        <ele>171</ele>
        <time>2012-10-07T14:02:59.945Z</time>
      </trkpt>
      <trkpt lat="48.20658" lon="3.19996">
        <ele>171</ele>
        <time>2012-10-07T14:03:01.945Z</time>
      </trkpt>
      <trkpt lat="48.2066" lon="3.20002">
        <ele>172</ele>
        <time>2012-10-07T14:03:02.945Z</time>
      </trkpt>
      <trkpt lat="48.20666" lon="3.20011">
        <ele>173</ele>
        <time>2012-10-07T14:03:04.945Z</time>
      </trkpt>
      <trkpt lat="48.20668" lon="3.20018">
        <ele>172</ele>
        <time>2012-10-07T14:03:05.945Z</time>
      </trkpt>
      <trkpt lat="48.20673" lon="3.20026">
        <ele>172</ele>
        <time>2012-10-07T14:03:07.945Z</time>
      </trkpt>
      <trkpt lat="48.20675" lon="3.20032">
        <ele>172</ele>
        <time>2012-10-07T14:03:08.945Z</time>
      </trkpt>
      <trkpt lat="48.20681" lon="3.20041">
        <ele>173</ele>
        <time>2012-10-07T14:03:10.945Z</time>
      </trkpt>
      <trkpt lat="48.20687" lon="3.20052">
        <ele>173</ele>
        <time>2012-10-07T14:03:12.945Z</time>
      </trkpt>
      <trkpt lat="48.20693" lon="3.2006">
        <ele>174</ele>
        <time>2012-10-07T14:03:14.945Z</time>
      </trkpt>
      <trkpt lat="48.207" lon="3.20069">
        <ele>174</ele>
        <time>2012-10-07T14:03:16.945Z</time>
      </trkpt>
      <trkpt lat="48.20706" lon="3.20078">
        <ele>174</ele>
        <time>2012-10-07T14:03:18.945Z</time>
      </trkpt>
      <trkpt lat="48.20713" lon="3.20086">
        <ele>176</ele>
        <time>2012-10-07T14:03:20.945Z</time>
      </trkpt>
      <trkpt lat="48.20719" lon="3.20095">
        <ele>176</ele>
        <time>2012-10-07T14:03:22.945Z</time>
      </trkpt>
      <trkpt lat="48.20726" lon="3.20101">
        <ele>176</ele>
        <time>2012-10-07T14:03:24.945Z</time>
      </trkpt>
      <trkpt lat="48.20733" lon="3.20108">
        <ele>176</ele>
        <time>2012-10-07T14:03:26.945Z</time>
      </trkpt>
      <trkpt lat="48.20737" lon="3.20112">
        <ele>176</ele>
        <time>2012-10-07T14:03:27.945Z</time>
      </trkpt>
      <trkpt lat="48.20742" lon="3.20116">
        <ele>176</ele>
        <time>2012-10-07T14:03:28.945Z</time>
      </trkpt>
      <trkpt lat="48.20749" lon="3.20123">
        <ele>176</ele>
        <time>2012-10-07T14:03:30.945Z</time>
      </trkpt>
      <trkpt lat="48.20754" lon="3.20127">
        <ele>173</ele>
        <time>2012-10-07T14:03:31.945Z</time>
      </trkpt>
      <trkpt lat="48.20758" lon="3.20131">
        <ele>173</ele>
        <time>2012-10-07T14:03:32.945Z</time>
      </trkpt>
      <trkpt lat="48.20762" lon="3.20136">
        <ele>173</ele>
        <time>2012-10-07T14:03:33.945Z</time>
      </trkpt>
      <trkpt lat="48.2077" lon="3.20142">
        <ele>173</ele>
        <time>2012-10-07T14:03:35.945Z</time>
      </trkpt>
      <trkpt lat="48.20774" lon="3.20144">
        <ele>173</ele>
        <time>2012-10-07T14:03:36.945Z</time>
      </trkpt>
      <trkpt lat="48.20778" lon="3.20146">
        <ele>173</ele>
        <time>2012-10-07T14:03:37.945Z</time>
      </trkpt>
      <trkpt lat="48.20782" lon="3.20148">
        <ele>173</ele>
        <time>2012-10-07T14:03:38.945Z</time>
      </trkpt>
      <trkpt lat="48.20787" lon="3.20153">
        <ele>172</ele>
        <time>2012-10-07T14:03:39.945Z</time>
      </trkpt>
      <trkpt lat="48.20791" lon="3.20155">
        <ele>172</ele>
        <time>2012-10-07T14:03:40.945Z</time>
      </trkpt>
      <trkpt lat="48.20795" lon="3.20159">
        <ele>172</ele>
        <time>2012-10-07T14:03:41.945Z</time>
      </trkpt>
      <trkpt lat="48.208" lon="3.20161">
        <ele>172</ele>
        <time>2012-10-07T14:03:42.945Z</time>
      </trkpt>
      <trkpt lat="48.20807" lon="3.20168">
        <ele>173</ele>
        <time>2012-10-07T14:03:44.945Z</time>
      </trkpt>
      <trkpt lat="48.20815" lon="3.20174">
        <ele>173</ele>
        <time>2012-10-07T14:03:46.945Z</time>
      </trkpt>
      <trkpt lat="48.20819" lon="3.20176">
        <ele>173</ele>
        <time>2012-10-07T14:03:47.945Z</time>
      </trkpt>
      <trkpt lat="48.20823" lon="3.20178">
        <ele>173</ele>
        <time>2012-10-07T14:03:48.945Z</time>
      </trkpt>
      <trkpt lat="48.20828" lon="3.20181">
        <ele>173</ele>
        <time>2012-10-07T14:03:49.945Z</time>
      </trkpt>
      <trkpt lat="48.20832" lon="3.20183">
        <ele>173</ele>
        <time>2012-10-07T14:03:50.945Z</time>
      </trkpt>
      <trkpt lat="48.20836" lon="3.20185">
        <ele>171</ele>
        <time>2012-10-07T14:03:51.945Z</time>
      </trkpt>
      <trkpt lat="48.2084" lon="3.20187">
        <ele>171</ele>
        <time>2012-10-07T14:03:52.945Z</time>
      </trkpt>
      <trkpt lat="48.20845" lon="3.20189">
        <ele>171</ele>
        <time>2012-10-07T14:03:53.945Z</time>
      </trkpt>
      <trkpt lat="48.20849" lon="3.20194">
        <ele>171</ele>
        <time>2012-10-07T14:03:54.945Z</time>
      </trkpt>
      <trkpt lat="48.20853" lon="3.20196">
        <ele>171</ele>
        <time>2012-10-07T14:03:55.945Z</time>
      </trkpt>
      <trkpt lat="48.20858" lon="3.20198">
        <ele>171</ele>
        <time>2012-10-07T14:03:56.945Z</time>
      </trkpt>
      <trkpt lat="48.20862" lon="3.202">
        <ele>171</ele>
        <time>2012-10-07T14:03:57.945Z</time>
      </trkpt>
      <trkpt lat="48.20867" lon="3.20202">
        <ele>171</ele>
        <time>2012-10-07T14:03:58.945Z</time>
      </trkpt>
      <trkpt lat="48.20872" lon="3.20206">
        <ele>171</ele>
        <time>2012-10-07T14:03:59.945Z</time>
      </trkpt>
      <trkpt lat="48.20879" lon="3.20213">
        <ele>171</ele>
        <time>2012-10-07T14:04:01.945Z</time>
      </trkpt>
      <trkpt lat="48.20883" lon="3.20217">
        <ele>171</ele>
        <time>2012-10-07T14:04:02.945Z</time>
      </trkpt>
      <trkpt lat="48.20888" lon="3.20221">
        <ele>171</ele>
        <time>2012-10-07T14:04:03.945Z</time>
      </trkpt>
      <trkpt lat="48.20892" lon="3.20226">
        <ele>171</ele>
        <time>2012-10-07T14:04:04.945Z</time>
      </trkpt>
      <trkpt lat="48.20897" lon="3.2023">
        <ele>171</ele>
        <time>2012-10-07T14:04:05.945Z</time>
      </trkpt>
      <trkpt lat="48.20903" lon="3.20236">
        <ele>171</ele>
        <time>2012-10-07T14:04:06.945Z</time>
      </trkpt>
      <trkpt lat="48.20908" lon="3.20241">
        <ele>171</ele>
        <time>2012-10-07T14:04:07.945Z</time>
      </trkpt>
      <trkpt lat="48.20913" lon="3.20247">
        <ele>172</ele>
        <time>2012-10-07T14:04:08.945Z</time>
      </trkpt>
      <trkpt lat="48.20919" lon="3.20251">
        <ele>172</ele>
        <time>2012-10-07T14:04:09.945Z</time>
      </trkpt>
      <trkpt lat="48.20923" lon="3.20256">
        <ele>172</ele>
        <time>2012-10-07T14:04:10.945Z</time>
      </trkpt>
      <trkpt lat="48.20928" lon="3.20262">
        <ele>173</ele>
        <time>2012-10-07T14:04:11.945Z</time>
      </trkpt>
      <trkpt lat="48.20933" lon="3.20266">
        <ele>173</ele>
        <time>2012-10-07T14:04:12.945Z</time>
      </trkpt>
      <trkpt lat="48.20937" lon="3.20273">
        <ele>173</ele>
        <time>2012-10-07T14:04:13.945Z</time>
      </trkpt>
      <trkpt lat="48.20941" lon="3.20279">
        <ele>173</ele>
        <time>2012-10-07T14:04:14.945Z</time>
      </trkpt>
      <trkpt lat="48.20946" lon="3.20284">
        <ele>173</ele>
        <time>2012-10-07T14:04:15.945Z</time>
      </trkpt>
      <trkpt lat="48.20951" lon="3.20288">
        <ele>173</ele>
        <time>2012-10-07T14:04:16.945Z</time>
      </trkpt>
      <trkpt lat="48.20955" lon="3.20294">
        <ele>174</ele>
        <time>2012-10-07T14:04:17.945Z</time>
      </trkpt>
      <trkpt lat="48.2096" lon="3.20299">
        <ele>174</ele>
        <time>2012-10-07T14:04:18.945Z</time>
      </trkpt>
      <trkpt lat="48.20964" lon="3.20305">
        <ele>174</ele>
        <time>2012-10-07T14:04:19.945Z</time>
      </trkpt>
      <trkpt lat="48.20968" lon="3.20309">
        <ele>174</ele>
        <time>2012-10-07T14:04:20.945Z</time>
      </trkpt>
      <trkpt lat="48.20972" lon="3.20316">
        <ele>174</ele>
        <time>2012-10-07T14:04:21.945Z</time>
      </trkpt>
      <trkpt lat="48.20976" lon="3.20322">
        <ele>174</ele>
        <time>2012-10-07T14:04:22.945Z</time>
      </trkpt>
      <trkpt lat="48.2098" lon="3.20326">
        <ele>174</ele>
        <time>2012-10-07T14:04:23.945Z</time>
      </trkpt>
      <trkpt lat="48.20992" lon="3.20344">
        <ele>176</ele>
        <time>2012-10-07T14:04:28.945Z</time>
      </trkpt>
      <trkpt lat="48.20992" lon="3.20344">
        <ele>176</ele>
        <time>2012-10-07T14:04:28.945Z</time>
      </trkpt>
      <trkpt lat="48.20992" lon="3.20344">
        <ele>176</ele>
        <time>2012-10-07T14:04:30.945Z</time>
      </trkpt>
      <trkpt lat="48.21" lon="3.20352">
        <ele>174</ele>
        <time>2012-10-07T14:04:31.945Z</time>
      </trkpt>
      <trkpt lat="48.21" lon="3.20352">
        <ele>174</ele>
        <time>2012-10-07T14:04:31.945Z</time>
      </trkpt>
      <trkpt lat="48.21" lon="3.20352">
        <ele>174</ele>
        <time>2012-10-07T14:04:41.945Z</time>
      </trkpt>
      <trkpt lat="48.20997" lon="3.20361">
        <ele>176</ele>
        <time>2012-10-07T14:04:46.945Z</time>
      </trkpt>
      <trkpt lat="48.20995" lon="3.20372">
        <ele>176</ele>
        <time>2012-10-07T14:04:49.945Z</time>
      </trkpt>
      <trkpt lat="48.20994" lon="3.2038">
        <ele>176</ele>
        <time>2012-10-07T14:04:51.945Z</time>
      </trkpt>
      <trkpt lat="48.20993" lon="3.20391">
        <ele>176</ele>
        <time>2012-10-07T14:04:53.945Z</time>
      </trkpt>
      <trkpt lat="48.20992" lon="3.20402">
        <ele>176</ele>
        <time>2012-10-07T14:04:55.945Z</time>
      </trkpt>
      <trkpt lat="48.20992" lon="3.20414">
        <ele>176</ele>
        <time>2012-10-07T14:04:57.945Z</time>
      </trkpt>
      <trkpt lat="48.20991" lon="3.20427">
        <ele>176</ele>
        <time>2012-10-07T14:04:59.945Z</time>
      </trkpt>
      <trkpt lat="48.20991" lon="3.20436">
        <ele>176</ele>
        <time>2012-10-07T14:05:00.945Z</time>
      </trkpt>
      <trkpt lat="48.20991" lon="3.20447">
        <ele>176</ele>
        <time>2012-10-07T14:05:02.945Z</time>
      </trkpt>
      <trkpt lat="48.2099" lon="3.20468">
        <ele>175</ele>
        <time>2012-10-07T14:05:08.945Z</time>
      </trkpt>
      <trkpt lat="48.20987" lon="3.20479">
        <ele>174</ele>
        <time>2012-10-07T14:05:10.945Z</time>
      </trkpt>
      <trkpt lat="48.20985" lon="3.2049">
        <ele>174</ele>
        <time>2012-10-07T14:05:12.945Z</time>
      </trkpt>
      <trkpt lat="48.20984" lon="3.20498">
        <ele>174</ele>
        <time>2012-10-07T14:05:14.945Z</time>
      </trkpt>
      <trkpt lat="48.20982" lon="3.20507">
        <ele>173</ele>
        <time>2012-10-07T14:05:16.945Z</time>
      </trkpt>
      <trkpt lat="48.20981" lon="3.20518">
        <ele>173</ele>
        <time>2012-10-07T14:05:18.945Z</time>
      </trkpt>
      <trkpt lat="48.20979" lon="3.2053">
        <ele>174</ele>
        <time>2012-10-07T14:05:20.945Z</time>
      </trkpt>
      <trkpt lat="48.20976" lon="3.20541">
        <ele>174</ele>
        <time>2012-10-07T14:05:22.945Z</time>
      </trkpt>
      <trkpt lat="48.20974" lon="3.20554">
        <ele>173</ele>
        <time>2012-10-07T14:05:24.945Z</time>
      </trkpt>
      <trkpt lat="48.20971" lon="3.2056">
        <ele>173</ele>
        <time>2012-10-07T14:05:25.945Z</time>
      </trkpt>
      <trkpt lat="48.20968" lon="3.20575">
        <ele>173</ele>
        <time>2012-10-07T14:05:27.945Z</time>
      </trkpt>
      <trkpt lat="48.20966" lon="3.20582">
        <ele>173</ele>
        <time>2012-10-07T14:05:28.945Z</time>
      </trkpt>
      <trkpt lat="48.20964" lon="3.2059">
        <ele>172</ele>
        <time>2012-10-07T14:05:29.945Z</time>
      </trkpt>
      <trkpt lat="48.20962" lon="3.20599">
        <ele>172</ele>
        <time>2012-10-07T14:05:30.945Z</time>
      </trkpt>
      <trkpt lat="48.2096" lon="3.20606">
        <ele>172</ele>
        <time>2012-10-07T14:05:31.945Z</time>
      </trkpt>
      <trkpt lat="48.20958" lon="3.20614">
        <ele>172</ele>
        <time>2012-10-07T14:05:32.945Z</time>
      </trkpt>
      <trkpt lat="48.20958" lon="3.20623">
        <ele>172</ele>
        <time>2012-10-07T14:05:33.945Z</time>
      </trkpt>
      <trkpt lat="48.20955" lon="3.20631">
        <ele>172</ele>
        <time>2012-10-07T14:05:34.945Z</time>
      </trkpt>
      <trkpt lat="48.20953" lon="3.2064">
        <ele>172</ele>
        <time>2012-10-07T14:05:35.945Z</time>
      </trkpt>
      <trkpt lat="48.20951" lon="3.2065">
        <ele>172</ele>
        <time>2012-10-07T14:05:36.945Z</time>
      </trkpt>
      <trkpt lat="48.20949" lon="3.20659">
        <ele>172</ele>
        <time>2012-10-07T14:05:37.945Z</time>
      </trkpt>
      <trkpt lat="48.20947" lon="3.2067">
        <ele>170</ele>
        <time>2012-10-07T14:05:38.945Z</time>
      </trkpt>
      <trkpt lat="48.20944" lon="3.20678">
        <ele>170</ele>
        <time>2012-10-07T14:05:39.945Z</time>
      </trkpt>
      <trkpt lat="48.20942" lon="3.20685">
        <ele>170</ele>
        <time>2012-10-07T14:05:40.945Z</time>
      </trkpt>
      <trkpt lat="48.20941" lon="3.20693">
        <ele>169</ele>
        <time>2012-10-07T14:05:41.945Z</time>
      </trkpt>
      <trkpt lat="48.20938" lon="3.20708">
        <ele>169</ele>
        <time>2012-10-07T14:05:43.945Z</time>
      </trkpt>
      <trkpt lat="48.20936" lon="3.20724">
        <ele>169</ele>
        <time>2012-10-07T14:05:45.945Z</time>
      </trkpt>
      <trkpt lat="48.20934" lon="3.2073">
        <ele>169</ele>
        <time>2012-10-07T14:05:46.945Z</time>
      </trkpt>
      <trkpt lat="48.20933" lon="3.20738">
        <ele>169</ele>
        <time>2012-10-07T14:05:47.945Z</time>
      </trkpt>
      <trkpt lat="48.20931" lon="3.20747">
        <ele>169</ele>
        <time>2012-10-07T14:05:48.945Z</time>
      </trkpt>
      <trkpt lat="48.20928" lon="3.20756">
        <ele>167</ele>
        <time>2012-10-07T14:05:49.945Z</time>
      </trkpt>
      <trkpt lat="48.20926" lon="3.20766">
        <ele>167</ele>
        <time>2012-10-07T14:05:50.945Z</time>
      </trkpt>
      <trkpt lat="48.20924" lon="3.20777">
        <ele>166</ele>
        <time>2012-10-07T14:05:51.945Z</time>
      </trkpt>
      <trkpt lat="48.20922" lon="3.20788">
        <ele>166</ele>
        <time>2012-10-07T14:05:52.945Z</time>
      </trkpt>
      <trkpt lat="48.2092" lon="3.20799">
        <ele>165</ele>
        <time>2012-10-07T14:05:53.945Z</time>
      </trkpt>
      <trkpt lat="48.20919" lon="3.20807">
        <ele>165</ele>
        <time>2012-10-07T14:05:54.945Z</time>
      </trkpt>
      <trkpt lat="48.20917" lon="3.20818">
        <ele>165</ele>
        <time>2012-10-07T14:05:55.945Z</time>
      </trkpt>
      <trkpt lat="48.20914" lon="3.20829">
        <ele>166</ele>
        <time>2012-10-07T14:05:56.945Z</time>
      </trkpt>
      <trkpt lat="48.20912" lon="3.20839">
        <ele>165</ele>
        <time>2012-10-07T14:05:57.945Z</time>
      </trkpt>
      <trkpt lat="48.2091" lon="3.2085">
        <ele>165</ele>
        <time>2012-10-07T14:05:58.945Z</time>
      </trkpt>
      <trkpt lat="48.20908" lon="3.20861">
        <ele>164</ele>
        <time>2012-10-07T14:05:59.945Z</time>
      </trkpt>
      <trkpt lat="48.20906" lon="3.20872">
        <ele>164</ele>
        <time>2012-10-07T14:06:01.945Z</time>
      </trkpt>
      <trkpt lat="48.20906" lon="3.20872">
        <ele>164</ele>
        <time>2012-10-07T14:06:01.945Z</time>
      </trkpt>
      <trkpt lat="48.20906" lon="3.20872">
        <ele>164</ele>
        <time>2012-10-07T14:06:03.945Z</time>
      </trkpt>
      <trkpt lat="48.20904" lon="3.20887">
        <ele>164</ele>
        <time>2012-10-07T14:06:04.945Z</time>
      </trkpt>
      <trkpt lat="48.20904" lon="3.20887">
        <ele>164</ele>
        <time>2012-10-07T14:06:04.945Z</time>
      </trkpt>
      <trkpt lat="48.20904" lon="3.20887">
        <ele>164</ele>
        <time>2012-10-07T14:06:06.945Z</time>
      </trkpt>
      <trkpt lat="48.20898" lon="3.20902">
        <ele>163</ele>
        <time>2012-10-07T14:06:07.945Z</time>
      </trkpt>
      <trkpt lat="48.20898" lon="3.20902">
        <ele>163</ele>
        <time>2012-10-07T14:06:07.945Z</time>
      </trkpt>
      <trkpt lat="48.20898" lon="3.20902">
        <ele>163</ele>
        <time>2012-10-07T14:06:09.945Z</time>
      </trkpt>
      <trkpt lat="48.20893" lon="3.20919">
        <ele>160</ele>
        <time>2012-10-07T14:06:10.945Z</time>
      </trkpt>
      <trkpt lat="48.20893" lon="3.20919">
        <ele>160</ele>
        <time>2012-10-07T14:06:10.945Z</time>
      </trkpt>
      <trkpt lat="48.20893" lon="3.20919">
        <ele>160</ele>
        <time>2012-10-07T14:06:12.945Z</time>
      </trkpt>
      <trkpt lat="48.20888" lon="3.20936">
        <ele>159</ele>
        <time>2012-10-07T14:06:13.945Z</time>
      </trkpt>
      <trkpt lat="48.20888" lon="3.20936">
        <ele>159</ele>
        <time>2012-10-07T14:06:13.945Z</time>
      </trkpt>
      <trkpt lat="48.20888" lon="3.20936">
        <ele>159</ele>
        <time>2012-10-07T14:06:23.945Z</time>
      </trkpt>
      <trkpt lat="48.20884" lon="3.20949">
        <ele>159</ele>
        <time>2012-10-07T14:06:24.945Z</time>
      </trkpt>
      <trkpt lat="48.20884" lon="3.20949">
        <ele>159</ele>
        <time>2012-10-07T14:06:24.945Z</time>
      </trkpt>
      <trkpt lat="48.20884" lon="3.20949">
        <ele>159</ele>
        <time>2012-10-07T14:06:28.945Z</time>
      </trkpt>
      <trkpt lat="48.20887" lon="3.20964">
        <ele>158</ele>
        <time>2012-10-07T14:06:29.945Z</time>
      </trkpt>
      <trkpt lat="48.20887" lon="3.20964">
        <ele>158</ele>
        <time>2012-10-07T14:06:29.945Z</time>
      </trkpt>
      <trkpt lat="48.20887" lon="3.20964">
        <ele>158</ele>
        <time>2012-10-07T14:06:31.945Z</time>
      </trkpt>
      <trkpt lat="48.20889" lon="3.20977">
        <ele>157</ele>
        <time>2012-10-07T14:06:32.945Z</time>
      </trkpt>
      <trkpt lat="48.20893" lon="3.20985">
        <ele>156</ele>
        <time>2012-10-07T14:06:34.945Z</time>
      </trkpt>
      <trkpt lat="48.20898" lon="3.20992">
        <ele>155</ele>
        <time>2012-10-07T14:06:36.945Z</time>
      </trkpt>
      <trkpt lat="48.20903" lon="3.20996">
        <ele>155</ele>
        <time>2012-10-07T14:06:37.945Z</time>
      </trkpt>
      <trkpt lat="48.20909" lon="3.21002">
        <ele>152</ele>
        <time>2012-10-07T14:06:39.945Z</time>
      </trkpt>
      <trkpt lat="48.20916" lon="3.21009">
        <ele>152</ele>
        <time>2012-10-07T14:06:41.945Z</time>
      </trkpt>
      <trkpt lat="48.20922" lon="3.21015">
        <ele>151</ele>
        <time>2012-10-07T14:06:43.945Z</time>
      </trkpt>
      <trkpt lat="48.20928" lon="3.21022">
        <ele>150</ele>
        <time>2012-10-07T14:06:45.945Z</time>
      </trkpt>
      <trkpt lat="48.20933" lon="3.21026">
        <ele>150</ele>
        <time>2012-10-07T14:06:46.945Z</time>
      </trkpt>
      <trkpt lat="48.2094" lon="3.21032">
        <ele>150</ele>
        <time>2012-10-07T14:06:48.945Z</time>
      </trkpt>
      <trkpt lat="48.20944" lon="3.21035">
        <ele>150</ele>
        <time>2012-10-07T14:06:49.945Z</time>
      </trkpt>
      <trkpt lat="48.2095" lon="3.21039">
        <ele>150</ele>
        <time>2012-10-07T14:06:50.945Z</time>
      </trkpt>
      <trkpt lat="48.20954" lon="3.21043">
        <ele>150</ele>
        <time>2012-10-07T14:06:51.945Z</time>
      </trkpt>
      <trkpt lat="48.20958" lon="3.21048">
        <ele>149</ele>
        <time>2012-10-07T14:06:52.945Z</time>
      </trkpt>
      <trkpt lat="48.20964" lon="3.2105">
        <ele>149</ele>
        <time>2012-10-07T14:06:53.945Z</time>
      </trkpt>
      <trkpt lat="48.20968" lon="3.21054">
        <ele>149</ele>
        <time>2012-10-07T14:06:54.945Z</time>
      </trkpt>
      <trkpt lat="48.20972" lon="3.21058">
        <ele>149</ele>
        <time>2012-10-07T14:06:55.945Z</time>
      </trkpt>
      <trkpt lat="48.20978" lon="3.21062">
        <ele>149</ele>
        <time>2012-10-07T14:06:56.945Z</time>
      </trkpt>
      <trkpt lat="48.20982" lon="3.21067">
        <ele>148</ele>
        <time>2012-10-07T14:06:57.945Z</time>
      </trkpt>
      <trkpt lat="48.20986" lon="3.21071">
        <ele>148</ele>
        <time>2012-10-07T14:06:58.945Z</time>
      </trkpt>
      <trkpt lat="48.20991" lon="3.21075">
        <ele>147</ele>
        <time>2012-10-07T14:06:59.945Z</time>
      </trkpt>
      <trkpt lat="48.20996" lon="3.2108">
        <ele>147</ele>
        <time>2012-10-07T14:07:00.945Z</time>
      </trkpt>
      <trkpt lat="48.21" lon="3.21084">
        <ele>146</ele>
        <time>2012-10-07T14:07:01.945Z</time>
      </trkpt>
      <trkpt lat="48.21005" lon="3.21086">
        <ele>146</ele>
        <time>2012-10-07T14:07:02.945Z</time>
      </trkpt>
      <trkpt lat="48.2101" lon="3.2109">
        <ele>145</ele>
        <time>2012-10-07T14:07:03.945Z</time>
      </trkpt>
      <trkpt lat="48.21014" lon="3.21095">
        <ele>145</ele>
        <time>2012-10-07T14:07:04.945Z</time>
      </trkpt>
      <trkpt lat="48.21018" lon="3.21097">
        <ele>145</ele>
        <time>2012-10-07T14:07:05.945Z</time>
      </trkpt>
      <trkpt lat="48.21023" lon="3.21101">
        <ele>145</ele>
        <time>2012-10-07T14:07:06.945Z</time>
      </trkpt>
      <trkpt lat="48.21028" lon="3.21103">
        <ele>145</ele>
        <time>2012-10-07T14:07:07.945Z</time>
      </trkpt>
      <trkpt lat="48.21032" lon="3.21108">
        <ele>145</ele>
        <time>2012-10-07T14:07:08.945Z</time>
      </trkpt>
      <trkpt lat="48.21037" lon="3.2111">
        <ele>145</ele>
        <time>2012-10-07T14:07:09.945Z</time>
      </trkpt>
      <trkpt lat="48.21041" lon="3.21114">
        <ele>144</ele>
        <time>2012-10-07T14:07:10.945Z</time>
      </trkpt>
      <trkpt lat="48.21045" lon="3.21116">
        <ele>144</ele>
        <time>2012-10-07T14:07:11.945Z</time>
      </trkpt>
      <trkpt lat="48.2105" lon="3.21123">
        <ele>144</ele>
        <time>2012-10-07T14:07:12.945Z</time>
      </trkpt>
      <trkpt lat="48.21053" lon="3.21129">
        <ele>144</ele>
        <time>2012-10-07T14:07:13.945Z</time>
      </trkpt>
      <trkpt lat="48.21059" lon="3.21142">
        <ele>144</ele>
        <time>2012-10-07T14:07:15.945Z</time>
      </trkpt>
      <trkpt lat="48.21064" lon="3.21148">
        <ele>144</ele>
        <time>2012-10-07T14:07:16.945Z</time>
      </trkpt>
      <trkpt lat="48.21067" lon="3.21155">
        <ele>143</ele>
        <time>2012-10-07T14:07:17.945Z</time>
      </trkpt>
      <trkpt lat="48.21073" lon="3.21166">
        <ele>143</ele>
        <time>2012-10-07T14:07:19.945Z</time>
      </trkpt>
      <trkpt lat="48.21076" lon="3.21172">
        <ele>144</ele>
        <time>2012-10-07T14:07:20.945Z</time>
      </trkpt>
      <trkpt lat="48.2108" lon="3.21178">
        <ele>144</ele>
        <time>2012-10-07T14:07:21.945Z</time>
      </trkpt>
      <trkpt lat="48.21084" lon="3.21183">
        <ele>142</ele>
        <time>2012-10-07T14:07:22.945Z</time>
      </trkpt>
      <trkpt lat="48.21087" lon="3.21189">
        <ele>142</ele>
        <time>2012-10-07T14:07:23.945Z</time>
      </trkpt>
      <trkpt lat="48.21092" lon="3.21196">
        <ele>142</ele>
        <time>2012-10-07T14:07:24.945Z</time>
      </trkpt>
      <trkpt lat="48.21096" lon="3.212">
        <ele>142</ele>
        <time>2012-10-07T14:07:25.945Z</time>
      </trkpt>
      <trkpt lat="48.21098" lon="3.21206">
        <ele>142</ele>
        <time>2012-10-07T14:07:26.945Z</time>
      </trkpt>
      <trkpt lat="48.21101" lon="3.21213">
        <ele>142</ele>
        <time>2012-10-07T14:07:27.945Z</time>
      </trkpt>
      <trkpt lat="48.21105" lon="3.21219">
        <ele>142</ele>
        <time>2012-10-07T14:07:28.945Z</time>
      </trkpt>
      <trkpt lat="48.21109" lon="3.21226">
        <ele>142</ele>
        <time>2012-10-07T14:07:29.945Z</time>
      </trkpt>
      <trkpt lat="48.21114" lon="3.2123">
        <ele>142</ele>
        <time>2012-10-07T14:07:30.945Z</time>
      </trkpt>
      <trkpt lat="48.21119" lon="3.21234">
        <ele>141</ele>
        <time>2012-10-07T14:07:31.945Z</time>
      </trkpt>
      <trkpt lat="48.21125" lon="3.21238">
        <ele>141</ele>
        <time>2012-10-07T14:07:32.945Z</time>
      </trkpt>
      <trkpt lat="48.21129" lon="3.21243">
        <ele>140</ele>
        <time>2012-10-07T14:07:33.945Z</time>
      </trkpt>
      <trkpt lat="48.21134" lon="3.21245">
        <ele>140</ele>
        <time>2012-10-07T14:07:34.945Z</time>
      </trkpt>
      <trkpt lat="48.21139" lon="3.21247">
        <ele>139</ele>
        <time>2012-10-07T14:07:35.945Z</time>
      </trkpt>
      <trkpt lat="48.21143" lon="3.21251">
        <ele>139</ele>
        <time>2012-10-07T14:07:36.945Z</time>
      </trkpt>
      <trkpt lat="48.21147" lon="3.21254">
        <ele>139</ele>
        <time>2012-10-07T14:07:37.945Z</time>
      </trkpt>
      <trkpt lat="48.21152" lon="3.21258">
        <ele>138</ele>
        <time>2012-10-07T14:07:38.945Z</time>
      </trkpt>
      <trkpt lat="48.21156" lon="3.2126">
        <ele>138</ele>
        <time>2012-10-07T14:07:39.945Z</time>
      </trkpt>
      <trkpt lat="48.2116" lon="3.21264">
        <ele>138</ele>
        <time>2012-10-07T14:07:40.945Z</time>
      </trkpt>
      <trkpt lat="48.21164" lon="3.21266">
        <ele>138</ele>
        <time>2012-10-07T14:07:41.945Z</time>
      </trkpt>
      <trkpt lat="48.21169" lon="3.21268">
        <ele>134</ele>
        <time>2012-10-07T14:07:42.945Z</time>
      </trkpt>
      <trkpt lat="48.21173" lon="3.21273">
        <ele>133</ele>
        <time>2012-10-07T14:07:43.945Z</time>
      </trkpt>
      <trkpt lat="48.21177" lon="3.21275">
        <ele>133</ele>
        <time>2012-10-07T14:07:44.945Z</time>
      </trkpt>
      <trkpt lat="48.21185" lon="3.21281">
        <ele>133</ele>
        <time>2012-10-07T14:07:46.945Z</time>
      </trkpt>
      <trkpt lat="48.21189" lon="3.21284">
        <ele>133</ele>
        <time>2012-10-07T14:07:47.945Z</time>
      </trkpt>
      <trkpt lat="48.21193" lon="3.21288">
        <ele>132</ele>
        <time>2012-10-07T14:07:48.945Z</time>
      </trkpt>
      <trkpt lat="48.21201" lon="3.21294">
        <ele>132</ele>
        <time>2012-10-07T14:07:50.945Z</time>
      </trkpt>
      <trkpt lat="48.21205" lon="3.21298">
        <ele>132</ele>
        <time>2012-10-07T14:07:51.945Z</time>
      </trkpt>
      <trkpt lat="48.2121" lon="3.21301">
        <ele>131</ele>
        <time>2012-10-07T14:07:52.945Z</time>
      </trkpt>
      <trkpt lat="48.21214" lon="3.21303">
        <ele>131</ele>
        <time>2012-10-07T14:07:53.945Z</time>
      </trkpt>
      <trkpt lat="48.21221" lon="3.21311">
        <ele>131</ele>
        <time>2012-10-07T14:07:55.945Z</time>
      </trkpt>
      <trkpt lat="48.21226" lon="3.21316">
        <ele>130</ele>
        <time>2012-10-07T14:07:56.945Z</time>
      </trkpt>
      <trkpt lat="48.2123" lon="3.21318">
        <ele>129</ele>
        <time>2012-10-07T14:07:57.945Z</time>
      </trkpt>
      <trkpt lat="48.2123" lon="3.21318">
        <ele>129</ele>
        <time>2012-10-07T14:07:57.945Z</time>
      </trkpt>
      <trkpt lat="48.2123" lon="3.21318">
        <ele>129</ele>
        <time>2012-10-07T14:08:01.945Z</time>
      </trkpt>
      <trkpt lat="48.21237" lon="3.21326">
        <ele>128</ele>
        <time>2012-10-07T14:08:02.945Z</time>
      </trkpt>
      <trkpt lat="48.21237" lon="3.21326">
        <ele>128</ele>
        <time>2012-10-07T14:08:02.945Z</time>
      </trkpt>
      <trkpt lat="48.21237" lon="3.21326">
        <ele>128</ele>
        <time>2012-10-07T14:08:05.945Z</time>
      </trkpt>
      <trkpt lat="48.21247" lon="3.21335">
        <ele>126</ele>
        <time>2012-10-07T14:08:06.945Z</time>
      </trkpt>
      <trkpt lat="48.21247" lon="3.21335">
        <ele>126</ele>
        <time>2012-10-07T14:08:06.945Z</time>
      </trkpt>
      <trkpt lat="48.21247" lon="3.21335">
        <ele>126</ele>
        <time>2012-10-07T14:08:08.945Z</time>
      </trkpt>
      <trkpt lat="48.21255" lon="3.21342">
        <ele>124</ele>
        <time>2012-10-07T14:08:09.945Z</time>
      </trkpt>
      <trkpt lat="48.21255" lon="3.21342">
        <ele>124</ele>
        <time>2012-10-07T14:08:09.945Z</time>
      </trkpt>
      <trkpt lat="48.21255" lon="3.21342">
        <ele>124</ele>
        <time>2012-10-07T14:08:10.945Z</time>
      </trkpt>
      <trkpt lat="48.21262" lon="3.21356">
        <ele>123</ele>
        <time>2012-10-07T14:08:11.945Z</time>
      </trkpt>
      <trkpt lat="48.21262" lon="3.21356">
        <ele>123</ele>
        <time>2012-10-07T14:08:11.945Z</time>
      </trkpt>
      <trkpt lat="48.21262" lon="3.21356">
        <ele>123</ele>
        <time>2012-10-07T14:08:12.945Z</time>
      </trkpt>
      <trkpt lat="48.21267" lon="3.21367">
        <ele>123</ele>
        <time>2012-10-07T14:08:13.945Z</time>
      </trkpt>
      <trkpt lat="48.21267" lon="3.21367">
        <ele>123</ele>
        <time>2012-10-07T14:08:13.945Z</time>
      </trkpt>
      <trkpt lat="48.21267" lon="3.21367">
        <ele>123</ele>
        <time>2012-10-07T14:08:15.945Z</time>
      </trkpt>
      <trkpt lat="48.2126" lon="3.21369">
        <ele>123</ele>
        <time>2012-10-07T14:08:28.945Z</time>
      </trkpt>
      <trkpt lat="48.21254" lon="3.21365">
        <ele>123</ele>
        <time>2012-10-07T14:08:31.945Z</time>
      </trkpt>
      <trkpt lat="48.21246" lon="3.21361">
        <ele>129</ele>
        <time>2012-10-07T14:08:34.945Z</time>
      </trkpt>
      <trkpt lat="48.21242" lon="3.21356">
        <ele>129</ele>
        <time>2012-10-07T14:08:36.945Z</time>
      </trkpt>
      <trkpt lat="48.21236" lon="3.21352">
        <ele>129</ele>
        <time>2012-10-07T14:08:38.945Z</time>
      </trkpt>
      <trkpt lat="48.21229" lon="3.21348">
        <ele>129</ele>
        <time>2012-10-07T14:08:41.945Z</time>
      </trkpt>
      <trkpt lat="48.21224" lon="3.21344">
        <ele>130</ele>
        <time>2012-10-07T14:08:43.945Z</time>
      </trkpt>
      <trkpt lat="48.21219" lon="3.21339">
        <ele>130</ele>
        <time>2012-10-07T14:08:45.945Z</time>
      </trkpt>
      <trkpt lat="48.21214" lon="3.21333">
        <ele>130</ele>
        <time>2012-10-07T14:08:47.945Z</time>
      </trkpt>
      <trkpt lat="48.2121" lon="3.21329">
        <ele>131</ele>
        <time>2012-10-07T14:08:49.945Z</time>
      </trkpt>
      <trkpt lat="48.21204" lon="3.21322">
        <ele>131</ele>
        <time>2012-10-07T14:08:51.945Z</time>
      </trkpt>
      <trkpt lat="48.21199" lon="3.21318">
        <ele>132</ele>
        <time>2012-10-07T14:08:53.945Z</time>
      </trkpt>
      <trkpt lat="48.21194" lon="3.21311">
        <ele>132</ele>
        <time>2012-10-07T14:08:55.945Z</time>
      </trkpt>
      <trkpt lat="48.2119" lon="3.21307">
        <ele>132</ele>
        <time>2012-10-07T14:08:57.945Z</time>
      </trkpt>
      <trkpt lat="48.21186" lon="3.21303">
        <ele>132</ele>
        <time>2012-10-07T14:08:59.945Z</time>
      </trkpt>
      <trkpt lat="48.21182" lon="3.21296">
        <ele>132</ele>
        <time>2012-10-07T14:09:01.945Z</time>
      </trkpt>
      <trkpt lat="48.21176" lon="3.2129">
        <ele>133</ele>
        <time>2012-10-07T14:09:04.945Z</time>
      </trkpt>
      <trkpt lat="48.21176" lon="3.2129">
        <ele>133</ele>
        <time>2012-10-07T14:09:04.945Z</time>
      </trkpt>
      <trkpt lat="48.21176" lon="3.2129">
        <ele>133</ele>
        <time>2012-10-07T14:09:08.945Z</time>
      </trkpt>
      <trkpt lat="48.2117" lon="3.21279">
        <ele>133</ele>
        <time>2012-10-07T14:09:09.945Z</time>
      </trkpt>
      <trkpt lat="48.2117" lon="3.21279">
        <ele>133</ele>
        <time>2012-10-07T14:09:09.945Z</time>
      </trkpt>
      <trkpt lat="48.2117" lon="3.21279">
        <ele>133</ele>
        <time>2012-10-07T14:09:13.945Z</time>
      </trkpt>
      <trkpt lat="48.21162" lon="3.21271">
        <ele>138</ele>
        <time>2012-10-07T14:09:14.945Z</time>
      </trkpt>
      <trkpt lat="48.21162" lon="3.21271">
        <ele>138</ele>
        <time>2012-10-07T14:09:14.945Z</time>
      </trkpt>
      <trkpt lat="48.21162" lon="3.21271">
        <ele>138</ele>
        <time>2012-10-07T14:09:18.945Z</time>
      </trkpt>
      <trkpt lat="48.21155" lon="3.2126">
        <ele>138</ele>
        <time>2012-10-07T14:09:19.945Z</time>
      </trkpt>
      <trkpt lat="48.21155" lon="3.2126">
        <ele>138</ele>
        <time>2012-10-07T14:09:19.945Z</time>
      </trkpt>
      <trkpt lat="48.21155" lon="3.2126">
        <ele>138</ele>
        <time>2012-10-07T14:09:22.945Z</time>
      </trkpt>
      <trkpt lat="48.21148" lon="3.21249">
        <ele>138</ele>
        <time>2012-10-07T14:09:23.945Z</time>
      </trkpt>
      <trkpt lat="48.21148" lon="3.21249">
        <ele>138</ele>
        <time>2012-10-07T14:09:23.945Z</time>
      </trkpt>
      <trkpt lat="48.21148" lon="3.21249">
        <ele>138</ele>
        <time>2012-10-07T14:09:25.945Z</time>
      </trkpt>
      <trkpt lat="48.21145" lon="3.21236">
        <ele>139</ele>
        <time>2012-10-07T14:09:26.945Z</time>
      </trkpt>
      <trkpt lat="48.21142" lon="3.21228">
        <ele>140</ele>
        <time>2012-10-07T14:09:28.945Z</time>
      </trkpt>
      <trkpt lat="48.21138" lon="3.21219">
        <ele>140</ele>
        <time>2012-10-07T14:09:30.945Z</time>
      </trkpt>
      <trkpt lat="48.21133" lon="3.21211">
        <ele>141</ele>
        <time>2012-10-07T14:09:32.945Z</time>
      </trkpt>
      <trkpt lat="48.2113" lon="3.21202">
        <ele>141</ele>
        <time>2012-10-07T14:09:34.945Z</time>
      </trkpt>
      <trkpt lat="48.21127" lon="3.21196">
        <ele>141</ele>
        <time>2012-10-07T14:09:36.945Z</time>
      </trkpt>
      <trkpt lat="48.21118" lon="3.2118">
        <ele>141</ele>
        <time>2012-10-07T14:09:41.945Z</time>
      </trkpt>
      <trkpt lat="48.21118" lon="3.2118">
        <ele>141</ele>
        <time>2012-10-07T14:09:41.945Z</time>
      </trkpt>
      <trkpt lat="48.21118" lon="3.2118">
        <ele>141</ele>
        <time>2012-10-07T14:09:44.945Z</time>
      </trkpt>
      <trkpt lat="48.21111" lon="3.21172">
        <ele>141</ele>
        <time>2012-10-07T14:09:45.945Z</time>
      </trkpt>
      <trkpt lat="48.21111" lon="3.21172">
        <ele>141</ele>
        <time>2012-10-07T14:09:45.945Z</time>
      </trkpt>
      <trkpt lat="48.21111" lon="3.21172">
        <ele>141</ele>
        <time>2012-10-07T14:09:48.945Z</time>
      </trkpt>
      <trkpt lat="48.21104" lon="3.21163">
        <ele>142</ele>
        <time>2012-10-07T14:09:49.945Z</time>
      </trkpt>
      <trkpt lat="48.21104" lon="3.21163">
        <ele>142</ele>
        <time>2012-10-07T14:09:49.945Z</time>
      </trkpt>
      <trkpt lat="48.21104" lon="3.21163">
        <ele>142</ele>
        <time>2012-10-07T14:09:53.945Z</time>
      </trkpt>
      <trkpt lat="48.21097" lon="3.21153">
        <ele>142</ele>
        <time>2012-10-07T14:09:54.945Z</time>
      </trkpt>
      <trkpt lat="48.21097" lon="3.21153">
        <ele>142</ele>
        <time>2012-10-07T14:09:54.945Z</time>
      </trkpt>
      <trkpt lat="48.21097" lon="3.21153">
        <ele>142</ele>
        <time>2012-10-07T14:09:59.945Z</time>
      </trkpt>
      <trkpt lat="48.21087" lon="3.21148">
        <ele>142</ele>
        <time>2012-10-07T14:10:00.945Z</time>
      </trkpt>
      <trkpt lat="48.21087" lon="3.21148">
        <ele>142</ele>
        <time>2012-10-07T14:10:00.945Z</time>
      </trkpt>
      <trkpt lat="48.21087" lon="3.21148">
        <ele>142</ele>
        <time>2012-10-07T14:10:04.945Z</time>
      </trkpt>
      <trkpt lat="48.21079" lon="3.21144">
        <ele>143</ele>
        <time>2012-10-07T14:10:05.945Z</time>
      </trkpt>
      <trkpt lat="48.21079" lon="3.21144">
        <ele>143</ele>
        <time>2012-10-07T14:10:05.945Z</time>
      </trkpt>
      <trkpt lat="48.21079" lon="3.21144">
        <ele>143</ele>
        <time>2012-10-07T14:10:08.945Z</time>
      </trkpt>
      <trkpt lat="48.21069" lon="3.21142">
        <ele>144</ele>
        <time>2012-10-07T14:10:09.945Z</time>
      </trkpt>
      <trkpt lat="48.21069" lon="3.21142">
        <ele>144</ele>
        <time>2012-10-07T14:10:09.945Z</time>
      </trkpt>
      <trkpt lat="48.21069" lon="3.21142">
        <ele>144</ele>
        <time>2012-10-07T14:10:12.945Z</time>
      </trkpt>
      <trkpt lat="48.21057" lon="3.21142">
        <ele>144</ele>
        <time>2012-10-07T14:10:13.945Z</time>
      </trkpt>
      <trkpt lat="48.21052" lon="3.2114">
        <ele>144</ele>
        <time>2012-10-07T14:10:15.945Z</time>
      </trkpt>
      <trkpt lat="48.21045" lon="3.2114">
        <ele>144</ele>
        <time>2012-10-07T14:10:17.945Z</time>
      </trkpt>
      <trkpt lat="48.21037" lon="3.21136">
        <ele>145</ele>
        <time>2012-10-07T14:10:20.945Z</time>
      </trkpt>
      <trkpt lat="48.21037" lon="3.21136">
        <ele>145</ele>
        <time>2012-10-07T14:10:20.945Z</time>
      </trkpt>
      <trkpt lat="48.21037" lon="3.21136">
        <ele>145</ele>
        <time>2012-10-07T14:10:23.945Z</time>
      </trkpt>
      <trkpt lat="48.21026" lon="3.21131">
        <ele>145</ele>
        <time>2012-10-07T14:10:24.945Z</time>
      </trkpt>
      <trkpt lat="48.21026" lon="3.21131">
        <ele>145</ele>
        <time>2012-10-07T14:10:24.945Z</time>
      </trkpt>
      <trkpt lat="48.21026" lon="3.21131">
        <ele>145</ele>
        <time>2012-10-07T14:10:27.945Z</time>
      </trkpt>
      <trkpt lat="48.21016" lon="3.21125">
        <ele>145</ele>
        <time>2012-10-07T14:10:28.945Z</time>
      </trkpt>
      <trkpt lat="48.21016" lon="3.21125">
        <ele>145</ele>
        <time>2012-10-07T14:10:28.945Z</time>
      </trkpt>
      <trkpt lat="48.21016" lon="3.21125">
        <ele>145</ele>
        <time>2012-10-07T14:10:31.945Z</time>
      </trkpt>
      <trkpt lat="48.21006" lon="3.21118">
        <ele>145</ele>
        <time>2012-10-07T14:10:32.945Z</time>
      </trkpt>
      <trkpt lat="48.21006" lon="3.21118">
        <ele>145</ele>
        <time>2012-10-07T14:10:32.945Z</time>
      </trkpt>
      <trkpt lat="48.21006" lon="3.21118">
        <ele>145</ele>
        <time>2012-10-07T14:10:38.945Z</time>
      </trkpt>
      <trkpt lat="48.20997" lon="3.21116">
        <ele>148</ele>
        <time>2012-10-07T14:10:39.945Z</time>
      </trkpt>
      <trkpt lat="48.20997" lon="3.21116">
        <ele>148</ele>
        <time>2012-10-07T14:10:39.945Z</time>
      </trkpt>
      <trkpt lat="48.20997" lon="3.21116">
        <ele>148</ele>
        <time>2012-10-07T14:10:44.945Z</time>
      </trkpt>
      <trkpt lat="48.20986" lon="3.2112">
        <ele>148</ele>
        <time>2012-10-07T14:10:45.945Z</time>
      </trkpt>
      <trkpt lat="48.20986" lon="3.2112">
        <ele>148</ele>
        <time>2012-10-07T14:10:45.945Z</time>
      </trkpt>
      <trkpt lat="48.20986" lon="3.2112">
        <ele>148</ele>
        <time>2012-10-07T14:10:49.945Z</time>
      </trkpt>
      <trkpt lat="48.20977" lon="3.21127">
        <ele>149</ele>
        <time>2012-10-07T14:10:50.945Z</time>
      </trkpt>
      <trkpt lat="48.20977" lon="3.21127">
        <ele>149</ele>
        <time>2012-10-07T14:10:50.945Z</time>
      </trkpt>
      <trkpt lat="48.20977" lon="3.21127">
        <ele>149</ele>
        <time>2012-10-07T14:10:55.945Z</time>
      </trkpt>
      <trkpt lat="48.20967" lon="3.21131">
        <ele>149</ele>
        <time>2012-10-07T14:10:56.945Z</time>
      </trkpt>
      <trkpt lat="48.20962" lon="3.21131">
        <ele>149</ele>
        <time>2012-10-07T14:11:00.945Z</time>
      </trkpt>
      <trkpt lat="48.20956" lon="3.21133">
        <ele>149</ele>
        <time>2012-10-07T14:11:03.945Z</time>
      </trkpt>
      <trkpt lat="48.2095" lon="3.21133">
        <ele>150</ele>
        <time>2012-10-07T14:11:07.945Z</time>
      </trkpt>
      <trkpt lat="48.20943" lon="3.21131">
        <ele>150</ele>
        <time>2012-10-07T14:11:11.945Z</time>
      </trkpt>
      <trkpt lat="48.20938" lon="3.21131">
        <ele>150</ele>
        <time>2012-10-07T14:11:14.945Z</time>
      </trkpt>
      <trkpt lat="48.20934" lon="3.21129">
        <ele>150</ele>
        <time>2012-10-07T14:11:17.945Z</time>
      </trkpt>
      <trkpt lat="48.20928" lon="3.21127">
        <ele>150</ele>
        <time>2012-10-07T14:11:20.945Z</time>
      </trkpt>
      <trkpt lat="48.20923" lon="3.21125">
        <ele>150</ele>
        <time>2012-10-07T14:11:23.945Z</time>
      </trkpt>
      <trkpt lat="48.20917" lon="3.21123">
        <ele>150</ele>
        <time>2012-10-07T14:11:26.945Z</time>
      </trkpt>
      <trkpt lat="48.2091" lon="3.21118">
        <ele>154</ele>
        <time>2012-10-07T14:11:29.945Z</time>
      </trkpt>
      <trkpt lat="48.20905" lon="3.21116">
        <ele>154</ele>
        <time>2012-10-07T14:11:31.945Z</time>
      </trkpt>
      <trkpt lat="48.20833" lon="3.21097">
        <ele>158</ele>
        <time>2012-10-07T14:11:33.946Z</time>
      </trkpt>
      <trkpt lat="48.20829" lon="3.21084">
        <ele>156</ele>
        <time>2012-10-07T14:11:34.946Z</time>
      </trkpt>
      <trkpt lat="48.20824" lon="3.21075">
        <ele>156</ele>
        <time>2012-10-07T14:11:35.946Z</time>
      </trkpt>
      <trkpt lat="48.20821" lon="3.21067">
        <ele>157</ele>
        <time>2012-10-07T14:11:37.946Z</time>
      </trkpt>
      <trkpt lat="48.20816" lon="3.21065">
        <ele>157</ele>
        <time>2012-10-07T14:11:39.946Z</time>
      </trkpt>
      <trkpt lat="48.20812" lon="3.21062">
        <ele>157</ele>
        <time>2012-10-07T14:11:41.946Z</time>
      </trkpt>
      <trkpt lat="48.20806" lon="3.21056">
        <ele>158</ele>
        <time>2012-10-07T14:11:44.946Z</time>
      </trkpt>
      <trkpt lat="48.208" lon="3.21052">
        <ele>158</ele>
        <time>2012-10-07T14:11:47.946Z</time>
      </trkpt>
      <trkpt lat="48.20795" lon="3.21048">
        <ele>158</ele>
        <time>2012-10-07T14:11:49.946Z</time>
      </trkpt>
      <trkpt lat="48.2079" lon="3.21043">
        <ele>158</ele>
        <time>2012-10-07T14:11:51.946Z</time>
      </trkpt>
      <trkpt lat="48.20785" lon="3.21041">
        <ele>158</ele>
        <time>2012-10-07T14:11:53.946Z</time>
      </trkpt>
      <trkpt lat="48.20778" lon="3.21037">
        <ele>159</ele>
        <time>2012-10-07T14:11:55.946Z</time>
      </trkpt>
      <trkpt lat="48.20772" lon="3.21032">
        <ele>159</ele>
        <time>2012-10-07T14:11:57.946Z</time>
      </trkpt>
      <trkpt lat="48.20766" lon="3.21026">
        <ele>159</ele>
        <time>2012-10-07T14:11:59.946Z</time>
      </trkpt>
      <trkpt lat="48.2076" lon="3.21022">
        <ele>159</ele>
        <time>2012-10-07T14:12:01.946Z</time>
      </trkpt>
      <trkpt lat="48.20754" lon="3.21018">
        <ele>159</ele>
        <time>2012-10-07T14:12:03.946Z</time>
      </trkpt>
      <trkpt lat="48.20747" lon="3.21013">
        <ele>161</ele>
        <time>2012-10-07T14:12:05.946Z</time>
      </trkpt>
      <trkpt lat="48.2074" lon="3.21009">
        <ele>161</ele>
        <time>2012-10-07T14:12:07.946Z</time>
      </trkpt>
      <trkpt lat="48.20733" lon="3.21002">
        <ele>161</ele>
        <time>2012-10-07T14:12:09.946Z</time>
      </trkpt>
      <trkpt lat="48.20726" lon="3.20998">
        <ele>161</ele>
        <time>2012-10-07T14:12:11.946Z</time>
      </trkpt>
      <trkpt lat="48.20717" lon="3.20994">
        <ele>161</ele>
        <time>2012-10-07T14:12:13.946Z</time>
      </trkpt>
      <trkpt lat="48.2071" lon="3.20987">
        <ele>161</ele>
        <time>2012-10-07T14:12:15.946Z</time>
      </trkpt>
      <trkpt lat="48.20702" lon="3.20983">
        <ele>162</ele>
        <time>2012-10-07T14:12:17.946Z</time>
      </trkpt>
      <trkpt lat="48.20694" lon="3.20981">
        <ele>162</ele>
        <time>2012-10-07T14:12:19.946Z</time>
      </trkpt>
      <trkpt lat="48.20688" lon="3.20977">
        <ele>162</ele>
        <time>2012-10-07T14:12:21.946Z</time>
      </trkpt>
      <trkpt lat="48.20682" lon="3.20974">
        <ele>162</ele>
        <time>2012-10-07T14:12:23.946Z</time>
      </trkpt>
      <trkpt lat="48.20676" lon="3.20972">
        <ele>162</ele>
        <time>2012-10-07T14:12:25.946Z</time>
      </trkpt>
      <trkpt lat="48.2067" lon="3.2097">
        <ele>162</ele>
        <time>2012-10-07T14:12:28.946Z</time>
      </trkpt>
      <trkpt lat="48.20664" lon="3.20968">
        <ele>164</ele>
        <time>2012-10-07T14:12:31.946Z</time>
      </trkpt>
      <trkpt lat="48.20659" lon="3.20968">
        <ele>164</ele>
        <time>2012-10-07T14:12:35.946Z</time>
      </trkpt>
      <trkpt lat="48.20654" lon="3.20964">
        <ele>164</ele>
        <time>2012-10-07T14:12:39.946Z</time>
      </trkpt>
      <trkpt lat="48.20648" lon="3.20962">
        <ele>165</ele>
        <time>2012-10-07T14:12:42.946Z</time>
      </trkpt>
      <trkpt lat="48.20642" lon="3.2096">
        <ele>165</ele>
        <time>2012-10-07T14:12:45.946Z</time>
      </trkpt>
      <trkpt lat="48.20634" lon="3.20957">
        <ele>165</ele>
        <time>2012-10-07T14:12:48.946Z</time>
      </trkpt>
      <trkpt lat="48.20629" lon="3.20955">
        <ele>165</ele>
        <time>2012-10-07T14:12:50.946Z</time>
      </trkpt>
      <trkpt lat="48.20622" lon="3.20951">
        <ele>165</ele>
        <time>2012-10-07T14:12:52.946Z</time>
      </trkpt>
      <trkpt lat="48.20615" lon="3.20947">
        <ele>165</ele>
        <time>2012-10-07T14:12:54.946Z</time>
      </trkpt>
      <trkpt lat="48.2061" lon="3.20944">
        <ele>166</ele>
        <time>2012-10-07T14:12:56.946Z</time>
      </trkpt>
      <trkpt lat="48.20604" lon="3.20942">
        <ele>166</ele>
        <time>2012-10-07T14:12:58.946Z</time>
      </trkpt>
      <trkpt lat="48.20597" lon="3.2094">
        <ele>166</ele>
        <time>2012-10-07T14:13:01.946Z</time>
      </trkpt>
      <trkpt lat="48.20592" lon="3.20938">
        <ele>166</ele>
        <time>2012-10-07T14:13:04.946Z</time>
      </trkpt>
      <trkpt lat="48.20586" lon="3.20936">
        <ele>166</ele>
        <time>2012-10-07T14:13:06.946Z</time>
      </trkpt>
      <trkpt lat="48.2058" lon="3.20934">
        <ele>170</ele>
        <time>2012-10-07T14:13:09.946Z</time>
      </trkpt>
      <trkpt lat="48.20573" lon="3.20934">
        <ele>170</ele>
        <time>2012-10-07T14:13:12.946Z</time>
      </trkpt>
      <trkpt lat="48.20568" lon="3.20934">
        <ele>170</ele>
        <time>2012-10-07T14:13:15.946Z</time>
      </trkpt>
      <trkpt lat="48.20562" lon="3.20932">
        <ele>171</ele>
        <time>2012-10-07T14:13:18.946Z</time>
      </trkpt>
      <trkpt lat="48.20555" lon="3.20932">
        <ele>171</ele>
        <time>2012-10-07T14:13:21.946Z</time>
      </trkpt>
      <trkpt lat="48.20549" lon="3.2093">
        <ele>171</ele>
        <time>2012-10-07T14:13:24.946Z</time>
      </trkpt>
      <trkpt lat="48.20542" lon="3.20927">
        <ele>172</ele>
        <time>2012-10-07T14:13:27.946Z</time>
      </trkpt>
      <trkpt lat="48.20536" lon="3.20925">
        <ele>172</ele>
        <time>2012-10-07T14:13:30.946Z</time>
      </trkpt>
      <trkpt lat="48.20529" lon="3.20925">
        <ele>173</ele>
        <time>2012-10-07T14:13:33.946Z</time>
      </trkpt>
      <trkpt lat="48.20524" lon="3.20923">
        <ele>173</ele>
        <time>2012-10-07T14:13:35.946Z</time>
      </trkpt>
      <trkpt lat="48.20516" lon="3.20921">
        <ele>174</ele>
        <time>2012-10-07T14:13:38.946Z</time>
      </trkpt>
      <trkpt lat="48.20509" lon="3.20921">
        <ele>174</ele>
        <time>2012-10-07T14:13:41.946Z</time>
      </trkpt>
      <trkpt lat="48.20501" lon="3.20919">
        <ele>175</ele>
        <time>2012-10-07T14:13:44.946Z</time>
      </trkpt>
      <trkpt lat="48.20494" lon="3.20917">
        <ele>176</ele>
        <time>2012-10-07T14:13:47.946Z</time>
      </trkpt>
      <trkpt lat="48.20486" lon="3.20914">
        <ele>176</ele>
        <time>2012-10-07T14:13:50.946Z</time>
      </trkpt>
      <trkpt lat="48.20482" lon="3.20912">
        <ele>176</ele>
        <time>2012-10-07T14:13:52.946Z</time>
      </trkpt>
      <trkpt lat="48.20477" lon="3.20912">
        <ele>176</ele>
        <time>2012-10-07T14:13:54.946Z</time>
      </trkpt>
      <trkpt lat="48.20469" lon="3.2091">
        <ele>177</ele>
        <time>2012-10-07T14:13:57.946Z</time>
      </trkpt>
      <trkpt lat="48.20462" lon="3.2091">
        <ele>177</ele>
        <time>2012-10-07T14:14:00.946Z</time>
      </trkpt>
      <trkpt lat="48.20456" lon="3.20908">
        <ele>178</ele>
        <time>2012-10-07T14:14:02.946Z</time>
      </trkpt>
      <trkpt lat="48.20449" lon="3.20908">
        <ele>178</ele>
        <time>2012-10-07T14:14:05.946Z</time>
      </trkpt>
      <trkpt lat="48.20444" lon="3.20908">
        <ele>178</ele>
        <time>2012-10-07T14:14:07.946Z</time>
      </trkpt>
      <trkpt lat="48.20438" lon="3.20906">
        <ele>179</ele>
        <time>2012-10-07T14:14:09.946Z</time>
      </trkpt>
      <trkpt lat="48.20431" lon="3.20904">
        <ele>180</ele>
        <time>2012-10-07T14:14:12.946Z</time>
      </trkpt>
      <trkpt lat="48.20423" lon="3.20904">
        <ele>180</ele>
        <time>2012-10-07T14:14:15.946Z</time>
      </trkpt>
      <trkpt lat="48.20417" lon="3.20902">
        <ele>180</ele>
        <time>2012-10-07T14:14:18.946Z</time>
      </trkpt>
      <trkpt lat="48.20411" lon="3.20902">
        <ele>182</ele>
        <time>2012-10-07T14:14:20.946Z</time>
      </trkpt>
      <trkpt lat="48.20405" lon="3.20897">
        <ele>181</ele>
        <time>2012-10-07T14:14:23.946Z</time>
      </trkpt>
      <trkpt lat="48.20398" lon="3.20895">
        <ele>181</ele>
        <time>2012-10-07T14:14:26.946Z</time>
      </trkpt>
      <trkpt lat="48.20392" lon="3.20893">
        <ele>181</ele>
        <time>2012-10-07T14:14:29.946Z</time>
      </trkpt>
      <trkpt lat="48.20387" lon="3.20893">
        <ele>181</ele>
        <time>2012-10-07T14:14:31.946Z</time>
      </trkpt>
      <trkpt lat="48.2038" lon="3.20895">
        <ele>181</ele>
        <time>2012-10-07T14:14:34.946Z</time>
      </trkpt>
      <trkpt lat="48.20376" lon="3.20897">
        <ele>181</ele>
        <time>2012-10-07T14:14:36.946Z</time>
      </trkpt>
      <trkpt lat="48.20369" lon="3.20897">
        <ele>181</ele>
        <time>2012-10-07T14:14:39.946Z</time>
      </trkpt>
      <trkpt lat="48.20364" lon="3.20895">
        <ele>181</ele>
        <time>2012-10-07T14:14:42.946Z</time>
      </trkpt>
      <trkpt lat="48.20359" lon="3.20893">
        <ele>181</ele>
        <time>2012-10-07T14:14:45.946Z</time>
      </trkpt>
      <trkpt lat="48.20352" lon="3.20893">
        <ele>181</ele>
        <time>2012-10-07T14:14:49.946Z</time>
      </trkpt>
      <trkpt lat="48.20347" lon="3.20893">
        <ele>181</ele>
        <time>2012-10-07T14:14:52.946Z</time>
      </trkpt>
      <trkpt lat="48.2034" lon="3.20893">
        <ele>181</ele>
        <time>2012-10-07T14:14:56.946Z</time>
      </trkpt>
      <trkpt lat="48.20336" lon="3.20891">
        <ele>181</ele>
        <time>2012-10-07T14:14:58.946Z</time>
      </trkpt>
      <trkpt lat="48.20329" lon="3.20889">
        <ele>180</ele>
        <time>2012-10-07T14:15:00.946Z</time>
      </trkpt>
      <trkpt lat="48.2032" lon="3.20887">
        <ele>180</ele>
        <time>2012-10-07T14:15:02.946Z</time>
      </trkpt>
      <trkpt lat="48.20315" lon="3.20887">
        <ele>180</ele>
        <time>2012-10-07T14:15:03.946Z</time>
      </trkpt>
      <trkpt lat="48.20305" lon="3.20889">
        <ele>180</ele>
        <time>2012-10-07T14:15:05.946Z</time>
      </trkpt>
      <trkpt lat="48.20301" lon="3.20891">
        <ele>180</ele>
        <time>2012-10-07T14:15:06.946Z</time>
      </trkpt>
      <trkpt lat="48.20295" lon="3.20893">
        <ele>179</ele>
        <time>2012-10-07T14:15:07.946Z</time>
      </trkpt>
      <trkpt lat="48.2029" lon="3.20895">
        <ele>179</ele>
        <time>2012-10-07T14:15:08.946Z</time>
      </trkpt>
      <trkpt lat="48.20286" lon="3.20899">
        <ele>179</ele>
        <time>2012-10-07T14:15:09.946Z</time>
      </trkpt>
      <trkpt lat="48.2028" lon="3.20902">
        <ele>179</ele>
        <time>2012-10-07T14:15:10.946Z</time>
      </trkpt>
      <trkpt lat="48.20276" lon="3.20904">
        <ele>179</ele>
        <time>2012-10-07T14:15:11.946Z</time>
      </trkpt>
      <trkpt lat="48.20271" lon="3.20908">
        <ele>179</ele>
        <time>2012-10-07T14:15:12.946Z</time>
      </trkpt>
      <trkpt lat="48.20266" lon="3.20912">
        <ele>179</ele>
        <time>2012-10-07T14:15:13.946Z</time>
      </trkpt>
      <trkpt lat="48.20262" lon="3.20917">
        <ele>180</ele>
        <time>2012-10-07T14:15:14.946Z</time>
      </trkpt>
      <trkpt lat="48.20259" lon="3.20927">
        <ele>180</ele>
        <time>2012-10-07T14:15:16.946Z</time>
      </trkpt>
      <trkpt lat="48.20259" lon="3.2094">
        <ele>180</ele>
        <time>2012-10-07T14:15:18.946Z</time>
      </trkpt>
      <trkpt lat="48.2026" lon="3.20951">
        <ele>180</ele>
        <time>2012-10-07T14:15:20.946Z</time>
      </trkpt>
      <trkpt lat="48.20261" lon="3.20957">
        <ele>180</ele>
        <time>2012-10-07T14:15:21.946Z</time>
      </trkpt>
      <trkpt lat="48.20265" lon="3.20968">
        <ele>181</ele>
        <time>2012-10-07T14:15:23.946Z</time>
      </trkpt>
      <trkpt lat="48.2027" lon="3.20977">
        <ele>181</ele>
        <time>2012-10-07T14:15:25.946Z</time>
      </trkpt>
      <trkpt lat="48.20272" lon="3.20983">
        <ele>181</ele>
        <time>2012-10-07T14:15:26.946Z</time>
      </trkpt>
      <trkpt lat="48.20272" lon="3.20994">
        <ele>181</ele>
        <time>2012-10-07T14:15:28.946Z</time>
      </trkpt>
      <trkpt lat="48.20272" lon="3.21002">
        <ele>181</ele>
        <time>2012-10-07T14:15:30.946Z</time>
      </trkpt>
      <trkpt lat="48.20274" lon="3.21009">
        <ele>181</ele>
        <time>2012-10-07T14:15:31.946Z</time>
      </trkpt>
      <trkpt lat="48.20278" lon="3.21018">
        <ele>181</ele>
        <time>2012-10-07T14:15:33.946Z</time>
      </trkpt>
      <trkpt lat="48.20282" lon="3.21024">
        <ele>180</ele>
        <time>2012-10-07T14:15:35.946Z</time>
      </trkpt>
      <trkpt lat="48.20288" lon="3.2103">
        <ele>180</ele>
        <time>2012-10-07T14:15:37.946Z</time>
      </trkpt>
      <trkpt lat="48.20293" lon="3.21037">
        <ele>180</ele>
        <time>2012-10-07T14:15:39.946Z</time>
      </trkpt>
      <trkpt lat="48.20295" lon="3.21048">
        <ele>180</ele>
        <time>2012-10-07T14:15:41.946Z</time>
      </trkpt>
      <trkpt lat="48.20299" lon="3.21058">
        <ele>180</ele>
        <time>2012-10-07T14:15:43.946Z</time>
      </trkpt>
      <trkpt lat="48.20302" lon="3.21069">
        <ele>180</ele>
        <time>2012-10-07T14:15:45.946Z</time>
      </trkpt>
      <trkpt lat="48.20303" lon="3.2108">
        <ele>179</ele>
        <time>2012-10-07T14:15:48.946Z</time>
      </trkpt>
      <trkpt lat="48.20299" lon="3.21084">
        <ele>178</ele>
        <time>2012-10-07T14:15:50.946Z</time>
      </trkpt>
      <trkpt lat="48.20294" lon="3.2109">
        <ele>178</ele>
        <time>2012-10-07T14:15:52.946Z</time>
      </trkpt>
      <trkpt lat="48.2029" lon="3.21097">
        <ele>178</ele>
        <time>2012-10-07T14:15:54.946Z</time>
      </trkpt>
      <trkpt lat="48.20286" lon="3.21101">
        <ele>178</ele>
        <time>2012-10-07T14:15:56.946Z</time>
      </trkpt>
      <trkpt lat="48.2028" lon="3.21103">
        <ele>178</ele>
        <time>2012-10-07T14:15:58.946Z</time>
      </trkpt>
      <trkpt lat="48.20275" lon="3.21108">
        <ele>178</ele>
        <time>2012-10-07T14:16:00.946Z</time>
      </trkpt>
      <trkpt lat="48.2027" lon="3.21112">
        <ele>178</ele>
        <time>2012-10-07T14:16:02.946Z</time>
      </trkpt>
      <trkpt lat="48.20266" lon="3.2112">
        <ele>178</ele>
        <time>2012-10-07T14:16:04.946Z</time>
      </trkpt>
      <trkpt lat="48.20263" lon="3.21131">
        <ele>178</ele>
        <time>2012-10-07T14:16:06.946Z</time>
      </trkpt>
      <trkpt lat="48.20261" lon="3.21138">
        <ele>178</ele>
        <time>2012-10-07T14:16:07.946Z</time>
      </trkpt>
      <trkpt lat="48.20259" lon="3.21148">
        <ele>178</ele>
        <time>2012-10-07T14:16:09.946Z</time>
      </trkpt>
      <trkpt lat="48.20256" lon="3.21161">
        <ele>178</ele>
        <time>2012-10-07T14:16:11.946Z</time>
      </trkpt>
      <trkpt lat="48.20252" lon="3.21168">
        <ele>178</ele>
        <time>2012-10-07T14:16:12.946Z</time>
      </trkpt>
      <trkpt lat="48.20249" lon="3.21176">
        <ele>177</ele>
        <time>2012-10-07T14:16:13.946Z</time>
      </trkpt>
      <trkpt lat="48.20247" lon="3.21187">
        <ele>176</ele>
        <time>2012-10-07T14:16:14.946Z</time>
      </trkpt>
      <trkpt lat="48.20246" lon="3.21198">
        <ele>176</ele>
        <time>2012-10-07T14:16:15.946Z</time>
      </trkpt>
      <trkpt lat="48.20245" lon="3.21206">
        <ele>176</ele>
        <time>2012-10-07T14:16:16.946Z</time>
      </trkpt>
      <trkpt lat="48.20243" lon="3.21217">
        <ele>176</ele>
        <time>2012-10-07T14:16:17.946Z</time>
      </trkpt>
      <trkpt lat="48.20242" lon="3.21228">
        <ele>176</ele>
        <time>2012-10-07T14:16:18.946Z</time>
      </trkpt>
      <trkpt lat="48.20241" lon="3.21236">
        <ele>176</ele>
        <time>2012-10-07T14:16:19.946Z</time>
      </trkpt>
      <trkpt lat="48.20238" lon="3.21249">
        <ele>176</ele>
        <time>2012-10-07T14:16:21.946Z</time>
      </trkpt>
      <trkpt lat="48.20238" lon="3.21249">
        <ele>176</ele>
        <time>2012-10-07T14:16:21.946Z</time>
      </trkpt>
      <trkpt lat="48.20238" lon="3.21249">
        <ele>176</ele>
        <time>2012-10-07T14:16:23.946Z</time>
      </trkpt>
      <trkpt lat="48.20238" lon="3.21264">
        <ele>175</ele>
        <time>2012-10-07T14:16:24.946Z</time>
      </trkpt>
      <trkpt lat="48.20238" lon="3.21264">
        <ele>175</ele>
        <time>2012-10-07T14:16:24.946Z</time>
      </trkpt>
      <trkpt lat="48.20238" lon="3.21264">
        <ele>175</ele>
        <time>2012-10-07T14:16:28.946Z</time>
      </trkpt>
      <trkpt lat="48.20241" lon="3.21277">
        <ele>175</ele>
        <time>2012-10-07T14:16:29.946Z</time>
      </trkpt>
      <trkpt lat="48.20241" lon="3.21277">
        <ele>175</ele>
        <time>2012-10-07T14:16:29.946Z</time>
      </trkpt>
      <trkpt lat="48.20241" lon="3.21277">
        <ele>175</ele>
        <time>2012-10-07T14:16:33.946Z</time>
      </trkpt>
      <trkpt lat="48.20242" lon="3.21292">
        <ele>175</ele>
        <time>2012-10-07T14:16:34.946Z</time>
      </trkpt>
      <trkpt lat="48.2024" lon="3.21305">
        <ele>174</ele>
        <time>2012-10-07T14:16:36.946Z</time>
      </trkpt>
      <trkpt lat="48.20238" lon="3.21316">
        <ele>175</ele>
        <time>2012-10-07T14:16:38.946Z</time>
      </trkpt>
      <trkpt lat="48.2023" lon="3.21333">
        <ele>174</ele>
        <time>2012-10-07T14:16:42.946Z</time>
      </trkpt>
      <trkpt lat="48.20227" lon="3.21344">
        <ele>174</ele>
        <time>2012-10-07T14:16:44.946Z</time>
      </trkpt>
      <trkpt lat="48.20224" lon="3.21359">
        <ele>174</ele>
        <time>2012-10-07T14:16:46.946Z</time>
      </trkpt>
      <trkpt lat="48.20221" lon="3.21367">
        <ele>174</ele>
        <time>2012-10-07T14:16:47.946Z</time>
      </trkpt>
      <trkpt lat="48.20219" lon="3.21376">
        <ele>173</ele>
        <time>2012-10-07T14:16:48.946Z</time>
      </trkpt>
      <trkpt lat="48.20218" lon="3.21384">
        <ele>173</ele>
        <time>2012-10-07T14:16:49.946Z</time>
      </trkpt>
      <trkpt lat="48.20216" lon="3.21391">
        <ele>173</ele>
        <time>2012-10-07T14:16:50.946Z</time>
      </trkpt>
      <trkpt lat="48.20215" lon="3.21399">
        <ele>173</ele>
        <time>2012-10-07T14:16:51.946Z</time>
      </trkpt>
      <trkpt lat="48.20212" lon="3.21414">
        <ele>173</ele>
        <time>2012-10-07T14:16:53.946Z</time>
      </trkpt>
      <trkpt lat="48.20208" lon="3.21429">
        <ele>174</ele>
        <time>2012-10-07T14:16:55.946Z</time>
      </trkpt>
      <trkpt lat="48.20206" lon="3.21442">
        <ele>175</ele>
        <time>2012-10-07T14:16:57.946Z</time>
      </trkpt>
      <trkpt lat="48.20204" lon="3.21451">
        <ele>175</ele>
        <time>2012-10-07T14:16:58.946Z</time>
      </trkpt>
      <trkpt lat="48.20202" lon="3.21464">
        <ele>175</ele>
        <time>2012-10-07T14:17:00.946Z</time>
      </trkpt>
      <trkpt lat="48.20201" lon="3.21474">
        <ele>175</ele>
        <time>2012-10-07T14:17:02.946Z</time>
      </trkpt>
      <trkpt lat="48.202" lon="3.21487">
        <ele>175</ele>
        <time>2012-10-07T14:17:04.946Z</time>
      </trkpt>
      <trkpt lat="48.20198" lon="3.215">
        <ele>176</ele>
        <time>2012-10-07T14:17:06.946Z</time>
      </trkpt>
      <trkpt lat="48.20197" lon="3.21513">
        <ele>176</ele>
        <time>2012-10-07T14:17:08.946Z</time>
      </trkpt>
      <trkpt lat="48.20195" lon="3.21526">
        <ele>176</ele>
        <time>2012-10-07T14:17:10.946Z</time>
      </trkpt>
      <trkpt lat="48.20192" lon="3.21539">
        <ele>176</ele>
        <time>2012-10-07T14:17:12.946Z</time>
      </trkpt>
      <trkpt lat="48.20191" lon="3.21552">
        <ele>177</ele>
        <time>2012-10-07T14:17:14.946Z</time>
      </trkpt>
      <trkpt lat="48.20189" lon="3.21562">
        <ele>177</ele>
        <time>2012-10-07T14:17:16.946Z</time>
      </trkpt>
      <trkpt lat="48.20188" lon="3.21573">
        <ele>177</ele>
        <time>2012-10-07T14:17:18.946Z</time>
      </trkpt>
      <trkpt lat="48.20187" lon="3.21584">
        <ele>178</ele>
        <time>2012-10-07T14:17:20.946Z</time>
      </trkpt>
      <trkpt lat="48.20185" lon="3.21595">
        <ele>178</ele>
        <time>2012-10-07T14:17:22.946Z</time>
      </trkpt>
      <trkpt lat="48.20184" lon="3.21603">
        <ele>178</ele>
        <time>2012-10-07T14:17:24.946Z</time>
      </trkpt>
      <trkpt lat="48.20182" lon="3.21614">
        <ele>178</ele>
        <time>2012-10-07T14:17:26.946Z</time>
      </trkpt>
      <trkpt lat="48.20181" lon="3.21627">
        <ele>178</ele>
        <time>2012-10-07T14:17:28.946Z</time>
      </trkpt>
      <trkpt lat="48.20177" lon="3.2164">
        <ele>179</ele>
        <time>2012-10-07T14:17:30.946Z</time>
      </trkpt>
      <trkpt lat="48.20175" lon="3.21653">
        <ele>179</ele>
        <time>2012-10-07T14:17:32.946Z</time>
      </trkpt>
      <trkpt lat="48.20174" lon="3.21663">
        <ele>180</ele>
        <time>2012-10-07T14:17:34.946Z</time>
      </trkpt>
      <trkpt lat="48.20172" lon="3.21672">
        <ele>180</ele>
        <time>2012-10-07T14:17:36.946Z</time>
      </trkpt>
      <trkpt lat="48.20171" lon="3.21683">
        <ele>179</ele>
        <time>2012-10-07T14:17:38.946Z</time>
      </trkpt>
      <trkpt lat="48.2017" lon="3.21691">
        <ele>179</ele>
        <time>2012-10-07T14:17:40.946Z</time>
      </trkpt>
      <trkpt lat="48.20169" lon="3.21702">
        <ele>179</ele>
        <time>2012-10-07T14:17:42.946Z</time>
      </trkpt>
      <trkpt lat="48.20168" lon="3.21713">
        <ele>179</ele>
        <time>2012-10-07T14:17:44.946Z</time>
      </trkpt>
      <trkpt lat="48.20167" lon="3.21726">
        <ele>178</ele>
        <time>2012-10-07T14:17:46.946Z</time>
      </trkpt>
      <trkpt lat="48.20164" lon="3.21736">
        <ele>179</ele>
        <time>2012-10-07T14:17:48.946Z</time>
      </trkpt>
      <trkpt lat="48.20163" lon="3.21747">
        <ele>179</ele>
        <time>2012-10-07T14:17:50.946Z</time>
      </trkpt>
      <trkpt lat="48.20163" lon="3.21758">
        <ele>179</ele>
        <time>2012-10-07T14:17:52.946Z</time>
      </trkpt>
      <trkpt lat="48.20162" lon="3.21771">
        <ele>178</ele>
        <time>2012-10-07T14:17:54.946Z</time>
      </trkpt>
      <trkpt lat="48.2016" lon="3.21784">
        <ele>178</ele>
        <time>2012-10-07T14:17:56.946Z</time>
      </trkpt>
      <trkpt lat="48.20159" lon="3.21792">
        <ele>178</ele>
        <time>2012-10-07T14:17:57.946Z</time>
      </trkpt>
      <trkpt lat="48.20157" lon="3.21798">
        <ele>178</ele>
        <time>2012-10-07T14:17:58.946Z</time>
      </trkpt>
      <trkpt lat="48.20155" lon="3.21807">
        <ele>178</ele>
        <time>2012-10-07T14:17:59.946Z</time>
      </trkpt>
      <trkpt lat="48.20154" lon="3.21816">
        <ele>179</ele>
        <time>2012-10-07T14:18:00.946Z</time>
      </trkpt>
      <trkpt lat="48.20152" lon="3.21824">
        <ele>179</ele>
        <time>2012-10-07T14:18:01.946Z</time>
      </trkpt>
      <trkpt lat="48.2015" lon="3.21833">
        <ele>179</ele>
        <time>2012-10-07T14:18:02.946Z</time>
      </trkpt>
      <trkpt lat="48.20148" lon="3.21841">
        <ele>177</ele>
        <time>2012-10-07T14:18:03.946Z</time>
      </trkpt>
      <trkpt lat="48.20146" lon="3.2185">
        <ele>176</ele>
        <time>2012-10-07T14:18:04.946Z</time>
      </trkpt>
      <trkpt lat="48.20144" lon="3.21859">
        <ele>175</ele>
        <time>2012-10-07T14:18:05.946Z</time>
      </trkpt>
      <trkpt lat="48.20143" lon="3.21867">
        <ele>175</ele>
        <time>2012-10-07T14:18:06.946Z</time>
      </trkpt>
      <trkpt lat="48.2014" lon="3.21878">
        <ele>174</ele>
        <time>2012-10-07T14:18:07.946Z</time>
      </trkpt>
      <trkpt lat="48.20137" lon="3.21889">
        <ele>174</ele>
        <time>2012-10-07T14:18:08.946Z</time>
      </trkpt>
      <trkpt lat="48.20132" lon="3.21899">
        <ele>173</ele>
        <time>2012-10-07T14:18:09.946Z</time>
      </trkpt>
      <trkpt lat="48.20128" lon="3.2191">
        <ele>173</ele>
        <time>2012-10-07T14:18:10.946Z</time>
      </trkpt>
      <trkpt lat="48.20124" lon="3.21919">
        <ele>170</ele>
        <time>2012-10-07T14:18:11.946Z</time>
      </trkpt>
      <trkpt lat="48.2012" lon="3.21929">
        <ele>170</ele>
        <time>2012-10-07T14:18:12.946Z</time>
      </trkpt>
      <trkpt lat="48.20116" lon="3.2194">
        <ele>170</ele>
        <time>2012-10-07T14:18:13.946Z</time>
      </trkpt>
      <trkpt lat="48.20112" lon="3.21949">
        <ele>170</ele>
        <time>2012-10-07T14:18:14.946Z</time>
      </trkpt>
      <trkpt lat="48.20109" lon="3.21959">
        <ele>169</ele>
        <time>2012-10-07T14:18:15.946Z</time>
      </trkpt>
      <trkpt lat="48.20104" lon="3.21968">
        <ele>169</ele>
        <time>2012-10-07T14:18:16.946Z</time>
      </trkpt>
      <trkpt lat="48.20101" lon="3.21977">
        <ele>169</ele>
        <time>2012-10-07T14:18:17.946Z</time>
      </trkpt>
      <trkpt lat="48.20097" lon="3.21985">
        <ele>169</ele>
        <time>2012-10-07T14:18:18.946Z</time>
      </trkpt>
      <trkpt lat="48.20094" lon="3.21994">
        <ele>169</ele>
        <time>2012-10-07T14:18:19.946Z</time>
      </trkpt>
      <trkpt lat="48.20092" lon="3.22002">
        <ele>169</ele>
        <time>2012-10-07T14:18:20.946Z</time>
      </trkpt>
      <trkpt lat="48.20088" lon="3.22011">
        <ele>169</ele>
        <time>2012-10-07T14:18:21.946Z</time>
      </trkpt>
      <trkpt lat="48.20086" lon="3.2202">
        <ele>169</ele>
        <time>2012-10-07T14:18:22.946Z</time>
      </trkpt>
      <trkpt lat="48.20084" lon="3.22028">
        <ele>169</ele>
        <time>2012-10-07T14:18:23.946Z</time>
      </trkpt>
      <trkpt lat="48.20082" lon="3.22037">
        <ele>168</ele>
        <time>2012-10-07T14:18:24.946Z</time>
      </trkpt>
      <trkpt lat="48.2008" lon="3.22045">
        <ele>168</ele>
        <time>2012-10-07T14:18:25.946Z</time>
      </trkpt>
      <trkpt lat="48.20078" lon="3.22054">
        <ele>168</ele>
        <time>2012-10-07T14:18:26.946Z</time>
      </trkpt>
      <trkpt lat="48.20076" lon="3.22062">
        <ele>168</ele>
        <time>2012-10-07T14:18:27.946Z</time>
      </trkpt>
      <trkpt lat="48.20074" lon="3.22071">
        <ele>169</ele>
        <time>2012-10-07T14:18:28.946Z</time>
      </trkpt>
      <trkpt lat="48.20072" lon="3.22078">
        <ele>169</ele>
        <time>2012-10-07T14:18:29.946Z</time>
      </trkpt>
      <trkpt lat="48.2007" lon="3.22086">
        <ele>169</ele>
        <time>2012-10-07T14:18:30.946Z</time>
      </trkpt>
      <trkpt lat="48.20068" lon="3.22095">
        <ele>168</ele>
        <time>2012-10-07T14:18:31.946Z</time>
      </trkpt>
      <trkpt lat="48.20066" lon="3.22103">
        <ele>168</ele>
        <time>2012-10-07T14:18:32.946Z</time>
      </trkpt>
      <trkpt lat="48.20063" lon="3.22118">
        <ele>167</ele>
        <time>2012-10-07T14:18:34.946Z</time>
      </trkpt>
      <trkpt lat="48.20062" lon="3.22127">
        <ele>167</ele>
        <time>2012-10-07T14:18:35.946Z</time>
      </trkpt>
      <trkpt lat="48.20059" lon="3.22135">
        <ele>167</ele>
        <time>2012-10-07T14:18:36.946Z</time>
      </trkpt>
      <trkpt lat="48.20057" lon="3.22142">
        <ele>167</ele>
        <time>2012-10-07T14:18:37.946Z</time>
      </trkpt>
      <trkpt lat="48.20055" lon="3.2215">
        <ele>167</ele>
        <time>2012-10-07T14:18:38.946Z</time>
      </trkpt>
      <trkpt lat="48.20054" lon="3.22159">
        <ele>167</ele>
        <time>2012-10-07T14:18:39.946Z</time>
      </trkpt>
      <trkpt lat="48.20052" lon="3.22168">
        <ele>165</ele>
        <time>2012-10-07T14:18:40.946Z</time>
      </trkpt>
      <trkpt lat="48.2005" lon="3.22176">
        <ele>165</ele>
        <time>2012-10-07T14:18:41.946Z</time>
      </trkpt>
      <trkpt lat="48.20048" lon="3.22185">
        <ele>165</ele>
        <time>2012-10-07T14:18:42.946Z</time>
      </trkpt>
      <trkpt lat="48.20045" lon="3.22193">
        <ele>165</ele>
        <time>2012-10-07T14:18:43.946Z</time>
      </trkpt>
      <trkpt lat="48.20043" lon="3.22202">
        <ele>165</ele>
        <time>2012-10-07T14:18:44.946Z</time>
      </trkpt>
      <trkpt lat="48.20041" lon="3.2221">
        <ele>164</ele>
        <time>2012-10-07T14:18:45.946Z</time>
      </trkpt>
      <trkpt lat="48.20039" lon="3.22219">
        <ele>164</ele>
        <time>2012-10-07T14:18:46.946Z</time>
      </trkpt>
      <trkpt lat="48.20036" lon="3.22228">
        <ele>164</ele>
        <time>2012-10-07T14:18:47.946Z</time>
      </trkpt>
      <trkpt lat="48.20032" lon="3.22236">
        <ele>164</ele>
        <time>2012-10-07T14:18:48.946Z</time>
      </trkpt>
      <trkpt lat="48.2003" lon="3.22245">
        <ele>164</ele>
        <time>2012-10-07T14:18:49.946Z</time>
      </trkpt>
      <trkpt lat="48.20027" lon="3.22253">
        <ele>162</ele>
        <time>2012-10-07T14:18:50.946Z</time>
      </trkpt>
      <trkpt lat="48.20024" lon="3.22264">
        <ele>162</ele>
        <time>2012-10-07T14:18:51.946Z</time>
      </trkpt>
      <trkpt lat="48.20021" lon="3.22273">
        <ele>162</ele>
        <time>2012-10-07T14:18:52.946Z</time>
      </trkpt>
      <trkpt lat="48.20018" lon="3.22284">
        <ele>162</ele>
        <time>2012-10-07T14:18:53.946Z</time>
      </trkpt>
      <trkpt lat="48.20014" lon="3.22292">
        <ele>162</ele>
        <time>2012-10-07T14:18:54.946Z</time>
      </trkpt>
      <trkpt lat="48.20011" lon="3.22303">
        <ele>162</ele>
        <time>2012-10-07T14:18:55.946Z</time>
      </trkpt>
      <trkpt lat="48.20008" lon="3.22311">
        <ele>162</ele>
        <time>2012-10-07T14:18:56.946Z</time>
      </trkpt>
      <trkpt lat="48.20005" lon="3.22322">
        <ele>161</ele>
        <time>2012-10-07T14:18:57.946Z</time>
      </trkpt>
      <trkpt lat="48.20001" lon="3.22333">
        <ele>161</ele>
        <time>2012-10-07T14:18:58.946Z</time>
      </trkpt>
      <trkpt lat="48.19997" lon="3.22341">
        <ele>160</ele>
        <time>2012-10-07T14:18:59.946Z</time>
      </trkpt>
      <trkpt lat="48.19994" lon="3.22352">
        <ele>160</ele>
        <time>2012-10-07T14:19:00.946Z</time>
      </trkpt>
      <trkpt lat="48.1999" lon="3.22363">
        <ele>160</ele>
        <time>2012-10-07T14:19:01.946Z</time>
      </trkpt>
      <trkpt lat="48.19986" lon="3.22371">
        <ele>159</ele>
        <time>2012-10-07T14:19:02.946Z</time>
      </trkpt>
      <trkpt lat="48.19982" lon="3.22382">
        <ele>159</ele>
        <time>2012-10-07T14:19:03.946Z</time>
      </trkpt>
      <trkpt lat="48.19978" lon="3.22391">
        <ele>159</ele>
        <time>2012-10-07T14:19:04.946Z</time>
      </trkpt>
      <trkpt lat="48.19974" lon="3.22402">
        <ele>159</ele>
        <time>2012-10-07T14:19:05.946Z</time>
      </trkpt>
      <trkpt lat="48.19969" lon="3.2241">
        <ele>159</ele>
        <time>2012-10-07T14:19:06.946Z</time>
      </trkpt>
      <trkpt lat="48.19966" lon="3.22419">
        <ele>159</ele>
        <time>2012-10-07T14:19:07.946Z</time>
      </trkpt>
      <trkpt lat="48.19962" lon="3.22429">
        <ele>159</ele>
        <time>2012-10-07T14:19:08.946Z</time>
      </trkpt>
      <trkpt lat="48.19957" lon="3.22438">
        <ele>159</ele>
        <time>2012-10-07T14:19:09.946Z</time>
      </trkpt>
      <trkpt lat="48.19954" lon="3.22446">
        <ele>159</ele>
        <time>2012-10-07T14:19:10.946Z</time>
      </trkpt>
      <trkpt lat="48.1995" lon="3.22455">
        <ele>159</ele>
        <time>2012-10-07T14:19:11.946Z</time>
      </trkpt>
      <trkpt lat="48.19947" lon="3.22464">
        <ele>159</ele>
        <time>2012-10-07T14:19:12.946Z</time>
      </trkpt>
      <trkpt lat="48.19942" lon="3.22472">
        <ele>159</ele>
        <time>2012-10-07T14:19:13.946Z</time>
      </trkpt>
      <trkpt lat="48.19939" lon="3.22481">
        <ele>159</ele>
        <time>2012-10-07T14:19:14.946Z</time>
      </trkpt>
      <trkpt lat="48.19936" lon="3.22487">
        <ele>159</ele>
        <time>2012-10-07T14:19:15.946Z</time>
      </trkpt>
      <trkpt lat="48.19933" lon="3.22496">
        <ele>160</ele>
        <time>2012-10-07T14:19:16.946Z</time>
      </trkpt>
      <trkpt lat="48.1993" lon="3.22502">
        <ele>160</ele>
        <time>2012-10-07T14:19:17.946Z</time>
      </trkpt>
      <trkpt lat="48.19926" lon="3.22509">
        <ele>160</ele>
        <time>2012-10-07T14:19:18.946Z</time>
      </trkpt>
      <trkpt lat="48.19923" lon="3.22517">
        <ele>160</ele>
        <time>2012-10-07T14:19:19.946Z</time>
      </trkpt>
      <trkpt lat="48.1992" lon="3.22526">
        <ele>160</ele>
        <time>2012-10-07T14:19:20.946Z</time>
      </trkpt>
      <trkpt lat="48.19917" lon="3.22532">
        <ele>160</ele>
        <time>2012-10-07T14:19:21.946Z</time>
      </trkpt>
      <trkpt lat="48.19914" lon="3.22539">
        <ele>160</ele>
        <time>2012-10-07T14:19:22.946Z</time>
      </trkpt>
      <trkpt lat="48.1991" lon="3.22545">
        <ele>160</ele>
        <time>2012-10-07T14:19:23.946Z</time>
      </trkpt>
      <trkpt lat="48.19908" lon="3.22554">
        <ele>160</ele>
        <time>2012-10-07T14:19:24.946Z</time>
      </trkpt>
      <trkpt lat="48.19905" lon="3.2256">
        <ele>160</ele>
        <time>2012-10-07T14:19:25.946Z</time>
      </trkpt>
      <trkpt lat="48.19902" lon="3.22567">
        <ele>160</ele>
        <time>2012-10-07T14:19:26.946Z</time>
      </trkpt>
      <trkpt lat="48.19898" lon="3.22573">
        <ele>160</ele>
        <time>2012-10-07T14:19:27.946Z</time>
      </trkpt>
      <trkpt lat="48.19895" lon="3.2258">
        <ele>160</ele>
        <time>2012-10-07T14:19:28.946Z</time>
      </trkpt>
      <trkpt lat="48.19893" lon="3.22588">
        <ele>162</ele>
        <time>2012-10-07T14:19:29.946Z</time>
      </trkpt>
      <trkpt lat="48.1989" lon="3.22595">
        <ele>161</ele>
        <time>2012-10-07T14:19:30.946Z</time>
      </trkpt>
      <trkpt lat="48.19888" lon="3.22603">
        <ele>161</ele>
        <time>2012-10-07T14:19:31.946Z</time>
      </trkpt>
      <trkpt lat="48.19886" lon="3.22612">
        <ele>162</ele>
        <time>2012-10-07T14:19:32.946Z</time>
      </trkpt>
      <trkpt lat="48.19884" lon="3.2262">
        <ele>162</ele>
        <time>2012-10-07T14:19:33.946Z</time>
      </trkpt>
      <trkpt lat="48.19883" lon="3.22629">
        <ele>162</ele>
        <time>2012-10-07T14:19:34.946Z</time>
      </trkpt>
      <trkpt lat="48.19883" lon="3.22638">
        <ele>162</ele>
        <time>2012-10-07T14:19:35.946Z</time>
      </trkpt>
      <trkpt lat="48.19882" lon="3.22646">
        <ele>162</ele>
        <time>2012-10-07T14:19:36.946Z</time>
      </trkpt>
      <trkpt lat="48.19881" lon="3.22661">
        <ele>162</ele>
        <time>2012-10-07T14:19:38.946Z</time>
      </trkpt>
      <trkpt lat="48.1988" lon="3.22676">
        <ele>164</ele>
        <time>2012-10-07T14:19:40.946Z</time>
      </trkpt>
      <trkpt lat="48.19879" lon="3.22689">
        <ele>164</ele>
        <time>2012-10-07T14:19:42.946Z</time>
      </trkpt>
      <trkpt lat="48.19879" lon="3.22698">
        <ele>164</ele>
        <time>2012-10-07T14:19:43.946Z</time>
      </trkpt>
      <trkpt lat="48.19878" lon="3.2271">
        <ele>164</ele>
        <time>2012-10-07T14:19:45.946Z</time>
      </trkpt>
      <trkpt lat="48.19879" lon="3.22726">
        <ele>164</ele>
        <time>2012-10-07T14:19:47.946Z</time>
      </trkpt>
      <trkpt lat="48.19879" lon="3.22736">
        <ele>164</ele>
        <time>2012-10-07T14:19:49.946Z</time>
      </trkpt>
      <trkpt lat="48.19878" lon="3.22749">
        <ele>165</ele>
        <time>2012-10-07T14:19:51.946Z</time>
      </trkpt>
      <trkpt lat="48.19877" lon="3.2276">
        <ele>167</ele>
        <time>2012-10-07T14:19:53.946Z</time>
      </trkpt>
      <trkpt lat="48.19874" lon="3.22773">
        <ele>167</ele>
        <time>2012-10-07T14:19:55.946Z</time>
      </trkpt>
      <trkpt lat="48.1987" lon="3.22786">
        <ele>167</ele>
        <time>2012-10-07T14:19:57.946Z</time>
      </trkpt>
      <trkpt lat="48.19866" lon="3.22798">
        <ele>167</ele>
        <time>2012-10-07T14:19:59.946Z</time>
      </trkpt>
      <trkpt lat="48.19864" lon="3.22805">
        <ele>167</ele>
        <time>2012-10-07T14:20:00.946Z</time>
      </trkpt>
      <trkpt lat="48.19861" lon="3.22818">
        <ele>167</ele>
        <time>2012-10-07T14:20:02.946Z</time>
      </trkpt>
      <trkpt lat="48.19859" lon="3.22824">
        <ele>167</ele>
        <time>2012-10-07T14:20:03.946Z</time>
      </trkpt>
      <trkpt lat="48.19857" lon="3.22833">
        <ele>167</ele>
        <time>2012-10-07T14:20:04.946Z</time>
      </trkpt>
      <trkpt lat="48.19854" lon="3.22839">
        <ele>167</ele>
        <time>2012-10-07T14:20:05.946Z</time>
      </trkpt>
      <trkpt lat="48.19852" lon="3.22848">
        <ele>167</ele>
        <time>2012-10-07T14:20:06.946Z</time>
      </trkpt>
      <trkpt lat="48.19849" lon="3.22856">
        <ele>167</ele>
        <time>2012-10-07T14:20:08.946Z</time>
      </trkpt>
      <trkpt lat="48.1985" lon="3.22869">
        <ele>167</ele>
        <time>2012-10-07T14:20:10.946Z</time>
      </trkpt>
      <trkpt lat="48.19852" lon="3.22884">
        <ele>167</ele>
        <time>2012-10-07T14:20:12.946Z</time>
      </trkpt>
      <trkpt lat="48.19854" lon="3.22899">
        <ele>167</ele>
        <time>2012-10-07T14:20:14.946Z</time>
      </trkpt>
      <trkpt lat="48.19856" lon="3.22908">
        <ele>167</ele>
        <time>2012-10-07T14:20:15.946Z</time>
      </trkpt>
      <trkpt lat="48.19857" lon="3.22916">
        <ele>167</ele>
        <time>2012-10-07T14:20:16.946Z</time>
      </trkpt>
      <trkpt lat="48.19857" lon="3.22927">
        <ele>166</ele>
        <time>2012-10-07T14:20:17.946Z</time>
      </trkpt>
      <trkpt lat="48.19858" lon="3.22936">
        <ele>166</ele>
        <time>2012-10-07T14:20:18.946Z</time>
      </trkpt>
      <trkpt lat="48.19859" lon="3.22944">
        <ele>166</ele>
        <time>2012-10-07T14:20:19.946Z</time>
      </trkpt>
      <trkpt lat="48.1986" lon="3.22953">
        <ele>166</ele>
        <time>2012-10-07T14:20:20.946Z</time>
      </trkpt>
      <trkpt lat="48.19861" lon="3.22962">
        <ele>166</ele>
        <time>2012-10-07T14:20:21.946Z</time>
      </trkpt>
      <trkpt lat="48.19861" lon="3.2297">
        <ele>165</ele>
        <time>2012-10-07T14:20:22.946Z</time>
      </trkpt>
      <trkpt lat="48.19863" lon="3.22979">
        <ele>165</ele>
        <time>2012-10-07T14:20:23.946Z</time>
      </trkpt>
      <trkpt lat="48.19864" lon="3.22987">
        <ele>165</ele>
        <time>2012-10-07T14:20:24.946Z</time>
      </trkpt>
      <trkpt lat="48.19865" lon="3.23002">
        <ele>164</ele>
        <time>2012-10-07T14:20:26.946Z</time>
      </trkpt>
      <trkpt lat="48.19866" lon="3.23015">
        <ele>164</ele>
        <time>2012-10-07T14:20:28.946Z</time>
      </trkpt>
      <trkpt lat="48.19868" lon="3.23026">
        <ele>164</ele>
        <time>2012-10-07T14:20:30.946Z</time>
      </trkpt>
      <trkpt lat="48.1987" lon="3.23037">
        <ele>164</ele>
        <time>2012-10-07T14:20:32.946Z</time>
      </trkpt>
      <trkpt lat="48.19872" lon="3.23045">
        <ele>164</ele>
        <time>2012-10-07T14:20:34.946Z</time>
      </trkpt>
      <trkpt lat="48.19874" lon="3.23054">
        <ele>164</ele>
        <time>2012-10-07T14:20:36.946Z</time>
      </trkpt>
      <trkpt lat="48.19877" lon="3.23062">
        <ele>164</ele>
        <time>2012-10-07T14:20:38.946Z</time>
      </trkpt>
      <trkpt lat="48.19879" lon="3.23073">
        <ele>164</ele>
        <time>2012-10-07T14:20:40.946Z</time>
      </trkpt>
      <trkpt lat="48.19882" lon="3.23086">
        <ele>164</ele>
        <time>2012-10-07T14:20:42.946Z</time>
      </trkpt>
      <trkpt lat="48.19884" lon="3.23097">
        <ele>164</ele>
        <time>2012-10-07T14:20:44.946Z</time>
      </trkpt>
      <trkpt lat="48.19887" lon="3.23107">
        <ele>164</ele>
        <time>2012-10-07T14:20:46.946Z</time>
      </trkpt>
      <trkpt lat="48.19888" lon="3.23114">
        <ele>164</ele>
        <time>2012-10-07T14:20:47.946Z</time>
      </trkpt>
      <trkpt lat="48.19891" lon="3.23125">
        <ele>164</ele>
        <time>2012-10-07T14:20:49.946Z</time>
      </trkpt>
      <trkpt lat="48.19894" lon="3.23133">
        <ele>164</ele>
        <time>2012-10-07T14:20:51.946Z</time>
      </trkpt>
      <trkpt lat="48.19898" lon="3.23144">
        <ele>164</ele>
        <time>2012-10-07T14:20:53.946Z</time>
      </trkpt>
      <trkpt lat="48.19903" lon="3.23152">
        <ele>165</ele>
        <time>2012-10-07T14:20:55.946Z</time>
      </trkpt>
      <trkpt lat="48.19907" lon="3.23161">
        <ele>165</ele>
        <time>2012-10-07T14:20:57.946Z</time>
      </trkpt>
      <trkpt lat="48.19911" lon="3.23172">
        <ele>165</ele>
        <time>2012-10-07T14:20:59.946Z</time>
      </trkpt>
      <trkpt lat="48.19914" lon="3.23182">
        <ele>165</ele>
        <time>2012-10-07T14:21:01.946Z</time>
      </trkpt>
      <trkpt lat="48.19919" lon="3.23193">
        <ele>166</ele>
        <time>2012-10-07T14:21:03.946Z</time>
      </trkpt>
      <trkpt lat="48.19921" lon="3.232">
        <ele>166</ele>
        <time>2012-10-07T14:21:04.946Z</time>
      </trkpt>
      <trkpt lat="48.19924" lon="3.23213">
        <ele>166</ele>
        <time>2012-10-07T14:21:06.946Z</time>
      </trkpt>
      <trkpt lat="48.19925" lon="3.23225">
        <ele>166</ele>
        <time>2012-10-07T14:21:08.946Z</time>
      </trkpt>
      <trkpt lat="48.19926" lon="3.23232">
        <ele>166</ele>
        <time>2012-10-07T14:21:09.946Z</time>
      </trkpt>
      <trkpt lat="48.19928" lon="3.23245">
        <ele>166</ele>
        <time>2012-10-07T14:21:11.946Z</time>
      </trkpt>
      <trkpt lat="48.1993" lon="3.23253">
        <ele>166</ele>
        <time>2012-10-07T14:21:12.946Z</time>
      </trkpt>
      <trkpt lat="48.19931" lon="3.23262">
        <ele>166</ele>
        <time>2012-10-07T14:21:13.946Z</time>
      </trkpt>
      <trkpt lat="48.19932" lon="3.23268">
        <ele>166</ele>
        <time>2012-10-07T14:21:14.946Z</time>
      </trkpt>
      <trkpt lat="48.19933" lon="3.23277">
        <ele>165</ele>
        <time>2012-10-07T14:21:15.946Z</time>
      </trkpt>
      <trkpt lat="48.19934" lon="3.23286">
        <ele>165</ele>
        <time>2012-10-07T14:21:16.946Z</time>
      </trkpt>
      <trkpt lat="48.19935" lon="3.23294">
        <ele>165</ele>
        <time>2012-10-07T14:21:17.946Z</time>
      </trkpt>
      <trkpt lat="48.19937" lon="3.23301">
        <ele>165</ele>
        <time>2012-10-07T14:21:18.946Z</time>
      </trkpt>
      <trkpt lat="48.19939" lon="3.23309">
        <ele>165</ele>
        <time>2012-10-07T14:21:19.946Z</time>
      </trkpt>
      <trkpt lat="48.19941" lon="3.23316">
        <ele>165</ele>
        <time>2012-10-07T14:21:20.946Z</time>
      </trkpt>
      <trkpt lat="48.19944" lon="3.23324">
        <ele>165</ele>
        <time>2012-10-07T14:21:21.946Z</time>
      </trkpt>
      <trkpt lat="48.19946" lon="3.23331">
        <ele>165</ele>
        <time>2012-10-07T14:21:22.946Z</time>
      </trkpt>
      <trkpt lat="48.19948" lon="3.23339">
        <ele>163</ele>
        <time>2012-10-07T14:21:23.946Z</time>
      </trkpt>
      <trkpt lat="48.19951" lon="3.23348">
        <ele>163</ele>
        <time>2012-10-07T14:21:24.946Z</time>
      </trkpt>
      <trkpt lat="48.19953" lon="3.23358">
        <ele>163</ele>
        <time>2012-10-07T14:21:25.946Z</time>
      </trkpt>
      <trkpt lat="48.19954" lon="3.23367">
        <ele>163</ele>
        <time>2012-10-07T14:21:26.946Z</time>
      </trkpt>
      <trkpt lat="48.19956" lon="3.23376">
        <ele>163</ele>
        <time>2012-10-07T14:21:27.946Z</time>
      </trkpt>
      <trkpt lat="48.19958" lon="3.23386">
        <ele>163</ele>
        <time>2012-10-07T14:21:28.946Z</time>
      </trkpt>
      <trkpt lat="48.19961" lon="3.23395">
        <ele>163</ele>
        <time>2012-10-07T14:21:29.946Z</time>
      </trkpt>
      <trkpt lat="48.19962" lon="3.23406">
        <ele>163</ele>
        <time>2012-10-07T14:21:30.946Z</time>
      </trkpt>
      <trkpt lat="48.19964" lon="3.23412">
        <ele>163</ele>
        <time>2012-10-07T14:21:31.946Z</time>
      </trkpt>
      <trkpt lat="48.19967" lon="3.23421">
        <ele>163</ele>
        <time>2012-10-07T14:21:32.946Z</time>
      </trkpt>
      <trkpt lat="48.1997" lon="3.23427">
        <ele>163</ele>
        <time>2012-10-07T14:21:33.946Z</time>
      </trkpt>
      <trkpt lat="48.19972" lon="3.23434">
        <ele>163</ele>
        <time>2012-10-07T14:21:34.946Z</time>
      </trkpt>
      <trkpt lat="48.19975" lon="3.2344">
        <ele>163</ele>
        <time>2012-10-07T14:21:35.946Z</time>
      </trkpt>
      <trkpt lat="48.19978" lon="3.23446">
        <ele>163</ele>
        <time>2012-10-07T14:21:36.946Z</time>
      </trkpt>
      <trkpt lat="48.19981" lon="3.23453">
        <ele>163</ele>
        <time>2012-10-07T14:21:37.946Z</time>
      </trkpt>
      <trkpt lat="48.19983" lon="3.23462">
        <ele>163</ele>
        <time>2012-10-07T14:21:38.946Z</time>
      </trkpt>
      <trkpt lat="48.19986" lon="3.2347">
        <ele>163</ele>
        <time>2012-10-07T14:21:39.946Z</time>
      </trkpt>
      <trkpt lat="48.1999" lon="3.23479">
        <ele>164</ele>
        <time>2012-10-07T14:21:40.946Z</time>
      </trkpt>
      <trkpt lat="48.19992" lon="3.23487">
        <ele>164</ele>
        <time>2012-10-07T14:21:41.946Z</time>
      </trkpt>
      <trkpt lat="48.19995" lon="3.23496">
        <ele>165</ele>
        <time>2012-10-07T14:21:42.946Z</time>
      </trkpt>
      <trkpt lat="48.19997" lon="3.23506">
        <ele>165</ele>
        <time>2012-10-07T14:21:43.946Z</time>
      </trkpt>
      <trkpt lat="48.2" lon="3.23515">
        <ele>165</ele>
        <time>2012-10-07T14:21:44.946Z</time>
      </trkpt>
      <trkpt lat="48.20004" lon="3.23524">
        <ele>164</ele>
        <time>2012-10-07T14:21:45.946Z</time>
      </trkpt>
      <trkpt lat="48.20007" lon="3.23532">
        <ele>164</ele>
        <time>2012-10-07T14:21:46.946Z</time>
      </trkpt>
      <trkpt lat="48.20009" lon="3.23541">
        <ele>164</ele>
        <time>2012-10-07T14:21:47.946Z</time>
      </trkpt>
      <trkpt lat="48.20012" lon="3.23552">
        <ele>164</ele>
        <time>2012-10-07T14:21:48.946Z</time>
      </trkpt>
      <trkpt lat="48.20015" lon="3.2356">
        <ele>164</ele>
        <time>2012-10-07T14:21:49.946Z</time>
      </trkpt>
      <trkpt lat="48.20018" lon="3.23569">
        <ele>164</ele>
        <time>2012-10-07T14:21:50.946Z</time>
      </trkpt>
      <trkpt lat="48.20021" lon="3.23577">
        <ele>164</ele>
        <time>2012-10-07T14:21:51.946Z</time>
      </trkpt>
      <trkpt lat="48.20023" lon="3.23588">
        <ele>164</ele>
        <time>2012-10-07T14:21:52.946Z</time>
      </trkpt>
      <trkpt lat="48.20026" lon="3.23597">
        <ele>164</ele>
        <time>2012-10-07T14:21:53.946Z</time>
      </trkpt>
      <trkpt lat="48.20028" lon="3.23607">
        <ele>163</ele>
        <time>2012-10-07T14:21:54.946Z</time>
      </trkpt>
      <trkpt lat="48.2003" lon="3.23616">
        <ele>163</ele>
        <time>2012-10-07T14:21:55.946Z</time>
      </trkpt>
      <trkpt lat="48.20032" lon="3.23625">
        <ele>163</ele>
        <time>2012-10-07T14:21:56.946Z</time>
      </trkpt>
      <trkpt lat="48.20035" lon="3.23633">
        <ele>163</ele>
        <time>2012-10-07T14:21:57.946Z</time>
      </trkpt>
      <trkpt lat="48.20037" lon="3.23642">
        <ele>163</ele>
        <time>2012-10-07T14:21:58.946Z</time>
      </trkpt>
      <trkpt lat="48.20038" lon="3.2365">
        <ele>163</ele>
        <time>2012-10-07T14:21:59.946Z</time>
      </trkpt>
      <trkpt lat="48.2004" lon="3.23659">
        <ele>163</ele>
        <time>2012-10-07T14:22:00.946Z</time>
      </trkpt>
      <trkpt lat="48.20042" lon="3.23668">
        <ele>163</ele>
        <time>2012-10-07T14:22:01.946Z</time>
      </trkpt>
      <trkpt lat="48.20044" lon="3.23674">
        <ele>163</ele>
        <time>2012-10-07T14:22:02.946Z</time>
      </trkpt>
      <trkpt lat="48.20046" lon="3.23682">
        <ele>163</ele>
        <time>2012-10-07T14:22:03.946Z</time>
      </trkpt>
      <trkpt lat="48.20049" lon="3.23691">
        <ele>163</ele>
        <time>2012-10-07T14:22:04.946Z</time>
      </trkpt>
      <trkpt lat="48.20051" lon="3.237">
        <ele>163</ele>
        <time>2012-10-07T14:22:05.946Z</time>
      </trkpt>
      <trkpt lat="48.20053" lon="3.23708">
        <ele>163</ele>
        <time>2012-10-07T14:22:06.946Z</time>
      </trkpt>
      <trkpt lat="48.20055" lon="3.23717">
        <ele>163</ele>
        <time>2012-10-07T14:22:07.946Z</time>
      </trkpt>
      <trkpt lat="48.20057" lon="3.23723">
        <ele>164</ele>
        <time>2012-10-07T14:22:08.946Z</time>
      </trkpt>
      <trkpt lat="48.20059" lon="3.23732">
        <ele>164</ele>
        <time>2012-10-07T14:22:09.946Z</time>
      </trkpt>
      <trkpt lat="48.20062" lon="3.23738">
        <ele>164</ele>
        <time>2012-10-07T14:22:10.946Z</time>
      </trkpt>
      <trkpt lat="48.20065" lon="3.23745">
        <ele>164</ele>
        <time>2012-10-07T14:22:11.946Z</time>
      </trkpt>
      <trkpt lat="48.20067" lon="3.23753">
        <ele>165</ele>
        <time>2012-10-07T14:22:12.946Z</time>
      </trkpt>
      <trkpt lat="48.2007" lon="3.2376">
        <ele>165</ele>
        <time>2012-10-07T14:22:13.946Z</time>
      </trkpt>
      <trkpt lat="48.20072" lon="3.23768">
        <ele>165</ele>
        <time>2012-10-07T14:22:14.946Z</time>
      </trkpt>
      <trkpt lat="48.20074" lon="3.23777">
        <ele>165</ele>
        <time>2012-10-07T14:22:15.946Z</time>
      </trkpt>
      <trkpt lat="48.20078" lon="3.23783">
        <ele>165</ele>
        <time>2012-10-07T14:22:16.946Z</time>
      </trkpt>
      <trkpt lat="48.2008" lon="3.23792">
        <ele>165</ele>
        <time>2012-10-07T14:22:17.946Z</time>
      </trkpt>
      <trkpt lat="48.20082" lon="3.238">
        <ele>166</ele>
        <time>2012-10-07T14:22:18.946Z</time>
      </trkpt>
      <trkpt lat="48.20085" lon="3.23807">
        <ele>167</ele>
        <time>2012-10-07T14:22:19.946Z</time>
      </trkpt>
      <trkpt lat="48.20087" lon="3.23816">
        <ele>167</ele>
        <time>2012-10-07T14:22:20.946Z</time>
      </trkpt>
      <trkpt lat="48.20089" lon="3.23822">
        <ele>168</ele>
        <time>2012-10-07T14:22:21.946Z</time>
      </trkpt>
      <trkpt lat="48.20092" lon="3.23831">
        <ele>168</ele>
        <time>2012-10-07T14:22:22.946Z</time>
      </trkpt>
      <trkpt lat="48.20094" lon="3.23837">
        <ele>168</ele>
        <time>2012-10-07T14:22:23.946Z</time>
      </trkpt>
      <trkpt lat="48.20096" lon="3.23846">
        <ele>168</ele>
        <time>2012-10-07T14:22:24.946Z</time>
      </trkpt>
      <trkpt lat="48.20098" lon="3.23852">
        <ele>168</ele>
        <time>2012-10-07T14:22:25.946Z</time>
      </trkpt>
      <trkpt lat="48.201" lon="3.23858">
        <ele>168</ele>
        <time>2012-10-07T14:22:26.946Z</time>
      </trkpt>
      <trkpt lat="48.20102" lon="3.23865">
        <ele>167</ele>
        <time>2012-10-07T14:22:27.946Z</time>
      </trkpt>
      <trkpt lat="48.20104" lon="3.23874">
        <ele>167</ele>
        <time>2012-10-07T14:22:28.946Z</time>
      </trkpt>
      <trkpt lat="48.20107" lon="3.2388">
        <ele>167</ele>
        <time>2012-10-07T14:22:29.946Z</time>
      </trkpt>
      <trkpt lat="48.20109" lon="3.23888">
        <ele>167</ele>
        <time>2012-10-07T14:22:30.946Z</time>
      </trkpt>
      <trkpt lat="48.20111" lon="3.23895">
        <ele>167</ele>
        <time>2012-10-07T14:22:31.946Z</time>
      </trkpt>
      <trkpt lat="48.20113" lon="3.23901">
        <ele>167</ele>
        <time>2012-10-07T14:22:32.946Z</time>
      </trkpt>
      <trkpt lat="48.20115" lon="3.2391">
        <ele>167</ele>
        <time>2012-10-07T14:22:33.946Z</time>
      </trkpt>
      <trkpt lat="48.20117" lon="3.23916">
        <ele>167</ele>
        <time>2012-10-07T14:22:34.946Z</time>
      </trkpt>
      <trkpt lat="48.2012" lon="3.23925">
        <ele>165</ele>
        <time>2012-10-07T14:22:35.946Z</time>
      </trkpt>
      <trkpt lat="48.20122" lon="3.23931">
        <ele>165</ele>
        <time>2012-10-07T14:22:36.946Z</time>
      </trkpt>
      <trkpt lat="48.20125" lon="3.23938">
        <ele>165</ele>
        <time>2012-10-07T14:22:37.946Z</time>
      </trkpt>
      <trkpt lat="48.20127" lon="3.23946">
        <ele>164</ele>
        <time>2012-10-07T14:22:38.946Z</time>
      </trkpt>
      <trkpt lat="48.2013" lon="3.23955">
        <ele>164</ele>
        <time>2012-10-07T14:22:39.946Z</time>
      </trkpt>
      <trkpt lat="48.20132" lon="3.23961">
        <ele>164</ele>
        <time>2012-10-07T14:22:40.946Z</time>
      </trkpt>
      <trkpt lat="48.20136" lon="3.2397">
        <ele>164</ele>
        <time>2012-10-07T14:22:41.946Z</time>
      </trkpt>
      <trkpt lat="48.20139" lon="3.23976">
        <ele>164</ele>
        <time>2012-10-07T14:22:42.946Z</time>
      </trkpt>
      <trkpt lat="48.20142" lon="3.23983">
        <ele>164</ele>
        <time>2012-10-07T14:22:43.946Z</time>
      </trkpt>
      <trkpt lat="48.20145" lon="3.23992">
        <ele>164</ele>
        <time>2012-10-07T14:22:44.946Z</time>
      </trkpt>
      <trkpt lat="48.20148" lon="3.23998">
        <ele>164</ele>
        <time>2012-10-07T14:22:45.946Z</time>
      </trkpt>
      <trkpt lat="48.20152" lon="3.24006">
        <ele>162</ele>
        <time>2012-10-07T14:22:46.946Z</time>
      </trkpt>
      <trkpt lat="48.20155" lon="3.24015">
        <ele>162</ele>
        <time>2012-10-07T14:22:47.946Z</time>
      </trkpt>
      <trkpt lat="48.20159" lon="3.24022">
        <ele>162</ele>
        <time>2012-10-07T14:22:48.946Z</time>
      </trkpt>
      <trkpt lat="48.20162" lon="3.2403">
        <ele>161</ele>
        <time>2012-10-07T14:22:49.946Z</time>
      </trkpt>
      <trkpt lat="48.20166" lon="3.24039">
        <ele>161</ele>
        <time>2012-10-07T14:22:50.946Z</time>
      </trkpt>
      <trkpt lat="48.20169" lon="3.24045">
        <ele>165</ele>
        <time>2012-10-07T14:22:51.946Z</time>
      </trkpt>
      <trkpt lat="48.20172" lon="3.24054">
        <ele>164</ele>
        <time>2012-10-07T14:22:52.946Z</time>
      </trkpt>
      <trkpt lat="48.20174" lon="3.24062">
        <ele>164</ele>
        <time>2012-10-07T14:22:53.946Z</time>
      </trkpt>
      <trkpt lat="48.20177" lon="3.24071">
        <ele>164</ele>
        <time>2012-10-07T14:22:54.946Z</time>
      </trkpt>
      <trkpt lat="48.2018" lon="3.2408">
        <ele>164</ele>
        <time>2012-10-07T14:22:55.946Z</time>
      </trkpt>
      <trkpt lat="48.20183" lon="3.24088">
        <ele>163</ele>
        <time>2012-10-07T14:22:56.946Z</time>
      </trkpt>
      <trkpt lat="48.20185" lon="3.24094">
        <ele>163</ele>
        <time>2012-10-07T14:22:57.946Z</time>
      </trkpt>
      <trkpt lat="48.20187" lon="3.24103">
        <ele>163</ele>
        <time>2012-10-07T14:22:58.946Z</time>
      </trkpt>
      <trkpt lat="48.20189" lon="3.2411">
        <ele>163</ele>
        <time>2012-10-07T14:22:59.946Z</time>
      </trkpt>
      <trkpt lat="48.20191" lon="3.24118">
        <ele>163</ele>
        <time>2012-10-07T14:23:00.946Z</time>
      </trkpt>
      <trkpt lat="48.20194" lon="3.24124">
        <ele>163</ele>
        <time>2012-10-07T14:23:01.946Z</time>
      </trkpt>
      <trkpt lat="48.20196" lon="3.24131">
        <ele>163</ele>
        <time>2012-10-07T14:23:02.946Z</time>
      </trkpt>
      <trkpt lat="48.20198" lon="3.24137">
        <ele>163</ele>
        <time>2012-10-07T14:23:03.946Z</time>
      </trkpt>
      <trkpt lat="48.20199" lon="3.24146">
        <ele>163</ele>
        <time>2012-10-07T14:23:04.946Z</time>
      </trkpt>
      <trkpt lat="48.20201" lon="3.24152">
        <ele>163</ele>
        <time>2012-10-07T14:23:05.946Z</time>
      </trkpt>
      <trkpt lat="48.20203" lon="3.24159">
        <ele>163</ele>
        <time>2012-10-07T14:23:06.946Z</time>
      </trkpt>
      <trkpt lat="48.20205" lon="3.24165">
        <ele>163</ele>
        <time>2012-10-07T14:23:07.946Z</time>
      </trkpt>
      <trkpt lat="48.20207" lon="3.24172">
        <ele>162</ele>
        <time>2012-10-07T14:23:08.946Z</time>
      </trkpt>
      <trkpt lat="48.2021" lon="3.24178">
        <ele>162</ele>
        <time>2012-10-07T14:23:09.946Z</time>
      </trkpt>
      <trkpt lat="48.20212" lon="3.24185">
        <ele>163</ele>
        <time>2012-10-07T14:23:10.946Z</time>
      </trkpt>
      <trkpt lat="48.20214" lon="3.24191">
        <ele>163</ele>
        <time>2012-10-07T14:23:11.946Z</time>
      </trkpt>
      <trkpt lat="48.20216" lon="3.24198">
        <ele>163</ele>
        <time>2012-10-07T14:23:12.946Z</time>
      </trkpt>
      <trkpt lat="48.20219" lon="3.24204">
        <ele>163</ele>
        <time>2012-10-07T14:23:13.946Z</time>
      </trkpt>
      <trkpt lat="48.20221" lon="3.2421">
        <ele>163</ele>
        <time>2012-10-07T14:23:14.946Z</time>
      </trkpt>
      <trkpt lat="48.20225" lon="3.24217">
        <ele>163</ele>
        <time>2012-10-07T14:23:15.946Z</time>
      </trkpt>
      <trkpt lat="48.20227" lon="3.24223">
        <ele>163</ele>
        <time>2012-10-07T14:23:16.946Z</time>
      </trkpt>
      <trkpt lat="48.20229" lon="3.2423">
        <ele>163</ele>
        <time>2012-10-07T14:23:17.946Z</time>
      </trkpt>
      <trkpt lat="48.20232" lon="3.24236">
        <ele>163</ele>
        <time>2012-10-07T14:23:18.946Z</time>
      </trkpt>
      <trkpt lat="48.20234" lon="3.24242">
        <ele>164</ele>
        <time>2012-10-07T14:23:19.946Z</time>
      </trkpt>
      <trkpt lat="48.2024" lon="3.24253">
        <ele>164</ele>
        <time>2012-10-07T14:23:21.946Z</time>
      </trkpt>
      <trkpt lat="48.20242" lon="3.2426">
        <ele>164</ele>
        <time>2012-10-07T14:23:22.946Z</time>
      </trkpt>
      <trkpt lat="48.20244" lon="3.24266">
        <ele>163</ele>
        <time>2012-10-07T14:23:23.946Z</time>
      </trkpt>
      <trkpt lat="48.20247" lon="3.24273">
        <ele>163</ele>
        <time>2012-10-07T14:23:24.946Z</time>
      </trkpt>
      <trkpt lat="48.2025" lon="3.24279">
        <ele>165</ele>
        <time>2012-10-07T14:23:25.946Z</time>
      </trkpt>
      <trkpt lat="48.20252" lon="3.24286">
        <ele>165</ele>
        <time>2012-10-07T14:23:26.946Z</time>
      </trkpt>
      <trkpt lat="48.20259" lon="3.24296">
        <ele>165</ele>
        <time>2012-10-07T14:23:28.946Z</time>
      </trkpt>
      <trkpt lat="48.20262" lon="3.24303">
        <ele>165</ele>
        <time>2012-10-07T14:23:29.946Z</time>
      </trkpt>
      <trkpt lat="48.20264" lon="3.24311">
        <ele>165</ele>
        <time>2012-10-07T14:23:30.946Z</time>
      </trkpt>
      <trkpt lat="48.20268" lon="3.24318">
        <ele>165</ele>
        <time>2012-10-07T14:23:31.946Z</time>
      </trkpt>
      <trkpt lat="48.20271" lon="3.24324">
        <ele>165</ele>
        <time>2012-10-07T14:23:32.946Z</time>
      </trkpt>
      <trkpt lat="48.20274" lon="3.2433">
        <ele>165</ele>
        <time>2012-10-07T14:23:33.946Z</time>
      </trkpt>
      <trkpt lat="48.20277" lon="3.24337">
        <ele>165</ele>
        <time>2012-10-07T14:23:34.946Z</time>
      </trkpt>
      <trkpt lat="48.20282" lon="3.24348">
        <ele>165</ele>
        <time>2012-10-07T14:23:36.946Z</time>
      </trkpt>
      <trkpt lat="48.20287" lon="3.24356">
        <ele>165</ele>
        <time>2012-10-07T14:23:38.946Z</time>
      </trkpt>
      <trkpt lat="48.20291" lon="3.24365">
        <ele>165</ele>
        <time>2012-10-07T14:23:40.946Z</time>
      </trkpt>
      <trkpt lat="48.20295" lon="3.24376">
        <ele>165</ele>
        <time>2012-10-07T14:23:42.946Z</time>
      </trkpt>
      <trkpt lat="48.203" lon="3.24386">
        <ele>165</ele>
        <time>2012-10-07T14:23:44.946Z</time>
      </trkpt>
      <trkpt lat="48.20306" lon="3.24397">
        <ele>165</ele>
        <time>2012-10-07T14:23:46.946Z</time>
      </trkpt>
      <trkpt lat="48.20309" lon="3.24406">
        <ele>165</ele>
        <time>2012-10-07T14:23:47.946Z</time>
      </trkpt>
      <trkpt lat="48.20313" lon="3.24412">
        <ele>165</ele>
        <time>2012-10-07T14:23:48.946Z</time>
      </trkpt>
      <trkpt lat="48.20317" lon="3.24421">
        <ele>164</ele>
        <time>2012-10-07T14:23:49.946Z</time>
      </trkpt>
      <trkpt lat="48.2032" lon="3.24429">
        <ele>164</ele>
        <time>2012-10-07T14:23:50.946Z</time>
      </trkpt>
      <trkpt lat="48.20323" lon="3.24438">
        <ele>163</ele>
        <time>2012-10-07T14:23:51.946Z</time>
      </trkpt>
      <trkpt lat="48.20328" lon="3.24446">
        <ele>163</ele>
        <time>2012-10-07T14:23:52.946Z</time>
      </trkpt>
      <trkpt lat="48.20331" lon="3.24457">
        <ele>162</ele>
        <time>2012-10-07T14:23:53.946Z</time>
      </trkpt>
      <trkpt lat="48.20336" lon="3.24464">
        <ele>164</ele>
        <time>2012-10-07T14:23:54.946Z</time>
      </trkpt>
      <trkpt lat="48.2034" lon="3.24472">
        <ele>164</ele>
        <time>2012-10-07T14:23:55.946Z</time>
      </trkpt>
      <trkpt lat="48.20346" lon="3.24479">
        <ele>163</ele>
        <time>2012-10-07T14:23:56.946Z</time>
      </trkpt>
      <trkpt lat="48.20351" lon="3.24487">
        <ele>163</ele>
        <time>2012-10-07T14:23:57.946Z</time>
      </trkpt>
      <trkpt lat="48.20357" lon="3.24494">
        <ele>163</ele>
        <time>2012-10-07T14:23:58.946Z</time>
      </trkpt>
      <trkpt lat="48.20362" lon="3.245">
        <ele>161</ele>
        <time>2012-10-07T14:23:59.946Z</time>
      </trkpt>
      <trkpt lat="48.20367" lon="3.24509">
        <ele>160</ele>
        <time>2012-10-07T14:24:00.946Z</time>
      </trkpt>
      <trkpt lat="48.20373" lon="3.24517">
        <ele>160</ele>
        <time>2012-10-07T14:24:01.946Z</time>
      </trkpt>
      <trkpt lat="48.20378" lon="3.24526">
        <ele>160</ele>
        <time>2012-10-07T14:24:02.946Z</time>
      </trkpt>
      <trkpt lat="48.20383" lon="3.24534">
        <ele>160</ele>
        <time>2012-10-07T14:24:03.946Z</time>
      </trkpt>
      <trkpt lat="48.2039" lon="3.24545">
        <ele>160</ele>
        <time>2012-10-07T14:24:04.946Z</time>
      </trkpt>
      <trkpt lat="48.20396" lon="3.24554">
        <ele>159</ele>
        <time>2012-10-07T14:24:05.946Z</time>
      </trkpt>
      <trkpt lat="48.20404" lon="3.24562">
        <ele>159</ele>
        <time>2012-10-07T14:24:06.946Z</time>
      </trkpt>
      <trkpt lat="48.2041" lon="3.24573">
        <ele>159</ele>
        <time>2012-10-07T14:24:07.946Z</time>
      </trkpt>
      <trkpt lat="48.20418" lon="3.24582">
        <ele>158</ele>
        <time>2012-10-07T14:24:08.946Z</time>
      </trkpt>
      <trkpt lat="48.20424" lon="3.24592">
        <ele>157</ele>
        <time>2012-10-07T14:24:09.946Z</time>
      </trkpt>
      <trkpt lat="48.20431" lon="3.24603">
        <ele>156</ele>
        <time>2012-10-07T14:24:10.946Z</time>
      </trkpt>
      <trkpt lat="48.20436" lon="3.24614">
        <ele>155</ele>
        <time>2012-10-07T14:24:11.946Z</time>
      </trkpt>
      <trkpt lat="48.20442" lon="3.24624">
        <ele>155</ele>
        <time>2012-10-07T14:24:12.946Z</time>
      </trkpt>
      <trkpt lat="48.20448" lon="3.24635">
        <ele>154</ele>
        <time>2012-10-07T14:24:13.946Z</time>
      </trkpt>
      <trkpt lat="48.20452" lon="3.24646">
        <ele>154</ele>
        <time>2012-10-07T14:24:14.946Z</time>
      </trkpt>
      <trkpt lat="48.20457" lon="3.24654">
        <ele>154</ele>
        <time>2012-10-07T14:24:15.946Z</time>
      </trkpt>
      <trkpt lat="48.20462" lon="3.24663">
        <ele>154</ele>
        <time>2012-10-07T14:24:16.946Z</time>
      </trkpt>
      <trkpt lat="48.20466" lon="3.24674">
        <ele>150</ele>
        <time>2012-10-07T14:24:17.946Z</time>
      </trkpt>
      <trkpt lat="48.20471" lon="3.24682">
        <ele>150</ele>
        <time>2012-10-07T14:24:18.946Z</time>
      </trkpt>
      <trkpt lat="48.20477" lon="3.24689">
        <ele>150</ele>
        <time>2012-10-07T14:24:19.946Z</time>
      </trkpt>
      <trkpt lat="48.20481" lon="3.24697">
        <ele>149</ele>
        <time>2012-10-07T14:24:20.946Z</time>
      </trkpt>
      <trkpt lat="48.20486" lon="3.24706">
        <ele>149</ele>
        <time>2012-10-07T14:24:21.946Z</time>
      </trkpt>
      <trkpt lat="48.20492" lon="3.24715">
        <ele>149</ele>
        <time>2012-10-07T14:24:22.946Z</time>
      </trkpt>
      <trkpt lat="48.20498" lon="3.24721">
        <ele>148</ele>
        <time>2012-10-07T14:24:23.946Z</time>
      </trkpt>
      <trkpt lat="48.20504" lon="3.24728">
        <ele>150</ele>
        <time>2012-10-07T14:24:24.946Z</time>
      </trkpt>
      <trkpt lat="48.2051" lon="3.24734">
        <ele>150</ele>
        <time>2012-10-07T14:24:25.946Z</time>
      </trkpt>
      <trkpt lat="48.20515" lon="3.2474">
        <ele>150</ele>
        <time>2012-10-07T14:24:26.946Z</time>
      </trkpt>
      <trkpt lat="48.20522" lon="3.24745">
        <ele>150</ele>
        <time>2012-10-07T14:24:27.946Z</time>
      </trkpt>
      <trkpt lat="48.20527" lon="3.24749">
        <ele>150</ele>
        <time>2012-10-07T14:24:28.946Z</time>
      </trkpt>
      <trkpt lat="48.20532" lon="3.24753">
        <ele>147</ele>
        <time>2012-10-07T14:24:29.946Z</time>
      </trkpt>
      <trkpt lat="48.20538" lon="3.24758">
        <ele>146</ele>
        <time>2012-10-07T14:24:30.946Z</time>
      </trkpt>
      <trkpt lat="48.20543" lon="3.24762">
        <ele>146</ele>
        <time>2012-10-07T14:24:31.946Z</time>
      </trkpt>
      <trkpt lat="48.20549" lon="3.24764">
        <ele>146</ele>
        <time>2012-10-07T14:24:32.946Z</time>
      </trkpt>
      <trkpt lat="48.20554" lon="3.24766">
        <ele>147</ele>
        <time>2012-10-07T14:24:33.946Z</time>
      </trkpt>
      <trkpt lat="48.20559" lon="3.24768">
        <ele>147</ele>
        <time>2012-10-07T14:24:34.946Z</time>
      </trkpt>
      <trkpt lat="48.20565" lon="3.24772">
        <ele>147</ele>
        <time>2012-10-07T14:24:35.946Z</time>
      </trkpt>
      <trkpt lat="48.2057" lon="3.24775">
        <ele>147</ele>
        <time>2012-10-07T14:24:36.946Z</time>
      </trkpt>
      <trkpt lat="48.20575" lon="3.24777">
        <ele>147</ele>
        <time>2012-10-07T14:24:37.946Z</time>
      </trkpt>
      <trkpt lat="48.20581" lon="3.24781">
        <ele>146</ele>
        <time>2012-10-07T14:24:38.946Z</time>
      </trkpt>
      <trkpt lat="48.20586" lon="3.24785">
        <ele>144</ele>
        <time>2012-10-07T14:24:39.946Z</time>
      </trkpt>
      <trkpt lat="48.2059" lon="3.2479">
        <ele>144</ele>
        <time>2012-10-07T14:24:40.946Z</time>
      </trkpt>
      <trkpt lat="48.20596" lon="3.24794">
        <ele>144</ele>
        <time>2012-10-07T14:24:41.946Z</time>
      </trkpt>
      <trkpt lat="48.20601" lon="3.248">
        <ele>143</ele>
        <time>2012-10-07T14:24:42.946Z</time>
      </trkpt>
      <trkpt lat="48.20606" lon="3.24807">
        <ele>143</ele>
        <time>2012-10-07T14:24:43.946Z</time>
      </trkpt>
      <trkpt lat="48.20612" lon="3.24813">
        <ele>143</ele>
        <time>2012-10-07T14:24:44.946Z</time>
      </trkpt>
      <trkpt lat="48.20617" lon="3.2482">
        <ele>143</ele>
        <time>2012-10-07T14:24:45.946Z</time>
      </trkpt>
      <trkpt lat="48.20623" lon="3.24826">
        <ele>143</ele>
        <time>2012-10-07T14:24:46.946Z</time>
      </trkpt>
      <trkpt lat="48.20628" lon="3.24833">
        <ele>142</ele>
        <time>2012-10-07T14:24:47.946Z</time>
      </trkpt>
      <trkpt lat="48.20634" lon="3.24837">
        <ele>141</ele>
        <time>2012-10-07T14:24:48.946Z</time>
      </trkpt>
      <trkpt lat="48.20641" lon="3.24846">
        <ele>141</ele>
        <time>2012-10-07T14:24:49.946Z</time>
      </trkpt>
      <trkpt lat="48.20646" lon="3.24852">
        <ele>141</ele>
        <time>2012-10-07T14:24:50.946Z</time>
      </trkpt>
      <trkpt lat="48.20653" lon="3.24858">
        <ele>140</ele>
        <time>2012-10-07T14:24:51.946Z</time>
      </trkpt>
      <trkpt lat="48.20658" lon="3.24865">
        <ele>140</ele>
        <time>2012-10-07T14:24:52.946Z</time>
      </trkpt>
      <trkpt lat="48.20663" lon="3.24871">
        <ele>140</ele>
        <time>2012-10-07T14:24:53.946Z</time>
      </trkpt>
      <trkpt lat="48.2067" lon="3.2488">
        <ele>137</ele>
        <time>2012-10-07T14:24:54.946Z</time>
      </trkpt>
      <trkpt lat="48.20675" lon="3.24886">
        <ele>136</ele>
        <time>2012-10-07T14:24:55.946Z</time>
      </trkpt>
      <trkpt lat="48.20682" lon="3.24893">
        <ele>136</ele>
        <time>2012-10-07T14:24:56.946Z</time>
      </trkpt>
      <trkpt lat="48.20687" lon="3.24899">
        <ele>136</ele>
        <time>2012-10-07T14:24:57.946Z</time>
      </trkpt>
      <trkpt lat="48.20692" lon="3.24906">
        <ele>136</ele>
        <time>2012-10-07T14:24:58.946Z</time>
      </trkpt>
      <trkpt lat="48.20699" lon="3.24912">
        <ele>136</ele>
        <time>2012-10-07T14:24:59.946Z</time>
      </trkpt>
      <trkpt lat="48.20704" lon="3.24918">
        <ele>135</ele>
        <time>2012-10-07T14:25:00.946Z</time>
      </trkpt>
      <trkpt lat="48.20711" lon="3.24925">
        <ele>135</ele>
        <time>2012-10-07T14:25:01.946Z</time>
      </trkpt>
      <trkpt lat="48.20716" lon="3.24931">
        <ele>134</ele>
        <time>2012-10-07T14:25:02.946Z</time>
      </trkpt>
      <trkpt lat="48.20722" lon="3.24938">
        <ele>134</ele>
        <time>2012-10-07T14:25:03.946Z</time>
      </trkpt>
      <trkpt lat="48.20729" lon="3.24946">
        <ele>134</ele>
        <time>2012-10-07T14:25:04.946Z</time>
      </trkpt>
      <trkpt lat="48.20735" lon="3.24953">
        <ele>134</ele>
        <time>2012-10-07T14:25:05.946Z</time>
      </trkpt>
      <trkpt lat="48.20743" lon="3.24959">
        <ele>134</ele>
        <time>2012-10-07T14:25:06.946Z</time>
      </trkpt>
      <trkpt lat="48.2075" lon="3.24966">
        <ele>132</ele>
        <time>2012-10-07T14:25:07.946Z</time>
      </trkpt>
      <trkpt lat="48.20757" lon="3.24972">
        <ele>132</ele>
        <time>2012-10-07T14:25:08.946Z</time>
      </trkpt>
      <trkpt lat="48.20764" lon="3.24981">
        <ele>132</ele>
        <time>2012-10-07T14:25:09.946Z</time>
      </trkpt>
      <trkpt lat="48.20771" lon="3.24989">
        <ele>132</ele>
        <time>2012-10-07T14:25:10.946Z</time>
      </trkpt>
      <trkpt lat="48.20777" lon="3.24996">
        <ele>132</ele>
        <time>2012-10-07T14:25:11.946Z</time>
      </trkpt>
      <trkpt lat="48.20782" lon="3.25002">
        <ele>132</ele>
        <time>2012-10-07T14:25:12.946Z</time>
      </trkpt>
      <trkpt lat="48.20788" lon="3.25009">
        <ele>131</ele>
        <time>2012-10-07T14:25:13.946Z</time>
      </trkpt>
      <trkpt lat="48.20794" lon="3.25009">
        <ele>131</ele>
        <time>2012-10-07T14:25:14.946Z</time>
      </trkpt>
      <trkpt lat="48.208" lon="3.25006">
        <ele>131</ele>
        <time>2012-10-07T14:25:15.946Z</time>
      </trkpt>
      <trkpt lat="48.20805" lon="3.25004">
        <ele>131</ele>
        <time>2012-10-07T14:25:16.946Z</time>
      </trkpt>
      <trkpt lat="48.2081" lon="3.24998">
        <ele>131</ele>
        <time>2012-10-07T14:25:17.946Z</time>
      </trkpt>
      <trkpt lat="48.20816" lon="3.24994">
        <ele>131</ele>
        <time>2012-10-07T14:25:18.946Z</time>
      </trkpt>
      <trkpt lat="48.20823" lon="3.24989">
        <ele>131</ele>
        <time>2012-10-07T14:25:19.946Z</time>
      </trkpt>
      <trkpt lat="48.2083" lon="3.24983">
        <ele>131</ele>
        <time>2012-10-07T14:25:20.946Z</time>
      </trkpt>
      <trkpt lat="48.20836" lon="3.24976">
        <ele>126</ele>
        <time>2012-10-07T14:25:21.946Z</time>
      </trkpt>
      <trkpt lat="48.20843" lon="3.24968">
        <ele>125</ele>
        <time>2012-10-07T14:25:22.946Z</time>
      </trkpt>
      <trkpt lat="48.20851" lon="3.24964">
        <ele>125</ele>
        <time>2012-10-07T14:25:23.946Z</time>
      </trkpt>
      <trkpt lat="48.2086" lon="3.24961">
        <ele>124</ele>
        <time>2012-10-07T14:25:24.946Z</time>
      </trkpt>
      <trkpt lat="48.20869" lon="3.24961">
        <ele>123</ele>
        <time>2012-10-07T14:25:25.946Z</time>
      </trkpt>
      <trkpt lat="48.20878" lon="3.24968">
        <ele>123</ele>
        <time>2012-10-07T14:25:26.946Z</time>
      </trkpt>
      <trkpt lat="48.20887" lon="3.24976">
        <ele>122</ele>
        <time>2012-10-07T14:25:27.946Z</time>
      </trkpt>
      <trkpt lat="48.20895" lon="3.24987">
        <ele>121</ele>
        <time>2012-10-07T14:25:28.946Z</time>
      </trkpt>
      <trkpt lat="48.20905" lon="3.24998">
        <ele>120</ele>
        <time>2012-10-07T14:25:29.946Z</time>
      </trkpt>
      <trkpt lat="48.20912" lon="3.25006">
        <ele>120</ele>
        <time>2012-10-07T14:25:30.946Z</time>
      </trkpt>
      <trkpt lat="48.2092" lon="3.25015">
        <ele>115</ele>
        <time>2012-10-07T14:25:31.946Z</time>
      </trkpt>
      <trkpt lat="48.20926" lon="3.25024">
        <ele>114</ele>
        <time>2012-10-07T14:25:32.946Z</time>
      </trkpt>
      <trkpt lat="48.20934" lon="3.25024">
        <ele>114</ele>
        <time>2012-10-07T14:25:33.946Z</time>
      </trkpt>
      <trkpt lat="48.2094" lon="3.25022">
        <ele>113</ele>
        <time>2012-10-07T14:25:34.946Z</time>
      </trkpt>
      <trkpt lat="48.20946" lon="3.25015">
        <ele>113</ele>
        <time>2012-10-07T14:25:35.946Z</time>
      </trkpt>
      <trkpt lat="48.20951" lon="3.25006">
        <ele>113</ele>
        <time>2012-10-07T14:25:36.946Z</time>
      </trkpt>
      <trkpt lat="48.20953" lon="3.24998">
        <ele>111</ele>
        <time>2012-10-07T14:25:37.946Z</time>
      </trkpt>
      <trkpt lat="48.20957" lon="3.24991">
        <ele>110</ele>
        <time>2012-10-07T14:25:38.946Z</time>
      </trkpt>
      <trkpt lat="48.20964" lon="3.24983">
        <ele>110</ele>
        <time>2012-10-07T14:25:39.946Z</time>
      </trkpt>
      <trkpt lat="48.2097" lon="3.24976">
        <ele>109</ele>
        <time>2012-10-07T14:25:40.946Z</time>
      </trkpt>
      <trkpt lat="48.20978" lon="3.24974">
        <ele>108</ele>
        <time>2012-10-07T14:25:41.946Z</time>
      </trkpt>
      <trkpt lat="48.20986" lon="3.24974">
        <ele>108</ele>
        <time>2012-10-07T14:25:42.946Z</time>
      </trkpt>
      <trkpt lat="48.20994" lon="3.24976">
        <ele>107</ele>
        <time>2012-10-07T14:25:43.946Z</time>
      </trkpt>
      <trkpt lat="48.21004" lon="3.24981">
        <ele>102</ele>
        <time>2012-10-07T14:25:44.946Z</time>
      </trkpt>
      <trkpt lat="48.21013" lon="3.24981">
        <ele>101</ele>
        <time>2012-10-07T14:25:45.946Z</time>
      </trkpt>
      <trkpt lat="48.21024" lon="3.24978">
        <ele>100</ele>
        <time>2012-10-07T14:25:46.946Z</time>
      </trkpt>
      <trkpt lat="48.21036" lon="3.24978">
        <ele>100</ele>
        <time>2012-10-07T14:25:47.946Z</time>
      </trkpt>
      <trkpt lat="48.21048" lon="3.24972">
        <ele>99</ele>
        <time>2012-10-07T14:25:48.946Z</time>
      </trkpt>
      <trkpt lat="48.21058" lon="3.24966">
        <ele>98</ele>
        <time>2012-10-07T14:25:49.946Z</time>
      </trkpt>
      <trkpt lat="48.21067" lon="3.24959">
        <ele>98</ele>
        <time>2012-10-07T14:25:50.946Z</time>
      </trkpt>
      <trkpt lat="48.21074" lon="3.24953">
        <ele>98</ele>
        <time>2012-10-07T14:25:51.946Z</time>
      </trkpt>
      <trkpt lat="48.21082" lon="3.24946">
        <ele>98</ele>
        <time>2012-10-07T14:25:52.946Z</time>
      </trkpt>
      <trkpt lat="48.21088" lon="3.24946">
        <ele>100</ele>
        <time>2012-10-07T14:25:53.946Z</time>
      </trkpt>
      <trkpt lat="48.21094" lon="3.24951">
        <ele>100</ele>
        <time>2012-10-07T14:25:54.946Z</time>
      </trkpt>
      <trkpt lat="48.21098" lon="3.24955">
        <ele>100</ele>
        <time>2012-10-07T14:25:55.946Z</time>
      </trkpt>
      <trkpt lat="48.21101" lon="3.24961">
        <ele>100</ele>
        <time>2012-10-07T14:25:56.946Z</time>
      </trkpt>
      <trkpt lat="48.21105" lon="3.2497">
        <ele>100</ele>
        <time>2012-10-07T14:25:57.946Z</time>
      </trkpt>
      <trkpt lat="48.2111" lon="3.24976">
        <ele>100</ele>
        <time>2012-10-07T14:25:58.946Z</time>
      </trkpt>
      <trkpt lat="48.21113" lon="3.24985">
        <ele>100</ele>
        <time>2012-10-07T14:25:59.946Z</time>
      </trkpt>
      <trkpt lat="48.21117" lon="3.24994">
        <ele>100</ele>
        <time>2012-10-07T14:26:00.946Z</time>
      </trkpt>
      <trkpt lat="48.2112" lon="3.25004">
        <ele>98</ele>
        <time>2012-10-07T14:26:01.946Z</time>
      </trkpt>
      <trkpt lat="48.21125" lon="3.25013">
        <ele>98</ele>
        <time>2012-10-07T14:26:02.946Z</time>
      </trkpt>
      <trkpt lat="48.21128" lon="3.25024">
        <ele>98</ele>
        <time>2012-10-07T14:26:03.946Z</time>
      </trkpt>
      <trkpt lat="48.21131" lon="3.25034">
        <ele>98</ele>
        <time>2012-10-07T14:26:04.946Z</time>
      </trkpt>
      <trkpt lat="48.21134" lon="3.25045">
        <ele>98</ele>
        <time>2012-10-07T14:26:05.946Z</time>
      </trkpt>
      <trkpt lat="48.21139" lon="3.25056">
        <ele>98</ele>
        <time>2012-10-07T14:26:06.946Z</time>
      </trkpt>
      <trkpt lat="48.21142" lon="3.25066">
        <ele>97</ele>
        <time>2012-10-07T14:26:07.946Z</time>
      </trkpt>
      <trkpt lat="48.21145" lon="3.25077">
        <ele>97</ele>
        <time>2012-10-07T14:26:08.946Z</time>
      </trkpt>
      <trkpt lat="48.21148" lon="3.25088">
        <ele>95</ele>
        <time>2012-10-07T14:26:09.946Z</time>
      </trkpt>
      <trkpt lat="48.21152" lon="3.25099">
        <ele>95</ele>
        <time>2012-10-07T14:26:10.946Z</time>
      </trkpt>
      <trkpt lat="48.21155" lon="3.25109">
        <ele>95</ele>
        <time>2012-10-07T14:26:11.946Z</time>
      </trkpt>
      <trkpt lat="48.21159" lon="3.2512">
        <ele>95</ele>
        <time>2012-10-07T14:26:12.946Z</time>
      </trkpt>
      <trkpt lat="48.21162" lon="3.25131">
        <ele>94</ele>
        <time>2012-10-07T14:26:13.946Z</time>
      </trkpt>
      <trkpt lat="48.21166" lon="3.25142">
        <ele>94</ele>
        <time>2012-10-07T14:26:14.946Z</time>
      </trkpt>
      <trkpt lat="48.21169" lon="3.25152">
        <ele>98</ele>
        <time>2012-10-07T14:26:15.946Z</time>
      </trkpt>
      <trkpt lat="48.21172" lon="3.25161">
        <ele>96</ele>
        <time>2012-10-07T14:26:16.946Z</time>
      </trkpt>
      <trkpt lat="48.21175" lon="3.25172">
        <ele>95</ele>
        <time>2012-10-07T14:26:17.946Z</time>
      </trkpt>
      <trkpt lat="48.21178" lon="3.25182">
        <ele>96</ele>
        <time>2012-10-07T14:26:18.946Z</time>
      </trkpt>
      <trkpt lat="48.21182" lon="3.25191">
        <ele>97</ele>
        <time>2012-10-07T14:26:19.946Z</time>
      </trkpt>
      <trkpt lat="48.21185" lon="3.25202">
        <ele>97</ele>
        <time>2012-10-07T14:26:20.946Z</time>
      </trkpt>
      <trkpt lat="48.21188" lon="3.2521">
        <ele>97</ele>
        <time>2012-10-07T14:26:21.946Z</time>
      </trkpt>
      <trkpt lat="48.2119" lon="3.25219">
        <ele>97</ele>
        <time>2012-10-07T14:26:22.946Z</time>
      </trkpt>
      <trkpt lat="48.21192" lon="3.25227">
        <ele>96</ele>
        <time>2012-10-07T14:26:23.946Z</time>
      </trkpt>
      <trkpt lat="48.21193" lon="3.25238">
        <ele>96</ele>
        <time>2012-10-07T14:26:24.946Z</time>
      </trkpt>
      <trkpt lat="48.21196" lon="3.25247">
        <ele>96</ele>
        <time>2012-10-07T14:26:25.946Z</time>
      </trkpt>
      <trkpt lat="48.21198" lon="3.25255">
        <ele>94</ele>
        <time>2012-10-07T14:26:26.946Z</time>
      </trkpt>
      <trkpt lat="48.21199" lon="3.25264">
        <ele>94</ele>
        <time>2012-10-07T14:26:27.946Z</time>
      </trkpt>
      <trkpt lat="48.212" lon="3.25272">
        <ele>94</ele>
        <time>2012-10-07T14:26:28.946Z</time>
      </trkpt>
      <trkpt lat="48.21201" lon="3.25283">
        <ele>94</ele>
        <time>2012-10-07T14:26:29.946Z</time>
      </trkpt>
      <trkpt lat="48.21203" lon="3.25292">
        <ele>94</ele>
        <time>2012-10-07T14:26:30.946Z</time>
      </trkpt>
      <trkpt lat="48.21204" lon="3.253">
        <ele>94</ele>
        <time>2012-10-07T14:26:31.946Z</time>
      </trkpt>
      <trkpt lat="48.21205" lon="3.25309">
        <ele>94</ele>
        <time>2012-10-07T14:26:32.946Z</time>
      </trkpt>
      <trkpt lat="48.21206" lon="3.2532">
        <ele>93</ele>
        <time>2012-10-07T14:26:33.946Z</time>
      </trkpt>
      <trkpt lat="48.21207" lon="3.25328">
        <ele>93</ele>
        <time>2012-10-07T14:26:34.946Z</time>
      </trkpt>
      <trkpt lat="48.21208" lon="3.25339">
        <ele>91</ele>
        <time>2012-10-07T14:26:35.946Z</time>
      </trkpt>
      <trkpt lat="48.2121" lon="3.25348">
        <ele>91</ele>
        <time>2012-10-07T14:26:36.946Z</time>
      </trkpt>
      <trkpt lat="48.21211" lon="3.25358">
        <ele>91</ele>
        <time>2012-10-07T14:26:37.946Z</time>
      </trkpt>
      <trkpt lat="48.21212" lon="3.25367">
        <ele>91</ele>
        <time>2012-10-07T14:26:38.946Z</time>
      </trkpt>
      <trkpt lat="48.21213" lon="3.25378">
        <ele>91</ele>
        <time>2012-10-07T14:26:39.946Z</time>
      </trkpt>
      <trkpt lat="48.21214" lon="3.25388">
        <ele>91</ele>
        <time>2012-10-07T14:26:40.946Z</time>
      </trkpt>
      <trkpt lat="48.21214" lon="3.25397">
        <ele>91</ele>
        <time>2012-10-07T14:26:41.946Z</time>
      </trkpt>
      <trkpt lat="48.21215" lon="3.25408">
        <ele>91</ele>
        <time>2012-10-07T14:26:42.946Z</time>
      </trkpt>
      <trkpt lat="48.21216" lon="3.25418">
        <ele>89</ele>
        <time>2012-10-07T14:26:43.946Z</time>
      </trkpt>
      <trkpt lat="48.21217" lon="3.25427">
        <ele>89</ele>
        <time>2012-10-07T14:26:44.946Z</time>
      </trkpt>
      <trkpt lat="48.21218" lon="3.25438">
        <ele>89</ele>
        <time>2012-10-07T14:26:45.946Z</time>
      </trkpt>
      <trkpt lat="48.21219" lon="3.25448">
        <ele>88</ele>
        <time>2012-10-07T14:26:46.946Z</time>
      </trkpt>
      <trkpt lat="48.2122" lon="3.25459">
        <ele>88</ele>
        <time>2012-10-07T14:26:47.946Z</time>
      </trkpt>
      <trkpt lat="48.21221" lon="3.2547">
        <ele>88</ele>
        <time>2012-10-07T14:26:48.946Z</time>
      </trkpt>
      <trkpt lat="48.21221" lon="3.25481">
        <ele>88</ele>
        <time>2012-10-07T14:26:49.946Z</time>
      </trkpt>
      <trkpt lat="48.21222" lon="3.25491">
        <ele>88</ele>
        <time>2012-10-07T14:26:50.946Z</time>
      </trkpt>
      <trkpt lat="48.21223" lon="3.25502">
        <ele>86</ele>
        <time>2012-10-07T14:26:51.946Z</time>
      </trkpt>
      <trkpt lat="48.21223" lon="3.25513">
        <ele>86</ele>
        <time>2012-10-07T14:26:52.946Z</time>
      </trkpt>
      <trkpt lat="48.21224" lon="3.25524">
        <ele>85</ele>
        <time>2012-10-07T14:26:53.946Z</time>
      </trkpt>
      <trkpt lat="48.21224" lon="3.25532">
        <ele>85</ele>
        <time>2012-10-07T14:26:54.946Z</time>
      </trkpt>
      <trkpt lat="48.21224" lon="3.25541">
        <ele>85</ele>
        <time>2012-10-07T14:26:55.946Z</time>
      </trkpt>
      <trkpt lat="48.21224" lon="3.25552">
        <ele>84</ele>
        <time>2012-10-07T14:26:56.946Z</time>
      </trkpt>
      <trkpt lat="48.21226" lon="3.2556">
        <ele>84</ele>
        <time>2012-10-07T14:26:57.946Z</time>
      </trkpt>
      <trkpt lat="48.21226" lon="3.25569">
        <ele>84</ele>
        <time>2012-10-07T14:26:58.946Z</time>
      </trkpt>
      <trkpt lat="48.21226" lon="3.25577">
        <ele>84</ele>
        <time>2012-10-07T14:26:59.946Z</time>
      </trkpt>
      <trkpt lat="48.21226" lon="3.25588">
        <ele>83</ele>
        <time>2012-10-07T14:27:00.946Z</time>
      </trkpt>
      <trkpt lat="48.21224" lon="3.25596">
        <ele>82</ele>
        <time>2012-10-07T14:27:01.946Z</time>
      </trkpt>
      <trkpt lat="48.21224" lon="3.25607">
        <ele>82</ele>
        <time>2012-10-07T14:27:02.946Z</time>
      </trkpt>
      <trkpt lat="48.21224" lon="3.25616">
        <ele>82</ele>
        <time>2012-10-07T14:27:03.946Z</time>
      </trkpt>
      <trkpt lat="48.21224" lon="3.25627">
        <ele>82</ele>
        <time>2012-10-07T14:27:04.946Z</time>
      </trkpt>
      <trkpt lat="48.21224" lon="3.25635">
        <ele>82</ele>
        <time>2012-10-07T14:27:05.946Z</time>
      </trkpt>
      <trkpt lat="48.21223" lon="3.25646">
        <ele>82</ele>
        <time>2012-10-07T14:27:06.946Z</time>
      </trkpt>
      <trkpt lat="48.21223" lon="3.25654">
        <ele>82</ele>
        <time>2012-10-07T14:27:07.946Z</time>
      </trkpt>
      <trkpt lat="48.21223" lon="3.25665">
        <ele>82</ele>
        <time>2012-10-07T14:27:08.946Z</time>
      </trkpt>
      <trkpt lat="48.21223" lon="3.25674">
        <ele>80</ele>
        <time>2012-10-07T14:27:09.946Z</time>
      </trkpt>
      <trkpt lat="48.21226" lon="3.25684">
        <ele>80</ele>
        <time>2012-10-07T14:27:10.946Z</time>
      </trkpt>
      <trkpt lat="48.21227" lon="3.25693">
        <ele>80</ele>
        <time>2012-10-07T14:27:11.946Z</time>
      </trkpt>
      <trkpt lat="48.21229" lon="3.25706">
        <ele>80</ele>
        <time>2012-10-07T14:27:13.946Z</time>
      </trkpt>
      <trkpt lat="48.21223" lon="3.25717">
        <ele>79</ele>
        <time>2012-10-07T14:27:15.946Z</time>
      </trkpt>
      <trkpt lat="48.21216" lon="3.25717">
        <ele>79</ele>
        <time>2012-10-07T14:27:16.946Z</time>
      </trkpt>
      <trkpt lat="48.2121" lon="3.25719">
        <ele>79</ele>
        <time>2012-10-07T14:27:17.946Z</time>
      </trkpt>
      <trkpt lat="48.21202" lon="3.25721">
        <ele>79</ele>
        <time>2012-10-07T14:27:18.946Z</time>
      </trkpt>
      <trkpt lat="48.21194" lon="3.25725">
        <ele>78</ele>
        <time>2012-10-07T14:27:19.946Z</time>
      </trkpt>
      <trkpt lat="48.21188" lon="3.2573">
        <ele>78</ele>
        <time>2012-10-07T14:27:20.946Z</time>
      </trkpt>
      <trkpt lat="48.2118" lon="3.25734">
        <ele>77</ele>
        <time>2012-10-07T14:27:21.946Z</time>
      </trkpt>
      <trkpt lat="48.21173" lon="3.25736">
        <ele>77</ele>
        <time>2012-10-07T14:27:22.946Z</time>
      </trkpt>
      <trkpt lat="48.21166" lon="3.2574">
        <ele>76</ele>
        <time>2012-10-07T14:27:23.946Z</time>
      </trkpt>
      <trkpt lat="48.21158" lon="3.25745">
        <ele>76</ele>
        <time>2012-10-07T14:27:24.946Z</time>
      </trkpt>
      <trkpt lat="48.2115" lon="3.25747">
        <ele>76</ele>
        <time>2012-10-07T14:27:25.946Z</time>
      </trkpt>
      <trkpt lat="48.21144" lon="3.25751">
        <ele>78</ele>
        <time>2012-10-07T14:27:26.946Z</time>
      </trkpt>
      <trkpt lat="48.21136" lon="3.25755">
        <ele>79</ele>
        <time>2012-10-07T14:27:27.946Z</time>
      </trkpt>
      <trkpt lat="48.21129" lon="3.25758">
        <ele>79</ele>
        <time>2012-10-07T14:27:28.946Z</time>
      </trkpt>
      <trkpt lat="48.21124" lon="3.2576">
        <ele>80</ele>
        <time>2012-10-07T14:27:29.946Z</time>
      </trkpt>
      <trkpt lat="48.21118" lon="3.25762">
        <ele>80</ele>
        <time>2012-10-07T14:27:30.946Z</time>
      </trkpt>
      <trkpt lat="48.21113" lon="3.25764">
        <ele>80</ele>
        <time>2012-10-07T14:27:31.946Z</time>
      </trkpt>
      <trkpt lat="48.21104" lon="3.25766">
        <ele>81</ele>
        <time>2012-10-07T14:27:35.946Z</time>
      </trkpt>
      <trkpt lat="48.21104" lon="3.25766">
        <ele>81</ele>
        <time>2012-10-07T14:27:35.946Z</time>
      </trkpt>
      <trkpt lat="48.21104" lon="3.25766">
        <ele>81</ele>
        <time>2012-10-07T14:27:37.946Z</time>
      </trkpt>
      <trkpt lat="48.211" lon="3.25772">
        <ele>81</ele>
        <time>2012-10-07T14:27:38.946Z</time>
      </trkpt>
      <trkpt lat="48.21101" lon="3.25781">
        <ele>81</ele>
        <time>2012-10-07T14:27:40.946Z</time>
      </trkpt>
      <trkpt lat="48.21103" lon="3.25792">
        <ele>81</ele>
        <time>2012-10-07T14:27:42.946Z</time>
      </trkpt>
      <trkpt lat="48.21105" lon="3.25805">
        <ele>82</ele>
        <time>2012-10-07T14:27:44.946Z</time>
      </trkpt>
      <trkpt lat="48.21108" lon="3.25811">
        <ele>82</ele>
        <time>2012-10-07T14:27:45.946Z</time>
      </trkpt>
      <trkpt lat="48.21111" lon="3.25822">
        <ele>82</ele>
        <time>2012-10-07T14:27:47.946Z</time>
      </trkpt>
      <trkpt lat="48.21113" lon="3.25828">
        <ele>82</ele>
        <time>2012-10-07T14:27:48.946Z</time>
      </trkpt>
      <trkpt lat="48.21115" lon="3.25837">
        <ele>84</ele>
        <time>2012-10-07T14:27:49.946Z</time>
      </trkpt>
      <trkpt lat="48.21118" lon="3.25843">
        <ele>84</ele>
        <time>2012-10-07T14:27:50.946Z</time>
      </trkpt>
      <trkpt lat="48.2112" lon="3.25852">
        <ele>84</ele>
        <time>2012-10-07T14:27:51.946Z</time>
      </trkpt>
      <trkpt lat="48.21124" lon="3.25858">
        <ele>83</ele>
        <time>2012-10-07T14:27:52.946Z</time>
      </trkpt>
      <trkpt lat="48.21127" lon="3.25867">
        <ele>83</ele>
        <time>2012-10-07T14:27:53.946Z</time>
      </trkpt>
      <trkpt lat="48.21129" lon="3.25873">
        <ele>83</ele>
        <time>2012-10-07T14:27:54.946Z</time>
      </trkpt>
      <trkpt lat="48.21132" lon="3.25882">
        <ele>83</ele>
        <time>2012-10-07T14:27:55.946Z</time>
      </trkpt>
      <trkpt lat="48.21136" lon="3.25888">
        <ele>83</ele>
        <time>2012-10-07T14:27:56.946Z</time>
      </trkpt>
      <trkpt lat="48.21138" lon="3.25895">
        <ele>83</ele>
        <time>2012-10-07T14:27:57.946Z</time>
      </trkpt>
      <trkpt lat="48.21141" lon="3.25901">
        <ele>82</ele>
        <time>2012-10-07T14:27:58.946Z</time>
      </trkpt>
      <trkpt lat="48.21144" lon="3.2591">
        <ele>81</ele>
        <time>2012-10-07T14:27:59.946Z</time>
      </trkpt>
      <trkpt lat="48.21146" lon="3.25916">
        <ele>81</ele>
        <time>2012-10-07T14:28:00.946Z</time>
      </trkpt>
      <trkpt lat="48.21149" lon="3.25923">
        <ele>83</ele>
        <time>2012-10-07T14:28:01.946Z</time>
      </trkpt>
      <trkpt lat="48.21152" lon="3.25929">
        <ele>83</ele>
        <time>2012-10-07T14:28:02.946Z</time>
      </trkpt>
      <trkpt lat="48.21155" lon="3.25938">
        <ele>84</ele>
        <time>2012-10-07T14:28:03.946Z</time>
      </trkpt>
      <trkpt lat="48.21158" lon="3.25944">
        <ele>84</ele>
        <time>2012-10-07T14:28:04.946Z</time>
      </trkpt>
      <trkpt lat="48.21161" lon="3.25951">
        <ele>84</ele>
        <time>2012-10-07T14:28:05.946Z</time>
      </trkpt>
      <trkpt lat="48.21166" lon="3.25957">
        <ele>84</ele>
        <time>2012-10-07T14:28:06.946Z</time>
      </trkpt>
      <trkpt lat="48.21169" lon="3.25963">
        <ele>76</ele>
        <time>2012-10-07T14:28:07.946Z</time>
      </trkpt>
      <trkpt lat="48.21173" lon="3.2597">
        <ele>76</ele>
        <time>2012-10-07T14:28:08.946Z</time>
      </trkpt>
      <trkpt lat="48.21177" lon="3.25976">
        <ele>76</ele>
        <time>2012-10-07T14:28:09.946Z</time>
      </trkpt>
      <trkpt lat="48.21182" lon="3.25983">
        <ele>77</ele>
        <time>2012-10-07T14:28:10.946Z</time>
      </trkpt>
      <trkpt lat="48.21186" lon="3.25989">
        <ele>77</ele>
        <time>2012-10-07T14:28:11.946Z</time>
      </trkpt>
      <trkpt lat="48.2119" lon="3.25996">
        <ele>76</ele>
        <time>2012-10-07T14:28:12.946Z</time>
      </trkpt>
      <trkpt lat="48.21194" lon="3.26002">
        <ele>78</ele>
        <time>2012-10-07T14:28:13.946Z</time>
      </trkpt>
      <trkpt lat="48.21199" lon="3.26008">
        <ele>78</ele>
        <time>2012-10-07T14:28:14.946Z</time>
      </trkpt>
      <trkpt lat="48.21204" lon="3.26015">
        <ele>78</ele>
        <time>2012-10-07T14:28:15.946Z</time>
      </trkpt>
      <trkpt lat="48.21208" lon="3.26021">
        <ele>78</ele>
        <time>2012-10-07T14:28:16.946Z</time>
      </trkpt>
      <trkpt lat="48.21213" lon="3.2603">
        <ele>78</ele>
        <time>2012-10-07T14:28:17.946Z</time>
      </trkpt>
      <trkpt lat="48.21218" lon="3.26036">
        <ele>78</ele>
        <time>2012-10-07T14:28:18.946Z</time>
      </trkpt>
      <trkpt lat="48.21223" lon="3.26043">
        <ele>78</ele>
        <time>2012-10-07T14:28:19.946Z</time>
      </trkpt>
      <trkpt lat="48.21229" lon="3.26051">
        <ele>77</ele>
        <time>2012-10-07T14:28:20.946Z</time>
      </trkpt>
      <trkpt lat="48.21234" lon="3.26058">
        <ele>77</ele>
        <time>2012-10-07T14:28:21.946Z</time>
      </trkpt>
      <trkpt lat="48.21238" lon="3.26066">
        <ele>77</ele>
        <time>2012-10-07T14:28:22.946Z</time>
      </trkpt>
      <trkpt lat="48.21244" lon="3.26073">
        <ele>76</ele>
        <time>2012-10-07T14:28:23.946Z</time>
      </trkpt>
      <trkpt lat="48.21249" lon="3.26079">
        <ele>75</ele>
        <time>2012-10-07T14:28:24.946Z</time>
      </trkpt>
      <trkpt lat="48.21255" lon="3.26084">
        <ele>74</ele>
        <time>2012-10-07T14:28:25.946Z</time>
      </trkpt>
      <trkpt lat="48.2126" lon="3.2609">
        <ele>75</ele>
        <time>2012-10-07T14:28:26.946Z</time>
      </trkpt>
      <trkpt lat="48.21264" lon="3.26096">
        <ele>75</ele>
        <time>2012-10-07T14:28:27.946Z</time>
      </trkpt>
      <trkpt lat="48.2127" lon="3.26101">
        <ele>75</ele>
        <time>2012-10-07T14:28:28.946Z</time>
      </trkpt>
      <trkpt lat="48.21275" lon="3.26107">
        <ele>75</ele>
        <time>2012-10-07T14:28:29.946Z</time>
      </trkpt>
      <trkpt lat="48.2128" lon="3.26114">
        <ele>75</ele>
        <time>2012-10-07T14:28:30.946Z</time>
      </trkpt>
      <trkpt lat="48.21286" lon="3.26118">
        <ele>75</ele>
        <time>2012-10-07T14:28:31.946Z</time>
      </trkpt>
      <trkpt lat="48.2129" lon="3.26124">
        <ele>76</ele>
        <time>2012-10-07T14:28:32.946Z</time>
      </trkpt>
      <trkpt lat="48.21295" lon="3.26131">
        <ele>76</ele>
        <time>2012-10-07T14:28:33.946Z</time>
      </trkpt>
      <trkpt lat="48.21301" lon="3.26135">
        <ele>76</ele>
        <time>2012-10-07T14:28:34.946Z</time>
      </trkpt>
      <trkpt lat="48.21307" lon="3.26139">
        <ele>75</ele>
        <time>2012-10-07T14:28:35.946Z</time>
      </trkpt>
      <trkpt lat="48.21312" lon="3.26144">
        <ele>75</ele>
        <time>2012-10-07T14:28:36.946Z</time>
      </trkpt>
      <trkpt lat="48.21319" lon="3.26148">
        <ele>75</ele>
        <time>2012-10-07T14:28:37.946Z</time>
      </trkpt>
      <trkpt lat="48.21324" lon="3.26152">
        <ele>75</ele>
        <time>2012-10-07T14:28:38.946Z</time>
      </trkpt>
      <trkpt lat="48.21331" lon="3.26157">
        <ele>75</ele>
        <time>2012-10-07T14:28:39.946Z</time>
      </trkpt>
      <trkpt lat="48.21337" lon="3.26161">
        <ele>74</ele>
        <time>2012-10-07T14:28:40.946Z</time>
      </trkpt>
      <trkpt lat="48.21342" lon="3.26163">
        <ele>74</ele>
        <time>2012-10-07T14:28:41.946Z</time>
      </trkpt>
      <trkpt lat="48.21349" lon="3.26167">
        <ele>76</ele>
        <time>2012-10-07T14:28:42.946Z</time>
      </trkpt>
      <trkpt lat="48.21354" lon="3.26172">
        <ele>76</ele>
        <time>2012-10-07T14:28:43.946Z</time>
      </trkpt>
      <trkpt lat="48.21361" lon="3.26174">
        <ele>76</ele>
        <time>2012-10-07T14:28:44.946Z</time>
      </trkpt>
      <trkpt lat="48.21366" lon="3.26178">
        <ele>76</ele>
        <time>2012-10-07T14:28:45.946Z</time>
      </trkpt>
      <trkpt lat="48.21373" lon="3.26182">
        <ele>76</ele>
        <time>2012-10-07T14:28:46.946Z</time>
      </trkpt>
      <trkpt lat="48.21378" lon="3.26184">
        <ele>76</ele>
        <time>2012-10-07T14:28:47.946Z</time>
      </trkpt>
      <trkpt lat="48.21383" lon="3.26189">
        <ele>76</ele>
        <time>2012-10-07T14:28:48.946Z</time>
      </trkpt>
      <trkpt lat="48.21389" lon="3.26193">
        <ele>76</ele>
        <time>2012-10-07T14:28:49.946Z</time>
      </trkpt>
      <trkpt lat="48.21394" lon="3.26195">
        <ele>76</ele>
        <time>2012-10-07T14:28:50.946Z</time>
      </trkpt>
      <trkpt lat="48.21399" lon="3.26197">
        <ele>76</ele>
        <time>2012-10-07T14:28:51.946Z</time>
      </trkpt>
      <trkpt lat="48.21405" lon="3.26202">
        <ele>76</ele>
        <time>2012-10-07T14:28:52.946Z</time>
      </trkpt>
      <trkpt lat="48.2141" lon="3.26204">
        <ele>76</ele>
        <time>2012-10-07T14:28:53.946Z</time>
      </trkpt>
      <trkpt lat="48.21414" lon="3.26206">
        <ele>76</ele>
        <time>2012-10-07T14:28:54.946Z</time>
      </trkpt>
      <trkpt lat="48.2142" lon="3.26208">
        <ele>72</ele>
        <time>2012-10-07T14:28:55.946Z</time>
      </trkpt>
      <trkpt lat="48.21425" lon="3.26212">
        <ele>72</ele>
        <time>2012-10-07T14:28:56.946Z</time>
      </trkpt>
      <trkpt lat="48.2143" lon="3.26214">
        <ele>72</ele>
        <time>2012-10-07T14:28:57.946Z</time>
      </trkpt>
      <trkpt lat="48.21436" lon="3.26217">
        <ele>72</ele>
        <time>2012-10-07T14:28:58.946Z</time>
      </trkpt>
      <trkpt lat="48.21441" lon="3.26221">
        <ele>72</ele>
        <time>2012-10-07T14:28:59.946Z</time>
      </trkpt>
      <trkpt lat="48.21446" lon="3.26223">
        <ele>72</ele>
        <time>2012-10-07T14:29:00.946Z</time>
      </trkpt>
      <trkpt lat="48.21451" lon="3.26227">
        <ele>72</ele>
        <time>2012-10-07T14:29:01.946Z</time>
      </trkpt>
      <trkpt lat="48.21456" lon="3.26232">
        <ele>72</ele>
        <time>2012-10-07T14:29:02.946Z</time>
      </trkpt>
      <trkpt lat="48.21462" lon="3.26236">
        <ele>71</ele>
        <time>2012-10-07T14:29:03.946Z</time>
      </trkpt>
      <trkpt lat="48.21467" lon="3.2624">
        <ele>71</ele>
        <time>2012-10-07T14:29:04.946Z</time>
      </trkpt>
      <trkpt lat="48.21471" lon="3.26247">
        <ele>71</ele>
        <time>2012-10-07T14:29:05.946Z</time>
      </trkpt>
      <trkpt lat="48.21477" lon="3.26253">
        <ele>72</ele>
        <time>2012-10-07T14:29:06.946Z</time>
      </trkpt>
      <trkpt lat="48.21482" lon="3.2626">
        <ele>71</ele>
        <time>2012-10-07T14:29:07.946Z</time>
      </trkpt>
      <trkpt lat="48.21487" lon="3.26266">
        <ele>71</ele>
        <time>2012-10-07T14:29:08.946Z</time>
      </trkpt>
      <trkpt lat="48.21492" lon="3.26272">
        <ele>71</ele>
        <time>2012-10-07T14:29:09.946Z</time>
      </trkpt>
      <trkpt lat="48.21496" lon="3.26281">
        <ele>72</ele>
        <time>2012-10-07T14:29:10.946Z</time>
      </trkpt>
      <trkpt lat="48.215" lon="3.26288">
        <ele>68</ele>
        <time>2012-10-07T14:29:11.946Z</time>
      </trkpt>
      <trkpt lat="48.21504" lon="3.26294">
        <ele>68</ele>
        <time>2012-10-07T14:29:12.946Z</time>
      </trkpt>
      <trkpt lat="48.21509" lon="3.26302">
        <ele>68</ele>
        <time>2012-10-07T14:29:13.946Z</time>
      </trkpt>
      <trkpt lat="48.21512" lon="3.26309">
        <ele>68</ele>
        <time>2012-10-07T14:29:14.946Z</time>
      </trkpt>
      <trkpt lat="48.21515" lon="3.26315">
        <ele>68</ele>
        <time>2012-10-07T14:29:15.946Z</time>
      </trkpt>
      <trkpt lat="48.2152" lon="3.26322">
        <ele>68</ele>
        <time>2012-10-07T14:29:16.946Z</time>
      </trkpt>
      <trkpt lat="48.21523" lon="3.26328">
        <ele>68</ele>
        <time>2012-10-07T14:29:17.946Z</time>
      </trkpt>
      <trkpt lat="48.21525" lon="3.26337">
        <ele>68</ele>
        <time>2012-10-07T14:29:18.946Z</time>
      </trkpt>
      <trkpt lat="48.21524" lon="3.26348">
        <ele>68</ele>
        <time>2012-10-07T14:29:20.946Z</time>
      </trkpt>
      <trkpt lat="48.2152" lon="3.26354">
        <ele>68</ele>
        <time>2012-10-07T14:29:22.946Z</time>
      </trkpt>
      <trkpt lat="48.21512" lon="3.26358">
        <ele>68</ele>
        <time>2012-10-07T14:29:24.946Z</time>
      </trkpt>
      <trkpt lat="48.21508" lon="3.2636">
        <ele>68</ele>
        <time>2012-10-07T14:29:25.946Z</time>
      </trkpt>
      <trkpt lat="48.21504" lon="3.26365">
        <ele>68</ele>
        <time>2012-10-07T14:29:26.946Z</time>
      </trkpt>
      <trkpt lat="48.21498" lon="3.26367">
        <ele>71</ele>
        <time>2012-10-07T14:29:27.946Z</time>
      </trkpt>
      <trkpt lat="48.21493" lon="3.26369">
        <ele>71</ele>
        <time>2012-10-07T14:29:28.946Z</time>
      </trkpt>
      <trkpt lat="48.21487" lon="3.26371">
        <ele>71</ele>
        <time>2012-10-07T14:29:29.946Z</time>
      </trkpt>
      <trkpt lat="48.21481" lon="3.26373">
        <ele>71</ele>
        <time>2012-10-07T14:29:30.946Z</time>
      </trkpt>
      <trkpt lat="48.21476" lon="3.26373">
        <ele>71</ele>
        <time>2012-10-07T14:29:31.946Z</time>
      </trkpt>
      <trkpt lat="48.21469" lon="3.26375">
        <ele>71</ele>
        <time>2012-10-07T14:29:32.946Z</time>
      </trkpt>
      <trkpt lat="48.21464" lon="3.26378">
        <ele>71</ele>
        <time>2012-10-07T14:29:33.946Z</time>
      </trkpt>
      <trkpt lat="48.21457" lon="3.26378">
        <ele>72</ele>
        <time>2012-10-07T14:29:34.946Z</time>
      </trkpt>
      <trkpt lat="48.21452" lon="3.2638">
        <ele>72</ele>
        <time>2012-10-07T14:29:35.946Z</time>
      </trkpt>
      <trkpt lat="48.21446" lon="3.26382">
        <ele>72</ele>
        <time>2012-10-07T14:29:36.946Z</time>
      </trkpt>
      <trkpt lat="48.21439" lon="3.26382">
        <ele>72</ele>
        <time>2012-10-07T14:29:37.946Z</time>
      </trkpt>
      <trkpt lat="48.21433" lon="3.26384">
        <ele>72</ele>
        <time>2012-10-07T14:29:38.946Z</time>
      </trkpt>
      <trkpt lat="48.21426" lon="3.26384">
        <ele>72</ele>
        <time>2012-10-07T14:29:39.946Z</time>
      </trkpt>
      <trkpt lat="48.21421" lon="3.26386">
        <ele>72</ele>
        <time>2012-10-07T14:29:40.946Z</time>
      </trkpt>
      <trkpt lat="48.21414" lon="3.26388">
        <ele>75</ele>
        <time>2012-10-07T14:29:41.946Z</time>
      </trkpt>
      <trkpt lat="48.21407" lon="3.26388">
        <ele>75</ele>
        <time>2012-10-07T14:29:42.946Z</time>
      </trkpt>
      <trkpt lat="48.214" lon="3.2639">
        <ele>76</ele>
        <time>2012-10-07T14:29:43.946Z</time>
      </trkpt>
      <trkpt lat="48.21394" lon="3.2639">
        <ele>76</ele>
        <time>2012-10-07T14:29:44.946Z</time>
      </trkpt>
      <trkpt lat="48.21388" lon="3.26393">
        <ele>76</ele>
        <time>2012-10-07T14:29:45.946Z</time>
      </trkpt>
      <trkpt lat="48.21381" lon="3.26393">
        <ele>76</ele>
        <time>2012-10-07T14:29:46.946Z</time>
      </trkpt>
      <trkpt lat="48.21375" lon="3.26395">
        <ele>76</ele>
        <time>2012-10-07T14:29:47.946Z</time>
      </trkpt>
      <trkpt lat="48.21368" lon="3.26395">
        <ele>77</ele>
        <time>2012-10-07T14:29:48.946Z</time>
      </trkpt>
      <trkpt lat="48.21362" lon="3.26395">
        <ele>77</ele>
        <time>2012-10-07T14:29:49.946Z</time>
      </trkpt>
      <trkpt lat="48.21355" lon="3.26395">
        <ele>77</ele>
        <time>2012-10-07T14:29:50.946Z</time>
      </trkpt>
      <trkpt lat="48.21349" lon="3.26393">
        <ele>77</ele>
        <time>2012-10-07T14:29:51.946Z</time>
      </trkpt>
      <trkpt lat="48.21344" lon="3.26393">
        <ele>77</ele>
        <time>2012-10-07T14:29:52.946Z</time>
      </trkpt>
      <trkpt lat="48.21337" lon="3.2639">
        <ele>77</ele>
        <time>2012-10-07T14:29:53.946Z</time>
      </trkpt>
      <trkpt lat="48.21331" lon="3.2639">
        <ele>81</ele>
        <time>2012-10-07T14:29:54.946Z</time>
      </trkpt>
      <trkpt lat="48.21324" lon="3.26388">
        <ele>82</ele>
        <time>2012-10-07T14:29:55.946Z</time>
      </trkpt>
      <trkpt lat="48.21318" lon="3.26388">
        <ele>82</ele>
        <time>2012-10-07T14:29:56.946Z</time>
      </trkpt>
      <trkpt lat="48.21311" lon="3.26388">
        <ele>83</ele>
        <time>2012-10-07T14:29:57.946Z</time>
      </trkpt>
      <trkpt lat="48.21305" lon="3.26388">
        <ele>83</ele>
        <time>2012-10-07T14:29:58.946Z</time>
      </trkpt>
      <trkpt lat="48.213" lon="3.2639">
        <ele>83</ele>
        <time>2012-10-07T14:29:59.946Z</time>
      </trkpt>
      <trkpt lat="48.21293" lon="3.26393">
        <ele>83</ele>
        <time>2012-10-07T14:30:00.946Z</time>
      </trkpt>
      <trkpt lat="48.21288" lon="3.26395">
        <ele>84</ele>
        <time>2012-10-07T14:30:01.946Z</time>
      </trkpt>
      <trkpt lat="48.21281" lon="3.26397">
        <ele>84</ele>
        <time>2012-10-07T14:30:02.946Z</time>
      </trkpt>
      <trkpt lat="48.21275" lon="3.26399">
        <ele>84</ele>
        <time>2012-10-07T14:30:03.946Z</time>
      </trkpt>
      <trkpt lat="48.21268" lon="3.26401">
        <ele>84</ele>
        <time>2012-10-07T14:30:04.946Z</time>
      </trkpt>
      <trkpt lat="48.21263" lon="3.26406">
        <ele>83</ele>
        <time>2012-10-07T14:30:05.946Z</time>
      </trkpt>
      <trkpt lat="48.21257" lon="3.26408">
        <ele>83</ele>
        <time>2012-10-07T14:30:06.946Z</time>
      </trkpt>
      <trkpt lat="48.2125" lon="3.2641">
        <ele>84</ele>
        <time>2012-10-07T14:30:07.946Z</time>
      </trkpt>
      <trkpt lat="48.21245" lon="3.2641">
        <ele>84</ele>
        <time>2012-10-07T14:30:08.946Z</time>
      </trkpt>
      <trkpt lat="48.21238" lon="3.26412">
        <ele>86</ele>
        <time>2012-10-07T14:30:09.946Z</time>
      </trkpt>
      <trkpt lat="48.21234" lon="3.26414">
        <ele>86</ele>
        <time>2012-10-07T14:30:10.946Z</time>
      </trkpt>
      <trkpt lat="48.21228" lon="3.26423">
        <ele>78</ele>
        <time>2012-10-07T14:30:12.946Z</time>
      </trkpt>
      <trkpt lat="48.21223" lon="3.26433">
        <ele>78</ele>
        <time>2012-10-07T14:30:14.946Z</time>
      </trkpt>
      <trkpt lat="48.21219" lon="3.2644">
        <ele>77</ele>
        <time>2012-10-07T14:30:15.946Z</time>
      </trkpt>
      <trkpt lat="48.21216" lon="3.26448">
        <ele>77</ele>
        <time>2012-10-07T14:30:16.946Z</time>
      </trkpt>
      <trkpt lat="48.21212" lon="3.26455">
        <ele>76</ele>
        <time>2012-10-07T14:30:17.946Z</time>
      </trkpt>
      <trkpt lat="48.21208" lon="3.26463">
        <ele>75</ele>
        <time>2012-10-07T14:30:18.946Z</time>
      </trkpt>
      <trkpt lat="48.21204" lon="3.26472">
        <ele>74</ele>
        <time>2012-10-07T14:30:19.946Z</time>
      </trkpt>
      <trkpt lat="48.212" lon="3.26481">
        <ele>74</ele>
        <time>2012-10-07T14:30:20.946Z</time>
      </trkpt>
      <trkpt lat="48.21196" lon="3.26489">
        <ele>73</ele>
        <time>2012-10-07T14:30:21.946Z</time>
      </trkpt>
      <trkpt lat="48.21191" lon="3.26498">
        <ele>72</ele>
        <time>2012-10-07T14:30:22.946Z</time>
      </trkpt>
      <trkpt lat="48.21186" lon="3.26506">
        <ele>67</ele>
        <time>2012-10-07T14:30:23.946Z</time>
      </trkpt>
      <trkpt lat="48.2118" lon="3.26515">
        <ele>67</ele>
        <time>2012-10-07T14:30:24.946Z</time>
      </trkpt>
      <trkpt lat="48.21174" lon="3.26521">
        <ele>67</ele>
        <time>2012-10-07T14:30:25.946Z</time>
      </trkpt>
      <trkpt lat="48.21168" lon="3.26528">
        <ele>67</ele>
        <time>2012-10-07T14:30:26.946Z</time>
      </trkpt>
      <trkpt lat="48.21161" lon="3.26534">
        <ele>67</ele>
        <time>2012-10-07T14:30:27.946Z</time>
      </trkpt>
      <trkpt lat="48.21155" lon="3.26541">
        <ele>67</ele>
        <time>2012-10-07T14:30:28.946Z</time>
      </trkpt>
      <trkpt lat="48.21148" lon="3.26545">
        <ele>67</ele>
        <time>2012-10-07T14:30:29.946Z</time>
      </trkpt>
      <trkpt lat="48.21142" lon="3.26551">
        <ele>66</ele>
        <time>2012-10-07T14:30:30.946Z</time>
      </trkpt>
      <trkpt lat="48.21136" lon="3.26554">
        <ele>66</ele>
        <time>2012-10-07T14:30:31.946Z</time>
      </trkpt>
      <trkpt lat="48.21129" lon="3.26558">
        <ele>66</ele>
        <time>2012-10-07T14:30:32.946Z</time>
      </trkpt>
      <trkpt lat="48.21123" lon="3.2656">
        <ele>66</ele>
        <time>2012-10-07T14:30:33.946Z</time>
      </trkpt>
      <trkpt lat="48.21115" lon="3.26564">
        <ele>66</ele>
        <time>2012-10-07T14:30:34.946Z</time>
      </trkpt>
      <trkpt lat="48.21109" lon="3.26566">
        <ele>66</ele>
        <time>2012-10-07T14:30:35.946Z</time>
      </trkpt>
      <trkpt lat="48.21101" lon="3.26569">
        <ele>66</ele>
        <time>2012-10-07T14:30:36.946Z</time>
      </trkpt>
      <trkpt lat="48.21093" lon="3.26571">
        <ele>66</ele>
        <time>2012-10-07T14:30:37.946Z</time>
      </trkpt>
      <trkpt lat="48.21085" lon="3.26573">
        <ele>66</ele>
        <time>2012-10-07T14:30:38.946Z</time>
      </trkpt>
      <trkpt lat="48.21078" lon="3.26573">
        <ele>66</ele>
        <time>2012-10-07T14:30:39.946Z</time>
      </trkpt>
      <trkpt lat="48.21069" lon="3.26573">
        <ele>66</ele>
        <time>2012-10-07T14:30:40.946Z</time>
      </trkpt>
      <trkpt lat="48.2106" lon="3.26573">
        <ele>66</ele>
        <time>2012-10-07T14:30:41.946Z</time>
      </trkpt>
      <trkpt lat="48.21052" lon="3.26571">
        <ele>66</ele>
        <time>2012-10-07T14:30:42.946Z</time>
      </trkpt>
      <trkpt lat="48.21043" lon="3.26569">
        <ele>66</ele>
        <time>2012-10-07T14:30:43.946Z</time>
      </trkpt>
      <trkpt lat="48.21035" lon="3.26566">
        <ele>66</ele>
        <time>2012-10-07T14:30:44.946Z</time>
      </trkpt>
      <trkpt lat="48.21027" lon="3.26562">
        <ele>66</ele>
        <time>2012-10-07T14:30:45.946Z</time>
      </trkpt>
      <trkpt lat="48.21018" lon="3.2656">
        <ele>66</ele>
        <time>2012-10-07T14:30:46.946Z</time>
      </trkpt>
      <trkpt lat="48.2101" lon="3.26558">
        <ele>66</ele>
        <time>2012-10-07T14:30:47.946Z</time>
      </trkpt>
      <trkpt lat="48.21002" lon="3.26556">
        <ele>66</ele>
        <time>2012-10-07T14:30:48.946Z</time>
      </trkpt>
      <trkpt lat="48.20994" lon="3.26554">
        <ele>65</ele>
        <time>2012-10-07T14:30:49.946Z</time>
      </trkpt>
      <trkpt lat="48.20986" lon="3.26551">
        <ele>66</ele>
        <time>2012-10-07T14:30:50.946Z</time>
      </trkpt>
      <trkpt lat="48.20979" lon="3.26551">
        <ele>65</ele>
        <time>2012-10-07T14:30:51.946Z</time>
      </trkpt>
      <trkpt lat="48.20971" lon="3.26551">
        <ele>65</ele>
        <time>2012-10-07T14:30:52.946Z</time>
      </trkpt>
      <trkpt lat="48.20965" lon="3.26554">
        <ele>65</ele>
        <time>2012-10-07T14:30:53.946Z</time>
      </trkpt>
      <trkpt lat="48.2096" lon="3.26558">
        <ele>65</ele>
        <time>2012-10-07T14:30:54.946Z</time>
      </trkpt>
      <trkpt lat="48.20954" lon="3.26566">
        <ele>65</ele>
        <time>2012-10-07T14:30:55.946Z</time>
      </trkpt>
      <trkpt lat="48.20953" lon="3.26579">
        <ele>65</ele>
        <time>2012-10-07T14:30:56.946Z</time>
      </trkpt>
      <trkpt lat="48.20954" lon="3.26588">
        <ele>65</ele>
        <time>2012-10-07T14:30:57.946Z</time>
      </trkpt>
      <trkpt lat="48.20956" lon="3.26599">
        <ele>65</ele>
        <time>2012-10-07T14:30:58.946Z</time>
      </trkpt>
      <trkpt lat="48.20957" lon="3.26609">
        <ele>65</ele>
        <time>2012-10-07T14:30:59.946Z</time>
      </trkpt>
      <trkpt lat="48.2096" lon="3.2662">
        <ele>65</ele>
        <time>2012-10-07T14:31:00.946Z</time>
      </trkpt>
      <trkpt lat="48.20961" lon="3.26631">
        <ele>65</ele>
        <time>2012-10-07T14:31:01.946Z</time>
      </trkpt>
      <trkpt lat="48.20962" lon="3.26642">
        <ele>65</ele>
        <time>2012-10-07T14:31:02.946Z</time>
      </trkpt>
      <trkpt lat="48.20963" lon="3.26652">
        <ele>65</ele>
        <time>2012-10-07T14:31:03.946Z</time>
      </trkpt>
      <trkpt lat="48.20962" lon="3.26663">
        <ele>65</ele>
        <time>2012-10-07T14:31:04.946Z</time>
      </trkpt>
      <trkpt lat="48.20961" lon="3.26674">
        <ele>65</ele>
        <time>2012-10-07T14:31:05.946Z</time>
      </trkpt>
      <trkpt lat="48.20957" lon="3.26684">
        <ele>65</ele>
        <time>2012-10-07T14:31:06.946Z</time>
      </trkpt>
      <trkpt lat="48.20953" lon="3.26693">
        <ele>65</ele>
        <time>2012-10-07T14:31:07.946Z</time>
      </trkpt>
      <trkpt lat="48.2095" lon="3.26702">
        <ele>65</ele>
        <time>2012-10-07T14:31:08.946Z</time>
      </trkpt>
      <trkpt lat="48.20946" lon="3.26708">
        <ele>65</ele>
        <time>2012-10-07T14:31:09.946Z</time>
      </trkpt>
      <trkpt lat="48.20941" lon="3.26717">
        <ele>65</ele>
        <time>2012-10-07T14:31:10.946Z</time>
      </trkpt>
      <trkpt lat="48.20937" lon="3.26723">
        <ele>65</ele>
        <time>2012-10-07T14:31:11.946Z</time>
      </trkpt>
      <trkpt lat="48.20932" lon="3.26732">
        <ele>64</ele>
        <time>2012-10-07T14:31:12.946Z</time>
      </trkpt>
      <trkpt lat="48.20926" lon="3.26738">
        <ele>64</ele>
        <time>2012-10-07T14:31:13.946Z</time>
      </trkpt>
      <trkpt lat="48.20922" lon="3.26747">
        <ele>64</ele>
        <time>2012-10-07T14:31:14.946Z</time>
      </trkpt>
      <trkpt lat="48.20917" lon="3.26753">
        <ele>64</ele>
        <time>2012-10-07T14:31:15.946Z</time>
      </trkpt>
      <trkpt lat="48.20911" lon="3.26762">
        <ele>64</ele>
        <time>2012-10-07T14:31:16.946Z</time>
      </trkpt>
      <trkpt lat="48.20906" lon="3.26768">
        <ele>64</ele>
        <time>2012-10-07T14:31:17.946Z</time>
      </trkpt>
      <trkpt lat="48.20902" lon="3.26774">
        <ele>64</ele>
        <time>2012-10-07T14:31:18.946Z</time>
      </trkpt>
      <trkpt lat="48.20897" lon="3.26781">
        <ele>64</ele>
        <time>2012-10-07T14:31:19.946Z</time>
      </trkpt>
      <trkpt lat="48.20893" lon="3.26787">
        <ele>64</ele>
        <time>2012-10-07T14:31:20.946Z</time>
      </trkpt>
      <trkpt lat="48.20889" lon="3.26794">
        <ele>64</ele>
        <time>2012-10-07T14:31:21.946Z</time>
      </trkpt>
      <trkpt lat="48.20884" lon="3.268">
        <ele>64</ele>
        <time>2012-10-07T14:31:22.946Z</time>
      </trkpt>
      <trkpt lat="48.2088" lon="3.26807">
        <ele>64</ele>
        <time>2012-10-07T14:31:23.946Z</time>
      </trkpt>
      <trkpt lat="48.20876" lon="3.26811">
        <ele>64</ele>
        <time>2012-10-07T14:31:24.946Z</time>
      </trkpt>
      <trkpt lat="48.20872" lon="3.26818">
        <ele>65</ele>
        <time>2012-10-07T14:31:25.946Z</time>
      </trkpt>
      <trkpt lat="48.20866" lon="3.26826">
        <ele>65</ele>
        <time>2012-10-07T14:31:26.946Z</time>
      </trkpt>
      <trkpt lat="48.20862" lon="3.26832">
        <ele>65</ele>
        <time>2012-10-07T14:31:27.946Z</time>
      </trkpt>
      <trkpt lat="48.20858" lon="3.26839">
        <ele>65</ele>
        <time>2012-10-07T14:31:28.946Z</time>
      </trkpt>
      <trkpt lat="48.20852" lon="3.26845">
        <ele>65</ele>
        <time>2012-10-07T14:31:29.946Z</time>
      </trkpt>
      <trkpt lat="48.20848" lon="3.26852">
        <ele>65</ele>
        <time>2012-10-07T14:31:30.946Z</time>
      </trkpt>
      <trkpt lat="48.20844" lon="3.26858">
        <ele>65</ele>
        <time>2012-10-07T14:31:31.946Z</time>
      </trkpt>
      <trkpt lat="48.20838" lon="3.26865">
        <ele>65</ele>
        <time>2012-10-07T14:31:32.946Z</time>
      </trkpt>
      <trkpt lat="48.20834" lon="3.26873">
        <ele>65</ele>
        <time>2012-10-07T14:31:33.946Z</time>
      </trkpt>
      <trkpt lat="48.20829" lon="3.2688">
        <ele>66</ele>
        <time>2012-10-07T14:31:34.946Z</time>
      </trkpt>
      <trkpt lat="48.20824" lon="3.26886">
        <ele>66</ele>
        <time>2012-10-07T14:31:35.946Z</time>
      </trkpt>
      <trkpt lat="48.20819" lon="3.26893">
        <ele>66</ele>
        <time>2012-10-07T14:31:36.946Z</time>
      </trkpt>
      <trkpt lat="48.20815" lon="3.26899">
        <ele>66</ele>
        <time>2012-10-07T14:31:37.946Z</time>
      </trkpt>
      <trkpt lat="48.20809" lon="3.26908">
        <ele>66</ele>
        <time>2012-10-07T14:31:38.946Z</time>
      </trkpt>
      <trkpt lat="48.20804" lon="3.26914">
        <ele>66</ele>
        <time>2012-10-07T14:31:39.946Z</time>
      </trkpt>
      <trkpt lat="48.208" lon="3.26923">
        <ele>65</ele>
        <time>2012-10-07T14:31:40.946Z</time>
      </trkpt>
      <trkpt lat="48.20794" lon="3.26929">
        <ele>65</ele>
        <time>2012-10-07T14:31:41.946Z</time>
      </trkpt>
      <trkpt lat="48.20789" lon="3.26938">
        <ele>65</ele>
        <time>2012-10-07T14:31:42.946Z</time>
      </trkpt>
      <trkpt lat="48.20784" lon="3.26944">
        <ele>64</ele>
        <time>2012-10-07T14:31:43.946Z</time>
      </trkpt>
      <trkpt lat="48.20778" lon="3.26953">
        <ele>64</ele>
        <time>2012-10-07T14:31:44.946Z</time>
      </trkpt>
      <trkpt lat="48.20773" lon="3.26959">
        <ele>64</ele>
        <time>2012-10-07T14:31:45.946Z</time>
      </trkpt>
      <trkpt lat="48.20768" lon="3.26968">
        <ele>64</ele>
        <time>2012-10-07T14:31:46.946Z</time>
      </trkpt>
      <trkpt lat="48.20762" lon="3.26974">
        <ele>64</ele>
        <time>2012-10-07T14:31:47.946Z</time>
      </trkpt>
      <trkpt lat="48.20758" lon="3.2698">
        <ele>64</ele>
        <time>2012-10-07T14:31:48.946Z</time>
      </trkpt>
      <trkpt lat="48.20752" lon="3.26987">
        <ele>64</ele>
        <time>2012-10-07T14:31:49.946Z</time>
      </trkpt>
      <trkpt lat="48.20747" lon="3.26991">
        <ele>64</ele>
        <time>2012-10-07T14:31:50.946Z</time>
      </trkpt>
      <trkpt lat="48.20743" lon="3.26998">
        <ele>63</ele>
        <time>2012-10-07T14:31:51.946Z</time>
      </trkpt>
      <trkpt lat="48.20737" lon="3.27002">
        <ele>64</ele>
        <time>2012-10-07T14:31:52.946Z</time>
      </trkpt>
      <trkpt lat="48.20733" lon="3.27006">
        <ele>64</ele>
        <time>2012-10-07T14:31:53.946Z</time>
      </trkpt>
      <trkpt lat="48.20729" lon="3.27011">
        <ele>64</ele>
        <time>2012-10-07T14:31:54.946Z</time>
      </trkpt>
      <trkpt lat="48.20724" lon="3.27013">
        <ele>64</ele>
        <time>2012-10-07T14:31:55.946Z</time>
      </trkpt>
      <trkpt lat="48.20719" lon="3.27015">
        <ele>64</ele>
        <time>2012-10-07T14:31:56.946Z</time>
      </trkpt>
      <trkpt lat="48.20711" lon="3.27019">
        <ele>65</ele>
        <time>2012-10-07T14:31:58.946Z</time>
      </trkpt>
      <trkpt lat="48.20702" lon="3.27019">
        <ele>65</ele>
        <time>2012-10-07T14:32:00.946Z</time>
      </trkpt>
      <trkpt lat="48.20696" lon="3.27019">
        <ele>65</ele>
        <time>2012-10-07T14:32:02.946Z</time>
      </trkpt>
      <trkpt lat="48.20688" lon="3.27026">
        <ele>65</ele>
        <time>2012-10-07T14:32:04.946Z</time>
      </trkpt>
      <trkpt lat="48.20685" lon="3.27032">
        <ele>65</ele>
        <time>2012-10-07T14:32:05.946Z</time>
      </trkpt>
      <trkpt lat="48.20682" lon="3.27038">
        <ele>65</ele>
        <time>2012-10-07T14:32:06.946Z</time>
      </trkpt>
      <trkpt lat="48.20677" lon="3.27043">
        <ele>65</ele>
        <time>2012-10-07T14:32:07.946Z</time>
      </trkpt>
      <trkpt lat="48.20673" lon="3.27047">
        <ele>65</ele>
        <time>2012-10-07T14:32:08.946Z</time>
      </trkpt>
      <trkpt lat="48.20668" lon="3.27051">
        <ele>65</ele>
        <time>2012-10-07T14:32:09.946Z</time>
      </trkpt>
      <trkpt lat="48.20662" lon="3.27056">
        <ele>66</ele>
        <time>2012-10-07T14:32:10.946Z</time>
      </trkpt>
      <trkpt lat="48.20657" lon="3.27058">
        <ele>66</ele>
        <time>2012-10-07T14:32:11.946Z</time>
      </trkpt>
      <trkpt lat="48.20652" lon="3.27062">
        <ele>66</ele>
        <time>2012-10-07T14:32:12.946Z</time>
      </trkpt>
      <trkpt lat="48.20646" lon="3.27064">
        <ele>66</ele>
        <time>2012-10-07T14:32:13.946Z</time>
      </trkpt>
      <trkpt lat="48.2064" lon="3.27066">
        <ele>67</ele>
        <time>2012-10-07T14:32:14.946Z</time>
      </trkpt>
      <trkpt lat="48.20634" lon="3.27068">
        <ele>67</ele>
        <time>2012-10-07T14:32:15.946Z</time>
      </trkpt>
      <trkpt lat="48.20628" lon="3.27071">
        <ele>67</ele>
        <time>2012-10-07T14:32:16.946Z</time>
      </trkpt>
      <trkpt lat="48.20623" lon="3.27073">
        <ele>67</ele>
        <time>2012-10-07T14:32:17.946Z</time>
      </trkpt>
      <trkpt lat="48.20617" lon="3.27077">
        <ele>67</ele>
        <time>2012-10-07T14:32:18.946Z</time>
      </trkpt>
      <trkpt lat="48.20611" lon="3.27079">
        <ele>67</ele>
        <time>2012-10-07T14:32:19.946Z</time>
      </trkpt>
      <trkpt lat="48.20604" lon="3.27081">
        <ele>67</ele>
        <time>2012-10-07T14:32:20.946Z</time>
      </trkpt>
      <trkpt lat="48.20599" lon="3.27084">
        <ele>66</ele>
        <time>2012-10-07T14:32:21.946Z</time>
      </trkpt>
      <trkpt lat="48.20593" lon="3.27088">
        <ele>66</ele>
        <time>2012-10-07T14:32:22.946Z</time>
      </trkpt>
      <trkpt lat="48.20586" lon="3.27092">
        <ele>67</ele>
        <time>2012-10-07T14:32:23.946Z</time>
      </trkpt>
      <trkpt lat="48.2058" lon="3.27094">
        <ele>66</ele>
        <time>2012-10-07T14:32:24.946Z</time>
      </trkpt>
      <trkpt lat="48.20573" lon="3.27099">
        <ele>66</ele>
        <time>2012-10-07T14:32:25.946Z</time>
      </trkpt>
      <trkpt lat="48.20567" lon="3.27101">
        <ele>66</ele>
        <time>2012-10-07T14:32:26.946Z</time>
      </trkpt>
      <trkpt lat="48.2056" lon="3.27105">
        <ele>66</ele>
        <time>2012-10-07T14:32:27.946Z</time>
      </trkpt>
      <trkpt lat="48.20554" lon="3.27107">
        <ele>66</ele>
        <time>2012-10-07T14:32:28.946Z</time>
      </trkpt>
      <trkpt lat="48.20548" lon="3.27111">
        <ele>66</ele>
        <time>2012-10-07T14:32:29.946Z</time>
      </trkpt>
      <trkpt lat="48.20542" lon="3.27114">
        <ele>66</ele>
        <time>2012-10-07T14:32:30.946Z</time>
      </trkpt>
      <trkpt lat="48.20536" lon="3.27118">
        <ele>66</ele>
        <time>2012-10-07T14:32:31.946Z</time>
      </trkpt>
      <trkpt lat="48.20529" lon="3.2712">
        <ele>66</ele>
        <time>2012-10-07T14:32:32.946Z</time>
      </trkpt>
      <trkpt lat="48.20523" lon="3.27122">
        <ele>66</ele>
        <time>2012-10-07T14:32:33.946Z</time>
      </trkpt>
      <trkpt lat="48.20518" lon="3.27126">
        <ele>65</ele>
        <time>2012-10-07T14:32:34.946Z</time>
      </trkpt>
      <trkpt lat="48.20511" lon="3.27131">
        <ele>65</ele>
        <time>2012-10-07T14:32:35.946Z</time>
      </trkpt>
      <trkpt lat="48.20505" lon="3.27133">
        <ele>65</ele>
        <time>2012-10-07T14:32:36.946Z</time>
      </trkpt>
      <trkpt lat="48.20499" lon="3.27135">
        <ele>65</ele>
        <time>2012-10-07T14:32:37.946Z</time>
      </trkpt>
      <trkpt lat="48.20493" lon="3.27139">
        <ele>65</ele>
        <time>2012-10-07T14:32:38.946Z</time>
      </trkpt>
      <trkpt lat="48.20486" lon="3.27142">
        <ele>65</ele>
        <time>2012-10-07T14:32:39.946Z</time>
      </trkpt>
      <trkpt lat="48.20481" lon="3.27146">
        <ele>65</ele>
        <time>2012-10-07T14:32:40.946Z</time>
      </trkpt>
      <trkpt lat="48.20475" lon="3.2715">
        <ele>65</ele>
        <time>2012-10-07T14:32:41.946Z</time>
      </trkpt>
      <trkpt lat="48.20468" lon="3.27152">
        <ele>65</ele>
        <time>2012-10-07T14:32:42.946Z</time>
      </trkpt>
      <trkpt lat="48.20462" lon="3.27154">
        <ele>65</ele>
        <time>2012-10-07T14:32:43.946Z</time>
      </trkpt>
      <trkpt lat="48.20456" lon="3.27159">
        <ele>65</ele>
        <time>2012-10-07T14:32:44.946Z</time>
      </trkpt>
      <trkpt lat="48.2045" lon="3.27161">
        <ele>65</ele>
        <time>2012-10-07T14:32:45.946Z</time>
      </trkpt>
      <trkpt lat="48.20444" lon="3.27165">
        <ele>65</ele>
        <time>2012-10-07T14:32:46.946Z</time>
      </trkpt>
      <trkpt lat="48.20439" lon="3.27167">
        <ele>65</ele>
        <time>2012-10-07T14:32:47.946Z</time>
      </trkpt>
      <trkpt lat="48.20434" lon="3.27172">
        <ele>65</ele>
        <time>2012-10-07T14:32:48.946Z</time>
      </trkpt>
      <trkpt lat="48.20428" lon="3.27178">
        <ele>65</ele>
        <time>2012-10-07T14:32:49.946Z</time>
      </trkpt>
      <trkpt lat="48.20425" lon="3.27186">
        <ele>65</ele>
        <time>2012-10-07T14:32:50.946Z</time>
      </trkpt>
      <trkpt lat="48.20423" lon="3.27202">
        <ele>65</ele>
        <time>2012-10-07T14:32:52.946Z</time>
      </trkpt>
      <trkpt lat="48.20425" lon="3.27217">
        <ele>66</ele>
        <time>2012-10-07T14:32:54.946Z</time>
      </trkpt>
      <trkpt lat="48.20427" lon="3.27232">
        <ele>66</ele>
        <time>2012-10-07T14:32:56.946Z</time>
      </trkpt>
      <trkpt lat="48.2043" lon="3.2724">
        <ele>66</ele>
        <time>2012-10-07T14:32:57.946Z</time>
      </trkpt>
      <trkpt lat="48.20433" lon="3.27255">
        <ele>66</ele>
        <time>2012-10-07T14:32:59.946Z</time>
      </trkpt>
      <trkpt lat="48.20435" lon="3.27268">
        <ele>66</ele>
        <time>2012-10-07T14:33:01.946Z</time>
      </trkpt>
      <trkpt lat="48.20437" lon="3.27281">
        <ele>66</ele>
        <time>2012-10-07T14:33:03.946Z</time>
      </trkpt>
      <trkpt lat="48.20438" lon="3.27287">
        <ele>66</ele>
        <time>2012-10-07T14:33:04.946Z</time>
      </trkpt>
      <trkpt lat="48.2044" lon="3.27298">
        <ele>66</ele>
        <time>2012-10-07T14:33:06.946Z</time>
      </trkpt>
      <trkpt lat="48.20442" lon="3.27307">
        <ele>66</ele>
        <time>2012-10-07T14:33:08.946Z</time>
      </trkpt>
      <trkpt lat="48.20444" lon="3.27317">
        <ele>66</ele>
        <time>2012-10-07T14:33:10.946Z</time>
      </trkpt>
      <trkpt lat="48.20446" lon="3.27328">
        <ele>66</ele>
        <time>2012-10-07T14:33:12.946Z</time>
      </trkpt>
      <trkpt lat="48.20447" lon="3.27337">
        <ele>67</ele>
        <time>2012-10-07T14:33:14.946Z</time>
      </trkpt>
      <trkpt lat="48.20449" lon="3.27348">
        <ele>67</ele>
        <time>2012-10-07T14:33:16.946Z</time>
      </trkpt>
      <trkpt lat="48.2045" lon="3.27356">
        <ele>67</ele>
        <time>2012-10-07T14:33:18.946Z</time>
      </trkpt>
      <trkpt lat="48.20452" lon="3.27367">
        <ele>67</ele>
        <time>2012-10-07T14:33:20.946Z</time>
      </trkpt>
      <trkpt lat="48.20453" lon="3.27378">
        <ele>67</ele>
        <time>2012-10-07T14:33:22.946Z</time>
      </trkpt>
      <trkpt lat="48.20454" lon="3.27388">
        <ele>67</ele>
        <time>2012-10-07T14:33:24.946Z</time>
      </trkpt>
      <trkpt lat="48.20456" lon="3.27399">
        <ele>67</ele>
        <time>2012-10-07T14:33:26.946Z</time>
      </trkpt>
      <trkpt lat="48.20458" lon="3.2741">
        <ele>67</ele>
        <time>2012-10-07T14:33:28.946Z</time>
      </trkpt>
      <trkpt lat="48.20461" lon="3.2742">
        <ele>67</ele>
        <time>2012-10-07T14:33:30.946Z</time>
      </trkpt>
      <trkpt lat="48.20462" lon="3.27427">
        <ele>67</ele>
        <time>2012-10-07T14:33:31.946Z</time>
      </trkpt>
      <trkpt lat="48.20464" lon="3.2744">
        <ele>67</ele>
        <time>2012-10-07T14:33:33.946Z</time>
      </trkpt>
      <trkpt lat="48.20465" lon="3.2745">
        <ele>67</ele>
        <time>2012-10-07T14:33:35.946Z</time>
      </trkpt>
      <trkpt lat="48.20467" lon="3.27463">
        <ele>67</ele>
        <time>2012-10-07T14:33:37.946Z</time>
      </trkpt>
      <trkpt lat="48.20469" lon="3.2747">
        <ele>67</ele>
        <time>2012-10-07T14:33:38.946Z</time>
      </trkpt>
      <trkpt lat="48.20471" lon="3.2748">
        <ele>66</ele>
        <time>2012-10-07T14:33:40.946Z</time>
      </trkpt>
      <trkpt lat="48.20474" lon="3.27493">
        <ele>66</ele>
        <time>2012-10-07T14:33:42.946Z</time>
      </trkpt>
      <trkpt lat="48.20476" lon="3.27506">
        <ele>66</ele>
        <time>2012-10-07T14:33:44.946Z</time>
      </trkpt>
      <trkpt lat="48.20478" lon="3.27519">
        <ele>66</ele>
        <time>2012-10-07T14:33:46.946Z</time>
      </trkpt>
      <trkpt lat="48.2048" lon="3.27534">
        <ele>66</ele>
        <time>2012-10-07T14:33:48.946Z</time>
      </trkpt>
      <trkpt lat="48.20481" lon="3.27541">
        <ele>66</ele>
        <time>2012-10-07T14:33:49.946Z</time>
      </trkpt>
      <trkpt lat="48.20483" lon="3.27554">
        <ele>66</ele>
        <time>2012-10-07T14:33:51.946Z</time>
      </trkpt>
      <trkpt lat="48.20484" lon="3.27562">
        <ele>65</ele>
        <time>2012-10-07T14:33:52.946Z</time>
      </trkpt>
      <trkpt lat="48.20486" lon="3.27568">
        <ele>65</ele>
        <time>2012-10-07T14:33:53.946Z</time>
      </trkpt>
      <trkpt lat="48.20488" lon="3.27581">
        <ele>65</ele>
        <time>2012-10-07T14:33:55.946Z</time>
      </trkpt>
      <trkpt lat="48.2049" lon="3.2759">
        <ele>65</ele>
        <time>2012-10-07T14:33:56.946Z</time>
      </trkpt>
      <trkpt lat="48.20491" lon="3.27596">
        <ele>65</ele>
        <time>2012-10-07T14:33:57.946Z</time>
      </trkpt>
      <trkpt lat="48.20493" lon="3.27605">
        <ele>65</ele>
        <time>2012-10-07T14:33:58.946Z</time>
      </trkpt>
      <trkpt lat="48.20495" lon="3.2762">
        <ele>65</ele>
        <time>2012-10-07T14:34:00.946Z</time>
      </trkpt>
      <trkpt lat="48.20497" lon="3.27631">
        <ele>65</ele>
        <time>2012-10-07T14:34:01.946Z</time>
      </trkpt>
      <trkpt lat="48.20498" lon="3.27639">
        <ele>65</ele>
        <time>2012-10-07T14:34:02.946Z</time>
      </trkpt>
      <trkpt lat="48.205" lon="3.27648">
        <ele>65</ele>
        <time>2012-10-07T14:34:03.946Z</time>
      </trkpt>
      <trkpt lat="48.20501" lon="3.27659">
        <ele>64</ele>
        <time>2012-10-07T14:34:04.946Z</time>
      </trkpt>
      <trkpt lat="48.20504" lon="3.27669">
        <ele>64</ele>
        <time>2012-10-07T14:34:05.946Z</time>
      </trkpt>
      <trkpt lat="48.20506" lon="3.2768">
        <ele>65</ele>
        <time>2012-10-07T14:34:06.946Z</time>
      </trkpt>
      <trkpt lat="48.20508" lon="3.27691">
        <ele>65</ele>
        <time>2012-10-07T14:34:07.946Z</time>
      </trkpt>
      <trkpt lat="48.20509" lon="3.27702">
        <ele>65</ele>
        <time>2012-10-07T14:34:08.946Z</time>
      </trkpt>
      <trkpt lat="48.20511" lon="3.27712">
        <ele>65</ele>
        <time>2012-10-07T14:34:09.946Z</time>
      </trkpt>
      <trkpt lat="48.20512" lon="3.27723">
        <ele>65</ele>
        <time>2012-10-07T14:34:10.946Z</time>
      </trkpt>
      <trkpt lat="48.20513" lon="3.27734">
        <ele>65</ele>
        <time>2012-10-07T14:34:11.946Z</time>
      </trkpt>
      <trkpt lat="48.20511" lon="3.27744">
        <ele>64</ele>
        <time>2012-10-07T14:34:12.946Z</time>
      </trkpt>
      <trkpt lat="48.20509" lon="3.27755">
        <ele>64</ele>
        <time>2012-10-07T14:34:13.946Z</time>
      </trkpt>
      <trkpt lat="48.20507" lon="3.27766">
        <ele>64</ele>
        <time>2012-10-07T14:34:14.946Z</time>
      </trkpt>
      <trkpt lat="48.20504" lon="3.27777">
        <ele>64</ele>
        <time>2012-10-07T14:34:15.946Z</time>
      </trkpt>
      <trkpt lat="48.20497" lon="3.27785">
        <ele>64</ele>
        <time>2012-10-07T14:34:16.946Z</time>
      </trkpt>
      <trkpt lat="48.20491" lon="3.27792">
        <ele>64</ele>
        <time>2012-10-07T14:34:17.946Z</time>
      </trkpt>
      <trkpt lat="48.20484" lon="3.27798">
        <ele>65</ele>
        <time>2012-10-07T14:34:18.946Z</time>
      </trkpt>
      <trkpt lat="48.20478" lon="3.27804">
        <ele>65</ele>
        <time>2012-10-07T14:34:19.946Z</time>
      </trkpt>
      <trkpt lat="48.20472" lon="3.27811">
        <ele>65</ele>
        <time>2012-10-07T14:34:20.946Z</time>
      </trkpt>
      <trkpt lat="48.20466" lon="3.27817">
        <ele>65</ele>
        <time>2012-10-07T14:34:21.946Z</time>
      </trkpt>
      <trkpt lat="48.20458" lon="3.27824">
        <ele>65</ele>
        <time>2012-10-07T14:34:22.946Z</time>
      </trkpt>
      <trkpt lat="48.20452" lon="3.2783">
        <ele>65</ele>
        <time>2012-10-07T14:34:23.946Z</time>
      </trkpt>
      <trkpt lat="48.20447" lon="3.27837">
        <ele>65</ele>
        <time>2012-10-07T14:34:24.946Z</time>
      </trkpt>
      <trkpt lat="48.2044" lon="3.27843">
        <ele>65</ele>
        <time>2012-10-07T14:34:25.946Z</time>
      </trkpt>
      <trkpt lat="48.20435" lon="3.2785">
        <ele>65</ele>
        <time>2012-10-07T14:34:26.946Z</time>
      </trkpt>
      <trkpt lat="48.20428" lon="3.27856">
        <ele>65</ele>
        <time>2012-10-07T14:34:27.946Z</time>
      </trkpt>
      <trkpt lat="48.20423" lon="3.27862">
        <ele>65</ele>
        <time>2012-10-07T14:34:28.946Z</time>
      </trkpt>
      <trkpt lat="48.20417" lon="3.27867">
        <ele>65</ele>
        <time>2012-10-07T14:34:29.946Z</time>
      </trkpt>
      <trkpt lat="48.20411" lon="3.27873">
        <ele>66</ele>
        <time>2012-10-07T14:34:30.946Z</time>
      </trkpt>
      <trkpt lat="48.20405" lon="3.2788">
        <ele>67</ele>
        <time>2012-10-07T14:34:31.946Z</time>
      </trkpt>
      <trkpt lat="48.204" lon="3.27886">
        <ele>67</ele>
        <time>2012-10-07T14:34:32.946Z</time>
      </trkpt>
      <trkpt lat="48.20394" lon="3.27892">
        <ele>67</ele>
        <time>2012-10-07T14:34:33.946Z</time>
      </trkpt>
      <trkpt lat="48.20388" lon="3.27899">
        <ele>67</ele>
        <time>2012-10-07T14:34:34.946Z</time>
      </trkpt>
      <trkpt lat="48.20382" lon="3.27903">
        <ele>67</ele>
        <time>2012-10-07T14:34:35.946Z</time>
      </trkpt>
      <trkpt lat="48.20376" lon="3.2791">
        <ele>67</ele>
        <time>2012-10-07T14:34:36.946Z</time>
      </trkpt>
      <trkpt lat="48.2037" lon="3.27916">
        <ele>67</ele>
        <time>2012-10-07T14:34:37.946Z</time>
      </trkpt>
      <trkpt lat="48.20364" lon="3.27922">
        <ele>67</ele>
        <time>2012-10-07T14:34:38.946Z</time>
      </trkpt>
      <trkpt lat="48.20359" lon="3.27927">
        <ele>67</ele>
        <time>2012-10-07T14:34:39.946Z</time>
      </trkpt>
      <trkpt lat="48.20353" lon="3.27933">
        <ele>67</ele>
        <time>2012-10-07T14:34:40.946Z</time>
      </trkpt>
      <trkpt lat="48.20348" lon="3.2794">
        <ele>67</ele>
        <time>2012-10-07T14:34:41.946Z</time>
      </trkpt>
      <trkpt lat="48.20343" lon="3.27944">
        <ele>67</ele>
        <time>2012-10-07T14:34:42.946Z</time>
      </trkpt>
      <trkpt lat="48.20337" lon="3.2795">
        <ele>67</ele>
        <time>2012-10-07T14:34:43.946Z</time>
      </trkpt>
      <trkpt lat="48.20332" lon="3.27955">
        <ele>67</ele>
        <time>2012-10-07T14:34:44.946Z</time>
      </trkpt>
      <trkpt lat="48.20326" lon="3.27961">
        <ele>67</ele>
        <time>2012-10-07T14:34:45.946Z</time>
      </trkpt>
      <trkpt lat="48.20322" lon="3.27968">
        <ele>67</ele>
        <time>2012-10-07T14:34:46.946Z</time>
      </trkpt>
      <trkpt lat="48.20317" lon="3.27972">
        <ele>67</ele>
        <time>2012-10-07T14:34:47.946Z</time>
      </trkpt>
      <trkpt lat="48.20312" lon="3.27978">
        <ele>67</ele>
        <time>2012-10-07T14:34:48.946Z</time>
      </trkpt>
      <trkpt lat="48.20307" lon="3.27983">
        <ele>67</ele>
        <time>2012-10-07T14:34:49.946Z</time>
      </trkpt>
      <trkpt lat="48.20303" lon="3.27989">
        <ele>67</ele>
        <time>2012-10-07T14:34:50.946Z</time>
      </trkpt>
      <trkpt lat="48.20299" lon="3.27993">
        <ele>67</ele>
        <time>2012-10-07T14:34:51.946Z</time>
      </trkpt>
      <trkpt lat="48.20294" lon="3.28">
        <ele>67</ele>
        <time>2012-10-07T14:34:52.946Z</time>
      </trkpt>
      <trkpt lat="48.2029" lon="3.28004">
        <ele>67</ele>
        <time>2012-10-07T14:34:53.946Z</time>
      </trkpt>
      <trkpt lat="48.20286" lon="3.28008">
        <ele>67</ele>
        <time>2012-10-07T14:34:54.946Z</time>
      </trkpt>
      <trkpt lat="48.20282" lon="3.28013">
        <ele>67</ele>
        <time>2012-10-07T14:34:55.946Z</time>
      </trkpt>
      <trkpt lat="48.20275" lon="3.28019">
        <ele>67</ele>
        <time>2012-10-07T14:34:57.946Z</time>
      </trkpt>
      <trkpt lat="48.2027" lon="3.28026">
        <ele>67</ele>
        <time>2012-10-07T14:34:59.946Z</time>
      </trkpt>
      <trkpt lat="48.20265" lon="3.28032">
        <ele>67</ele>
        <time>2012-10-07T14:35:01.946Z</time>
      </trkpt>
      <trkpt lat="48.20262" lon="3.2804">
        <ele>67</ele>
        <time>2012-10-07T14:35:03.946Z</time>
      </trkpt>
      <trkpt lat="48.20257" lon="3.28049">
        <ele>67</ele>
        <time>2012-10-07T14:35:07.946Z</time>
      </trkpt>
      <trkpt lat="48.20257" lon="3.28049">
        <ele>67</ele>
        <time>2012-10-07T14:35:07.946Z</time>
      </trkpt>
    </trkseg>
  </trk>
</gpx>